<?xml version="1.0" encoding="UTF-8" standalone="no" ?>
<gpx xmlns="http://www.topografix.com/GPX/1/1" xmlns:xsi="http://www.w3.org/2001/XMLSchema-instance" xsi:schemaLocation="http://www.topografix.com/GPX/1/1 http://www.topografix.com/GPX/1/1/gpx.xsd" version="1.1" creator="VisuGPX - https://www.visugpx.com">
  <metadata>
    <name>2eoQSGSU2z</name>
    <desc><![CDATA[

]]></desc>
  </metadata>
  <trk>
    <name><![CDATA[2eoQSGSU2z_1]]></name>
    <trkseg>
      <trkpt lat="44.60017" lon="2.22731">
        <ele>274.022</ele>
        <time>2016-09-14T14:29:54Z</time>
      </trkpt>
      <trkpt lat="44.60245" lon="2.2269">
        <ele>300.659</ele>
        <time>2016-09-14T14:30:14Z</time>
      </trkpt>
      <trkpt lat="44.60378" lon="2.22645">
        <ele>323.248</ele>
        <time>2016-09-14T14:30:34Z</time>
      </trkpt>
      <trkpt lat="44.60454" lon="2.22647">
        <ele>329.147</ele>
        <time>2016-09-14T14:30:54Z</time>
      </trkpt>
      <trkpt lat="44.60546" lon="2.22589">
        <ele>333.453</ele>
        <time>2016-09-14T14:31:14Z</time>
      </trkpt>
      <trkpt lat="44.60573" lon="2.22548">
        <ele>331.314</ele>
        <time>2016-09-14T14:31:34Z</time>
      </trkpt>
      <trkpt lat="44.60868" lon="2.22428">
        <ele>322.657</ele>
        <time>2016-09-14T14:31:54Z</time>
      </trkpt>
      <trkpt lat="44.61013" lon="2.22347">
        <ele>318.296</ele>
        <time>2016-09-14T14:32:14Z</time>
      </trkpt>
      <trkpt lat="44.61032" lon="2.22272">
        <ele>321.122</ele>
        <time>2016-09-14T14:32:34Z</time>
      </trkpt>
      <trkpt lat="44.61039" lon="2.22143">
        <ele>321.462</ele>
        <time>2016-09-14T14:32:54Z</time>
      </trkpt>
      <trkpt lat="44.61148" lon="2.21933">
        <ele>321.308</ele>
        <time>2016-09-14T14:33:14Z</time>
      </trkpt>
      <trkpt lat="44.61249" lon="2.2181">
        <ele>327.808</ele>
        <time>2016-09-14T14:33:34Z</time>
      </trkpt>
      <trkpt lat="44.61293" lon="2.21615">
        <ele>329.038</ele>
        <time>2016-09-14T14:33:54Z</time>
      </trkpt>
      <trkpt lat="44.61311" lon="2.21583">
        <ele>329.495</ele>
        <time>2019-03-30T16:53:01Z</time>
      </trkpt>
      <trkpt lat="44.61307" lon="2.21425">
        <ele>335.454</ele>
        <time>2019-03-30T16:53:21Z</time>
      </trkpt>
      <trkpt lat="44.61397" lon="2.21267">
        <ele>340.933</ele>
        <time>2016-09-14T14:35:14Z</time>
      </trkpt>
      <trkpt lat="44.61403" lon="2.21192">
        <ele>347.199</ele>
        <time>2016-09-14T14:35:34Z</time>
      </trkpt>
      <trkpt lat="44.61441" lon="2.21089">
        <ele>350.48</ele>
        <time>2016-09-14T14:35:54Z</time>
      </trkpt>
      <trkpt lat="44.61481" lon="2.21014">
        <ele>358.883</ele>
        <time>2019-03-30T16:54:41Z</time>
      </trkpt>
      <trkpt lat="44.61492" lon="2.20957">
        <ele>361.312</ele>
        <time>2019-03-30T16:55:01Z</time>
      </trkpt>
      <trkpt lat="44.61567" lon="2.20802">
        <ele>374.114</ele>
        <time>2019-03-30T16:55:21Z</time>
      </trkpt>
      <trkpt lat="44.6159" lon="2.20701">
        <ele>384.054</ele>
        <time>2019-03-30T16:55:41Z</time>
      </trkpt>
      <trkpt lat="44.6166" lon="2.20474">
        <ele>395.909</ele>
        <time>2019-03-30T16:56:01Z</time>
      </trkpt>
      <trkpt lat="44.61672" lon="2.20355">
        <ele>396.608</ele>
        <time>2016-09-14T14:38:14Z</time>
      </trkpt>
      <trkpt lat="44.61679" lon="2.20272">
        <ele>394.157</ele>
        <time>2016-09-14T14:38:34Z</time>
      </trkpt>
      <trkpt lat="44.61685" lon="2.20139">
        <ele>400.574</ele>
        <time>2019-03-30T16:57:01Z</time>
      </trkpt>
      <trkpt lat="44.61665" lon="2.20023">
        <ele>394.763</ele>
        <time>2019-03-30T16:57:21Z</time>
      </trkpt>
      <trkpt lat="44.61641" lon="2.19967">
        <ele>399.972</ele>
        <time>2016-09-14T14:39:54Z</time>
      </trkpt>
      <trkpt lat="44.61576" lon="2.1991">
        <ele>403.838</ele>
        <time>2019-03-30T16:58:01Z</time>
      </trkpt>
      <trkpt lat="44.61637" lon="2.19759">
        <ele>405.969</ele>
        <time>2019-03-30T16:58:21Z</time>
      </trkpt>
      <trkpt lat="44.61632" lon="2.19675">
        <ele>410.442</ele>
        <time>2019-03-30T16:58:41Z</time>
      </trkpt>
      <trkpt lat="44.61674" lon="2.19614">
        <ele>403.831</ele>
        <time>2019-03-30T16:59:01Z</time>
      </trkpt>
      <trkpt lat="44.61693" lon="2.1954">
        <ele>405.277</ele>
        <time>2019-03-30T16:59:21Z</time>
      </trkpt>
      <trkpt lat="44.617" lon="2.19274">
        <ele>397.361</ele>
        <time>2019-03-30T16:59:41Z</time>
      </trkpt>
      <trkpt lat="44.61765" lon="2.19222">
        <ele>400.727</ele>
        <time>2019-03-30T17:00:01Z</time>
      </trkpt>
      <trkpt lat="44.61818" lon="2.19111">
        <ele>414.008</ele>
        <time>2019-03-30T17:00:21Z</time>
      </trkpt>
      <trkpt lat="44.61833" lon="2.1906">
        <ele>416.033</ele>
        <time>2019-03-30T10:45:25Z</time>
      </trkpt>
      <trkpt lat="44.61833" lon="2.1906">
        <ele>416.03</ele>
        <time>2019-03-30T10:45:25Z</time>
      </trkpt>
      <trkpt lat="44.61763" lon="2.18981">
        <ele>409.389</ele>
        <time>2016-09-15T05:41:43Z</time>
      </trkpt>
      <trkpt lat="44.61696" lon="2.18858">
        <ele>393.328</ele>
        <time>2019-03-30T10:46:05Z</time>
      </trkpt>
      <trkpt lat="44.61734" lon="2.1879">
        <ele>392.814</ele>
        <time>2019-03-30T10:46:25Z</time>
      </trkpt>
      <trkpt lat="44.61851" lon="2.1878">
        <ele>374.345</ele>
        <time>2019-03-30T10:46:45Z</time>
      </trkpt>
      <trkpt lat="44.61898" lon="2.18725">
        <ele>366.278</ele>
        <time>2019-03-30T10:47:05Z</time>
      </trkpt>
      <trkpt lat="44.61914" lon="2.18647">
        <ele>363.167</ele>
        <time>2019-03-30T10:47:25Z</time>
      </trkpt>
      <trkpt lat="44.61918" lon="2.18289">
        <ele>375.231</ele>
        <time>2019-03-30T10:47:45Z</time>
      </trkpt>
      <trkpt lat="44.61931" lon="2.18203">
        <ele>379.261</ele>
        <time>2019-03-30T10:48:05Z</time>
      </trkpt>
      <trkpt lat="44.61903" lon="2.18159">
        <ele>380.107</ele>
        <time>2019-03-30T10:48:25Z</time>
      </trkpt>
      <trkpt lat="44.61811" lon="2.18142">
        <ele>385.308</ele>
        <time>2016-09-15T05:44:43Z</time>
      </trkpt>
      <trkpt lat="44.61764" lon="2.18114">
        <ele>386.689</ele>
        <time>2016-09-15T05:45:03Z</time>
      </trkpt>
      <trkpt lat="44.6168" lon="2.18035">
        <ele>388.056</ele>
        <time>2019-03-30T10:49:25Z</time>
      </trkpt>
      <trkpt lat="44.61692" lon="2.17983">
        <ele>392.125</ele>
        <time>2016-09-15T05:45:43Z</time>
      </trkpt>
      <trkpt lat="44.61734" lon="2.17877">
        <ele>389.664</ele>
        <time>2019-03-30T10:50:05Z</time>
      </trkpt>
      <trkpt lat="44.61789" lon="2.17783">
        <ele>379.73</ele>
        <time>2019-03-30T10:50:25Z</time>
      </trkpt>
      <trkpt lat="44.61836" lon="2.17777">
        <ele>375.031</ele>
        <time>2019-03-30T10:50:45Z</time>
      </trkpt>
      <trkpt lat="44.61867" lon="2.17732">
        <ele>375.354</ele>
        <time>2019-03-30T10:51:05Z</time>
      </trkpt>
      <trkpt lat="44.61868" lon="2.17694">
        <ele>376.313</ele>
        <time>2019-03-30T10:51:25Z</time>
      </trkpt>
      <trkpt lat="44.6189" lon="2.17668">
        <ele>377.996</ele>
        <time>2019-03-30T10:51:45Z</time>
      </trkpt>
      <trkpt lat="44.61899" lon="2.17614">
        <ele>377.331</ele>
        <time>2016-09-15T05:47:43Z</time>
      </trkpt>
      <trkpt lat="44.6193" lon="2.1759">
        <ele>376.324</ele>
        <time>2019-03-30T10:52:25Z</time>
      </trkpt>
      <trkpt lat="44.61999" lon="2.17428">
        <ele>367.808</ele>
        <time>2019-03-30T10:52:45Z</time>
      </trkpt>
      <trkpt lat="44.61921" lon="2.17187">
        <ele>358.045</ele>
        <time>2016-09-15T05:49:03Z</time>
      </trkpt>
      <trkpt lat="44.61907" lon="2.17054">
        <ele>351.462</ele>
        <time>2019-03-30T10:53:25Z</time>
      </trkpt>
      <trkpt lat="44.61928" lon="2.16854">
        <ele>345.811</ele>
        <time>2019-03-30T10:53:45Z</time>
      </trkpt>
      <trkpt lat="44.61783" lon="2.16814">
        <ele>341.52</ele>
        <time>2019-03-30T10:54:05Z</time>
      </trkpt>
      <trkpt lat="44.61693" lon="2.1686">
        <ele>341.126</ele>
        <time>2019-03-30T10:54:25Z</time>
      </trkpt>
      <trkpt lat="44.61669" lon="2.16664">
        <ele>324.657</ele>
        <time>2016-09-15T05:51:03Z</time>
      </trkpt>
      <trkpt lat="44.61589" lon="2.16397">
        <ele>287.59</ele>
        <time>2019-03-30T10:55:05Z</time>
      </trkpt>
      <trkpt lat="44.61462" lon="2.16391">
        <ele>284.399</ele>
        <time>2016-09-15T05:52:23Z</time>
      </trkpt>
      <trkpt lat="44.61392" lon="2.16435">
        <ele>281.168</ele>
        <time>2019-03-30T10:55:45Z</time>
      </trkpt>
      <trkpt lat="44.61375" lon="2.16359">
        <ele>277.442</ele>
        <time>2019-03-30T10:56:05Z</time>
      </trkpt>
      <trkpt lat="44.61401" lon="2.16269">
        <ele>276.626</ele>
        <time>2016-09-15T05:53:03Z</time>
      </trkpt>
      <trkpt lat="44.61498" lon="2.16261">
        <ele>285.108</ele>
        <time>2019-03-30T10:56:45Z</time>
      </trkpt>
      <trkpt lat="44.61589" lon="2.16145">
        <ele>285.122</ele>
        <time>2019-03-30T10:57:05Z</time>
      </trkpt>
      <trkpt lat="44.61642" lon="2.16247">
        <ele>292.179</ele>
        <time>2019-03-30T10:57:25Z</time>
      </trkpt>
      <trkpt lat="44.61793" lon="2.16093">
        <ele>286.068</ele>
        <time>2019-03-30T10:57:45Z</time>
      </trkpt>
      <trkpt lat="44.618" lon="2.16057">
        <ele>285.627</ele>
        <time>2019-03-30T10:58:05Z</time>
      </trkpt>
      <trkpt lat="44.61958" lon="2.15933">
        <ele>280.813</ele>
        <time>2019-03-30T10:58:25Z</time>
      </trkpt>
      <trkpt lat="44.62018" lon="2.15634">
        <ele>285.574</ele>
        <time>2019-03-30T10:58:45Z</time>
      </trkpt>
      <trkpt lat="44.6201" lon="2.1531">
        <ele>289.887</ele>
        <time>2016-09-15T05:55:43Z</time>
      </trkpt>
      <trkpt lat="44.62133" lon="2.1507">
        <ele>281.246</ele>
        <time>2019-03-30T10:59:25Z</time>
      </trkpt>
      <trkpt lat="44.62186" lon="2.14747">
        <ele>261.316</ele>
        <time>2019-03-30T10:59:45Z</time>
      </trkpt>
      <trkpt lat="44.62225" lon="2.14809">
        <ele>271.876</ele>
        <time>2019-03-30T11:00:05Z</time>
      </trkpt>
      <trkpt lat="44.62287" lon="2.14817">
        <ele>277.313</ele>
        <time>2019-03-30T11:00:25Z</time>
      </trkpt>
      <trkpt lat="44.62424" lon="2.14949">
        <ele>277.408</ele>
        <time>2016-09-15T05:57:43Z</time>
      </trkpt>
      <trkpt lat="44.62583" lon="2.14992">
        <ele>279.877</ele>
        <time>2016-09-15T05:58:03Z</time>
      </trkpt>
      <trkpt lat="44.62554" lon="2.14853">
        <ele>275.434</ele>
        <time>2019-03-30T11:01:25Z</time>
      </trkpt>
      <trkpt lat="44.626" lon="2.14732">
        <ele>265.723</ele>
        <time>2016-09-15T05:58:43Z</time>
      </trkpt>
      <trkpt lat="44.62599" lon="2.14525">
        <ele>252.392</ele>
        <time>2019-03-30T11:02:05Z</time>
      </trkpt>
      <trkpt lat="44.62619" lon="2.14375">
        <ele>243.788</ele>
        <time>2019-03-30T11:02:25Z</time>
      </trkpt>
      <trkpt lat="44.62597" lon="2.14275">
        <ele>245.369</ele>
        <time>2019-03-30T11:02:45Z</time>
      </trkpt>
      <trkpt lat="44.62544" lon="2.14175">
        <ele>255.012</ele>
        <time>2019-03-30T11:03:05Z</time>
      </trkpt>
      <trkpt lat="44.6249" lon="2.13842">
        <ele>248.591</ele>
        <time>2016-09-15T06:00:03Z</time>
      </trkpt>
      <trkpt lat="44.62412" lon="2.13614">
        <ele>253.547</ele>
        <time>2016-09-15T06:00:23Z</time>
      </trkpt>
      <trkpt lat="44.6233" lon="2.13356">
        <ele>254.029</ele>
        <time>2021-01-03T00:56:20Z</time>
      </trkpt>
      <trkpt lat="44.62356" lon="2.13018">
        <ele>268.021</ele>
        <time>2021-01-03T00:56:40Z</time>
      </trkpt>
      <trkpt lat="44.62353" lon="2.12701">
        <ele>277.508</ele>
        <time>2021-01-03T00:57:00Z</time>
      </trkpt>
      <trkpt lat="44.62349" lon="2.12654">
        <ele>277.91</ele>
        <time>2021-01-03T00:57:20Z</time>
      </trkpt>
      <trkpt lat="44.62317" lon="2.12673">
        <ele>279.487</ele>
        <time>2021-01-03T00:57:40Z</time>
      </trkpt>
      <trkpt lat="44.62294" lon="2.12698">
        <ele>278.966</ele>
        <time>2021-01-03T00:58:00Z</time>
      </trkpt>
      <trkpt lat="44.62127" lon="2.12708">
        <ele>267.165</ele>
        <time>2021-01-03T00:58:20Z</time>
      </trkpt>
      <trkpt lat="44.62064" lon="2.12675">
        <ele>275.651</ele>
        <time>2021-01-03T00:58:40Z</time>
      </trkpt>
      <trkpt lat="44.62021" lon="2.1267">
        <ele>277.152</ele>
        <time>2021-01-03T00:59:00Z</time>
      </trkpt>
      <trkpt lat="44.62004" lon="2.12565">
        <ele>281.035</ele>
        <time>2021-01-03T00:59:20Z</time>
      </trkpt>
      <trkpt lat="44.61977" lon="2.12509">
        <ele>284.644</ele>
        <time>2019-03-30T11:08:25Z</time>
      </trkpt>
      <trkpt lat="44.61937" lon="2.12458">
        <ele>285.334</ele>
        <time>2016-09-15T06:05:03Z</time>
      </trkpt>
      <trkpt lat="44.61894" lon="2.12445">
        <ele>286.855</ele>
        <time>2019-03-30T11:09:05Z</time>
      </trkpt>
      <trkpt lat="44.61823" lon="2.12459">
        <ele>289.11</ele>
        <time>2019-03-30T11:09:25Z</time>
      </trkpt>
      <trkpt lat="44.61752" lon="2.12355">
        <ele>285.008</ele>
        <time>2016-09-15T06:05:43Z</time>
      </trkpt>
      <trkpt lat="44.61703" lon="2.12339">
        <ele>286.769</ele>
        <time>2019-03-30T11:10:05Z</time>
      </trkpt>
      <trkpt lat="44.61619" lon="2.12256">
        <ele>284.626</ele>
        <time>2021-01-03T01:01:40Z</time>
      </trkpt>
      <trkpt lat="44.61548" lon="2.12142">
        <ele>278.285</ele>
        <time>2021-01-03T01:02:00Z</time>
      </trkpt>
      <trkpt lat="44.6152" lon="2.11932">
        <ele>286.614</ele>
        <time>2021-01-03T01:02:20Z</time>
      </trkpt>
      <trkpt lat="44.61506" lon="2.11888">
        <ele>289.86</ele>
        <time>2021-01-03T01:02:40Z</time>
      </trkpt>
      <trkpt lat="44.61462" lon="2.11883">
        <ele>289.031</ele>
        <time>2021-01-03T01:03:00Z</time>
      </trkpt>
      <trkpt lat="44.61385" lon="2.11838">
        <ele>281.154</ele>
        <time>2021-01-03T01:03:20Z</time>
      </trkpt>
      <trkpt lat="44.61347" lon="2.11834">
        <ele>282.053</ele>
        <time>2021-01-03T01:03:40Z</time>
      </trkpt>
      <trkpt lat="44.61247" lon="2.11968">
        <ele>272.222</ele>
        <time>2021-01-03T01:04:00Z</time>
      </trkpt>
      <trkpt lat="44.6122" lon="2.11958">
        <ele>273.662</ele>
        <time>2021-01-03T01:04:20Z</time>
      </trkpt>
      <trkpt lat="44.61174" lon="2.11984">
        <ele>276.908</ele>
        <time>2021-01-03T01:04:40Z</time>
      </trkpt>
      <trkpt lat="44.61119" lon="2.11802">
        <ele>282.708</ele>
        <time>2021-01-03T01:05:00Z</time>
      </trkpt>
      <trkpt lat="44.60985" lon="2.11834">
        <ele>293.768</ele>
        <time>2021-01-03T01:05:20Z</time>
      </trkpt>
      <trkpt lat="44.60955" lon="2.1175">
        <ele>296.915</ele>
        <time>2021-01-03T01:05:40Z</time>
      </trkpt>
      <trkpt lat="44.60961" lon="2.1168">
        <ele>291.084</ele>
        <time>2021-01-03T01:06:00Z</time>
      </trkpt>
      <trkpt lat="44.60993" lon="2.11594">
        <ele>288.263</ele>
        <time>2021-01-03T01:06:20Z</time>
      </trkpt>
      <trkpt lat="44.61035" lon="2.11527">
        <ele>292.269</ele>
        <time>2021-01-03T01:06:40Z</time>
      </trkpt>
      <trkpt lat="44.61089" lon="2.11433">
        <ele>296.08</ele>
        <time>2021-01-03T01:07:00Z</time>
      </trkpt>
      <trkpt lat="44.61188" lon="2.11308">
        <ele>309.153</ele>
        <time>2016-09-15T06:10:23Z</time>
      </trkpt>
      <trkpt lat="44.61222" lon="2.11231">
        <ele>311.772</ele>
        <time>2016-09-15T06:10:43Z</time>
      </trkpt>
      <trkpt lat="44.61304" lon="2.11203">
        <ele>316.127</ele>
        <time>2016-09-15T06:11:03Z</time>
      </trkpt>
      <trkpt lat="44.61662" lon="2.10956">
        <ele>340.868</ele>
        <time>2016-09-15T06:11:23Z</time>
      </trkpt>
      <trkpt lat="44.61734" lon="2.10829">
        <ele>342.514</ele>
        <time>2019-03-30T11:16:45Z</time>
      </trkpt>
      <trkpt lat="44.61885" lon="2.10831">
        <ele>340.908</ele>
        <time>2016-09-15T06:12:23Z</time>
      </trkpt>
      <trkpt lat="44.61996" lon="2.10765">
        <ele>342.728</ele>
        <time>2016-09-15T06:12:43Z</time>
      </trkpt>
      <trkpt lat="44.61983" lon="2.10703">
        <ele>345.995</ele>
        <time>2016-09-15T06:13:03Z</time>
      </trkpt>
      <trkpt lat="44.61921" lon="2.10559">
        <ele>348.134</ele>
        <time>2016-09-15T06:13:23Z</time>
      </trkpt>
      <trkpt lat="44.61841" lon="2.10456">
        <ele>340.983</ele>
        <time>2016-09-15T06:13:43Z</time>
      </trkpt>
      <trkpt lat="44.61786" lon="2.10211">
        <ele>342.069</ele>
        <time>2016-09-15T06:14:03Z</time>
      </trkpt>
      <trkpt lat="44.61706" lon="2.09982">
        <ele>344.37</ele>
        <time>2016-09-15T06:14:23Z</time>
      </trkpt>
      <trkpt lat="44.6161" lon="2.09821">
        <ele>346.633</ele>
        <time>2016-09-15T06:14:43Z</time>
      </trkpt>
      <trkpt lat="44.61471" lon="2.09624">
        <ele>361.612</ele>
        <time>2019-03-30T11:19:45Z</time>
      </trkpt>
      <trkpt lat="44.61521" lon="2.09007">
        <ele>376.556</ele>
        <time>2019-03-30T11:20:05Z</time>
      </trkpt>
      <trkpt lat="44.61417" lon="2.08851">
        <ele>382.359</ele>
        <time>2016-09-15T06:15:43Z</time>
      </trkpt>
      <trkpt lat="44.61391" lon="2.08694">
        <ele>382.914</ele>
        <time>2016-09-15T06:16:03Z</time>
      </trkpt>
      <trkpt lat="44.61313" lon="2.08741">
        <ele>378.108</ele>
        <time>2019-03-30T11:21:05Z</time>
      </trkpt>
      <trkpt lat="44.61297" lon="2.08701">
        <ele>379.651</ele>
        <time>2019-03-30T11:21:25Z</time>
      </trkpt>
      <trkpt lat="44.61154" lon="2.08675">
        <ele>372.868</ele>
        <time>2019-03-30T11:21:45Z</time>
      </trkpt>
      <trkpt lat="44.6122" lon="2.08555">
        <ele>377.997</ele>
        <time>2016-09-15T06:17:23Z</time>
      </trkpt>
      <trkpt lat="44.61187" lon="2.08473">
        <ele>380.486</ele>
        <time>2016-09-15T06:17:43Z</time>
      </trkpt>
      <trkpt lat="44.61197" lon="2.08336">
        <ele>376.922</ele>
        <time>2016-09-15T06:18:03Z</time>
      </trkpt>
      <trkpt lat="44.61231" lon="2.08169">
        <ele>375.673</ele>
        <time>2016-09-15T06:18:23Z</time>
      </trkpt>
      <trkpt lat="44.6119" lon="2.08076">
        <ele>373.316</ele>
        <time>2016-09-15T06:18:43Z</time>
      </trkpt>
      <trkpt lat="44.6114" lon="2.08014">
        <ele>374.975</ele>
        <time>2019-03-30T11:23:45Z</time>
      </trkpt>
      <trkpt lat="44.61126" lon="2.07941">
        <ele>377.699</ele>
        <time>2021-01-03T01:16:00Z</time>
      </trkpt>
      <trkpt lat="44.61249" lon="2.0792">
        <ele>379.807</ele>
        <time>2021-01-03T01:16:20Z</time>
      </trkpt>
      <trkpt lat="44.61167" lon="2.07826">
        <ele>379.027</ele>
        <time>2021-01-03T01:16:40Z</time>
      </trkpt>
      <trkpt lat="44.61035" lon="2.07622">
        <ele>375.908</ele>
        <time>2021-01-03T01:17:00Z</time>
      </trkpt>
      <trkpt lat="44.61038" lon="2.07513">
        <ele>370.765</ele>
        <time>2021-01-03T01:17:20Z</time>
      </trkpt>
      <trkpt lat="44.61002" lon="2.07251">
        <ele>362.182</ele>
        <time>2021-01-03T01:17:40Z</time>
      </trkpt>
      <trkpt lat="44.61054" lon="2.07129">
        <ele>362.731</ele>
        <time>2021-01-03T01:18:00Z</time>
      </trkpt>
      <trkpt lat="44.61097" lon="2.06492">
        <ele>327.42</ele>
        <time>2021-01-03T01:18:20Z</time>
      </trkpt>
      <trkpt lat="44.61038" lon="2.06131">
        <ele>308.426</ele>
        <time>2021-01-03T01:18:40Z</time>
      </trkpt>
      <trkpt lat="44.61071" lon="2.05837">
        <ele>296.427</ele>
        <time>2021-01-03T01:19:00Z</time>
      </trkpt>
      <trkpt lat="44.6104" lon="2.05676">
        <ele>277.29</ele>
        <time>2021-01-03T01:19:20Z</time>
      </trkpt>
      <trkpt lat="44.61043" lon="2.05584">
        <ele>273.269</ele>
        <time>2021-01-03T01:19:40Z</time>
      </trkpt>
      <trkpt lat="44.60986" lon="2.05333">
        <ele>238.425</ele>
        <time>2021-01-03T01:20:00Z</time>
      </trkpt>
      <trkpt lat="44.60994" lon="2.05262">
        <ele>229.426</ele>
        <time>2021-01-03T01:20:20Z</time>
      </trkpt>
      <trkpt lat="44.60976" lon="2.0517">
        <ele>216.008</ele>
        <time>2021-01-03T01:20:40Z</time>
      </trkpt>
      <trkpt lat="44.60994" lon="2.05083">
        <ele>207.708</ele>
        <time>2021-01-03T01:21:00Z</time>
      </trkpt>
      <trkpt lat="44.60951" lon="2.05101">
        <ele>207.588</ele>
        <time>2021-01-03T01:21:20Z</time>
      </trkpt>
      <trkpt lat="44.60917" lon="2.05062">
        <ele>205.875</ele>
        <time>2021-01-03T01:21:40Z</time>
      </trkpt>
      <trkpt lat="44.60915" lon="2.05002">
        <ele>204.374</ele>
        <time>2021-01-03T01:22:00Z</time>
      </trkpt>
      <trkpt lat="44.60896" lon="2.04984">
        <ele>203.543</ele>
        <time>2021-01-03T01:22:20Z</time>
      </trkpt>
      <trkpt lat="44.60879" lon="2.04931">
        <ele>200.419</ele>
        <time>2021-01-03T01:22:40Z</time>
      </trkpt>
      <trkpt lat="44.60792" lon="2.04779">
        <ele>205.44</ele>
        <time>2021-01-03T01:23:00Z</time>
      </trkpt>
      <trkpt lat="44.60766" lon="2.04666">
        <ele>206.233</ele>
        <time>2021-01-03T01:23:20Z</time>
      </trkpt>
      <trkpt lat="44.6075" lon="2.04478">
        <ele>204.552</ele>
        <time>2021-01-03T01:23:40Z</time>
      </trkpt>
      <trkpt lat="44.60706" lon="2.04282">
        <ele>206.558</ele>
        <time>2021-01-03T01:24:00Z</time>
      </trkpt>
      <trkpt lat="44.6071" lon="2.04232">
        <ele>204.752</ele>
        <time>2021-01-03T01:24:20Z</time>
      </trkpt>
      <trkpt lat="44.60625" lon="2.03406">
        <ele>200.817</ele>
        <time>2021-01-03T01:24:40Z</time>
      </trkpt>
      <trkpt lat="44.60706" lon="2.03382">
        <ele>200.408</ele>
        <time>2016-09-15T06:33:23Z</time>
      </trkpt>
      <trkpt lat="44.6074" lon="2.03103">
        <ele>192.641</ele>
        <time>2021-01-03T01:25:20Z</time>
      </trkpt>
      <trkpt lat="44.60688" lon="2.03089">
        <ele>193.118</ele>
        <time>2021-01-03T01:25:40Z</time>
      </trkpt>
      <trkpt lat="44.6068" lon="2.03125">
        <ele>194.877</ele>
        <time>2021-01-03T01:26:00Z</time>
      </trkpt>
      <trkpt lat="44.60602" lon="2.03097">
        <ele>202.296</ele>
        <time>2016-09-15T06:34:43Z</time>
      </trkpt>
      <trkpt lat="44.60598" lon="2.02987">
        <ele>203.252</ele>
        <time>2021-01-03T01:26:40Z</time>
      </trkpt>
      <trkpt lat="44.60573" lon="2.02983">
        <ele>207.913</ele>
        <time>2021-01-03T01:27:00Z</time>
      </trkpt>
      <trkpt lat="44.6058" lon="2.02776">
        <ele>204.866</ele>
        <time>2021-01-03T01:27:20Z</time>
      </trkpt>
      <trkpt lat="44.6057" lon="2.02586">
        <ele>208.985</ele>
        <time>2021-01-03T01:27:40Z</time>
      </trkpt>
      <trkpt lat="44.60532" lon="2.02357">
        <ele>203.985</ele>
        <time>2021-01-03T01:28:00Z</time>
      </trkpt>
      <trkpt lat="44.60486" lon="2.02219">
        <ele>207.089</ele>
        <time>2021-01-03T01:28:20Z</time>
      </trkpt>
      <trkpt lat="44.60405" lon="2.0205">
        <ele>200.917</ele>
        <time>2021-01-03T01:28:40Z</time>
      </trkpt>
      <trkpt lat="44.60323" lon="2.01901">
        <ele>194.408</ele>
        <time>2021-01-03T01:29:00Z</time>
      </trkpt>
      <trkpt lat="44.60267" lon="2.01904">
        <ele>196.834</ele>
        <time>2021-01-03T01:29:20Z</time>
      </trkpt>
      <trkpt lat="44.60238" lon="2.01949">
        <ele>206.821</ele>
        <time>2021-01-03T01:29:40Z</time>
      </trkpt>
      <trkpt lat="44.60201" lon="2.02024">
        <ele>215.94</ele>
        <time>2021-01-03T01:30:00Z</time>
      </trkpt>
      <trkpt lat="44.60159" lon="2.02007">
        <ele>223.989</ele>
        <time>2021-01-03T01:30:20Z</time>
      </trkpt>
      <trkpt lat="44.6011" lon="2.02042">
        <ele>235.175</ele>
        <time>2021-01-03T01:30:40Z</time>
      </trkpt>
      <trkpt lat="44.60074" lon="2.02092">
        <ele>238.236</ele>
        <time>2021-01-03T01:31:00Z</time>
      </trkpt>
      <trkpt lat="44.59956" lon="2.02153">
        <ele>258.999</ele>
        <time>2021-01-03T01:31:20Z</time>
      </trkpt>
      <trkpt lat="44.59814" lon="2.0215">
        <ele>288.248</ele>
        <time>2021-01-03T01:31:40Z</time>
      </trkpt>
      <trkpt lat="44.59708" lon="2.02111">
        <ele>305.632</ele>
        <time>2021-01-03T01:32:00Z</time>
      </trkpt>
      <trkpt lat="44.59651" lon="2.02036">
        <ele>311.992</ele>
        <time>2021-01-03T01:32:20Z</time>
      </trkpt>
      <trkpt lat="44.59612" lon="2.02014">
        <ele>314.911</ele>
        <time>2021-01-03T01:32:40Z</time>
      </trkpt>
      <trkpt lat="44.59501" lon="2.01853">
        <ele>329.708</ele>
        <time>2021-01-03T01:33:00Z</time>
      </trkpt>
      <trkpt lat="44.59431" lon="2.01878">
        <ele>332.129</ele>
        <time>2021-01-03T01:33:20Z</time>
      </trkpt>
      <trkpt lat="44.59382" lon="2.01881">
        <ele>335.166</ele>
        <time>2021-01-03T01:33:40Z</time>
      </trkpt>
      <trkpt lat="44.59305" lon="2.01915">
        <ele>345.795</ele>
        <time>2021-01-03T01:34:00Z</time>
      </trkpt>
      <trkpt lat="44.59222" lon="2.0194">
        <ele>347.964</ele>
        <time>2021-01-03T01:34:20Z</time>
      </trkpt>
      <trkpt lat="44.5913" lon="2.01915">
        <ele>348.76</ele>
        <time>2021-01-03T01:34:40Z</time>
      </trkpt>
      <trkpt lat="44.58992" lon="2.01836">
        <ele>345.931</ele>
        <time>2019-03-30T11:55:05Z</time>
      </trkpt>
      <trkpt lat="44.58932" lon="2.01788">
        <ele>344.774</ele>
        <time>2019-03-30T11:55:25Z</time>
      </trkpt>
      <trkpt lat="44.58682" lon="2.01672">
        <ele>348.433</ele>
        <time>2019-03-30T11:55:45Z</time>
      </trkpt>
      <trkpt lat="44.58578" lon="2.01506">
        <ele>345.222</ele>
        <time>2019-03-30T11:56:05Z</time>
      </trkpt>
      <trkpt lat="44.58439" lon="2.01356">
        <ele>323.462</ele>
        <time>2019-03-30T11:56:25Z</time>
      </trkpt>
      <trkpt lat="44.5843" lon="2.01277">
        <ele>315.008</ele>
        <time>2019-03-30T11:56:45Z</time>
      </trkpt>
      <trkpt lat="44.58383" lon="2.01211">
        <ele>311.008</ele>
        <time>2019-03-30T11:57:05Z</time>
      </trkpt>
      <trkpt lat="44.58219" lon="2.01099">
        <ele>316.868</ele>
        <time>2019-03-30T11:57:25Z</time>
      </trkpt>
      <trkpt lat="44.58106" lon="2.01059">
        <ele>316.265</ele>
        <time>2016-09-15T06:53:03Z</time>
      </trkpt>
      <trkpt lat="44.58017" lon="2.01015">
        <ele>325.924</ele>
        <time>2019-03-30T11:58:05Z</time>
      </trkpt>
      <trkpt lat="44.5795" lon="2.00935">
        <ele>328.233</ele>
        <time>2019-03-30T11:58:25Z</time>
      </trkpt>
      <trkpt lat="44.57892" lon="2.00817">
        <ele>335.629</ele>
        <time>2019-03-30T11:58:45Z</time>
      </trkpt>
      <trkpt lat="44.57728" lon="2.00687">
        <ele>337.07</ele>
        <time>2016-09-15T06:54:23Z</time>
      </trkpt>
      <trkpt lat="44.57673" lon="2.00569">
        <ele>342.193</ele>
        <time>2019-03-30T11:59:25Z</time>
      </trkpt>
      <trkpt lat="44.57612" lon="2.00511">
        <ele>342.052</ele>
        <time>2019-03-30T11:59:45Z</time>
      </trkpt>
      <trkpt lat="44.57566" lon="2.00352">
        <ele>336.985</ele>
        <time>2019-03-30T12:00:05Z</time>
      </trkpt>
      <trkpt lat="44.57516" lon="2.00214">
        <ele>339.689</ele>
        <time>2019-03-30T12:00:25Z</time>
      </trkpt>
      <trkpt lat="44.57511" lon="2.00021">
        <ele>329.917</ele>
        <time>2021-01-03T01:40:40Z</time>
      </trkpt>
      <trkpt lat="44.57539" lon="1.99893">
        <ele>312.508</ele>
        <time>2021-01-03T01:41:00Z</time>
      </trkpt>
      <trkpt lat="44.5762" lon="1.99813">
        <ele>317.454</ele>
        <time>2021-01-03T01:41:20Z</time>
      </trkpt>
      <trkpt lat="44.57631" lon="1.99776">
        <ele>317.071</ele>
        <time>2019-03-30T12:01:45Z</time>
      </trkpt>
      <trkpt lat="44.57564" lon="1.99606">
        <ele>319.53</ele>
        <time>2021-01-03T01:42:00Z</time>
      </trkpt>
      <trkpt lat="44.57526" lon="1.99571">
        <ele>317.529</ele>
        <time>2016-09-15T06:57:23Z</time>
      </trkpt>
      <trkpt lat="44.57517" lon="1.99524">
        <ele>322.445</ele>
        <time>2016-09-15T06:57:43Z</time>
      </trkpt>
      <trkpt lat="44.57326" lon="1.99348">
        <ele>325.186</ele>
        <time>2016-09-15T06:58:03Z</time>
      </trkpt>
      <trkpt lat="44.57264" lon="1.99311">
        <ele>325.589</ele>
        <time>2019-03-30T12:03:25Z</time>
      </trkpt>
      <trkpt lat="44.57179" lon="1.99217">
        <ele>326.558</ele>
        <time>2016-09-15T06:58:43Z</time>
      </trkpt>
      <trkpt lat="44.57074" lon="1.99205">
        <ele>334.422</ele>
        <time>2016-09-15T06:59:03Z</time>
      </trkpt>
      <trkpt lat="44.56891" lon="1.9905">
        <ele>328.462</ele>
        <time>2016-09-15T06:59:23Z</time>
      </trkpt>
      <trkpt lat="44.56814" lon="1.99009">
        <ele>316.908</ele>
        <time>2019-03-30T12:04:45Z</time>
      </trkpt>
      <trkpt lat="44.56709" lon="1.98836">
        <ele>316.208</ele>
        <time>2016-09-15T07:00:03Z</time>
      </trkpt>
      <trkpt lat="44.56646" lon="1.98805">
        <ele>316.518</ele>
        <time>2016-09-15T07:00:23Z</time>
      </trkpt>
      <trkpt lat="44.56458" lon="1.98803">
        <ele>315.155</ele>
        <time>2016-09-15T07:00:43Z</time>
      </trkpt>
      <trkpt lat="44.56435" lon="1.98782">
        <ele>313.514</ele>
        <time>2016-09-15T07:01:03Z</time>
      </trkpt>
      <trkpt lat="44.56484" lon="1.98737">
        <ele>323.153</ele>
        <time>2016-09-15T07:01:23Z</time>
      </trkpt>
      <trkpt lat="44.56513" lon="1.98636">
        <ele>323.569</ele>
        <time>2016-09-15T07:01:43Z</time>
      </trkpt>
      <trkpt lat="44.5653" lon="1.98515">
        <ele>321.32</ele>
        <time>2019-03-30T12:07:05Z</time>
      </trkpt>
      <trkpt lat="44.56496" lon="1.98417">
        <ele>312.793</ele>
        <time>2021-01-03T01:47:20Z</time>
      </trkpt>
      <trkpt lat="44.56488" lon="1.98342">
        <ele>306.932</ele>
        <time>2021-01-03T01:47:40Z</time>
      </trkpt>
      <trkpt lat="44.56513" lon="1.98251">
        <ele>310.187</ele>
        <time>2021-01-03T01:48:00Z</time>
      </trkpt>
      <trkpt lat="44.56524" lon="1.98161">
        <ele>315.742</ele>
        <time>2021-01-03T01:48:20Z</time>
      </trkpt>
      <trkpt lat="44.56513" lon="1.98108">
        <ele>315.326</ele>
        <time>2021-01-03T01:48:40Z</time>
      </trkpt>
      <trkpt lat="44.56478" lon="1.98056">
        <ele>305.408</ele>
        <time>2021-01-03T01:49:00Z</time>
      </trkpt>
      <trkpt lat="44.56431" lon="1.97895">
        <ele>316.524</ele>
        <time>2021-01-03T01:49:20Z</time>
      </trkpt>
      <trkpt lat="44.56405" lon="1.97861">
        <ele>320.121</ele>
        <time>2021-01-03T01:49:40Z</time>
      </trkpt>
      <trkpt lat="44.56367" lon="1.97846">
        <ele>317.42</ele>
        <time>2021-01-03T01:50:00Z</time>
      </trkpt>
      <trkpt lat="44.56302" lon="1.97761">
        <ele>328.799</ele>
        <time>2021-01-03T01:50:20Z</time>
      </trkpt>
      <trkpt lat="44.56233" lon="1.97761">
        <ele>319.535</ele>
        <time>2021-01-03T01:50:40Z</time>
      </trkpt>
      <trkpt lat="44.56174" lon="1.97602">
        <ele>328.956</ele>
        <time>2021-01-03T01:51:00Z</time>
      </trkpt>
      <trkpt lat="44.56189" lon="1.97577">
        <ele>331.549</ele>
        <time>2021-01-03T01:51:20Z</time>
      </trkpt>
      <trkpt lat="44.56148" lon="1.97563">
        <ele>332.578</ele>
        <time>2021-01-03T01:51:40Z</time>
      </trkpt>
      <trkpt lat="44.56127" lon="1.97364">
        <ele>340.339</ele>
        <time>2021-01-03T01:52:00Z</time>
      </trkpt>
      <trkpt lat="44.56132" lon="1.97332">
        <ele>340.601</ele>
        <time>2021-01-03T01:52:20Z</time>
      </trkpt>
      <trkpt lat="44.56156" lon="1.97276">
        <ele>338.721</ele>
        <time>2021-01-03T01:52:40Z</time>
      </trkpt>
      <trkpt lat="44.56168" lon="1.97194">
        <ele>339.908</ele>
        <time>2021-01-03T01:53:00Z</time>
      </trkpt>
      <trkpt lat="44.56169" lon="1.97078">
        <ele>336.659</ele>
        <time>2021-01-03T01:53:20Z</time>
      </trkpt>
      <trkpt lat="44.56146" lon="1.96973">
        <ele>334.216</ele>
        <time>2021-01-03T01:53:40Z</time>
      </trkpt>
      <trkpt lat="44.56152" lon="1.969">
        <ele>333.035</ele>
        <time>2021-01-03T01:54:00Z</time>
      </trkpt>
      <trkpt lat="44.56105" lon="1.96814">
        <ele>337.644</ele>
        <time>2021-01-03T01:54:20Z</time>
      </trkpt>
      <trkpt lat="44.56026" lon="1.96469">
        <ele>345.75</ele>
        <time>2021-01-03T01:54:40Z</time>
      </trkpt>
      <trkpt lat="44.56077" lon="1.96452">
        <ele>343.371</ele>
        <time>2021-01-03T01:55:00Z</time>
      </trkpt>
      <trkpt lat="44.5611" lon="1.96397">
        <ele>340.314</ele>
        <time>2021-01-03T01:55:20Z</time>
      </trkpt>
      <trkpt lat="44.56309" lon="1.96079">
        <ele>334.883</ele>
        <time>2021-01-03T01:55:40Z</time>
      </trkpt>
      <trkpt lat="44.56358" lon="1.95969">
        <ele>334.949</ele>
        <time>2021-01-03T01:56:00Z</time>
      </trkpt>
      <trkpt lat="44.56377" lon="1.95784">
        <ele>330.602</ele>
        <time>2021-01-03T01:56:20Z</time>
      </trkpt>
      <trkpt lat="44.56404" lon="1.95707">
        <ele>333.822</ele>
        <time>2021-01-03T01:56:40Z</time>
      </trkpt>
      <trkpt lat="44.56479" lon="1.95683">
        <ele>332.208</ele>
        <time>2021-01-03T01:57:00Z</time>
      </trkpt>
      <trkpt lat="44.56546" lon="1.95651">
        <ele>331.36</ele>
        <time>2021-01-03T01:57:20Z</time>
      </trkpt>
      <trkpt lat="44.56611" lon="1.9567">
        <ele>331.957</ele>
        <time>2021-01-03T01:57:40Z</time>
      </trkpt>
      <trkpt lat="44.56737" lon="1.95732">
        <ele>328.786</ele>
        <time>2021-01-03T01:58:00Z</time>
      </trkpt>
      <trkpt lat="44.56818" lon="1.95732">
        <ele>330.795</ele>
        <time>2021-01-03T01:58:20Z</time>
      </trkpt>
      <trkpt lat="44.56878" lon="1.95757">
        <ele>331.821</ele>
        <time>2021-01-03T01:58:40Z</time>
      </trkpt>
      <trkpt lat="44.57213" lon="1.95658">
        <ele>316.042</ele>
        <time>2021-01-03T01:59:00Z</time>
      </trkpt>
      <trkpt lat="44.57294" lon="1.95675">
        <ele>320.115</ele>
        <time>2021-01-03T01:59:20Z</time>
      </trkpt>
      <trkpt lat="44.57361" lon="1.95653">
        <ele>324.594</ele>
        <time>2021-01-03T01:59:40Z</time>
      </trkpt>
      <trkpt lat="44.5738" lon="1.95626">
        <ele>324.411</ele>
        <time>2019-03-30T12:12:45Z</time>
      </trkpt>
      <trkpt lat="44.57494" lon="1.95525">
        <ele>312.921</ele>
        <time>2016-09-15T07:08:03Z</time>
      </trkpt>
      <trkpt lat="44.57611" lon="1.95441">
        <ele>310.003</ele>
        <time>2021-01-03T02:00:40Z</time>
      </trkpt>
      <trkpt lat="44.57664" lon="1.95484">
        <ele>314.208</ele>
        <time>2021-01-03T02:01:00Z</time>
      </trkpt>
      <trkpt lat="44.57681" lon="1.95463">
        <ele>314.287</ele>
        <time>2019-03-30T12:14:05Z</time>
      </trkpt>
      <trkpt lat="44.57679" lon="1.95418">
        <ele>312.534</ele>
        <time>2021-01-03T02:01:40Z</time>
      </trkpt>
      <trkpt lat="44.57693" lon="1.9536">
        <ele>310.953</ele>
        <time>2021-01-03T02:02:00Z</time>
      </trkpt>
      <trkpt lat="44.57691" lon="1.95284">
        <ele>309.952</ele>
        <time>2016-09-15T07:09:23Z</time>
      </trkpt>
      <trkpt lat="44.57804" lon="1.95045">
        <ele>312.748</ele>
        <time>2019-03-30T12:14:45Z</time>
      </trkpt>
      <trkpt lat="44.57894" lon="1.94979">
        <ele>316.799</ele>
        <time>2019-03-30T12:15:05Z</time>
      </trkpt>
      <trkpt lat="44.57847" lon="1.94898">
        <ele>327.052</ele>
        <time>2016-09-15T07:11:03Z</time>
      </trkpt>
      <trkpt lat="44.57806" lon="1.94776">
        <ele>336.071</ele>
        <time>2016-09-15T07:11:23Z</time>
      </trkpt>
      <trkpt lat="44.57795" lon="1.9458">
        <ele>335.287</ele>
        <time>2016-09-15T07:11:43Z</time>
      </trkpt>
      <trkpt lat="44.5776" lon="1.94499">
        <ele>336.442</ele>
        <time>2016-09-15T07:12:03Z</time>
      </trkpt>
      <trkpt lat="44.57718" lon="1.94334">
        <ele>335.226</ele>
        <time>2019-03-30T12:16:45Z</time>
      </trkpt>
      <trkpt lat="44.57721" lon="1.94274">
        <ele>334.908</ele>
        <time>2019-03-30T12:17:05Z</time>
      </trkpt>
      <trkpt lat="44.5763" lon="1.94113">
        <ele>329.914</ele>
        <time>2016-09-15T07:13:23Z</time>
      </trkpt>
      <trkpt lat="44.57606" lon="1.94044">
        <ele>323.881</ele>
        <time>2016-09-15T07:13:43Z</time>
      </trkpt>
      <trkpt lat="44.5751" lon="1.93984">
        <ele>309.97</ele>
        <time>2016-09-15T07:14:03Z</time>
      </trkpt>
      <trkpt lat="44.57495" lon="1.9393">
        <ele>300.369</ele>
        <time>2019-03-30T12:18:25Z</time>
      </trkpt>
      <trkpt lat="44.57372" lon="1.9372">
        <ele>303.575</ele>
        <time>2016-09-15T07:14:43Z</time>
      </trkpt>
      <trkpt lat="44.5737" lon="1.93686">
        <ele>304.156</ele>
        <time>2016-09-15T07:15:03Z</time>
      </trkpt>
      <trkpt lat="44.57331" lon="1.93686">
        <ele>308.599</ele>
        <time>2016-09-15T07:15:23Z</time>
      </trkpt>
      <trkpt lat="44.57252" lon="1.93565">
        <ele>319.348</ele>
        <time>2019-03-30T12:19:45Z</time>
      </trkpt>
      <trkpt lat="44.57082" lon="1.93485">
        <ele>319.099</ele>
        <time>2019-03-30T12:20:05Z</time>
      </trkpt>
      <trkpt lat="44.57004" lon="1.93497">
        <ele>321.607</ele>
        <time>2019-03-30T12:20:25Z</time>
      </trkpt>
      <trkpt lat="44.56892" lon="1.93417">
        <ele>330.827</ele>
        <time>2016-09-15T07:16:43Z</time>
      </trkpt>
      <trkpt lat="44.56831" lon="1.93407">
        <ele>334.508</ele>
        <time>2016-09-15T07:17:03Z</time>
      </trkpt>
      <trkpt lat="44.56646" lon="1.93271">
        <ele>350.235</ele>
        <time>2019-03-30T12:21:25Z</time>
      </trkpt>
      <trkpt lat="44.56559" lon="1.93274">
        <ele>349.212</ele>
        <time>2016-09-15T07:17:43Z</time>
      </trkpt>
      <trkpt lat="44.56559" lon="1.93274">
        <ele>349.251</ele>
        <time>2016-09-15T07:18:03Z</time>
      </trkpt>
      <trkpt lat="44.56429" lon="1.92877">
        <ele>380.31</ele>
        <time>2019-03-30T12:22:25Z</time>
      </trkpt>
      <trkpt lat="44.56319" lon="1.92781">
        <ele>385.156</ele>
        <time>2019-03-30T12:22:45Z</time>
      </trkpt>
      <trkpt lat="44.56138" lon="1.9245">
        <ele>373.167</ele>
        <time>2019-03-30T12:23:05Z</time>
      </trkpt>
      <trkpt lat="44.56118" lon="1.92334">
        <ele>375.21</ele>
        <time>2019-03-30T12:23:25Z</time>
      </trkpt>
      <trkpt lat="44.56063" lon="1.92204">
        <ele>372.449</ele>
        <time>2019-03-30T12:23:45Z</time>
      </trkpt>
      <trkpt lat="44.5603" lon="1.92162">
        <ele>368.357</ele>
        <time>2019-03-30T12:24:05Z</time>
      </trkpt>
      <trkpt lat="44.56008" lon="1.92094">
        <ele>365.4</ele>
        <time>2019-03-30T12:24:25Z</time>
      </trkpt>
      <trkpt lat="44.55997" lon="1.91962">
        <ele>362.42</ele>
        <time>2019-03-30T12:24:45Z</time>
      </trkpt>
      <trkpt lat="44.55966" lon="1.91804">
        <ele>361.608</ele>
        <time>2016-09-15T07:20:23Z</time>
      </trkpt>
      <trkpt lat="44.55926" lon="1.91661">
        <ele>354.881</ele>
        <time>2019-03-30T12:25:25Z</time>
      </trkpt>
      <trkpt lat="44.559" lon="1.9175">
        <ele>356.038</ele>
        <time>2016-09-15T07:21:03Z</time>
      </trkpt>
      <trkpt lat="44.55833" lon="1.91786">
        <ele>358.967</ele>
        <time>2019-03-30T12:26:05Z</time>
      </trkpt>
      <trkpt lat="44.55707" lon="1.918">
        <ele>365.536</ele>
        <time>2019-03-30T12:26:25Z</time>
      </trkpt>
      <trkpt lat="44.55632" lon="1.9169">
        <ele>360.742</ele>
        <time>2019-03-30T12:26:45Z</time>
      </trkpt>
      <trkpt lat="44.556" lon="1.91617">
        <ele>358.163</ele>
        <time>2019-03-30T12:27:05Z</time>
      </trkpt>
      <trkpt lat="44.55455" lon="1.91399">
        <ele>347.066</ele>
        <time>2019-03-30T12:27:25Z</time>
      </trkpt>
      <trkpt lat="44.55408" lon="1.91343">
        <ele>345.045</ele>
        <time>2019-03-30T12:27:45Z</time>
      </trkpt>
      <trkpt lat="44.55356" lon="1.91197">
        <ele>341.019</ele>
        <time>2019-03-30T12:28:05Z</time>
      </trkpt>
      <trkpt lat="44.55341" lon="1.91095">
        <ele>338.409</ele>
        <time>2019-03-30T12:28:25Z</time>
      </trkpt>
      <trkpt lat="44.55344" lon="1.90985">
        <ele>338.919</ele>
        <time>2019-03-30T12:28:45Z</time>
      </trkpt>
      <trkpt lat="44.55305" lon="1.90829">
        <ele>339.308</ele>
        <time>2019-03-30T12:29:05Z</time>
      </trkpt>
      <trkpt lat="44.55127" lon="1.90532">
        <ele>335.037</ele>
        <time>2019-03-30T12:29:25Z</time>
      </trkpt>
      <trkpt lat="44.5501" lon="1.90312">
        <ele>324.674</ele>
        <time>2019-03-30T12:29:45Z</time>
      </trkpt>
      <trkpt lat="44.54921" lon="1.9022">
        <ele>325.383</ele>
        <time>2016-09-15T07:25:23Z</time>
      </trkpt>
      <trkpt lat="44.5486" lon="1.90134">
        <ele>327.992</ele>
        <time>2016-09-15T07:25:43Z</time>
      </trkpt>
      <trkpt lat="44.54778" lon="1.9001">
        <ele>333.728</ele>
        <time>2016-09-15T07:26:03Z</time>
      </trkpt>
      <trkpt lat="44.54761" lon="1.89952">
        <ele>338.159</ele>
        <time>2016-09-15T07:26:23Z</time>
      </trkpt>
      <trkpt lat="44.54667" lon="1.89918">
        <ele>344.962</ele>
        <time>2016-09-15T07:26:43Z</time>
      </trkpt>
      <trkpt lat="44.54588" lon="1.89905">
        <ele>350.031</ele>
        <time>2016-09-15T07:27:03Z</time>
      </trkpt>
      <trkpt lat="44.54528" lon="1.89877">
        <ele>353.783</ele>
        <time>2016-09-15T07:27:23Z</time>
      </trkpt>
      <trkpt lat="44.54314" lon="1.89866">
        <ele>365.625</ele>
        <time>2016-09-15T07:27:43Z</time>
      </trkpt>
      <trkpt lat="44.54343" lon="1.89765">
        <ele>368.717</ele>
        <time>2016-09-15T07:28:03Z</time>
      </trkpt>
      <trkpt lat="44.54339" lon="1.89737">
        <ele>367.408</ele>
        <time>2016-09-15T07:28:23Z</time>
      </trkpt>
      <trkpt lat="44.5429" lon="1.89669">
        <ele>361.684</ele>
        <time>2016-09-15T07:28:43Z</time>
      </trkpt>
      <trkpt lat="44.54279" lon="1.89538">
        <ele>370.241</ele>
        <time>2016-09-15T07:29:03Z</time>
      </trkpt>
      <trkpt lat="44.54204" lon="1.89482">
        <ele>364.37</ele>
        <time>2016-09-15T07:29:23Z</time>
      </trkpt>
      <trkpt lat="44.54181" lon="1.89431">
        <ele>359.039</ele>
        <time>2016-09-15T07:29:43Z</time>
      </trkpt>
      <trkpt lat="44.54173" lon="1.89347">
        <ele>355.075</ele>
        <time>2016-09-15T07:30:03Z</time>
      </trkpt>
      <trkpt lat="44.54121" lon="1.89305">
        <ele>354.846</ele>
        <time>2019-03-30T12:35:05Z</time>
      </trkpt>
      <trkpt lat="44.5394" lon="1.89249">
        <ele>369.249</ele>
        <time>2019-03-30T12:35:25Z</time>
      </trkpt>
      <trkpt lat="44.53837" lon="1.89271">
        <ele>371.518</ele>
        <time>2019-03-30T12:35:45Z</time>
      </trkpt>
      <trkpt lat="44.53841" lon="1.89215">
        <ele>375.492</ele>
        <time>2019-03-30T12:36:05Z</time>
      </trkpt>
      <trkpt lat="44.53733" lon="1.88933">
        <ele>394.673</ele>
        <time>2019-03-30T12:36:25Z</time>
      </trkpt>
      <trkpt lat="44.53771" lon="1.88807">
        <ele>399.52</ele>
        <time>2019-03-30T12:36:45Z</time>
      </trkpt>
      <trkpt lat="44.53794" lon="1.88668">
        <ele>397.608</ele>
        <time>2019-03-30T12:37:05Z</time>
      </trkpt>
      <trkpt lat="44.53744" lon="1.88719">
        <ele>395.625</ele>
        <time>2019-03-30T12:37:25Z</time>
      </trkpt>
      <trkpt lat="44.53693" lon="1.88733">
        <ele>390.752</ele>
        <time>2016-09-15T07:32:43Z</time>
      </trkpt>
      <trkpt lat="44.53702" lon="1.88656">
        <ele>388.231</ele>
        <time>2016-09-15T07:33:03Z</time>
      </trkpt>
      <trkpt lat="44.53665" lon="1.88622">
        <ele>385.49</ele>
        <time>2019-03-30T12:38:25Z</time>
      </trkpt>
      <trkpt lat="44.53638" lon="1.88555">
        <ele>382.086</ele>
        <time>2019-03-30T12:38:45Z</time>
      </trkpt>
      <trkpt lat="44.53667" lon="1.88536">
        <ele>378.257</ele>
        <time>2019-03-30T12:39:05Z</time>
      </trkpt>
      <trkpt lat="44.53696" lon="1.88471">
        <ele>375.29</ele>
        <time>2019-03-30T12:39:25Z</time>
      </trkpt>
      <trkpt lat="44.53728" lon="1.88365">
        <ele>378.059</ele>
        <time>2019-03-30T12:39:45Z</time>
      </trkpt>
      <trkpt lat="44.53718" lon="1.88256">
        <ele>374.734</ele>
        <time>2019-03-30T12:40:05Z</time>
      </trkpt>
      <trkpt lat="44.53734" lon="1.88165">
        <ele>371.155</ele>
        <time>2019-03-30T12:40:25Z</time>
      </trkpt>
      <trkpt lat="44.53842" lon="1.87999">
        <ele>380.21</ele>
        <time>2016-09-15T07:35:03Z</time>
      </trkpt>
      <trkpt lat="44.53858" lon="1.87909">
        <ele>382.408</ele>
        <time>2019-03-30T12:41:05Z</time>
      </trkpt>
      <trkpt lat="44.5384" lon="1.87778">
        <ele>385.589</ele>
        <time>2016-09-15T07:35:43Z</time>
      </trkpt>
      <trkpt lat="44.53772" lon="1.87562">
        <ele>385.886</ele>
        <time>2019-03-30T12:41:45Z</time>
      </trkpt>
      <trkpt lat="44.53748" lon="1.87373">
        <ele>391.535</ele>
        <time>2019-03-30T12:42:05Z</time>
      </trkpt>
      <trkpt lat="44.53698" lon="1.8727">
        <ele>389.024</ele>
        <time>2019-03-30T12:42:25Z</time>
      </trkpt>
      <trkpt lat="44.5364" lon="1.8699">
        <ele>389.03</ele>
        <time>2019-03-30T12:42:45Z</time>
      </trkpt>
      <trkpt lat="44.53597" lon="1.86931">
        <ele>389.591</ele>
        <time>2016-09-15T07:37:23Z</time>
      </trkpt>
      <trkpt lat="44.5356" lon="1.86816">
        <ele>384.554</ele>
        <time>2019-03-30T12:43:25Z</time>
      </trkpt>
      <trkpt lat="44.53545" lon="1.86708">
        <ele>380.153</ele>
        <time>2019-03-30T12:43:45Z</time>
      </trkpt>
      <trkpt lat="44.53476" lon="1.86527">
        <ele>382.562</ele>
        <time>2019-03-30T12:44:05Z</time>
      </trkpt>
      <trkpt lat="44.53274" lon="1.86476">
        <ele>366.283</ele>
        <time>2016-09-15T07:38:43Z</time>
      </trkpt>
      <trkpt lat="44.53169" lon="1.86487">
        <ele>360.211</ele>
        <time>2016-09-15T07:39:03Z</time>
      </trkpt>
      <trkpt lat="44.53032" lon="1.86534">
        <ele>348.908</ele>
        <time>2016-09-15T07:39:23Z</time>
      </trkpt>
      <trkpt lat="44.52945" lon="1.86538">
        <ele>340.472</ele>
        <time>2016-09-15T07:39:43Z</time>
      </trkpt>
      <trkpt lat="44.52858" lon="1.86414">
        <ele>338.839</ele>
        <time>2016-09-15T07:40:03Z</time>
      </trkpt>
      <trkpt lat="44.52656" lon="1.86257">
        <ele>332.568</ele>
        <time>2019-03-30T12:46:05Z</time>
      </trkpt>
      <trkpt lat="44.52563" lon="1.86229">
        <ele>328.117</ele>
        <time>2016-09-15T07:41:03Z</time>
      </trkpt>
      <trkpt lat="44.52448" lon="1.86173">
        <ele>317.373</ele>
        <time>2016-09-15T07:41:23Z</time>
      </trkpt>
      <trkpt lat="44.52274" lon="1.86113">
        <ele>308.254</ele>
        <time>2016-09-15T07:41:43Z</time>
      </trkpt>
      <trkpt lat="44.52212" lon="1.86032">
        <ele>309.117</ele>
        <time>2016-09-15T07:42:03Z</time>
      </trkpt>
      <trkpt lat="44.52099" lon="1.86038">
        <ele>306.566</ele>
        <time>2016-09-15T07:42:23Z</time>
      </trkpt>
      <trkpt lat="44.51975" lon="1.85969">
        <ele>312.875</ele>
        <time>2016-09-15T07:42:43Z</time>
      </trkpt>
      <trkpt lat="44.51896" lon="1.85963">
        <ele>312.028</ele>
        <time>2016-09-15T07:43:03Z</time>
      </trkpt>
      <trkpt lat="44.51825" lon="1.85965">
        <ele>310.02</ele>
        <time>2019-03-30T12:48:45Z</time>
      </trkpt>
      <trkpt lat="44.51642" lon="1.85836">
        <ele>313.108</ele>
        <time>2019-03-30T12:49:05Z</time>
      </trkpt>
      <trkpt lat="44.51646" lon="1.85789">
        <ele>315.283</ele>
        <time>2016-09-15T07:44:03Z</time>
      </trkpt>
      <trkpt lat="44.51642" lon="1.8574">
        <ele>313.87</ele>
        <time>2016-09-15T07:44:23Z</time>
      </trkpt>
      <trkpt lat="44.51659" lon="1.85693">
        <ele>314.859</ele>
        <time>2016-09-15T07:44:43Z</time>
      </trkpt>
      <trkpt lat="44.51646" lon="1.85572">
        <ele>319.428</ele>
        <time>2019-03-30T12:50:25Z</time>
      </trkpt>
      <trkpt lat="44.51698" lon="1.85545">
        <ele>325.344</ele>
        <time>2019-03-30T12:50:45Z</time>
      </trkpt>
      <trkpt lat="44.51713" lon="1.85442">
        <ele>327.235</ele>
        <time>2019-03-30T12:51:05Z</time>
      </trkpt>
      <trkpt lat="44.51709" lon="1.85371">
        <ele>331.248</ele>
        <time>2016-09-15T07:45:43Z</time>
      </trkpt>
      <trkpt lat="44.51827" lon="1.85276">
        <ele>337.747</ele>
        <time>2016-09-15T07:46:03Z</time>
      </trkpt>
      <trkpt lat="44.51886" lon="1.85201">
        <ele>335.022</ele>
        <time>2019-03-30T12:52:05Z</time>
      </trkpt>
      <trkpt lat="44.5194" lon="1.85107">
        <ele>335.362</ele>
        <time>2016-09-15T07:46:23Z</time>
      </trkpt>
      <trkpt lat="44.51998" lon="1.84929">
        <ele>343.608</ele>
        <time>2016-09-15T07:46:43Z</time>
      </trkpt>
      <trkpt lat="44.52006" lon="1.84806">
        <ele>353.508</ele>
        <time>2016-09-15T07:47:03Z</time>
      </trkpt>
      <trkpt lat="44.52141" lon="1.8468">
        <ele>368.348</ele>
        <time>2016-09-15T07:47:23Z</time>
      </trkpt>
      <trkpt lat="44.5205" lon="1.84513">
        <ele>371.265</ele>
        <time>2016-09-15T07:47:43Z</time>
      </trkpt>
      <trkpt lat="44.51998" lon="1.84463">
        <ele>376.244</ele>
        <time>2016-09-15T07:48:03Z</time>
      </trkpt>
      <trkpt lat="44.5192" lon="1.84349">
        <ele>375.073</ele>
        <time>2016-09-15T07:48:23Z</time>
      </trkpt>
      <trkpt lat="44.51832" lon="1.84251">
        <ele>381.159</ele>
        <time>2016-09-15T07:48:43Z</time>
      </trkpt>
      <trkpt lat="44.51639" lon="1.84015">
        <ele>372.11</ele>
        <time>2016-09-15T07:49:03Z</time>
      </trkpt>
      <trkpt lat="44.51623" lon="1.83849">
        <ele>372.433</ele>
        <time>2021-01-03T02:43:20Z</time>
      </trkpt>
      <trkpt lat="44.51584" lon="1.83663">
        <ele>371.862</ele>
        <time>2016-09-15T07:50:03Z</time>
      </trkpt>
      <trkpt lat="44.51576" lon="1.83551">
        <ele>365.666</ele>
        <time>2016-09-15T07:50:23Z</time>
      </trkpt>
      <trkpt lat="44.51461" lon="1.83247">
        <ele>360.429</ele>
        <time>2016-09-15T07:51:43Z</time>
      </trkpt>
      <trkpt lat="44.51388" lon="1.82948">
        <ele>324.221</ele>
        <time>2016-09-15T07:52:03Z</time>
      </trkpt>
      <trkpt lat="44.51353" lon="1.82873">
        <ele>320.108</ele>
        <time>2016-09-15T07:52:23Z</time>
      </trkpt>
      <trkpt lat="44.51307" lon="1.82884">
        <ele>318.652</ele>
        <time>2016-09-15T07:52:43Z</time>
      </trkpt>
      <trkpt lat="44.51226" lon="1.82867">
        <ele>325.489</ele>
        <time>2016-09-15T07:53:03Z</time>
      </trkpt>
      <trkpt lat="44.51177" lon="1.82912">
        <ele>330.588</ele>
        <time>2016-09-15T07:53:23Z</time>
      </trkpt>
      <trkpt lat="44.51131" lon="1.82907">
        <ele>330.677</ele>
        <time>2016-09-15T07:53:43Z</time>
      </trkpt>
      <trkpt lat="44.51034" lon="1.82955">
        <ele>338.653</ele>
        <time>2016-09-15T07:54:03Z</time>
      </trkpt>
      <trkpt lat="44.50913" lon="1.83086">
        <ele>354.164</ele>
        <time>2016-09-15T07:54:23Z</time>
      </trkpt>
      <trkpt lat="44.50823" lon="1.83116">
        <ele>360.227</ele>
        <time>2016-09-15T07:54:43Z</time>
      </trkpt>
      <trkpt lat="44.50788" lon="1.83182">
        <ele>355.026</ele>
        <time>2016-09-15T07:55:03Z</time>
      </trkpt>
      <trkpt lat="44.50483" lon="1.83311">
        <ele>324.826</ele>
        <time>2016-09-15T07:55:23Z</time>
      </trkpt>
      <trkpt lat="44.50437" lon="1.83356">
        <ele>319.247</ele>
        <time>2019-03-30T13:01:45Z</time>
      </trkpt>
      <trkpt lat="44.50164" lon="1.83504">
        <ele>306.411</ele>
        <time>2016-09-15T07:56:23Z</time>
      </trkpt>
      <trkpt lat="44.49841" lon="1.83508">
        <ele>289.608</ele>
        <time>2016-09-15T07:56:43Z</time>
      </trkpt>
      <trkpt lat="44.49766" lon="1.83532">
        <ele>290.218</ele>
        <time>2016-09-15T07:57:03Z</time>
      </trkpt>
      <trkpt lat="44.49706" lon="1.8351">
        <ele>289.665</ele>
        <time>2016-09-15T07:57:23Z</time>
      </trkpt>
      <trkpt lat="44.49646" lon="1.83558">
        <ele>288.954</ele>
        <time>2016-09-15T07:57:43Z</time>
      </trkpt>
      <trkpt lat="44.49617" lon="1.83641">
        <ele>283.543</ele>
        <time>2016-09-15T07:58:03Z</time>
      </trkpt>
      <trkpt lat="44.49571" lon="1.83689">
        <ele>278.649</ele>
        <time>2016-09-15T07:58:23Z</time>
      </trkpt>
      <trkpt lat="44.49509" lon="1.83678">
        <ele>268.76</ele>
        <time>2016-09-15T07:58:43Z</time>
      </trkpt>
      <trkpt lat="44.49427" lon="1.83738">
        <ele>256.863</ele>
        <time>2016-09-15T07:59:03Z</time>
      </trkpt>
      <trkpt lat="44.49378" lon="1.83704">
        <ele>259.652</ele>
        <time>2016-09-15T07:59:23Z</time>
      </trkpt>
      <trkpt lat="44.49323" lon="1.83697">
        <ele>248.019</ele>
        <time>2016-09-15T07:59:43Z</time>
      </trkpt>
      <trkpt lat="44.49288" lon="1.83669">
        <ele>256.009</ele>
        <time>2016-09-15T08:00:03Z</time>
      </trkpt>
      <trkpt lat="44.49222" lon="1.83658">
        <ele>234.719</ele>
        <time>2016-09-15T08:00:23Z</time>
      </trkpt>
      <trkpt lat="44.49173" lon="1.83624">
        <ele>237.408</ele>
        <time>2016-09-15T08:00:43Z</time>
      </trkpt>
      <trkpt lat="44.48951" lon="1.83673">
        <ele>184.997</ele>
        <time>2019-03-30T13:06:45Z</time>
      </trkpt>
      <trkpt lat="44.48907" lon="1.83728">
        <ele>171.184</ele>
        <time>2021-01-03T02:53:40Z</time>
      </trkpt>
      <trkpt lat="44.4889" lon="1.83797">
        <ele>162.933</ele>
        <time>2021-01-03T02:54:00Z</time>
      </trkpt>
      <trkpt lat="44.48851" lon="1.83957">
        <ele>155.822</ele>
        <time>2021-01-03T02:54:20Z</time>
      </trkpt>
      <trkpt lat="44.48817" lon="1.84058">
        <ele>155.678</ele>
        <time>2021-01-03T02:54:40Z</time>
      </trkpt>
      <trkpt lat="44.48796" lon="1.84106">
        <ele>154.859</ele>
        <time>2021-01-03T02:55:00Z</time>
      </trkpt>
      <trkpt lat="44.48746" lon="1.84134">
        <ele>152.972</ele>
        <time>2021-01-03T02:55:20Z</time>
      </trkpt>
      <trkpt lat="44.48699" lon="1.84173">
        <ele>152.941</ele>
        <time>2021-01-03T02:55:40Z</time>
      </trkpt>
      <trkpt lat="44.48675" lon="1.84185">
        <ele>152.727</ele>
        <time>2021-01-03T02:56:00Z</time>
      </trkpt>
      <trkpt lat="44.48659" lon="1.8421">
        <ele>153.268</ele>
        <time>2021-01-03T02:56:20Z</time>
      </trkpt>
      <trkpt lat="44.48643" lon="1.84196">
        <ele>153.014</ele>
        <time>2021-01-03T02:56:40Z</time>
      </trkpt>
      <trkpt lat="44.48641" lon="1.84209">
        <ele>153.508</ele>
        <time>2021-01-03T02:57:00Z</time>
      </trkpt>
      <trkpt lat="44.48621" lon="1.8423">
        <ele>155.618</ele>
        <time>2021-01-03T02:57:20Z</time>
      </trkpt>
      <trkpt lat="44.48595" lon="1.84239">
        <ele>158.415</ele>
        <time>2021-01-03T02:57:40Z</time>
      </trkpt>
      <trkpt lat="44.4857" lon="1.84262">
        <ele>159.884</ele>
        <time>2021-01-03T02:58:00Z</time>
      </trkpt>
      <trkpt lat="44.48546" lon="1.84264">
        <ele>159.363</ele>
        <time>2021-01-03T02:58:20Z</time>
      </trkpt>
      <trkpt lat="44.48519" lon="1.84277">
        <ele>157.739</ele>
        <time>2021-01-03T02:58:40Z</time>
      </trkpt>
      <trkpt lat="44.48516" lon="1.84294">
        <ele>157.42</ele>
        <time>2021-01-03T02:59:00Z</time>
      </trkpt>
      <trkpt lat="44.48469" lon="1.84309">
        <ele>154.983</ele>
        <time>2021-01-03T02:59:20Z</time>
      </trkpt>
      <trkpt lat="44.48448" lon="1.84311">
        <ele>154.172</ele>
        <time>2021-01-03T02:59:40Z</time>
      </trkpt>
      <trkpt lat="44.48366" lon="1.84345">
        <ele>152.081</ele>
        <time>2021-01-03T03:00:00Z</time>
      </trkpt>
      <trkpt lat="44.48331" lon="1.84368">
        <ele>151.861</ele>
        <time>2021-01-03T03:00:20Z</time>
      </trkpt>
      <trkpt lat="44.4831" lon="1.84311">
        <ele>152.117</ele>
        <time>2021-01-03T03:00:40Z</time>
      </trkpt>
      <trkpt lat="44.48293" lon="1.84297">
        <ele>151.708</ele>
        <time>2021-01-03T03:01:00Z</time>
      </trkpt>
      <trkpt lat="44.48254" lon="1.84178">
        <ele>148.084</ele>
        <time>2021-01-03T03:01:20Z</time>
      </trkpt>
      <trkpt lat="44.48148" lon="1.84017">
        <ele>148.051</ele>
        <time>2021-01-03T03:01:40Z</time>
      </trkpt>
      <trkpt lat="44.48076" lon="1.83932">
        <ele>148.76</ele>
        <time>2021-01-03T03:02:00Z</time>
      </trkpt>
      <trkpt lat="44.48128" lon="1.8392">
        <ele>149.669</ele>
        <time>2021-01-03T03:02:20Z</time>
      </trkpt>
      <trkpt lat="44.4814" lon="1.83896">
        <ele>150.885</ele>
        <time>2021-01-03T03:02:40Z</time>
      </trkpt>
      <trkpt lat="44.47935" lon="1.83698">
        <ele>150.766</ele>
        <time>2021-01-03T03:03:00Z</time>
      </trkpt>
      <trkpt lat="44.47941" lon="1.83682">
        <ele>154.049</ele>
        <time>2021-01-03T03:03:20Z</time>
      </trkpt>
      <trkpt lat="44.47973" lon="1.83677">
        <ele>158.078</ele>
        <time>2021-01-03T03:03:40Z</time>
      </trkpt>
      <trkpt lat="44.47923" lon="1.83649">
        <ele>164.299</ele>
        <time>2021-01-03T03:04:00Z</time>
      </trkpt>
      <trkpt lat="44.47904" lon="1.83621">
        <ele>178.507</ele>
        <time>2021-01-03T03:04:20Z</time>
      </trkpt>
      <trkpt lat="44.47818" lon="1.83616">
        <ele>191.527</ele>
        <time>2019-03-30T13:10:05Z</time>
      </trkpt>
      <trkpt lat="44.47745" lon="1.83639">
        <ele>182.608</ele>
        <time>2019-03-30T13:10:25Z</time>
      </trkpt>
      <trkpt lat="44.47682" lon="1.83642">
        <ele>183.285</ele>
        <time>2019-03-30T13:10:45Z</time>
      </trkpt>
      <trkpt lat="44.4759" lon="1.83667">
        <ele>185.542</ele>
        <time>2019-03-30T13:11:05Z</time>
      </trkpt>
      <trkpt lat="44.47515" lon="1.8361">
        <ele>181.821</ele>
        <time>2019-03-30T13:11:25Z</time>
      </trkpt>
      <trkpt lat="44.47462" lon="1.83611">
        <ele>183.21</ele>
        <time>2016-09-15T08:06:03Z</time>
      </trkpt>
      <trkpt lat="44.47269" lon="1.83746">
        <ele>179.756</ele>
        <time>2016-09-15T08:06:23Z</time>
      </trkpt>
      <trkpt lat="44.47126" lon="1.83822">
        <ele>175.187</ele>
        <time>2016-09-15T08:06:43Z</time>
      </trkpt>
      <trkpt lat="44.47004" lon="1.83843">
        <ele>162.61</ele>
        <time>2016-09-15T08:07:03Z</time>
      </trkpt>
      <trkpt lat="44.46875" lon="1.83841">
        <ele>150.949</ele>
        <time>2016-09-15T08:07:23Z</time>
      </trkpt>
      <trkpt lat="44.46808" lon="1.83802">
        <ele>148.122</ele>
        <time>2016-09-15T08:07:43Z</time>
      </trkpt>
      <trkpt lat="44.46819" lon="1.83543">
        <ele>147.862</ele>
        <time>2016-09-15T08:08:03Z</time>
      </trkpt>
      <trkpt lat="44.46835" lon="1.83506">
        <ele>147.008</ele>
        <time>2016-09-15T08:08:23Z</time>
      </trkpt>
      <trkpt lat="44.46865" lon="1.83272">
        <ele>149.008</ele>
        <time>2016-09-15T08:08:43Z</time>
      </trkpt>
      <trkpt lat="44.46854" lon="1.82918">
        <ele>151.958</ele>
        <time>2016-09-15T08:09:03Z</time>
      </trkpt>
      <trkpt lat="44.46842" lon="1.82887">
        <ele>166.375</ele>
        <time>2021-01-03T03:09:40Z</time>
      </trkpt>
      <trkpt lat="44.46862" lon="1.82881">
        <ele>168.224</ele>
        <time>2021-01-03T03:10:00Z</time>
      </trkpt>
      <trkpt lat="44.46907" lon="1.82892">
        <ele>170.833</ele>
        <time>2021-01-03T03:10:20Z</time>
      </trkpt>
      <trkpt lat="44.4696" lon="1.82921">
        <ele>171.129</ele>
        <time>2021-01-03T03:10:40Z</time>
      </trkpt>
      <trkpt lat="44.4709" lon="1.82996">
        <ele>163.79</ele>
        <time>2021-01-03T03:11:00Z</time>
      </trkpt>
      <trkpt lat="44.47185" lon="1.83019">
        <ele>151.383</ele>
        <time>2021-01-03T03:11:20Z</time>
      </trkpt>
      <trkpt lat="44.47216" lon="1.83007">
        <ele>148.042</ele>
        <time>2021-01-03T03:11:40Z</time>
      </trkpt>
      <trkpt lat="44.4729" lon="1.82836">
        <ele>160.277</ele>
        <time>2021-01-03T03:12:00Z</time>
      </trkpt>
      <trkpt lat="44.47249" lon="1.82844">
        <ele>168.161</ele>
        <time>2021-01-03T03:12:20Z</time>
      </trkpt>
      <trkpt lat="44.47196" lon="1.82873">
        <ele>169.727</ele>
        <time>2021-01-03T03:12:40Z</time>
      </trkpt>
      <trkpt lat="44.47141" lon="1.82878">
        <ele>178.608</ele>
        <time>2021-01-03T03:13:00Z</time>
      </trkpt>
      <trkpt lat="44.47116" lon="1.82911">
        <ele>178.743</ele>
        <time>2021-01-03T03:13:20Z</time>
      </trkpt>
      <trkpt lat="44.47089" lon="1.82917">
        <ele>177.41</ele>
        <time>2021-01-03T03:13:40Z</time>
      </trkpt>
      <trkpt lat="44.4702" lon="1.82855">
        <ele>188.089</ele>
        <time>2021-01-03T03:14:00Z</time>
      </trkpt>
      <trkpt lat="44.4699" lon="1.82845">
        <ele>187.518</ele>
        <time>2021-01-03T03:14:20Z</time>
      </trkpt>
      <trkpt lat="44.46927" lon="1.82844">
        <ele>179.614</ele>
        <time>2021-01-03T03:14:40Z</time>
      </trkpt>
      <trkpt lat="44.46884" lon="1.82832">
        <ele>179.315</ele>
        <time>2021-01-03T03:15:00Z</time>
      </trkpt>
      <trkpt lat="44.46806" lon="1.82839">
        <ele>175.888</ele>
        <time>2021-01-03T03:15:20Z</time>
      </trkpt>
      <trkpt lat="44.4675" lon="1.82837">
        <ele>169.187</ele>
        <time>2021-01-03T03:15:40Z</time>
      </trkpt>
      <trkpt lat="44.46715" lon="1.82842">
        <ele>170.117</ele>
        <time>2021-01-03T03:16:00Z</time>
      </trkpt>
      <trkpt lat="44.46669" lon="1.82843">
        <ele>172.087</ele>
        <time>2021-01-03T03:16:20Z</time>
      </trkpt>
      <trkpt lat="44.46652" lon="1.82839">
        <ele>171.415</ele>
        <time>2021-01-03T03:16:40Z</time>
      </trkpt>
      <trkpt lat="44.46616" lon="1.82851">
        <ele>168.908</ele>
        <time>2021-01-03T03:17:00Z</time>
      </trkpt>
      <trkpt lat="44.46567" lon="1.82772">
        <ele>172.987</ele>
        <time>2021-01-03T03:17:20Z</time>
      </trkpt>
      <trkpt lat="44.46584" lon="1.82851">
        <ele>170.874</ele>
        <time>2021-01-03T03:17:40Z</time>
      </trkpt>
      <trkpt lat="44.46552" lon="1.82837">
        <ele>178.513</ele>
        <time>2021-01-03T03:18:00Z</time>
      </trkpt>
      <trkpt lat="44.46524" lon="1.82783">
        <ele>182.322</ele>
        <time>2021-01-03T03:18:20Z</time>
      </trkpt>
      <trkpt lat="44.46483" lon="1.82721">
        <ele>184.058</ele>
        <time>2021-01-03T03:18:40Z</time>
      </trkpt>
      <trkpt lat="44.46402" lon="1.82622">
        <ele>180.219</ele>
        <time>2021-01-03T03:19:00Z</time>
      </trkpt>
      <trkpt lat="44.46286" lon="1.82547">
        <ele>193.562</ele>
        <time>2016-09-15T08:11:23Z</time>
      </trkpt>
      <trkpt lat="44.46237" lon="1.82459">
        <ele>193.731</ele>
        <time>2016-09-15T08:11:43Z</time>
      </trkpt>
      <trkpt lat="44.46139" lon="1.82435">
        <ele>208.833</ele>
        <time>2016-09-15T08:12:03Z</time>
      </trkpt>
      <trkpt lat="44.4609" lon="1.8236">
        <ele>212.623</ele>
        <time>2016-09-15T08:12:23Z</time>
      </trkpt>
      <trkpt lat="44.46027" lon="1.82227">
        <ele>222.715</ele>
        <time>2016-09-15T08:12:43Z</time>
      </trkpt>
      <trkpt lat="44.45949" lon="1.82242">
        <ele>234.508</ele>
        <time>2016-09-15T08:13:03Z</time>
      </trkpt>
      <trkpt lat="44.45802" lon="1.82362">
        <ele>250.589</ele>
        <time>2016-09-15T08:13:23Z</time>
      </trkpt>
      <trkpt lat="44.4576" lon="1.82283">
        <ele>249.316</ele>
        <time>2016-09-15T08:13:43Z</time>
      </trkpt>
      <trkpt lat="44.45727" lon="1.82287">
        <ele>251.365</ele>
        <time>2016-09-15T08:14:03Z</time>
      </trkpt>
      <trkpt lat="44.45704" lon="1.82405">
        <ele>263.234</ele>
        <time>2016-09-15T08:14:23Z</time>
      </trkpt>
      <trkpt lat="44.45638" lon="1.82478">
        <ele>271.01</ele>
        <time>2016-09-15T08:14:43Z</time>
      </trkpt>
      <trkpt lat="44.45598" lon="1.82543">
        <ele>281.951</ele>
        <time>2016-09-15T08:15:03Z</time>
      </trkpt>
      <trkpt lat="44.45503" lon="1.82564">
        <ele>291.254</ele>
        <time>2016-09-15T08:15:23Z</time>
      </trkpt>
      <trkpt lat="44.45428" lon="1.82646">
        <ele>298.933</ele>
        <time>2016-09-15T08:15:43Z</time>
      </trkpt>
      <trkpt lat="44.45319" lon="1.82865">
        <ele>312.311</ele>
        <time>2016-09-15T08:16:03Z</time>
      </trkpt>
      <trkpt lat="44.45218" lon="1.82924">
        <ele>325.121</ele>
        <time>2019-03-30T13:22:05Z</time>
      </trkpt>
      <trkpt lat="44.45058" lon="1.82885">
        <ele>344.403</ele>
        <time>2019-03-30T13:22:25Z</time>
      </trkpt>
      <trkpt lat="44.44772" lon="1.82963">
        <ele>344.708</ele>
        <time>2016-09-15T08:17:23Z</time>
      </trkpt>
      <trkpt lat="44.44604" lon="1.82905">
        <ele>339.477</ele>
        <time>2016-09-15T08:17:43Z</time>
      </trkpt>
      <trkpt lat="44.44533" lon="1.82892">
        <ele>333.494</ele>
        <time>2016-09-15T08:18:03Z</time>
      </trkpt>
      <trkpt lat="44.44491" lon="1.82854">
        <ele>335.153</ele>
        <time>2016-09-15T08:18:23Z</time>
      </trkpt>
      <trkpt lat="44.44425" lon="1.82841">
        <ele>336.482</ele>
        <time>2016-09-15T08:18:43Z</time>
      </trkpt>
      <trkpt lat="44.4435" lon="1.82847">
        <ele>338.038</ele>
        <time>2016-09-15T08:19:03Z</time>
      </trkpt>
      <trkpt lat="44.44227" lon="1.82901">
        <ele>345.169</ele>
        <time>2016-09-15T08:19:23Z</time>
      </trkpt>
      <trkpt lat="44.44115" lon="1.82993">
        <ele>350.612</ele>
        <time>2016-09-15T08:19:43Z</time>
      </trkpt>
      <trkpt lat="44.44048" lon="1.83071">
        <ele>353.471</ele>
        <time>2016-09-15T08:20:03Z</time>
      </trkpt>
      <trkpt lat="44.4395" lon="1.83287">
        <ele>350.779</ele>
        <time>2016-09-15T08:20:23Z</time>
      </trkpt>
      <trkpt lat="44.43812" lon="1.83384">
        <ele>357.305</ele>
        <time>2016-09-15T08:20:43Z</time>
      </trkpt>
      <trkpt lat="44.43718" lon="1.8347">
        <ele>361.025</ele>
        <time>2016-09-15T08:21:03Z</time>
      </trkpt>
      <trkpt lat="44.4364" lon="1.83504">
        <ele>363.508</ele>
        <time>2016-09-15T08:21:23Z</time>
      </trkpt>
      <trkpt lat="44.43528" lon="1.83528">
        <ele>361.193</ele>
        <time>2016-09-15T08:21:43Z</time>
      </trkpt>
      <trkpt lat="44.43348" lon="1.83485">
        <ele>358.63</ele>
        <time>2019-03-30T13:27:25Z</time>
      </trkpt>
      <trkpt lat="44.431" lon="1.83495">
        <ele>370.549</ele>
        <time>2019-03-30T13:27:45Z</time>
      </trkpt>
      <trkpt lat="44.42934" lon="1.83474">
        <ele>374.278</ele>
        <time>2016-09-15T08:22:23Z</time>
      </trkpt>
      <trkpt lat="44.42782" lon="1.83399">
        <ele>363.894</ele>
        <time>2016-09-15T08:22:43Z</time>
      </trkpt>
      <trkpt lat="44.42666" lon="1.83399">
        <ele>359.085</ele>
        <time>2016-09-15T08:23:03Z</time>
      </trkpt>
      <trkpt lat="44.42603" lon="1.83309">
        <ele>347.068</ele>
        <time>2016-09-15T08:23:23Z</time>
      </trkpt>
      <trkpt lat="44.42542" lon="1.83287">
        <ele>344.857</ele>
        <time>2016-09-15T08:23:43Z</time>
      </trkpt>
      <trkpt lat="44.42457" lon="1.83302">
        <ele>344.123</ele>
        <time>2016-09-15T08:24:03Z</time>
      </trkpt>
      <trkpt lat="44.42407" lon="1.8338">
        <ele>341.683</ele>
        <time>2016-09-15T08:24:23Z</time>
      </trkpt>
      <trkpt lat="44.42367" lon="1.83392">
        <ele>341.311</ele>
        <time>2016-09-15T08:24:43Z</time>
      </trkpt>
      <trkpt lat="44.42329" lon="1.83437">
        <ele>345.108</ele>
        <time>2016-09-15T08:25:03Z</time>
      </trkpt>
      <trkpt lat="44.42261" lon="1.83468">
        <ele>349.398</ele>
        <time>2016-09-15T08:25:23Z</time>
      </trkpt>
      <trkpt lat="44.42257" lon="1.83352">
        <ele>347.875</ele>
        <time>2016-09-15T08:25:43Z</time>
      </trkpt>
      <trkpt lat="44.4228" lon="1.83262">
        <ele>342.434</ele>
        <time>2016-09-15T08:26:03Z</time>
      </trkpt>
      <trkpt lat="44.42281" lon="1.83159">
        <ele>343.623</ele>
        <time>2016-09-15T08:26:23Z</time>
      </trkpt>
      <trkpt lat="44.42327" lon="1.82959">
        <ele>344.849</ele>
        <time>2016-09-15T08:26:43Z</time>
      </trkpt>
      <trkpt lat="44.42367" lon="1.82895">
        <ele>344.66</ele>
        <time>2016-09-15T08:27:03Z</time>
      </trkpt>
      <trkpt lat="44.42369" lon="1.82824">
        <ele>343.133</ele>
        <time>2016-09-15T08:27:23Z</time>
      </trkpt>
      <trkpt lat="44.42346" lon="1.82772">
        <ele>338.692</ele>
        <time>2016-09-15T08:27:43Z</time>
      </trkpt>
      <trkpt lat="44.42376" lon="1.82646">
        <ele>331.861</ele>
        <time>2016-09-15T08:28:03Z</time>
      </trkpt>
      <trkpt lat="44.42392" lon="1.82614">
        <ele>328.421</ele>
        <time>2016-09-15T08:28:23Z</time>
      </trkpt>
      <trkpt lat="44.42401" lon="1.82407">
        <ele>315.813</ele>
        <time>2019-03-30T13:34:25Z</time>
      </trkpt>
      <trkpt lat="44.42379" lon="1.8225">
        <ele>307.308</ele>
        <time>2019-03-30T13:34:45Z</time>
      </trkpt>
      <trkpt lat="44.42397" lon="1.8208">
        <ele>310.862</ele>
        <time>2019-03-30T13:35:05Z</time>
      </trkpt>
      <trkpt lat="44.42397" lon="1.81977">
        <ele>310.989</ele>
        <time>2019-03-30T13:35:25Z</time>
      </trkpt>
      <trkpt lat="44.42358" lon="1.81869">
        <ele>311.188</ele>
        <time>2019-03-30T13:35:45Z</time>
      </trkpt>
      <trkpt lat="44.42375" lon="1.81759">
        <ele>312.077</ele>
        <time>2016-09-15T08:30:23Z</time>
      </trkpt>
      <trkpt lat="44.42395" lon="1.8171">
        <ele>312.063</ele>
        <time>2016-09-15T08:30:43Z</time>
      </trkpt>
      <trkpt lat="44.4243" lon="1.81675">
        <ele>312.064</ele>
        <time>2019-03-30T13:36:45Z</time>
      </trkpt>
      <trkpt lat="44.4247" lon="1.81533">
        <ele>309.327</ele>
        <time>2019-03-30T13:37:05Z</time>
      </trkpt>
      <trkpt lat="44.4233" lon="1.81446">
        <ele>299.286</ele>
        <time>2016-09-15T08:31:43Z</time>
      </trkpt>
      <trkpt lat="44.42281" lon="1.81365">
        <ele>304.899</ele>
        <time>2016-09-15T08:32:03Z</time>
      </trkpt>
      <trkpt lat="44.42185" lon="1.81388">
        <ele>305.307</ele>
        <time>2016-09-15T08:32:23Z</time>
      </trkpt>
      <trkpt lat="44.42057" lon="1.81448">
        <ele>307.127</ele>
        <time>2016-09-15T08:32:43Z</time>
      </trkpt>
      <trkpt lat="44.41999" lon="1.81427">
        <ele>310.108</ele>
        <time>2016-09-15T08:33:03Z</time>
      </trkpt>
      <trkpt lat="44.41916" lon="1.81448">
        <ele>315.245</ele>
        <time>2016-09-15T08:33:23Z</time>
      </trkpt>
      <trkpt lat="44.41855" lon="1.81412">
        <ele>317.862</ele>
        <time>2016-09-15T08:33:43Z</time>
      </trkpt>
      <trkpt lat="44.4174" lon="1.8141">
        <ele>316.611</ele>
        <time>2016-09-15T08:34:03Z</time>
      </trkpt>
      <trkpt lat="44.41658" lon="1.81284">
        <ele>322.46</ele>
        <time>2019-03-30T13:40:05Z</time>
      </trkpt>
      <trkpt lat="44.41609" lon="1.81278">
        <ele>325.046</ele>
        <time>2019-03-30T13:40:25Z</time>
      </trkpt>
      <trkpt lat="44.41559" lon="1.81235">
        <ele>325.787</ele>
        <time>2019-03-30T13:40:45Z</time>
      </trkpt>
      <trkpt lat="44.41508" lon="1.81094">
        <ele>318.35</ele>
        <time>2019-03-30T13:41:05Z</time>
      </trkpt>
      <trkpt lat="44.41499" lon="1.81011">
        <ele>315.369</ele>
        <time>2019-03-30T13:41:25Z</time>
      </trkpt>
      <trkpt lat="44.41504" lon="1.80915">
        <ele>312.285</ele>
        <time>2019-03-30T13:41:45Z</time>
      </trkpt>
      <trkpt lat="44.4147" lon="1.80836">
        <ele>306.189</ele>
        <time>2019-03-30T13:42:05Z</time>
      </trkpt>
      <trkpt lat="44.41454" lon="1.8073">
        <ele>307.817</ele>
        <time>2019-03-30T13:42:25Z</time>
      </trkpt>
      <trkpt lat="44.41473" lon="1.80624">
        <ele>300.908</ele>
        <time>2019-03-30T13:42:45Z</time>
      </trkpt>
      <trkpt lat="44.41464" lon="1.80575">
        <ele>299.034</ele>
        <time>2019-03-30T13:43:05Z</time>
      </trkpt>
      <trkpt lat="44.41409" lon="1.8046">
        <ele>302.961</ele>
        <time>2019-03-30T13:43:25Z</time>
      </trkpt>
      <trkpt lat="44.41353" lon="1.80375">
        <ele>301.16</ele>
        <time>2019-03-30T13:43:45Z</time>
      </trkpt>
      <trkpt lat="44.41292" lon="1.80322">
        <ele>295.969</ele>
        <time>2019-03-30T13:44:05Z</time>
      </trkpt>
      <trkpt lat="44.413" lon="1.80243">
        <ele>293.165</ele>
        <time>2019-03-30T13:44:25Z</time>
      </trkpt>
      <trkpt lat="44.41284" lon="1.80209">
        <ele>289.846</ele>
        <time>2019-03-30T13:44:45Z</time>
      </trkpt>
      <trkpt lat="44.41251" lon="1.80195">
        <ele>287.189</ele>
        <time>2016-09-15T08:38:23Z</time>
      </trkpt>
      <trkpt lat="44.41127" lon="1.80285">
        <ele>304.298</ele>
        <time>2019-03-30T13:45:25Z</time>
      </trkpt>
      <trkpt lat="44.41099" lon="1.80354">
        <ele>305.941</ele>
        <time>2016-09-15T08:39:03Z</time>
      </trkpt>
      <trkpt lat="44.4105" lon="1.80387">
        <ele>309.681</ele>
        <time>2019-03-30T13:46:05Z</time>
      </trkpt>
      <trkpt lat="44.41013" lon="1.8044">
        <ele>314.109</ele>
        <time>2019-03-30T13:46:25Z</time>
      </trkpt>
      <trkpt lat="44.40839" lon="1.80586">
        <ele>324.308</ele>
        <time>2019-03-30T13:46:45Z</time>
      </trkpt>
      <trkpt lat="44.40743" lon="1.80693">
        <ele>335.74</ele>
        <time>2019-03-30T13:47:05Z</time>
      </trkpt>
      <trkpt lat="44.40722" lon="1.8068">
        <ele>337.057</ele>
        <time>2016-09-15T08:40:23Z</time>
      </trkpt>
      <trkpt lat="44.40724" lon="1.80603">
        <ele>332.256</ele>
        <time>2016-09-15T08:40:43Z</time>
      </trkpt>
      <trkpt lat="44.40646" lon="1.80459">
        <ele>329.655</ele>
        <time>2016-09-15T08:41:03Z</time>
      </trkpt>
      <trkpt lat="44.40579" lon="1.80509">
        <ele>332.361</ele>
        <time>2019-03-30T13:48:25Z</time>
      </trkpt>
      <trkpt lat="44.4052" lon="1.80445">
        <ele>322.642</ele>
        <time>2019-03-30T13:48:45Z</time>
      </trkpt>
      <trkpt lat="44.40447" lon="1.80493">
        <ele>318.835</ele>
        <time>2019-03-30T13:49:05Z</time>
      </trkpt>
      <trkpt lat="44.40397" lon="1.80503">
        <ele>319.164</ele>
        <time>2019-03-30T13:49:25Z</time>
      </trkpt>
      <trkpt lat="44.40351" lon="1.80459">
        <ele>321.544</ele>
        <time>2016-09-15T08:43:03Z</time>
      </trkpt>
      <trkpt lat="44.40335" lon="1.80399">
        <ele>323.905</ele>
        <time>2016-09-15T08:43:23Z</time>
      </trkpt>
      <trkpt lat="44.40292" lon="1.80408">
        <ele>324.515</ele>
        <time>2016-09-15T08:43:43Z</time>
      </trkpt>
      <trkpt lat="44.40188" lon="1.80282">
        <ele>325.408</ele>
        <time>2019-03-30T13:50:45Z</time>
      </trkpt>
      <trkpt lat="44.40223" lon="1.80182">
        <ele>326.09</ele>
        <time>2016-09-15T08:44:23Z</time>
      </trkpt>
      <trkpt lat="44.40171" lon="1.8012">
        <ele>322.317</ele>
        <time>2016-09-15T08:44:43Z</time>
      </trkpt>
      <trkpt lat="44.40128" lon="1.80026">
        <ele>329.426</ele>
        <time>2016-09-15T08:45:03Z</time>
      </trkpt>
      <trkpt lat="44.4016" lon="1.79931">
        <ele>327.945</ele>
        <time>2016-09-15T08:45:23Z</time>
      </trkpt>
      <trkpt lat="44.40144" lon="1.79878">
        <ele>328.271</ele>
        <time>2016-09-15T08:45:43Z</time>
      </trkpt>
      <trkpt lat="44.40115" lon="1.79837">
        <ele>330.572</ele>
        <time>2016-09-15T08:46:03Z</time>
      </trkpt>
      <trkpt lat="44.40114" lon="1.79792">
        <ele>328.395</ele>
        <time>2016-09-15T08:46:23Z</time>
      </trkpt>
      <trkpt lat="44.40091" lon="1.79777">
        <ele>328.764</ele>
        <time>2016-09-15T08:46:43Z</time>
      </trkpt>
      <trkpt lat="44.40074" lon="1.79747">
        <ele>328.471</ele>
        <time>2016-09-15T08:47:03Z</time>
      </trkpt>
      <trkpt lat="44.40039" lon="1.79745">
        <ele>326.441</ele>
        <time>2016-09-15T08:47:23Z</time>
      </trkpt>
      <trkpt lat="44.3997" lon="1.79805">
        <ele>324.715</ele>
        <time>2016-09-15T08:47:43Z</time>
      </trkpt>
      <trkpt lat="44.39919" lon="1.79873">
        <ele>329.908</ele>
        <time>2016-09-15T08:48:03Z</time>
      </trkpt>
      <trkpt lat="44.3987" lon="1.80011">
        <ele>331.723</ele>
        <time>2016-09-15T08:48:23Z</time>
      </trkpt>
      <trkpt lat="44.39862" lon="1.80069">
        <ele>329.79</ele>
        <time>2016-09-15T08:48:43Z</time>
      </trkpt>
      <trkpt lat="44.39823" lon="1.79976">
        <ele>324.899</ele>
        <time>2016-09-15T08:49:03Z</time>
      </trkpt>
      <trkpt lat="44.39911" lon="1.79644">
        <ele>317.398</ele>
        <time>2016-09-15T08:49:23Z</time>
      </trkpt>
      <trkpt lat="44.39853" lon="1.79549">
        <ele>325.674</ele>
        <time>2016-09-15T08:49:43Z</time>
      </trkpt>
      <trkpt lat="44.39844" lon="1.795">
        <ele>327.255</ele>
        <time>2016-09-15T08:50:03Z</time>
      </trkpt>
      <trkpt lat="44.39777" lon="1.79416">
        <ele>328.178</ele>
        <time>2016-09-15T08:50:23Z</time>
      </trkpt>
      <trkpt lat="44.39767" lon="1.79313">
        <ele>325.197</ele>
        <time>2016-09-15T08:50:43Z</time>
      </trkpt>
      <trkpt lat="44.39731" lon="1.79137">
        <ele>315.781</ele>
        <time>2016-09-15T08:51:03Z</time>
      </trkpt>
      <trkpt lat="44.39658" lon="1.79017">
        <ele>323.561</ele>
        <time>2016-09-15T08:51:23Z</time>
      </trkpt>
      <trkpt lat="44.39608" lon="1.78884">
        <ele>328.217</ele>
        <time>2016-09-15T08:51:43Z</time>
      </trkpt>
      <trkpt lat="44.39594" lon="1.78749">
        <ele>327.308</ele>
        <time>2016-09-15T08:52:03Z</time>
      </trkpt>
      <trkpt lat="44.39597" lon="1.78614">
        <ele>324.024</ele>
        <time>2016-09-15T08:52:23Z</time>
      </trkpt>
      <trkpt lat="44.39583" lon="1.78511">
        <ele>323.421</ele>
        <time>2019-03-30T13:59:25Z</time>
      </trkpt>
      <trkpt lat="44.39593" lon="1.7841">
        <ele>318.07</ele>
        <time>2019-03-30T13:59:45Z</time>
      </trkpt>
      <trkpt lat="44.39641" lon="1.78299">
        <ele>308.699</ele>
        <time>2019-03-30T14:00:05Z</time>
      </trkpt>
      <trkpt lat="44.39628" lon="1.78021">
        <ele>313.615</ele>
        <time>2019-03-30T14:00:25Z</time>
      </trkpt>
      <trkpt lat="44.39646" lon="1.77789">
        <ele>314.726</ele>
        <time>2019-03-30T14:00:45Z</time>
      </trkpt>
      <trkpt lat="44.39711" lon="1.77561">
        <ele>303.129</ele>
        <time>2019-03-30T14:01:05Z</time>
      </trkpt>
      <trkpt lat="44.39787" lon="1.77389">
        <ele>293.058</ele>
        <time>2019-03-30T14:01:25Z</time>
      </trkpt>
      <trkpt lat="44.39751" lon="1.77078">
        <ele>304.473</ele>
        <time>2019-03-30T14:01:45Z</time>
      </trkpt>
      <trkpt lat="44.39595" lon="1.76809">
        <ele>312.785</ele>
        <time>2019-03-30T14:02:05Z</time>
      </trkpt>
      <trkpt lat="44.39465" lon="1.76724">
        <ele>316.513</ele>
        <time>2019-03-30T14:02:25Z</time>
      </trkpt>
      <trkpt lat="44.39378" lon="1.76694">
        <ele>323.208</ele>
        <time>2019-03-30T14:02:45Z</time>
      </trkpt>
      <trkpt lat="44.39367" lon="1.76588">
        <ele>326.633</ele>
        <time>2016-09-15T08:58:03Z</time>
      </trkpt>
      <trkpt lat="44.39347" lon="1.76509">
        <ele>326.02</ele>
        <time>2016-09-15T08:58:23Z</time>
      </trkpt>
      <trkpt lat="44.39292" lon="1.7644">
        <ele>323.239</ele>
        <time>2016-09-15T08:58:43Z</time>
      </trkpt>
      <trkpt lat="44.39235" lon="1.76309">
        <ele>319.378</ele>
        <time>2016-09-15T08:59:03Z</time>
      </trkpt>
      <trkpt lat="44.39228" lon="1.76077">
        <ele>325.174</ele>
        <time>2016-09-15T08:59:23Z</time>
      </trkpt>
      <trkpt lat="44.39215" lon="1.75934">
        <ele>326.545</ele>
        <time>2016-09-15T08:59:43Z</time>
      </trkpt>
      <trkpt lat="44.39195" lon="1.75869">
        <ele>322.868</ele>
        <time>2016-09-15T09:00:03Z</time>
      </trkpt>
      <trkpt lat="44.39157" lon="1.75807">
        <ele>327.457</ele>
        <time>2016-09-15T09:00:23Z</time>
      </trkpt>
      <trkpt lat="44.39096" lon="1.75732">
        <ele>326.875</ele>
        <time>2016-09-15T09:00:43Z</time>
      </trkpt>
      <trkpt lat="44.3897" lon="1.75434">
        <ele>315.528</ele>
        <time>2016-09-15T09:01:03Z</time>
      </trkpt>
      <trkpt lat="44.38886" lon="1.75271">
        <ele>306.92</ele>
        <time>2016-09-15T09:01:23Z</time>
      </trkpt>
      <trkpt lat="44.38843" lon="1.75097">
        <ele>296.708</ele>
        <time>2016-09-15T09:01:43Z</time>
      </trkpt>
      <trkpt lat="44.38812" lon="1.7502">
        <ele>291.853</ele>
        <time>2016-09-15T09:02:03Z</time>
      </trkpt>
      <trkpt lat="44.38751" lon="1.74979">
        <ele>286.81</ele>
        <time>2016-09-15T09:02:23Z</time>
      </trkpt>
      <trkpt lat="44.38714" lon="1.74927">
        <ele>283.119</ele>
        <time>2016-09-15T09:02:43Z</time>
      </trkpt>
      <trkpt lat="44.38696" lon="1.74878">
        <ele>280.778</ele>
        <time>2016-09-15T09:03:03Z</time>
      </trkpt>
      <trkpt lat="44.38709" lon="1.7479">
        <ele>276.494</ele>
        <time>2016-09-15T09:03:23Z</time>
      </trkpt>
      <trkpt lat="44.38633" lon="1.74629">
        <ele>276.665</ele>
        <time>2016-09-15T09:03:43Z</time>
      </trkpt>
      <trkpt lat="44.38637" lon="1.74539">
        <ele>274.688</ele>
        <time>2016-09-15T09:04:03Z</time>
      </trkpt>
      <trkpt lat="44.38541" lon="1.74213">
        <ele>292.987</ele>
        <time>2016-09-15T09:04:23Z</time>
      </trkpt>
      <trkpt lat="44.38435" lon="1.74101">
        <ele>293.794</ele>
        <time>2016-09-15T09:04:43Z</time>
      </trkpt>
      <trkpt lat="44.38323" lon="1.73734">
        <ele>286.057</ele>
        <time>2016-09-15T09:05:03Z</time>
      </trkpt>
      <trkpt lat="44.38259" lon="1.73687">
        <ele>282.622</ele>
        <time>2016-09-15T09:05:23Z</time>
      </trkpt>
      <trkpt lat="44.38113" lon="1.73709">
        <ele>272.608</ele>
        <time>2016-09-15T09:05:43Z</time>
      </trkpt>
      <trkpt lat="44.38088" lon="1.73642">
        <ele>272.835</ele>
        <time>2016-09-15T09:06:03Z</time>
      </trkpt>
      <trkpt lat="44.38019" lon="1.735">
        <ele>278.352</ele>
        <time>2016-09-15T09:06:23Z</time>
      </trkpt>
      <trkpt lat="44.37993" lon="1.73385">
        <ele>280.091</ele>
        <time>2016-09-15T09:06:43Z</time>
      </trkpt>
      <trkpt lat="44.37998" lon="1.73316">
        <ele>279.96</ele>
        <time>2016-09-15T09:07:03Z</time>
      </trkpt>
      <trkpt lat="44.37992" lon="1.73247">
        <ele>277.866</ele>
        <time>2016-09-15T09:07:23Z</time>
      </trkpt>
      <trkpt lat="44.37783" lon="1.73142">
        <ele>279.267</ele>
        <time>2016-09-15T09:07:43Z</time>
      </trkpt>
      <trkpt lat="44.3776" lon="1.73082">
        <ele>278.63</ele>
        <time>2016-09-15T09:08:03Z</time>
      </trkpt>
      <trkpt lat="44.37705" lon="1.73022">
        <ele>281.579</ele>
        <time>2016-09-15T09:08:23Z</time>
      </trkpt>
      <trkpt lat="44.37691" lon="1.72977">
        <ele>283.229</ele>
        <time>2016-09-15T09:08:43Z</time>
      </trkpt>
      <trkpt lat="44.37837" lon="1.72897">
        <ele>278.1</ele>
        <time>2016-09-15T09:09:03Z</time>
      </trkpt>
      <trkpt lat="44.37964" lon="1.72859">
        <ele>276.02</ele>
        <time>2016-09-15T09:09:23Z</time>
      </trkpt>
      <trkpt lat="44.38004" lon="1.72865">
        <ele>276.908</ele>
        <time>2016-09-15T09:09:43Z</time>
      </trkpt>
      <trkpt lat="44.37978" lon="1.72749">
        <ele>280.238</ele>
        <time>2016-09-15T09:10:03Z</time>
      </trkpt>
      <trkpt lat="44.37881" lon="1.72468">
        <ele>282.395</ele>
        <time>2016-09-15T09:10:23Z</time>
      </trkpt>
      <trkpt lat="44.37927" lon="1.72183">
        <ele>269.134</ele>
        <time>2016-09-15T09:10:43Z</time>
      </trkpt>
      <trkpt lat="44.37979" lon="1.72099">
        <ele>269.763</ele>
        <time>2016-09-15T09:11:03Z</time>
      </trkpt>
      <trkpt lat="44.37972" lon="1.71966">
        <ele>265.059</ele>
        <time>2016-09-15T09:11:23Z</time>
      </trkpt>
      <trkpt lat="44.38018" lon="1.71818">
        <ele>261.51</ele>
        <time>2016-09-15T09:11:43Z</time>
      </trkpt>
      <trkpt lat="44.37987" lon="1.71674">
        <ele>267.793</ele>
        <time>2016-09-15T09:12:03Z</time>
      </trkpt>
      <trkpt lat="44.37959" lon="1.71625">
        <ele>269.462</ele>
        <time>2016-09-15T09:12:23Z</time>
      </trkpt>
      <trkpt lat="44.37943" lon="1.71535">
        <ele>270.087</ele>
        <time>2016-09-15T09:12:43Z</time>
      </trkpt>
      <trkpt lat="44.37561" lon="1.71739">
        <ele>281.842</ele>
        <time>2016-09-15T09:13:03Z</time>
      </trkpt>
      <trkpt lat="44.37515" lon="1.71773">
        <ele>281.526</ele>
        <time>2016-09-15T09:13:23Z</time>
      </trkpt>
      <trkpt lat="44.37371" lon="1.71837">
        <ele>282.708</ele>
        <time>2016-09-15T09:13:43Z</time>
      </trkpt>
      <trkpt lat="44.37274" lon="1.71938">
        <ele>286.164</ele>
        <time>2016-09-15T09:14:03Z</time>
      </trkpt>
      <trkpt lat="44.37213" lon="1.72022">
        <ele>287.611</ele>
        <time>2016-09-15T09:14:23Z</time>
      </trkpt>
      <trkpt lat="44.3707" lon="1.72073">
        <ele>288.47</ele>
        <time>2016-09-15T09:14:43Z</time>
      </trkpt>
      <trkpt lat="44.36637" lon="1.72355">
        <ele>298.219</ele>
        <time>2016-09-15T09:15:03Z</time>
      </trkpt>
      <trkpt lat="44.36482" lon="1.72282">
        <ele>298.945</ele>
        <time>2016-09-15T09:15:23Z</time>
      </trkpt>
      <trkpt lat="44.36389" lon="1.72228">
        <ele>297.636</ele>
        <time>2016-09-15T09:15:43Z</time>
      </trkpt>
      <trkpt lat="44.36346" lon="1.72275">
        <ele>296.169</ele>
        <time>2016-09-15T09:16:03Z</time>
      </trkpt>
      <trkpt lat="44.36203" lon="1.72249">
        <ele>303.168</ele>
        <time>2016-09-15T09:16:23Z</time>
      </trkpt>
      <trkpt lat="44.36084" lon="1.72264">
        <ele>312.061</ele>
        <time>2016-09-15T09:16:43Z</time>
      </trkpt>
      <trkpt lat="44.361" lon="1.72089">
        <ele>316.421</ele>
        <time>2016-09-15T09:17:03Z</time>
      </trkpt>
      <trkpt lat="44.36087" lon="1.72018">
        <ele>315.213</ele>
        <time>2016-09-15T09:17:23Z</time>
      </trkpt>
      <trkpt lat="44.3603" lon="1.71947">
        <ele>312.908</ele>
        <time>2016-09-15T09:17:43Z</time>
      </trkpt>
      <trkpt lat="44.36021" lon="1.71857">
        <ele>316.462</ele>
        <time>2016-09-15T09:18:03Z</time>
      </trkpt>
      <trkpt lat="44.36197" lon="1.7164">
        <ele>309.129</ele>
        <time>2016-09-15T09:18:23Z</time>
      </trkpt>
      <trkpt lat="44.36234" lon="1.71498">
        <ele>319.518</ele>
        <time>2016-09-15T09:18:43Z</time>
      </trkpt>
      <trkpt lat="44.36274" lon="1.7141">
        <ele>321.927</ele>
        <time>2016-09-15T09:19:03Z</time>
      </trkpt>
      <trkpt lat="44.36323" lon="1.71048">
        <ele>319.513</ele>
        <time>2016-09-15T09:19:23Z</time>
      </trkpt>
      <trkpt lat="44.36363" lon="1.70934">
        <ele>317.394</ele>
        <time>2016-09-15T09:19:43Z</time>
      </trkpt>
      <trkpt lat="44.36335" lon="1.70769">
        <ele>316.247</ele>
        <time>2016-09-15T09:20:03Z</time>
      </trkpt>
      <trkpt lat="44.36344" lon="1.70634">
        <ele>316.366</ele>
        <time>2016-09-15T09:20:23Z</time>
      </trkpt>
      <trkpt lat="44.36412" lon="1.70514">
        <ele>309.866</ele>
        <time>2016-09-15T09:20:43Z</time>
      </trkpt>
      <trkpt lat="44.36427" lon="1.70453">
        <ele>308.529</ele>
        <time>2016-09-15T09:21:03Z</time>
      </trkpt>
      <trkpt lat="44.36458" lon="1.70415">
        <ele>305.921</ele>
        <time>2016-09-15T09:21:23Z</time>
      </trkpt>
      <trkpt lat="44.36524" lon="1.70271">
        <ele>299.108</ele>
        <time>2016-09-15T09:21:43Z</time>
      </trkpt>
      <trkpt lat="44.36538" lon="1.70164">
        <ele>298.692</ele>
        <time>2016-09-15T09:22:03Z</time>
      </trkpt>
      <trkpt lat="44.3653" lon="1.7011">
        <ele>298.939</ele>
        <time>2016-09-15T09:22:23Z</time>
      </trkpt>
      <trkpt lat="44.36531" lon="1.69863">
        <ele>296.378</ele>
        <time>2016-09-15T09:22:43Z</time>
      </trkpt>
      <trkpt lat="44.36538" lon="1.69763">
        <ele>293.827</ele>
        <time>2016-09-15T09:23:03Z</time>
      </trkpt>
      <trkpt lat="44.36533" lon="1.69638">
        <ele>289.913</ele>
        <time>2016-09-15T09:23:23Z</time>
      </trkpt>
      <trkpt lat="44.36548" lon="1.69516">
        <ele>289.874</ele>
        <time>2016-09-15T09:23:43Z</time>
      </trkpt>
      <trkpt lat="44.36498" lon="1.69372">
        <ele>300.157</ele>
        <time>2016-09-15T09:24:03Z</time>
      </trkpt>
      <trkpt lat="44.36475" lon="1.6928">
        <ele>298.246</ele>
        <time>2016-09-15T09:24:23Z</time>
      </trkpt>
      <trkpt lat="44.36521" lon="1.69172">
        <ele>294.457</ele>
        <time>2016-09-15T09:24:43Z</time>
      </trkpt>
      <trkpt lat="44.36456" lon="1.69076">
        <ele>296.1</ele>
        <time>2016-09-15T09:25:03Z</time>
      </trkpt>
      <trkpt lat="44.36429" lon="1.68904">
        <ele>290.32</ele>
        <time>2016-09-15T09:25:23Z</time>
      </trkpt>
      <trkpt lat="44.36443" lon="1.68795">
        <ele>289.408</ele>
        <time>2016-09-15T09:25:43Z</time>
      </trkpt>
      <trkpt lat="44.36504" lon="1.6861">
        <ele>286.081</ele>
        <time>2016-09-15T09:26:03Z</time>
      </trkpt>
      <trkpt lat="44.36298" lon="1.6837">
        <ele>303.868</ele>
        <time>2016-09-15T09:26:23Z</time>
      </trkpt>
      <trkpt lat="44.36271" lon="1.68323">
        <ele>304.677</ele>
        <time>2016-09-15T09:26:43Z</time>
      </trkpt>
      <trkpt lat="44.36179" lon="1.68213">
        <ele>298.426</ele>
        <time>2016-09-15T09:27:03Z</time>
      </trkpt>
      <trkpt lat="44.35778" lon="1.67782">
        <ele>302.182</ele>
        <time>2016-09-15T09:27:23Z</time>
      </trkpt>
      <trkpt lat="44.35778" lon="1.67782">
        <ele>302.123</ele>
        <time>2016-09-15T09:27:43Z</time>
      </trkpt>
      <trkpt lat="44.35751" lon="1.67736">
        <ele>301.046</ele>
        <time>2016-09-15T09:28:03Z</time>
      </trkpt>
      <trkpt lat="44.35547" lon="1.67528">
        <ele>307.345</ele>
        <time>2016-09-15T09:28:23Z</time>
      </trkpt>
      <trkpt lat="44.35493" lon="1.67513">
        <ele>305.688</ele>
        <time>2016-09-15T09:28:43Z</time>
      </trkpt>
      <trkpt lat="44.35447" lon="1.67465">
        <ele>303.024</ele>
        <time>2016-09-15T09:29:03Z</time>
      </trkpt>
      <trkpt lat="44.35373" lon="1.67401">
        <ele>306.426</ele>
        <time>2016-09-15T09:29:23Z</time>
      </trkpt>
      <trkpt lat="44.35338" lon="1.6732">
        <ele>309.808</ele>
        <time>2016-09-15T09:29:43Z</time>
      </trkpt>
      <trkpt lat="44.35278" lon="1.67281">
        <ele>314.034</ele>
        <time>2016-09-15T09:30:03Z</time>
      </trkpt>
      <trkpt lat="44.35206" lon="1.67257">
        <ele>315.621</ele>
        <time>2016-09-15T09:30:23Z</time>
      </trkpt>
      <trkpt lat="44.35134" lon="1.67206">
        <ele>320.83</ele>
        <time>2016-09-15T09:30:43Z</time>
      </trkpt>
      <trkpt lat="44.35105" lon="1.67199">
        <ele>322.069</ele>
        <time>2016-09-15T09:31:03Z</time>
      </trkpt>
      <trkpt lat="44.34862" lon="1.66978">
        <ele>319.035</ele>
        <time>2016-09-15T09:31:23Z</time>
      </trkpt>
      <trkpt lat="44.34724" lon="1.66751">
        <ele>314.036</ele>
        <time>2016-09-15T09:31:43Z</time>
      </trkpt>
      <trkpt lat="44.34704" lon="1.66676">
        <ele>313.319</ele>
        <time>2016-09-15T09:32:03Z</time>
      </trkpt>
      <trkpt lat="44.34726" lon="1.66575">
        <ele>313.148</ele>
        <time>2016-09-15T09:32:23Z</time>
      </trkpt>
      <trkpt lat="44.34611" lon="1.65918">
        <ele>310.056</ele>
        <time>2016-09-15T09:32:43Z</time>
      </trkpt>
      <trkpt lat="44.345" lon="1.65669">
        <ele>308.159</ele>
        <time>2016-09-15T09:33:03Z</time>
      </trkpt>
      <trkpt lat="44.34649" lon="1.65099">
        <ele>305.814</ele>
        <time>2016-09-15T09:33:23Z</time>
      </trkpt>
      <trkpt lat="44.34681" lon="1.64966">
        <ele>305.208</ele>
        <time>2016-09-15T09:33:43Z</time>
      </trkpt>
      <trkpt lat="44.34712" lon="1.64818">
        <ele>304.441</ele>
        <time>2016-09-15T09:34:03Z</time>
      </trkpt>
      <trkpt lat="44.34712" lon="1.64695">
        <ele>305.658</ele>
        <time>2016-09-15T09:34:23Z</time>
      </trkpt>
      <trkpt lat="44.3466" lon="1.64509">
        <ele>303.197</ele>
        <time>2016-09-15T09:34:43Z</time>
      </trkpt>
      <trkpt lat="44.34615" lon="1.6429">
        <ele>302.916</ele>
        <time>2016-09-15T09:35:03Z</time>
      </trkpt>
      <trkpt lat="44.34572" lon="1.64182">
        <ele>308.872</ele>
        <time>2016-09-15T09:35:23Z</time>
      </trkpt>
      <trkpt lat="44.34523" lon="1.64099">
        <ele>312.133</ele>
        <time>2016-09-15T09:35:43Z</time>
      </trkpt>
      <trkpt lat="44.34454" lon="1.63818">
        <ele>312.856</ele>
        <time>2016-09-15T09:36:03Z</time>
      </trkpt>
      <trkpt lat="44.34434" lon="1.63637">
        <ele>314.875</ele>
        <time>2016-09-15T09:36:23Z</time>
      </trkpt>
      <trkpt lat="44.34472" lon="1.63288">
        <ele>314.385</ele>
        <time>2016-09-15T09:36:43Z</time>
      </trkpt>
      <trkpt lat="44.34512" lon="1.63105">
        <ele>310.989</ele>
        <time>2016-09-15T09:37:03Z</time>
      </trkpt>
      <trkpt lat="44.34617" lon="1.62822">
        <ele>306.817</ele>
        <time>2016-09-15T09:37:23Z</time>
      </trkpt>
      <trkpt lat="44.34703" lon="1.62511">
        <ele>298.008</ele>
        <time>2016-09-15T09:37:43Z</time>
      </trkpt>
      <trkpt lat="44.34707" lon="1.61726">
        <ele>264.274</ele>
        <time>2016-09-15T09:38:03Z</time>
      </trkpt>
      <trkpt lat="44.34726" lon="1.61663">
        <ele>260.011</ele>
        <time>2016-09-15T09:38:23Z</time>
      </trkpt>
      <trkpt lat="44.3473" lon="1.61573">
        <ele>262.26</ele>
        <time>2016-09-15T09:38:43Z</time>
      </trkpt>
      <trkpt lat="44.34804" lon="1.61429">
        <ele>261.739</ele>
        <time>2016-09-15T09:39:03Z</time>
      </trkpt>
      <trkpt lat="44.34822" lon="1.61268">
        <ele>267.545</ele>
        <time>2016-09-15T09:39:23Z</time>
      </trkpt>
      <trkpt lat="44.34824" lon="1.61135">
        <ele>274.466</ele>
        <time>2016-09-15T09:39:43Z</time>
      </trkpt>
      <trkpt lat="44.34804" lon="1.61015">
        <ele>278.489</ele>
        <time>2016-09-15T09:40:03Z</time>
      </trkpt>
      <trkpt lat="44.34782" lon="1.60601">
        <ele>281.048</ele>
        <time>2016-09-15T09:40:23Z</time>
      </trkpt>
      <trkpt lat="44.34835" lon="1.60294">
        <ele>273.974</ele>
        <time>2016-09-15T09:40:43Z</time>
      </trkpt>
      <trkpt lat="44.34873" lon="1.60208">
        <ele>269.456</ele>
        <time>2016-09-15T09:41:03Z</time>
      </trkpt>
      <trkpt lat="44.34884" lon="1.60138">
        <ele>267.021</ele>
        <time>2016-09-15T09:41:23Z</time>
      </trkpt>
      <trkpt lat="44.34917" lon="1.60088">
        <ele>268.808</ele>
        <time>2016-09-15T09:41:43Z</time>
      </trkpt>
      <trkpt lat="44.34973" lon="1.59955">
        <ele>272.023</ele>
        <time>2016-09-15T09:42:03Z</time>
      </trkpt>
      <trkpt lat="44.35082" lon="1.59751">
        <ele>276.94</ele>
        <time>2016-09-15T09:42:23Z</time>
      </trkpt>
      <trkpt lat="44.35151" lon="1.59655">
        <ele>278.299</ele>
        <time>2016-09-15T09:42:43Z</time>
      </trkpt>
      <trkpt lat="44.3527" lon="1.59412">
        <ele>274.438</ele>
        <time>2016-09-15T09:43:03Z</time>
      </trkpt>
      <trkpt lat="44.35428" lon="1.59144">
        <ele>276.614</ele>
        <time>2016-09-15T09:43:23Z</time>
      </trkpt>
      <trkpt lat="44.35527" lon="1.58921">
        <ele>276.965</ele>
        <time>2016-09-15T09:43:43Z</time>
      </trkpt>
      <trkpt lat="44.3559" lon="1.58679">
        <ele>282.358</ele>
        <time>2016-09-15T09:44:03Z</time>
      </trkpt>
      <trkpt lat="44.35629" lon="1.58412">
        <ele>279.967</ele>
        <time>2016-09-15T09:44:23Z</time>
      </trkpt>
      <trkpt lat="44.35651" lon="1.58067">
        <ele>268.443</ele>
        <time>2016-09-15T09:44:43Z</time>
      </trkpt>
      <trkpt lat="44.35642" lon="1.57955">
        <ele>268.064</ele>
        <time>2016-09-15T09:45:03Z</time>
      </trkpt>
      <trkpt lat="44.3566" lon="1.57831">
        <ele>271.21</ele>
        <time>2016-09-15T09:45:23Z</time>
      </trkpt>
      <trkpt lat="44.35794" lon="1.57501">
        <ele>273.908</ele>
        <time>2016-09-15T09:45:43Z</time>
      </trkpt>
      <trkpt lat="44.35912" lon="1.57181">
        <ele>269.83</ele>
        <time>2016-09-15T09:46:03Z</time>
      </trkpt>
      <trkpt lat="44.35982" lon="1.57082">
        <ele>265.717</ele>
        <time>2016-09-15T09:46:23Z</time>
      </trkpt>
      <trkpt lat="44.36139" lon="1.56913">
        <ele>252.796</ele>
        <time>2016-09-15T09:46:43Z</time>
      </trkpt>
      <trkpt lat="44.36179" lon="1.56833">
        <ele>251.095</ele>
        <time>2016-09-15T09:47:03Z</time>
      </trkpt>
      <trkpt lat="44.36251" lon="1.56604">
        <ele>258.131</ele>
        <time>2016-09-15T09:47:23Z</time>
      </trkpt>
      <trkpt lat="44.36301" lon="1.56462">
        <ele>261.612</ele>
        <time>2016-09-15T09:47:43Z</time>
      </trkpt>
      <trkpt lat="44.36378" lon="1.56312">
        <ele>268.245</ele>
        <time>2016-09-15T09:48:03Z</time>
      </trkpt>
      <trkpt lat="44.36453" lon="1.5614">
        <ele>269.064</ele>
        <time>2016-09-15T09:48:23Z</time>
      </trkpt>
      <trkpt lat="44.36613" lon="1.55872">
        <ele>278.452</ele>
        <time>2016-09-15T09:48:43Z</time>
      </trkpt>
      <trkpt lat="44.36728" lon="1.55533">
        <ele>276.253</ele>
        <time>2016-09-15T09:49:03Z</time>
      </trkpt>
      <trkpt lat="44.36944" lon="1.55151">
        <ele>273.608</ele>
        <time>2016-09-15T09:49:23Z</time>
      </trkpt>
      <trkpt lat="44.37016" lon="1.54947">
        <ele>276.008</ele>
        <time>2016-09-15T09:49:43Z</time>
      </trkpt>
      <trkpt lat="44.37085" lon="1.54649">
        <ele>272.481</ele>
        <time>2016-09-15T09:50:03Z</time>
      </trkpt>
      <trkpt lat="44.37174" lon="1.54411">
        <ele>275.038</ele>
        <time>2016-09-15T09:50:23Z</time>
      </trkpt>
      <trkpt lat="44.37202" lon="1.54147">
        <ele>268.947</ele>
        <time>2016-09-15T09:50:43Z</time>
      </trkpt>
      <trkpt lat="44.37216" lon="1.53962">
        <ele>263.796</ele>
        <time>2016-09-15T09:51:03Z</time>
      </trkpt>
      <trkpt lat="44.37271" lon="1.53825">
        <ele>257.852</ele>
        <time>2016-09-15T09:51:23Z</time>
      </trkpt>
      <trkpt lat="44.37298" lon="1.53743">
        <ele>255.133</ele>
        <time>2016-09-15T09:51:43Z</time>
      </trkpt>
      <trkpt lat="44.37352" lon="1.53645">
        <ele>251.386</ele>
        <time>2016-09-15T09:52:03Z</time>
      </trkpt>
      <trkpt lat="44.37381" lon="1.53569">
        <ele>248.675</ele>
        <time>2016-09-15T09:52:23Z</time>
      </trkpt>
      <trkpt lat="44.37426" lon="1.53505">
        <ele>244.799</ele>
        <time>2016-09-15T09:52:43Z</time>
      </trkpt>
      <trkpt lat="44.37475" lon="1.53464">
        <ele>233.907</ele>
        <time>2016-09-15T09:53:03Z</time>
      </trkpt>
      <trkpt lat="44.37489" lon="1.53348">
        <ele>231.427</ele>
        <time>2016-09-15T09:53:23Z</time>
      </trkpt>
      <trkpt lat="44.37446" lon="1.53039">
        <ele>223.608</ele>
        <time>2016-09-15T09:53:43Z</time>
      </trkpt>
      <trkpt lat="44.3745" lon="1.52979">
        <ele>220.715</ele>
        <time>2016-09-15T09:54:03Z</time>
      </trkpt>
      <trkpt lat="44.37507" lon="1.52812">
        <ele>218.212</ele>
        <time>2016-09-15T09:54:23Z</time>
      </trkpt>
      <trkpt lat="44.37536" lon="1.52681">
        <ele>216.991</ele>
        <time>2016-09-15T09:54:43Z</time>
      </trkpt>
      <trkpt lat="44.37608" lon="1.52602">
        <ele>210.15</ele>
        <time>2016-09-15T09:55:03Z</time>
      </trkpt>
      <trkpt lat="44.37677" lon="1.52456">
        <ele>203.596</ele>
        <time>2016-09-15T09:55:23Z</time>
      </trkpt>
      <trkpt lat="44.37809" lon="1.52411">
        <ele>200.137</ele>
        <time>2016-09-15T09:55:43Z</time>
      </trkpt>
      <trkpt lat="44.37894" lon="1.52449">
        <ele>199.91</ele>
        <time>2016-09-15T09:56:03Z</time>
      </trkpt>
      <trkpt lat="44.37995" lon="1.52409">
        <ele>199.959</ele>
        <time>2016-09-15T09:56:23Z</time>
      </trkpt>
      <trkpt lat="44.38053" lon="1.52415">
        <ele>198.068</ele>
        <time>2016-09-15T09:56:43Z</time>
      </trkpt>
      <trkpt lat="44.38114" lon="1.52351">
        <ele>197.942</ele>
        <time>2016-09-15T09:57:03Z</time>
      </trkpt>
      <trkpt lat="44.38114" lon="1.52351">
        <ele>197.926</ele>
        <time>2016-09-15T09:57:23Z</time>
      </trkpt>
      <trkpt lat="44.38174" lon="1.52293">
        <ele>198.308</ele>
        <time>2016-09-15T09:57:43Z</time>
      </trkpt>
      <trkpt lat="44.38196" lon="1.52147">
        <ele>194.752</ele>
        <time>2016-09-15T09:58:03Z</time>
      </trkpt>
      <trkpt lat="44.38266" lon="1.52082">
        <ele>196.119</ele>
        <time>2016-09-15T09:58:23Z</time>
      </trkpt>
      <trkpt lat="44.38308" lon="1.52009">
        <ele>192.418</ele>
        <time>2016-09-15T09:58:43Z</time>
      </trkpt>
      <trkpt lat="44.38375" lon="1.5193">
        <ele>196.027</ele>
        <time>2016-09-15T09:59:03Z</time>
      </trkpt>
      <trkpt lat="44.38435" lon="1.51814">
        <ele>192.873</ele>
        <time>2016-09-15T09:59:23Z</time>
      </trkpt>
      <trkpt lat="44.38547" lon="1.5178">
        <ele>190.644</ele>
        <time>2016-09-15T09:59:43Z</time>
      </trkpt>
      <trkpt lat="44.38558" lon="1.51703">
        <ele>186.017</ele>
        <time>2016-09-15T10:00:03Z</time>
      </trkpt>
      <trkpt lat="44.38617" lon="1.51707">
        <ele>187.666</ele>
        <time>2016-09-15T10:00:23Z</time>
      </trkpt>
      <trkpt lat="44.38623" lon="1.51679">
        <ele>188.226</ele>
        <time>2016-09-15T10:00:43Z</time>
      </trkpt>
      <trkpt lat="44.38533" lon="1.51567">
        <ele>185.947</ele>
        <time>2019-03-30T15:06:05Z</time>
      </trkpt>
      <trkpt lat="44.38526" lon="1.51491">
        <ele>186.211</ele>
        <time>2019-03-30T15:06:25Z</time>
      </trkpt>
      <trkpt lat="44.38525" lon="1.51367">
        <ele>201.008</ele>
        <time>2019-03-30T15:06:45Z</time>
      </trkpt>
      <trkpt lat="44.38388" lon="1.51293">
        <ele>197.998</ele>
        <time>2019-03-30T15:07:05Z</time>
      </trkpt>
      <trkpt lat="44.38316" lon="1.51155">
        <ele>200.575</ele>
        <time>2019-03-30T15:07:25Z</time>
      </trkpt>
      <trkpt lat="44.38354" lon="1.5101">
        <ele>210.914</ele>
        <time>2019-03-30T15:07:45Z</time>
      </trkpt>
      <trkpt lat="44.38418" lon="1.50911">
        <ele>214.393</ele>
        <time>2019-03-30T15:08:05Z</time>
      </trkpt>
      <trkpt lat="44.38563" lon="1.50617">
        <ele>229.879</ele>
        <time>2019-03-30T15:08:25Z</time>
      </trkpt>
      <trkpt lat="44.38645" lon="1.50495">
        <ele>239.64</ele>
        <time>2016-09-15T10:05:03Z</time>
      </trkpt>
      <trkpt lat="44.38723" lon="1.50248">
        <ele>254.193</ele>
        <time>2016-09-15T10:05:23Z</time>
      </trkpt>
      <trkpt lat="44.38889" lon="1.50385">
        <ele>255.172</ele>
        <time>2016-09-15T10:05:43Z</time>
      </trkpt>
      <trkpt lat="44.38958" lon="1.50471">
        <ele>258.094</ele>
        <time>2016-09-15T10:06:03Z</time>
      </trkpt>
      <trkpt lat="44.39125" lon="1.50574">
        <ele>258.257</ele>
        <time>2016-09-15T10:06:23Z</time>
      </trkpt>
      <trkpt lat="44.39222" lon="1.50518">
        <ele>251.422</ele>
        <time>2016-09-15T10:06:43Z</time>
      </trkpt>
      <trkpt lat="44.39266" lon="1.50465">
        <ele>246.408</ele>
        <time>2016-09-15T10:07:03Z</time>
      </trkpt>
      <trkpt lat="44.39427" lon="1.50439">
        <ele>231.955</ele>
        <time>2016-09-15T10:07:23Z</time>
      </trkpt>
      <trkpt lat="44.39507" lon="1.50394">
        <ele>230.872</ele>
        <time>2016-09-15T10:07:43Z</time>
      </trkpt>
      <trkpt lat="44.39527" lon="1.50366">
        <ele>234.481</ele>
        <time>2016-09-15T10:08:03Z</time>
      </trkpt>
      <trkpt lat="44.39533" lon="1.50276">
        <ele>246.42</ele>
        <time>2016-09-15T10:08:23Z</time>
      </trkpt>
      <trkpt lat="44.39623" lon="1.50053">
        <ele>273.346</ele>
        <time>2016-09-15T10:08:43Z</time>
      </trkpt>
      <trkpt lat="44.39749" lon="1.49924">
        <ele>278.057</ele>
        <time>2016-09-15T10:09:03Z</time>
      </trkpt>
      <trkpt lat="44.39976" lon="1.49683">
        <ele>271.67</ele>
        <time>2016-09-15T10:09:23Z</time>
      </trkpt>
      <trkpt lat="44.40135" lon="1.49379">
        <ele>262.349</ele>
        <time>2016-09-15T10:09:43Z</time>
      </trkpt>
      <trkpt lat="44.40546" lon="1.49005">
        <ele>216.258</ele>
        <time>2016-09-15T10:10:03Z</time>
      </trkpt>
      <trkpt lat="44.4064" lon="1.48963">
        <ele>198.352</ele>
        <time>2016-09-15T10:10:23Z</time>
      </trkpt>
      <trkpt lat="44.40794" lon="1.48969">
        <ele>193.517</ele>
        <time>2016-09-15T10:10:43Z</time>
      </trkpt>
      <trkpt lat="44.40882" lon="1.49096">
        <ele>190.108</ele>
        <time>2016-09-15T10:11:03Z</time>
      </trkpt>
      <trkpt lat="44.40923" lon="1.49117">
        <ele>192.681</ele>
        <time>2016-09-15T10:11:23Z</time>
      </trkpt>
      <trkpt lat="44.40954" lon="1.49061">
        <ele>196.658</ele>
        <time>2016-09-15T10:11:43Z</time>
      </trkpt>
      <trkpt lat="44.40952" lon="1.48941">
        <ele>202.047</ele>
        <time>2016-09-15T10:12:03Z</time>
      </trkpt>
      <trkpt lat="44.40893" lon="1.48761">
        <ele>204.046</ele>
        <time>2016-09-15T10:12:23Z</time>
      </trkpt>
      <trkpt lat="44.40837" lon="1.48656">
        <ele>207.622</ele>
        <time>2016-09-15T10:12:43Z</time>
      </trkpt>
      <trkpt lat="44.40839" lon="1.48589">
        <ele>206.433</ele>
        <time>2016-09-15T10:13:03Z</time>
      </trkpt>
      <trkpt lat="44.40868" lon="1.48456">
        <ele>206.376</ele>
        <time>2016-09-15T10:13:23Z</time>
      </trkpt>
      <trkpt lat="44.40863" lon="1.48196">
        <ele>213.515</ele>
        <time>2016-09-15T10:13:43Z</time>
      </trkpt>
      <trkpt lat="44.40851" lon="1.48063">
        <ele>217.416</ele>
        <time>2016-09-15T10:14:03Z</time>
      </trkpt>
      <trkpt lat="44.40808" lon="1.4796">
        <ele>215.076</ele>
        <time>2016-09-15T10:14:23Z</time>
      </trkpt>
      <trkpt lat="44.40793" lon="1.47879">
        <ele>217.113</ele>
        <time>2016-09-15T10:14:43Z</time>
      </trkpt>
      <trkpt lat="44.40735" lon="1.47845">
        <ele>217.908</ele>
        <time>2016-09-15T10:15:03Z</time>
      </trkpt>
      <trkpt lat="44.4069" lon="1.47784">
        <ele>218.537</ele>
        <time>2016-09-15T10:15:23Z</time>
      </trkpt>
      <trkpt lat="44.4063" lon="1.47718">
        <ele>224.324</ele>
        <time>2016-09-15T10:15:43Z</time>
      </trkpt>
      <trkpt lat="44.40592" lon="1.47617">
        <ele>227.813</ele>
        <time>2016-09-15T10:16:03Z</time>
      </trkpt>
      <trkpt lat="44.40603" lon="1.47523">
        <ele>227.982</ele>
        <time>2016-09-15T10:16:23Z</time>
      </trkpt>
      <trkpt lat="44.40588" lon="1.47471">
        <ele>228.238</ele>
        <time>2016-09-15T10:16:43Z</time>
      </trkpt>
      <trkpt lat="44.40588" lon="1.47471">
        <ele>228.239</ele>
        <time>2016-09-15T10:17:03Z</time>
      </trkpt>
      <trkpt lat="44.40701" lon="1.47252">
        <ele>242.412</ele>
        <time>2016-09-15T10:17:23Z</time>
      </trkpt>
      <trkpt lat="44.40704" lon="1.4722">
        <ele>244.621</ele>
        <time>2016-09-15T10:17:43Z</time>
      </trkpt>
      <trkpt lat="44.40778" lon="1.47134">
        <ele>248.418</ele>
        <time>2016-09-15T10:18:03Z</time>
      </trkpt>
      <trkpt lat="44.40735" lon="1.47044">
        <ele>259.498</ele>
        <time>2016-09-15T10:18:23Z</time>
      </trkpt>
      <trkpt lat="44.40749" lon="1.46964">
        <ele>265.217</ele>
        <time>2016-09-15T10:18:43Z</time>
      </trkpt>
      <trkpt lat="44.40804" lon="1.46853">
        <ele>270.308</ele>
        <time>2016-09-15T10:19:03Z</time>
      </trkpt>
      <trkpt lat="44.40842" lon="1.46853">
        <ele>271.747</ele>
        <time>2016-09-15T10:19:23Z</time>
      </trkpt>
      <trkpt lat="44.40913" lon="1.46911">
        <ele>272.434</ele>
        <time>2016-09-15T10:19:43Z</time>
      </trkpt>
      <trkpt lat="44.40977" lon="1.46866">
        <ele>277.733</ele>
        <time>2016-09-15T10:20:03Z</time>
      </trkpt>
      <trkpt lat="44.41085" lon="1.46859">
        <ele>284.082</ele>
        <time>2016-09-15T10:20:23Z</time>
      </trkpt>
      <trkpt lat="44.41284" lon="1.46797">
        <ele>274.488</ele>
        <time>2016-09-15T10:20:43Z</time>
      </trkpt>
      <trkpt lat="44.41393" lon="1.46621">
        <ele>271.089</ele>
        <time>2016-09-15T10:21:03Z</time>
      </trkpt>
      <trkpt lat="44.41488" lon="1.46494">
        <ele>267.822</ele>
        <time>2016-09-15T10:21:23Z</time>
      </trkpt>
      <trkpt lat="44.41503" lon="1.46415">
        <ele>266.271</ele>
        <time>2016-09-15T10:21:43Z</time>
      </trkpt>
      <trkpt lat="44.41593" lon="1.4625">
        <ele>275.031</ele>
        <time>2016-09-15T10:22:03Z</time>
      </trkpt>
      <trkpt lat="44.41682" lon="1.46158">
        <ele>275.461</ele>
        <time>2016-09-15T10:22:23Z</time>
      </trkpt>
      <trkpt lat="44.41711" lon="1.46055">
        <ele>265.707</ele>
        <time>2016-09-15T10:22:43Z</time>
      </trkpt>
      <trkpt lat="44.41727" lon="1.45928">
        <ele>260.608</ele>
        <time>2016-09-15T10:23:03Z</time>
      </trkpt>
      <trkpt lat="44.41777" lon="1.4569">
        <ele>256.089</ele>
        <time>2016-09-15T10:23:23Z</time>
      </trkpt>
      <trkpt lat="44.41975" lon="1.45572">
        <ele>252.736</ele>
        <time>2016-09-15T10:23:43Z</time>
      </trkpt>
      <trkpt lat="44.42044" lon="1.45482">
        <ele>255.275</ele>
        <time>2016-09-15T10:24:03Z</time>
      </trkpt>
      <trkpt lat="44.4207" lon="1.4548">
        <ele>256.414</ele>
        <time>2016-09-15T10:24:23Z</time>
      </trkpt>
      <trkpt lat="44.42124" lon="1.45452">
        <ele>258.82</ele>
        <time>2016-09-15T10:24:43Z</time>
      </trkpt>
      <trkpt lat="44.42177" lon="1.45465">
        <ele>256.661</ele>
        <time>2016-09-15T10:25:03Z</time>
      </trkpt>
      <trkpt lat="44.42266" lon="1.45432">
        <ele>249.834</ele>
        <time>2016-09-15T10:25:23Z</time>
      </trkpt>
      <trkpt lat="44.42334" lon="1.45441">
        <ele>254.023</ele>
        <time>2016-09-15T10:25:43Z</time>
      </trkpt>
      <trkpt lat="44.4239" lon="1.45471">
        <ele>249.278</ele>
        <time>2016-09-15T10:26:03Z</time>
      </trkpt>
      <trkpt lat="44.42502" lon="1.45449">
        <ele>251.833</ele>
        <time>2016-09-15T10:26:23Z</time>
      </trkpt>
      <trkpt lat="44.42582" lon="1.45484">
        <ele>251.026</ele>
        <time>2016-09-15T10:26:43Z</time>
      </trkpt>
      <trkpt lat="44.42697" lon="1.4549">
        <ele>257.908</ele>
        <time>2016-09-15T10:27:03Z</time>
      </trkpt>
      <trkpt lat="44.42747" lon="1.45434">
        <ele>262.483</ele>
        <time>2016-09-15T10:27:23Z</time>
      </trkpt>
      <trkpt lat="44.42875" lon="1.45398">
        <ele>255.21</ele>
        <time>2016-09-15T10:27:43Z</time>
      </trkpt>
      <trkpt lat="44.42968" lon="1.4534">
        <ele>252.559</ele>
        <time>2016-09-15T10:28:03Z</time>
      </trkpt>
      <trkpt lat="44.43031" lon="1.45274">
        <ele>251.658</ele>
        <time>2016-09-15T10:28:23Z</time>
      </trkpt>
      <trkpt lat="44.43071" lon="1.45203">
        <ele>247.884</ele>
        <time>2016-09-15T10:28:43Z</time>
      </trkpt>
      <trkpt lat="44.43285" lon="1.44975">
        <ele>246.425</ele>
        <time>2016-09-15T10:29:03Z</time>
      </trkpt>
      <trkpt lat="44.43333" lon="1.44877">
        <ele>244.648</ele>
        <time>2016-09-15T10:29:23Z</time>
      </trkpt>
      <trkpt lat="44.43448" lon="1.44752">
        <ele>224.747</ele>
        <time>2016-09-15T10:29:43Z</time>
      </trkpt>
      <trkpt lat="44.4357" lon="1.44675">
        <ele>211.615</ele>
        <time>2016-09-15T10:30:03Z</time>
      </trkpt>
      <trkpt lat="44.43665" lon="1.44578">
        <ele>193.165</ele>
        <time>2016-09-15T10:30:23Z</time>
      </trkpt>
      <trkpt lat="44.43736" lon="1.44473">
        <ele>170.211</ele>
        <time>2016-09-15T10:30:43Z</time>
      </trkpt>
      <trkpt lat="44.43756" lon="1.44426">
        <ele>161.908</ele>
        <time>2016-09-15T10:31:03Z</time>
      </trkpt>
      <trkpt lat="44.43815" lon="1.44329">
        <ele>149.297</ele>
        <time>2016-09-15T10:31:23Z</time>
      </trkpt>
      <trkpt lat="44.4384" lon="1.44347">
        <ele>144.514</ele>
        <time>2016-09-15T10:31:43Z</time>
      </trkpt>
      <trkpt lat="44.43834" lon="1.44383">
        <ele>143.553</ele>
        <time>2016-09-15T10:32:03Z</time>
      </trkpt>
      <trkpt lat="44.43813" lon="1.44439">
        <ele>142.542</ele>
        <time>2019-03-30T15:36:05Z</time>
      </trkpt>
      <trkpt lat="44.43826" lon="1.44451">
        <ele>135.328</ele>
        <time>2019-03-30T15:36:25Z</time>
      </trkpt>
      <trkpt lat="44.43885" lon="1.44348">
        <ele>130.269</ele>
        <time>2019-03-30T15:36:45Z</time>
      </trkpt>
      <trkpt lat="44.43933" lon="1.444">
        <ele>128.182</ele>
        <time>2019-03-30T15:37:05Z</time>
      </trkpt>
      <trkpt lat="44.43954" lon="1.44299">
        <ele>124.881</ele>
        <time>2019-03-30T15:37:25Z</time>
      </trkpt>
      <trkpt lat="44.4397" lon="1.44224">
        <ele>120.255</ele>
        <time>2019-03-30T15:37:45Z</time>
      </trkpt>
      <trkpt lat="44.4401" lon="1.44183">
        <ele>117.907</ele>
        <time>2019-03-30T15:38:05Z</time>
      </trkpt>
      <trkpt lat="44.44072" lon="1.44297">
        <ele>121.617</ele>
        <time>2019-03-30T15:38:25Z</time>
      </trkpt>
      <trkpt lat="44.44292" lon="1.44219">
        <ele>123.508</ele>
        <time>2019-03-30T15:38:45Z</time>
      </trkpt>
      <trkpt lat="44.44205" lon="1.44113">
        <ele>118.751</ele>
        <time>2019-03-30T15:39:05Z</time>
      </trkpt>
      <trkpt lat="44.44145" lon="1.43856">
        <ele>119.488</ele>
        <time>2019-03-30T15:39:25Z</time>
      </trkpt>
      <trkpt lat="44.44136" lon="1.43612">
        <ele>112.867</ele>
        <time>2019-03-30T15:39:45Z</time>
      </trkpt>
      <trkpt lat="44.44153" lon="1.43501">
        <ele>116.586</ele>
        <time>2019-03-30T15:40:05Z</time>
      </trkpt>
      <trkpt lat="44.44197" lon="1.43442">
        <ele>118.192</ele>
        <time>2019-03-30T15:40:25Z</time>
      </trkpt>
      <trkpt lat="44.44481" lon="1.43262">
        <ele>115.783</ele>
        <time>2019-03-30T15:40:45Z</time>
      </trkpt>
      <trkpt lat="44.44508" lon="1.43269">
        <ele>115.596</ele>
        <time>2019-03-30T15:41:05Z</time>
      </trkpt>
      <trkpt lat="44.44537" lon="1.43315">
        <ele>120.655</ele>
        <time>2019-03-30T15:41:25Z</time>
      </trkpt>
      <trkpt lat="44.44532" lon="1.43248">
        <ele>114.371</ele>
        <time>2019-03-30T15:41:45Z</time>
      </trkpt>
      <trkpt lat="44.44478" lon="1.43055">
        <ele>135.241</ele>
        <time>2019-03-30T15:42:05Z</time>
      </trkpt>
      <trkpt lat="44.44393" lon="1.43083">
        <ele>163.915</ele>
        <time>2019-03-30T15:42:25Z</time>
      </trkpt>
      <trkpt lat="44.44427" lon="1.43028">
        <ele>165.708</ele>
        <time>2019-03-30T15:42:45Z</time>
      </trkpt>
      <trkpt lat="44.44465" lon="1.43007">
        <ele>143.913</ele>
        <time>2019-03-30T15:43:05Z</time>
      </trkpt>
      <trkpt lat="44.44435" lon="1.42993">
        <ele>155.07</ele>
        <time>2019-03-30T15:43:25Z</time>
      </trkpt>
      <trkpt lat="44.44366" lon="1.43019">
        <ele>178.219</ele>
        <time>2019-03-30T15:43:45Z</time>
      </trkpt>
      <trkpt lat="44.44276" lon="1.43076">
        <ele>190.838</ele>
        <time>2019-03-30T15:44:05Z</time>
      </trkpt>
      <trkpt lat="44.44176" lon="1.43076">
        <ele>214.854</ele>
        <time>2019-03-30T15:44:25Z</time>
      </trkpt>
      <trkpt lat="44.44115" lon="1.43106">
        <ele>223.175</ele>
        <time>2019-03-30T15:44:45Z</time>
      </trkpt>
      <trkpt lat="44.43999" lon="1.43097">
        <ele>218.388</ele>
        <time>2019-03-30T15:45:05Z</time>
      </trkpt>
      <trkpt lat="44.43892" lon="1.4317">
        <ele>219.687</ele>
        <time>2019-03-30T15:45:25Z</time>
      </trkpt>
      <trkpt lat="44.43877" lon="1.43207">
        <ele>223.714</ele>
        <time>2019-03-30T15:45:45Z</time>
      </trkpt>
      <trkpt lat="44.438" lon="1.4332">
        <ele>238.854</ele>
        <time>2019-03-30T15:46:05Z</time>
      </trkpt>
      <trkpt lat="44.43749" lon="1.43138">
        <ele>231.909</ele>
        <time>2019-03-30T15:46:25Z</time>
      </trkpt>
      <trkpt lat="44.4374" lon="1.43125">
        <ele>230.808</ele>
        <time>2016-09-15T10:36:03Z</time>
      </trkpt>
      <trkpt lat="44.43742" lon="1.43007">
        <ele>223.547</ele>
        <time>2016-09-15T10:36:23Z</time>
      </trkpt>
      <trkpt lat="44.43763" lon="1.4285">
        <ele>219.834</ele>
        <time>2016-09-15T10:36:43Z</time>
      </trkpt>
      <trkpt lat="44.43789" lon="1.42747">
        <ele>219.973</ele>
        <time>2016-09-15T10:37:03Z</time>
      </trkpt>
      <trkpt lat="44.43708" lon="1.42663">
        <ele>213.372</ele>
        <time>2016-09-15T10:37:23Z</time>
      </trkpt>
      <trkpt lat="44.43682" lon="1.42687">
        <ele>213.438</ele>
        <time>2016-09-15T10:37:43Z</time>
      </trkpt>
      <trkpt lat="44.43659" lon="1.4273">
        <ele>214.889</ele>
        <time>2016-09-15T10:38:03Z</time>
      </trkpt>
      <trkpt lat="44.43586" lon="1.42706">
        <ele>207.052</ele>
        <time>2016-09-15T10:38:23Z</time>
      </trkpt>
      <trkpt lat="44.43538" lon="1.42657">
        <ele>205.291</ele>
        <time>2016-09-15T10:38:43Z</time>
      </trkpt>
      <trkpt lat="44.43406" lon="1.42695">
        <ele>199.819</ele>
        <time>2016-09-15T10:39:03Z</time>
      </trkpt>
      <trkpt lat="44.43238" lon="1.42708">
        <ele>180.509</ele>
        <time>2016-09-15T10:39:23Z</time>
      </trkpt>
      <trkpt lat="44.43126" lon="1.4271">
        <ele>169.519</ele>
        <time>2016-09-15T10:39:43Z</time>
      </trkpt>
      <trkpt lat="44.4299" lon="1.42781">
        <ele>158.208</ele>
        <time>2016-09-15T10:40:03Z</time>
      </trkpt>
      <trkpt lat="44.42902" lon="1.42884">
        <ele>150.247</ele>
        <time>2016-09-15T10:40:23Z</time>
      </trkpt>
      <trkpt lat="44.42864" lon="1.42985">
        <ele>143.954</ele>
        <time>2016-09-15T10:40:43Z</time>
      </trkpt>
      <trkpt lat="44.4281" lon="1.42928">
        <ele>145.173</ele>
        <time>2019-03-30T15:51:45Z</time>
      </trkpt>
      <trkpt lat="44.42793" lon="1.4294">
        <ele>146.962</ele>
        <time>2019-03-30T15:52:05Z</time>
      </trkpt>
      <trkpt lat="44.428" lon="1.42968">
        <ele>145.938</ele>
        <time>2019-03-30T15:52:25Z</time>
      </trkpt>
      <trkpt lat="44.42818" lon="1.42985">
        <ele>144.819</ele>
        <time>2019-03-30T15:52:45Z</time>
      </trkpt>
      <trkpt lat="44.42885" lon="1.42822">
        <ele>146.712</ele>
        <time>2016-09-15T10:42:03Z</time>
      </trkpt>
      <trkpt lat="44.42862" lon="1.42672">
        <ele>150.161</ele>
        <time>2016-09-15T10:42:23Z</time>
      </trkpt>
      <trkpt lat="44.42858" lon="1.42391">
        <ele>151.768</ele>
        <time>2016-09-15T10:42:43Z</time>
      </trkpt>
      <trkpt lat="44.42826" lon="1.42301">
        <ele>159.042</ele>
        <time>2016-09-15T10:43:03Z</time>
      </trkpt>
      <trkpt lat="44.42747" lon="1.42206">
        <ele>153.826</ele>
        <time>2016-09-15T10:43:23Z</time>
      </trkpt>
      <trkpt lat="44.42747" lon="1.42206">
        <ele>153.808</ele>
        <time>2016-09-15T10:43:43Z</time>
      </trkpt>
      <trkpt lat="44.42731" lon="1.42129">
        <ele>156.172</ele>
        <time>2016-09-15T10:44:03Z</time>
      </trkpt>
      <trkpt lat="44.42606" lon="1.41869">
        <ele>160.789</ele>
        <time>2016-09-15T10:44:23Z</time>
      </trkpt>
      <trkpt lat="44.42492" lon="1.41721">
        <ele>163.138</ele>
        <time>2016-09-15T10:44:43Z</time>
      </trkpt>
      <trkpt lat="44.42415" lon="1.41691">
        <ele>160.867</ele>
        <time>2016-09-15T10:45:03Z</time>
      </trkpt>
      <trkpt lat="44.42352" lon="1.41629">
        <ele>164.823</ele>
        <time>2016-09-15T10:45:23Z</time>
      </trkpt>
      <trkpt lat="44.42315" lon="1.41627">
        <ele>163.074</ele>
        <time>2019-03-30T15:56:45Z</time>
      </trkpt>
      <trkpt lat="44.42146" lon="1.41694">
        <ele>185.227</ele>
        <time>2019-03-30T15:57:05Z</time>
      </trkpt>
      <trkpt lat="44.42071" lon="1.41762">
        <ele>191.976</ele>
        <time>2019-03-30T15:57:25Z</time>
      </trkpt>
      <trkpt lat="44.41944" lon="1.41913">
        <ele>212.829</ele>
        <time>2019-03-30T15:57:45Z</time>
      </trkpt>
      <trkpt lat="44.41721" lon="1.41857">
        <ele>220</ele>
        <time>2019-03-30T15:58:05Z</time>
      </trkpt>
      <trkpt lat="44.41759" lon="1.41931">
        <ele>219.02</ele>
        <time>2021-01-03T06:00:40Z</time>
      </trkpt>
      <trkpt lat="44.41774" lon="1.42041">
        <ele>219.108</ele>
        <time>2021-01-03T06:01:00Z</time>
      </trkpt>
      <trkpt lat="44.41792" lon="1.42069">
        <ele>221.758</ele>
        <time>2021-01-03T06:01:20Z</time>
      </trkpt>
      <trkpt lat="44.41784" lon="1.42165">
        <ele>222.635</ele>
        <time>2021-01-03T06:01:40Z</time>
      </trkpt>
      <trkpt lat="44.41766" lon="1.42266">
        <ele>224.334</ele>
        <time>2021-01-03T06:02:00Z</time>
      </trkpt>
      <trkpt lat="44.41775" lon="1.42335">
        <ele>227.773</ele>
        <time>2021-01-03T06:02:20Z</time>
      </trkpt>
      <trkpt lat="44.41726" lon="1.42584">
        <ele>222.269</ele>
        <time>2021-01-03T06:02:40Z</time>
      </trkpt>
      <trkpt lat="44.41702" lon="1.42807">
        <ele>209.77</ele>
        <time>2021-01-03T06:03:00Z</time>
      </trkpt>
      <trkpt lat="44.41654" lon="1.42894">
        <ele>198.033</ele>
        <time>2021-01-03T06:03:20Z</time>
      </trkpt>
      <trkpt lat="44.41665" lon="1.42961">
        <ele>197.692</ele>
        <time>2021-01-03T06:03:40Z</time>
      </trkpt>
      <trkpt lat="44.41598" lon="1.42908">
        <ele>190.541</ele>
        <time>2021-01-03T06:04:00Z</time>
      </trkpt>
      <trkpt lat="44.41518" lon="1.4289">
        <ele>181.281</ele>
        <time>2021-01-03T06:04:20Z</time>
      </trkpt>
      <trkpt lat="44.41385" lon="1.42789">
        <ele>162.309</ele>
        <time>2021-01-03T06:04:40Z</time>
      </trkpt>
      <trkpt lat="44.41339" lon="1.42878">
        <ele>154.908</ele>
        <time>2021-01-03T06:05:00Z</time>
      </trkpt>
      <trkpt lat="44.41291" lon="1.42892">
        <ele>151.73</ele>
        <time>2021-01-03T06:05:20Z</time>
      </trkpt>
      <trkpt lat="44.41256" lon="1.42798">
        <ele>152.737</ele>
        <time>2021-01-03T06:05:40Z</time>
      </trkpt>
      <trkpt lat="44.41238" lon="1.42646">
        <ele>161.036</ele>
        <time>2021-01-03T06:06:00Z</time>
      </trkpt>
      <trkpt lat="44.41194" lon="1.42664">
        <ele>151.125</ele>
        <time>2021-01-03T06:06:20Z</time>
      </trkpt>
      <trkpt lat="44.41155" lon="1.42644">
        <ele>151.831</ele>
        <time>2021-01-03T06:06:40Z</time>
      </trkpt>
      <trkpt lat="44.41086" lon="1.42478">
        <ele>168.332</ele>
        <time>2021-01-03T06:07:00Z</time>
      </trkpt>
      <trkpt lat="44.40946" lon="1.42294">
        <ele>206.185</ele>
        <time>2021-01-03T06:07:20Z</time>
      </trkpt>
      <trkpt lat="44.40882" lon="1.42126">
        <ele>218.524</ele>
        <time>2021-01-03T06:07:40Z</time>
      </trkpt>
      <trkpt lat="44.40726" lon="1.41779">
        <ele>235.764</ele>
        <time>2021-01-03T06:08:00Z</time>
      </trkpt>
      <trkpt lat="44.40607" lon="1.41652">
        <ele>246.706</ele>
        <time>2021-01-03T06:08:20Z</time>
      </trkpt>
      <trkpt lat="44.4055" lon="1.41457">
        <ele>250.216</ele>
        <time>2021-01-03T06:08:40Z</time>
      </trkpt>
      <trkpt lat="44.40474" lon="1.41356">
        <ele>238.108</ele>
        <time>2021-01-03T06:09:00Z</time>
      </trkpt>
      <trkpt lat="44.40425" lon="1.41163">
        <ele>248.062</ele>
        <time>2021-01-03T06:09:20Z</time>
      </trkpt>
      <trkpt lat="44.40336" lon="1.41036">
        <ele>258.679</ele>
        <time>2021-01-03T06:09:40Z</time>
      </trkpt>
      <trkpt lat="44.40218" lon="1.40983">
        <ele>268.958</ele>
        <time>2021-01-03T06:10:00Z</time>
      </trkpt>
      <trkpt lat="44.40047" lon="1.40873">
        <ele>276.927</ele>
        <time>2021-01-03T06:10:20Z</time>
      </trkpt>
      <trkpt lat="44.39954" lon="1.40838">
        <ele>275.733</ele>
        <time>2021-01-03T06:10:40Z</time>
      </trkpt>
      <trkpt lat="44.3987" lon="1.40781">
        <ele>265.514</ele>
        <time>2021-01-03T06:11:00Z</time>
      </trkpt>
      <trkpt lat="44.39687" lon="1.40712">
        <ele>258.517</ele>
        <time>2021-01-03T06:11:20Z</time>
      </trkpt>
      <trkpt lat="44.39431" lon="1.40572">
        <ele>280.176</ele>
        <time>2021-01-03T06:11:40Z</time>
      </trkpt>
      <trkpt lat="44.3936" lon="1.40498">
        <ele>289.345</ele>
        <time>2021-01-03T06:12:00Z</time>
      </trkpt>
      <trkpt lat="44.39247" lon="1.40447">
        <ele>296.947</ele>
        <time>2021-01-03T06:12:20Z</time>
      </trkpt>
      <trkpt lat="44.39207" lon="1.40406">
        <ele>298.811</ele>
        <time>2021-01-03T06:12:40Z</time>
      </trkpt>
      <trkpt lat="44.39118" lon="1.40385">
        <ele>299.408</ele>
        <time>2019-03-30T16:19:25Z</time>
      </trkpt>
      <trkpt lat="44.39" lon="1.40277">
        <ele>287.06</ele>
        <time>2020-04-12T22:42:56Z</time>
      </trkpt>
      <trkpt lat="44.38979" lon="1.40269">
        <ele>286.267</ele>
        <time>2019-03-30T16:19:45Z</time>
      </trkpt>
      <trkpt lat="44.38934" lon="1.40216">
        <ele>289.876</ele>
        <time>2020-04-12T22:43:36Z</time>
      </trkpt>
      <trkpt lat="44.38905" lon="1.4017">
        <ele>295.335</ele>
        <time>2020-04-12T22:43:56Z</time>
      </trkpt>
      <trkpt lat="44.38854" lon="1.40017">
        <ele>304.461</ele>
        <time>2019-03-30T13:43:08Z</time>
      </trkpt>
      <trkpt lat="44.38854" lon="1.40017">
        <ele>304.432</ele>
        <time>2019-03-30T13:43:08Z</time>
      </trkpt>
      <trkpt lat="44.38816" lon="1.39928">
        <ele>303.585</ele>
        <time>2019-03-30T13:43:28Z</time>
      </trkpt>
      <trkpt lat="44.38655" lon="1.39819">
        <ele>300.124</ele>
        <time>2016-09-26T15:26:26Z</time>
      </trkpt>
      <trkpt lat="44.38468" lon="1.39399">
        <ele>293.166</ele>
        <time>2016-09-26T15:26:46Z</time>
      </trkpt>
      <trkpt lat="44.38183" lon="1.39343">
        <ele>293.029</ele>
        <time>2016-09-26T15:27:06Z</time>
      </trkpt>
      <trkpt lat="44.38015" lon="1.39235">
        <ele>287.121</ele>
        <time>2016-09-26T15:27:26Z</time>
      </trkpt>
      <trkpt lat="44.37965" lon="1.39231">
        <ele>285.408</ele>
        <time>2016-09-26T15:27:46Z</time>
      </trkpt>
      <trkpt lat="44.37925" lon="1.39214">
        <ele>284.472</ele>
        <time>2016-09-26T15:28:06Z</time>
      </trkpt>
      <trkpt lat="44.37735" lon="1.39246">
        <ele>287.059</ele>
        <time>2016-09-26T15:28:26Z</time>
      </trkpt>
      <trkpt lat="44.37563" lon="1.39225">
        <ele>276.678</ele>
        <time>2016-09-26T15:28:46Z</time>
      </trkpt>
      <trkpt lat="44.37511" lon="1.39186">
        <ele>270.257</ele>
        <time>2016-09-26T15:29:06Z</time>
      </trkpt>
      <trkpt lat="44.37408" lon="1.39235">
        <ele>259.843</ele>
        <time>2016-09-26T15:29:26Z</time>
      </trkpt>
      <trkpt lat="44.37346" lon="1.3924">
        <ele>258.574</ele>
        <time>2019-03-30T13:47:08Z</time>
      </trkpt>
      <trkpt lat="44.37238" lon="1.39173">
        <ele>256.977</ele>
        <time>2019-03-30T13:47:28Z</time>
      </trkpt>
      <trkpt lat="44.37161" lon="1.39173">
        <ele>268.196</ele>
        <time>2019-03-30T13:47:48Z</time>
      </trkpt>
      <trkpt lat="44.37006" lon="1.39028">
        <ele>273.839</ele>
        <time>2019-03-30T13:48:08Z</time>
      </trkpt>
      <trkpt lat="44.36838" lon="1.39034">
        <ele>272.701</ele>
        <time>2016-09-26T15:31:06Z</time>
      </trkpt>
      <trkpt lat="44.36693" lon="1.38991">
        <ele>276.321</ele>
        <time>2016-09-26T15:31:26Z</time>
      </trkpt>
      <trkpt lat="44.36561" lon="1.38875">
        <ele>277.908</ele>
        <time>2016-09-26T15:31:46Z</time>
      </trkpt>
      <trkpt lat="44.36485" lon="1.38821">
        <ele>275.289</ele>
        <time>2016-09-26T15:32:06Z</time>
      </trkpt>
      <trkpt lat="44.36417" lon="1.38695">
        <ele>281.056</ele>
        <time>2016-09-26T15:32:26Z</time>
      </trkpt>
      <trkpt lat="44.36334" lon="1.38861">
        <ele>285.055</ele>
        <time>2019-03-30T13:50:08Z</time>
      </trkpt>
      <trkpt lat="44.36252" lon="1.38669">
        <ele>284.164</ele>
        <time>2016-09-26T15:33:06Z</time>
      </trkpt>
      <trkpt lat="44.36207" lon="1.38521">
        <ele>286.56</ele>
        <time>2016-09-26T15:33:26Z</time>
      </trkpt>
      <trkpt lat="44.36172" lon="1.38343">
        <ele>288.061</ele>
        <time>2016-09-26T15:33:46Z</time>
      </trkpt>
      <trkpt lat="44.36149" lon="1.38139">
        <ele>284.384</ele>
        <time>2016-09-26T15:34:06Z</time>
      </trkpt>
      <trkpt lat="44.36124" lon="1.38015">
        <ele>283.983</ele>
        <time>2016-09-26T15:34:26Z</time>
      </trkpt>
      <trkpt lat="44.36056" lon="1.37858">
        <ele>281.057</ele>
        <time>2019-03-30T13:52:08Z</time>
      </trkpt>
      <trkpt lat="44.35974" lon="1.37491">
        <ele>282.3</ele>
        <time>2016-09-26T15:35:46Z</time>
      </trkpt>
      <trkpt lat="44.35718" lon="1.36948">
        <ele>273.72</ele>
        <time>2016-09-26T15:36:06Z</time>
      </trkpt>
      <trkpt lat="44.35684" lon="1.36858">
        <ele>278.108</ele>
        <time>2016-09-26T15:36:26Z</time>
      </trkpt>
      <trkpt lat="44.35664" lon="1.36697">
        <ele>276.981</ele>
        <time>2016-09-26T15:36:46Z</time>
      </trkpt>
      <trkpt lat="44.35669" lon="1.36483">
        <ele>271.128</ele>
        <time>2019-03-30T13:53:48Z</time>
      </trkpt>
      <trkpt lat="44.35655" lon="1.36326">
        <ele>266.337</ele>
        <time>2016-09-26T15:37:06Z</time>
      </trkpt>
      <trkpt lat="44.35704" lon="1.36201">
        <ele>263.816</ele>
        <time>2016-09-26T15:37:26Z</time>
      </trkpt>
      <trkpt lat="44.35753" lon="1.36143">
        <ele>262.762</ele>
        <time>2016-09-26T15:37:46Z</time>
      </trkpt>
      <trkpt lat="44.35689" lon="1.36131">
        <ele>263.493</ele>
        <time>2016-09-26T15:38:06Z</time>
      </trkpt>
      <trkpt lat="44.35624" lon="1.36173">
        <ele>266.746</ele>
        <time>2016-09-26T15:38:26Z</time>
      </trkpt>
      <trkpt lat="44.35541" lon="1.3615">
        <ele>264.325</ele>
        <time>2016-09-26T15:38:46Z</time>
      </trkpt>
      <trkpt lat="44.35446" lon="1.36073">
        <ele>266.979</ele>
        <time>2016-09-26T15:39:06Z</time>
      </trkpt>
      <trkpt lat="44.35412" lon="1.35989">
        <ele>270.405</ele>
        <time>2016-09-26T15:39:26Z</time>
      </trkpt>
      <trkpt lat="44.35365" lon="1.35873">
        <ele>272.125</ele>
        <time>2016-09-26T15:39:46Z</time>
      </trkpt>
      <trkpt lat="44.35342" lon="1.35723">
        <ele>270.908</ele>
        <time>2016-09-26T15:40:06Z</time>
      </trkpt>
      <trkpt lat="44.35369" lon="1.35566">
        <ele>268.993</ele>
        <time>2016-09-26T15:40:26Z</time>
      </trkpt>
      <trkpt lat="44.35368" lon="1.35465">
        <ele>270.47</ele>
        <time>2016-09-26T15:40:46Z</time>
      </trkpt>
      <trkpt lat="44.35334" lon="1.35372">
        <ele>271.319</ele>
        <time>2019-03-30T13:58:08Z</time>
      </trkpt>
      <trkpt lat="44.35275" lon="1.35337">
        <ele>272.898</ele>
        <time>2019-03-30T13:58:28Z</time>
      </trkpt>
      <trkpt lat="44.35174" lon="1.35337">
        <ele>272.014</ele>
        <time>2019-03-30T13:58:48Z</time>
      </trkpt>
      <trkpt lat="44.35115" lon="1.35249">
        <ele>271.685</ele>
        <time>2016-09-26T15:42:06Z</time>
      </trkpt>
      <trkpt lat="44.35078" lon="1.35212">
        <ele>272.068</ele>
        <time>2016-09-26T15:42:26Z</time>
      </trkpt>
      <trkpt lat="44.35016" lon="1.35086">
        <ele>274.387</ele>
        <time>2016-09-26T15:42:46Z</time>
      </trkpt>
      <trkpt lat="44.34846" lon="1.34528">
        <ele>273.029</ele>
        <time>2016-09-26T15:43:06Z</time>
      </trkpt>
      <trkpt lat="44.34796" lon="1.34266">
        <ele>277.3</ele>
        <time>2016-09-26T15:43:26Z</time>
      </trkpt>
      <trkpt lat="44.34797" lon="1.3409">
        <ele>272.52</ele>
        <time>2016-09-26T15:43:46Z</time>
      </trkpt>
      <trkpt lat="44.34805" lon="1.34023">
        <ele>271.708</ele>
        <time>2016-09-26T15:44:06Z</time>
      </trkpt>
      <trkpt lat="44.34786" lon="1.33938">
        <ele>268.328</ele>
        <time>2016-09-26T15:44:26Z</time>
      </trkpt>
      <trkpt lat="44.34759" lon="1.3371">
        <ele>272.025</ele>
        <time>2016-09-26T15:44:46Z</time>
      </trkpt>
      <trkpt lat="44.34726" lon="1.33689">
        <ele>271.864</ele>
        <time>2016-09-26T15:45:06Z</time>
      </trkpt>
      <trkpt lat="44.3468" lon="1.33631">
        <ele>268.193</ele>
        <time>2016-09-26T15:45:26Z</time>
      </trkpt>
      <trkpt lat="44.34656" lon="1.33448">
        <ele>264.329</ele>
        <time>2016-09-26T15:45:46Z</time>
      </trkpt>
      <trkpt lat="44.34461" lon="1.33103">
        <ele>258.66</ele>
        <time>2016-09-26T15:46:06Z</time>
      </trkpt>
      <trkpt lat="44.34404" lon="1.33062">
        <ele>258.353</ele>
        <time>2016-09-26T15:46:26Z</time>
      </trkpt>
      <trkpt lat="44.34286" lon="1.33077">
        <ele>262.352</ele>
        <time>2016-09-26T15:46:46Z</time>
      </trkpt>
      <trkpt lat="44.34232" lon="1.33049">
        <ele>262.257</ele>
        <time>2016-09-26T15:47:06Z</time>
      </trkpt>
      <trkpt lat="44.34108" lon="1.32865">
        <ele>268.9</ele>
        <time>2016-09-26T15:47:26Z</time>
      </trkpt>
      <trkpt lat="44.34071" lon="1.3285">
        <ele>269.62</ele>
        <time>2016-09-26T15:47:46Z</time>
      </trkpt>
      <trkpt lat="44.3405" lon="1.32822">
        <ele>269.508</ele>
        <time>2016-09-26T15:48:06Z</time>
      </trkpt>
      <trkpt lat="44.34036" lon="1.32665">
        <ele>270.241</ele>
        <time>2016-09-26T15:48:26Z</time>
      </trkpt>
      <trkpt lat="44.34005" lon="1.32481">
        <ele>262.048</ele>
        <time>2016-09-26T15:48:46Z</time>
      </trkpt>
      <trkpt lat="44.33935" lon="1.32352">
        <ele>265.017</ele>
        <time>2016-09-26T15:49:06Z</time>
      </trkpt>
      <trkpt lat="44.33947" lon="1.32305">
        <ele>266.116</ele>
        <time>2016-09-26T15:49:26Z</time>
      </trkpt>
      <trkpt lat="44.33935" lon="1.32142">
        <ele>260.472</ele>
        <time>2016-09-26T15:49:46Z</time>
      </trkpt>
      <trkpt lat="44.33952" lon="1.32071">
        <ele>258.923</ele>
        <time>2016-09-26T15:50:06Z</time>
      </trkpt>
      <trkpt lat="44.33999" lon="1.32011">
        <ele>256.196</ele>
        <time>2016-09-26T15:50:26Z</time>
      </trkpt>
      <trkpt lat="44.34022" lon="1.31948">
        <ele>249.775</ele>
        <time>2016-09-26T15:50:46Z</time>
      </trkpt>
      <trkpt lat="44.3414" lon="1.31845">
        <ele>236.078</ele>
        <time>2016-09-26T15:51:06Z</time>
      </trkpt>
      <trkpt lat="44.34188" lon="1.3185">
        <ele>223.033</ele>
        <time>2016-09-26T15:51:26Z</time>
      </trkpt>
      <trkpt lat="44.3422" lon="1.31803">
        <ele>217.526</ele>
        <time>2016-09-26T15:51:46Z</time>
      </trkpt>
      <trkpt lat="44.34177" lon="1.31648">
        <ele>210.408</ele>
        <time>2016-09-26T15:52:06Z</time>
      </trkpt>
      <trkpt lat="44.34136" lon="1.31633">
        <ele>206.353</ele>
        <time>2016-09-26T15:52:26Z</time>
      </trkpt>
      <trkpt lat="44.34103" lon="1.31569">
        <ele>201.85</ele>
        <time>2016-09-26T15:52:46Z</time>
      </trkpt>
      <trkpt lat="44.34123" lon="1.31545">
        <ele>199.369</ele>
        <time>2016-09-26T15:53:06Z</time>
      </trkpt>
      <trkpt lat="44.34171" lon="1.31543">
        <ele>195.738</ele>
        <time>2016-09-26T15:53:26Z</time>
      </trkpt>
      <trkpt lat="44.3426" lon="1.31418">
        <ele>182.734</ele>
        <time>2016-09-26T15:53:46Z</time>
      </trkpt>
      <trkpt lat="44.34186" lon="1.31071">
        <ele>178.735</ele>
        <time>2016-09-26T15:54:06Z</time>
      </trkpt>
      <trkpt lat="44.3414" lon="1.30981">
        <ele>179.058</ele>
        <time>2016-09-26T15:54:26Z</time>
      </trkpt>
      <trkpt lat="44.33947" lon="1.30996">
        <ele>178.397</ele>
        <time>2016-09-26T15:54:46Z</time>
      </trkpt>
      <trkpt lat="44.33901" lon="1.30972">
        <ele>178.427</ele>
        <time>2016-09-26T15:55:06Z</time>
      </trkpt>
      <trkpt lat="44.33959" lon="1.30825">
        <ele>177.868</ele>
        <time>2019-03-30T14:12:28Z</time>
      </trkpt>
      <trkpt lat="44.33974" lon="1.3074">
        <ele>185.414</ele>
        <time>2019-03-30T14:12:48Z</time>
      </trkpt>
      <trkpt lat="44.3391" lon="1.30633">
        <ele>187.008</ele>
        <time>2016-09-26T15:56:06Z</time>
      </trkpt>
      <trkpt lat="44.33944" lon="1.30506">
        <ele>193.618</ele>
        <time>2016-09-26T15:56:26Z</time>
      </trkpt>
      <trkpt lat="44.33983" lon="1.3057">
        <ele>191.825</ele>
        <time>2019-03-30T14:13:48Z</time>
      </trkpt>
      <trkpt lat="44.34036" lon="1.30561">
        <ele>188.684</ele>
        <time>2019-03-30T14:14:08Z</time>
      </trkpt>
      <trkpt lat="44.34069" lon="1.30515">
        <ele>187.513</ele>
        <time>2019-03-30T14:14:28Z</time>
      </trkpt>
      <trkpt lat="44.34105" lon="1.30505">
        <ele>188.099</ele>
        <time>2019-03-30T14:14:48Z</time>
      </trkpt>
      <trkpt lat="44.34159" lon="1.30317">
        <ele>194.27</ele>
        <time>2019-03-30T14:15:08Z</time>
      </trkpt>
      <trkpt lat="44.34177" lon="1.30146">
        <ele>201.033</ele>
        <time>2019-03-30T14:15:28Z</time>
      </trkpt>
      <trkpt lat="44.34244" lon="1.3013">
        <ele>207.372</ele>
        <time>2019-03-30T14:15:48Z</time>
      </trkpt>
      <trkpt lat="44.34341" lon="1.30043">
        <ele>225.637</ele>
        <time>2016-09-26T15:58:46Z</time>
      </trkpt>
      <trkpt lat="44.34441" lon="1.29937">
        <ele>237.249</ele>
        <time>2019-03-30T14:16:28Z</time>
      </trkpt>
      <trkpt lat="44.34438" lon="1.29652">
        <ele>258.813</ele>
        <time>2016-09-26T15:59:26Z</time>
      </trkpt>
      <trkpt lat="44.34455" lon="1.2949">
        <ele>262.508</ele>
        <time>2019-03-30T14:17:08Z</time>
      </trkpt>
      <trkpt lat="44.34361" lon="1.29395">
        <ele>265.079</ele>
        <time>2016-09-26T16:00:06Z</time>
      </trkpt>
      <trkpt lat="44.3444" lon="1.29234">
        <ele>261.536</ele>
        <time>2016-09-26T16:00:26Z</time>
      </trkpt>
      <trkpt lat="44.34532" lon="1.29168">
        <ele>260.295</ele>
        <time>2016-09-26T16:00:46Z</time>
      </trkpt>
      <trkpt lat="44.3457" lon="1.29082">
        <ele>253.334</ele>
        <time>2016-09-26T16:01:06Z</time>
      </trkpt>
      <trkpt lat="44.34621" lon="1.29054">
        <ele>258.68</ele>
        <time>2016-09-26T16:01:26Z</time>
      </trkpt>
      <trkpt lat="44.34696" lon="1.28931">
        <ele>260.271</ele>
        <time>2016-09-26T16:01:46Z</time>
      </trkpt>
      <trkpt lat="44.34779" lon="1.2873">
        <ele>263.074</ele>
        <time>2016-09-26T16:02:06Z</time>
      </trkpt>
      <trkpt lat="44.34791" lon="1.28657">
        <ele>261.333</ele>
        <time>2016-09-26T16:02:26Z</time>
      </trkpt>
      <trkpt lat="44.34734" lon="1.2861">
        <ele>257.942</ele>
        <time>2016-09-26T16:02:46Z</time>
      </trkpt>
      <trkpt lat="44.3471" lon="1.28496">
        <ele>261.022</ele>
        <time>2016-09-26T16:03:06Z</time>
      </trkpt>
      <trkpt lat="44.3461" lon="1.28378">
        <ele>270.914</ele>
        <time>2016-09-26T16:03:26Z</time>
      </trkpt>
      <trkpt lat="44.34556" lon="1.28247">
        <ele>271.008</ele>
        <time>2016-09-26T16:03:46Z</time>
      </trkpt>
      <trkpt lat="44.3451" lon="1.28178">
        <ele>269.75</ele>
        <time>2016-09-26T16:04:06Z</time>
      </trkpt>
      <trkpt lat="44.34501" lon="1.28112">
        <ele>271.027</ele>
        <time>2016-09-26T16:04:26Z</time>
      </trkpt>
      <trkpt lat="44.34479" lon="1.28024">
        <ele>274.096</ele>
        <time>2016-09-26T16:04:46Z</time>
      </trkpt>
      <trkpt lat="44.34476" lon="1.2788">
        <ele>274.215</ele>
        <time>2016-09-26T16:05:06Z</time>
      </trkpt>
      <trkpt lat="44.34484" lon="1.27801">
        <ele>269.411</ele>
        <time>2016-09-26T16:05:26Z</time>
      </trkpt>
      <trkpt lat="44.34452" lon="1.27681">
        <ele>273.862</ele>
        <time>2016-09-26T16:05:46Z</time>
      </trkpt>
      <trkpt lat="44.34444" lon="1.27372">
        <ele>271.495</ele>
        <time>2016-09-26T16:06:06Z</time>
      </trkpt>
      <trkpt lat="44.34466" lon="1.27198">
        <ele>262.054</ele>
        <time>2016-09-26T16:06:26Z</time>
      </trkpt>
      <trkpt lat="44.3442" lon="1.27052">
        <ele>267.651</ele>
        <time>2016-09-26T16:06:46Z</time>
      </trkpt>
      <trkpt lat="44.34383" lon="1.26842">
        <ele>271.201</ele>
        <time>2016-09-26T16:07:06Z</time>
      </trkpt>
      <trkpt lat="44.34404" lon="1.26648">
        <ele>279.911</ele>
        <time>2016-09-26T16:07:26Z</time>
      </trkpt>
      <trkpt lat="44.34456" lon="1.26616">
        <ele>276.308</ele>
        <time>2016-09-26T16:07:46Z</time>
      </trkpt>
      <trkpt lat="44.34452" lon="1.26597">
        <ele>280.211</ele>
        <time>2016-09-26T16:08:06Z</time>
      </trkpt>
      <trkpt lat="44.34392" lon="1.26633">
        <ele>282.588</ele>
        <time>2016-09-26T16:08:26Z</time>
      </trkpt>
      <trkpt lat="44.34436" lon="1.26352">
        <ele>277.917</ele>
        <time>2016-09-26T16:08:46Z</time>
      </trkpt>
      <trkpt lat="44.34512" lon="1.25898">
        <ele>264.476</ele>
        <time>2021-01-03T06:58:20Z</time>
      </trkpt>
      <trkpt lat="44.34562" lon="1.25666">
        <ele>262.792</ele>
        <time>2021-01-03T06:58:40Z</time>
      </trkpt>
      <trkpt lat="44.34589" lon="1.25508">
        <ele>260.553</ele>
        <time>2021-01-03T06:59:00Z</time>
      </trkpt>
      <trkpt lat="44.3458" lon="1.25372">
        <ele>257.426</ele>
        <time>2021-01-03T06:59:20Z</time>
      </trkpt>
      <trkpt lat="44.34488" lon="1.25383">
        <ele>255.355</ele>
        <time>2021-01-03T06:59:40Z</time>
      </trkpt>
      <trkpt lat="44.34381" lon="1.25341">
        <ele>256.417</ele>
        <time>2021-01-03T07:00:00Z</time>
      </trkpt>
      <trkpt lat="44.34337" lon="1.25346">
        <ele>257.987</ele>
        <time>2021-01-03T07:00:20Z</time>
      </trkpt>
      <trkpt lat="44.3428" lon="1.25399">
        <ele>257.515</ele>
        <time>2021-01-03T07:00:40Z</time>
      </trkpt>
      <trkpt lat="44.34297" lon="1.25326">
        <ele>255.408</ele>
        <time>2021-01-03T07:01:00Z</time>
      </trkpt>
      <trkpt lat="44.34263" lon="1.25292">
        <ele>253.867</ele>
        <time>2021-01-03T07:01:20Z</time>
      </trkpt>
      <trkpt lat="44.34281" lon="1.2525">
        <ele>253.084</ele>
        <time>2021-01-03T07:01:40Z</time>
      </trkpt>
      <trkpt lat="44.34313" lon="1.25123">
        <ele>242.013</ele>
        <time>2021-01-03T07:02:00Z</time>
      </trkpt>
      <trkpt lat="44.34345" lon="1.25134">
        <ele>242.352</ele>
        <time>2021-01-03T07:02:20Z</time>
      </trkpt>
      <trkpt lat="44.34302" lon="1.24973">
        <ele>240.088</ele>
        <time>2021-01-03T07:02:40Z</time>
      </trkpt>
      <trkpt lat="44.342" lon="1.24856">
        <ele>235.339</ele>
        <time>2021-01-03T07:03:00Z</time>
      </trkpt>
      <trkpt lat="44.34089" lon="1.24789">
        <ele>225.612</ele>
        <time>2021-01-03T07:03:20Z</time>
      </trkpt>
      <trkpt lat="44.3404" lon="1.2471">
        <ele>224.921</ele>
        <time>2021-01-03T07:03:40Z</time>
      </trkpt>
      <trkpt lat="44.34014" lon="1.24617">
        <ele>229.814</ele>
        <time>2021-01-03T07:04:00Z</time>
      </trkpt>
      <trkpt lat="44.33971" lon="1.24576">
        <ele>227.854</ele>
        <time>2021-01-03T07:04:20Z</time>
      </trkpt>
      <trkpt lat="44.33865" lon="1.2451">
        <ele>229.609</ele>
        <time>2021-01-03T07:04:40Z</time>
      </trkpt>
      <trkpt lat="44.33797" lon="1.24506">
        <ele>230.808</ele>
        <time>2021-01-03T07:05:00Z</time>
      </trkpt>
      <trkpt lat="44.33782" lon="1.24474">
        <ele>237.547</ele>
        <time>2021-01-03T07:05:20Z</time>
      </trkpt>
      <trkpt lat="44.33775" lon="1.24391">
        <ele>251.454</ele>
        <time>2021-01-03T07:05:40Z</time>
      </trkpt>
      <trkpt lat="44.33758" lon="1.24386">
        <ele>250.123</ele>
        <time>2021-01-03T07:06:00Z</time>
      </trkpt>
      <trkpt lat="44.33728" lon="1.24411">
        <ele>243.512</ele>
        <time>2021-01-03T07:06:20Z</time>
      </trkpt>
      <trkpt lat="44.33667" lon="1.24404">
        <ele>240.878</ele>
        <time>2021-01-03T07:06:40Z</time>
      </trkpt>
      <trkpt lat="44.33695" lon="1.24459">
        <ele>227.279</ele>
        <time>2021-01-03T07:07:00Z</time>
      </trkpt>
      <trkpt lat="44.33639" lon="1.24427">
        <ele>230.712</ele>
        <time>2021-01-03T07:07:20Z</time>
      </trkpt>
      <trkpt lat="44.33568" lon="1.24415">
        <ele>214.841</ele>
        <time>2021-01-03T07:07:40Z</time>
      </trkpt>
      <trkpt lat="44.33528" lon="1.24367">
        <ele>218.324</ele>
        <time>2021-01-03T07:08:00Z</time>
      </trkpt>
      <trkpt lat="44.33512" lon="1.24298">
        <ele>215.104</ele>
        <time>2021-01-03T07:08:20Z</time>
      </trkpt>
      <trkpt lat="44.33526" lon="1.24269">
        <ele>217.214</ele>
        <time>2021-01-03T07:08:40Z</time>
      </trkpt>
      <trkpt lat="44.33506" lon="1.24259">
        <ele>211.808</ele>
        <time>2021-01-03T07:09:00Z</time>
      </trkpt>
      <trkpt lat="44.336" lon="1.24123">
        <ele>227.738</ele>
        <time>2021-01-03T07:09:20Z</time>
      </trkpt>
      <trkpt lat="44.33852" lon="1.23791">
        <ele>251.885</ele>
        <time>2021-01-03T07:09:40Z</time>
      </trkpt>
      <trkpt lat="44.3387" lon="1.23734">
        <ele>252.944</ele>
        <time>2021-01-03T07:10:00Z</time>
      </trkpt>
      <trkpt lat="44.34066" lon="1.23941">
        <ele>264.683</ele>
        <time>2021-01-03T07:10:20Z</time>
      </trkpt>
      <trkpt lat="44.34116" lon="1.23771">
        <ele>262.849</ele>
        <time>2021-01-03T07:10:40Z</time>
      </trkpt>
      <trkpt lat="44.34225" lon="1.2349">
        <ele>264.64</ele>
        <time>2016-09-26T16:14:26Z</time>
      </trkpt>
      <trkpt lat="44.34269" lon="1.23412">
        <ele>265.143</ele>
        <time>2021-01-03T07:11:20Z</time>
      </trkpt>
      <trkpt lat="44.34317" lon="1.23041">
        <ele>264.432</ele>
        <time>2016-09-26T16:15:26Z</time>
      </trkpt>
      <trkpt lat="44.34297" lon="1.22923">
        <ele>261.093</ele>
        <time>2016-09-26T16:15:46Z</time>
      </trkpt>
      <trkpt lat="44.34149" lon="1.22299">
        <ele>244.865</ele>
        <time>2016-09-26T16:16:06Z</time>
      </trkpt>
      <trkpt lat="44.34107" lon="1.22211">
        <ele>247.621</ele>
        <time>2016-09-26T16:16:26Z</time>
      </trkpt>
      <trkpt lat="44.34037" lon="1.22046">
        <ele>247.708</ele>
        <time>2016-09-26T16:16:46Z</time>
      </trkpt>
      <trkpt lat="44.33967" lon="1.21906">
        <ele>246.365</ele>
        <time>2016-09-26T16:17:06Z</time>
      </trkpt>
      <trkpt lat="44.33932" lon="1.21707">
        <ele>237.262</ele>
        <time>2016-09-26T16:17:26Z</time>
      </trkpt>
      <trkpt lat="44.33856" lon="1.21433">
        <ele>219.141</ele>
        <time>2019-03-30T14:34:28Z</time>
      </trkpt>
      <trkpt lat="44.33875" lon="1.2126">
        <ele>202.49</ele>
        <time>2016-09-26T16:18:26Z</time>
      </trkpt>
      <trkpt lat="44.33844" lon="1.21189">
        <ele>193.886</ele>
        <time>2019-03-30T14:35:08Z</time>
      </trkpt>
      <trkpt lat="44.33765" lon="1.21163">
        <ele>185.377</ele>
        <time>2019-03-30T14:35:28Z</time>
      </trkpt>
      <trkpt lat="44.33674" lon="1.21199">
        <ele>172.84</ele>
        <time>2019-03-30T14:35:48Z</time>
      </trkpt>
      <trkpt lat="44.3353" lon="1.21295">
        <ele>175.679</ele>
        <time>2019-03-30T14:36:08Z</time>
      </trkpt>
      <trkpt lat="44.33444" lon="1.2129">
        <ele>186.162</ele>
        <time>2016-09-26T16:19:46Z</time>
      </trkpt>
      <trkpt lat="44.3325" lon="1.21415">
        <ele>223.983</ele>
        <time>2016-09-26T16:20:06Z</time>
      </trkpt>
      <trkpt lat="44.33107" lon="1.21386">
        <ele>241.211</ele>
        <time>2019-03-30T14:37:08Z</time>
      </trkpt>
      <trkpt lat="44.33024" lon="1.214">
        <ele>251.008</ele>
        <time>2019-03-30T14:37:28Z</time>
      </trkpt>
      <trkpt lat="44.32935" lon="1.21479">
        <ele>257.382</ele>
        <time>2016-09-26T16:20:46Z</time>
      </trkpt>
      <trkpt lat="44.32739" lon="1.2154">
        <ele>258.569</ele>
        <time>2019-03-30T14:38:08Z</time>
      </trkpt>
      <trkpt lat="44.3261" lon="1.21731">
        <ele>259.658</ele>
        <time>2019-03-30T14:38:28Z</time>
      </trkpt>
      <trkpt lat="44.3258" lon="1.2167">
        <ele>259.157</ele>
        <time>2019-03-30T14:38:48Z</time>
      </trkpt>
      <trkpt lat="44.32527" lon="1.21648">
        <ele>258.363</ele>
        <time>2019-03-30T14:39:08Z</time>
      </trkpt>
      <trkpt lat="44.32299" lon="1.21739">
        <ele>252.764</ele>
        <time>2019-03-30T14:39:28Z</time>
      </trkpt>
      <trkpt lat="44.32266" lon="1.21803">
        <ele>250.267</ele>
        <time>2016-09-26T16:22:46Z</time>
      </trkpt>
      <trkpt lat="44.3218" lon="1.21833">
        <ele>247.526</ele>
        <time>2019-03-30T14:40:08Z</time>
      </trkpt>
      <trkpt lat="44.32162" lon="1.21771">
        <ele>246.016</ele>
        <time>2019-03-30T14:40:28Z</time>
      </trkpt>
      <trkpt lat="44.31978" lon="1.21786">
        <ele>251.476</ele>
        <time>2016-09-26T16:24:06Z</time>
      </trkpt>
      <trkpt lat="44.3172" lon="1.21796">
        <ele>249.313</ele>
        <time>2019-03-30T14:41:08Z</time>
      </trkpt>
      <trkpt lat="44.31592" lon="1.21844">
        <ele>241.608</ele>
        <time>2019-03-30T14:41:28Z</time>
      </trkpt>
      <trkpt lat="44.31402" lon="1.21872">
        <ele>206.537</ele>
        <time>2019-03-30T14:41:48Z</time>
      </trkpt>
      <trkpt lat="44.314" lon="1.21737">
        <ele>205.284</ele>
        <time>2019-03-30T14:42:08Z</time>
      </trkpt>
      <trkpt lat="44.31406" lon="1.21625">
        <ele>203.343</ele>
        <time>2019-03-30T14:42:28Z</time>
      </trkpt>
      <trkpt lat="44.31346" lon="1.21573">
        <ele>184.872</ele>
        <time>2019-03-30T14:42:48Z</time>
      </trkpt>
      <trkpt lat="44.3135" lon="1.21492">
        <ele>188.258</ele>
        <time>2019-03-30T14:43:08Z</time>
      </trkpt>
      <trkpt lat="44.3133" lon="1.21461">
        <ele>186.869</ele>
        <time>2019-03-30T14:43:28Z</time>
      </trkpt>
      <trkpt lat="44.31296" lon="1.21496">
        <ele>183.882</ele>
        <time>2019-03-30T14:43:48Z</time>
      </trkpt>
      <trkpt lat="44.31258" lon="1.21485">
        <ele>182.851</ele>
        <time>2019-03-30T14:44:08Z</time>
      </trkpt>
      <trkpt lat="44.31168" lon="1.21503">
        <ele>189.982</ele>
        <time>2019-03-30T14:44:28Z</time>
      </trkpt>
      <trkpt lat="44.31125" lon="1.21615">
        <ele>181.643</ele>
        <time>2019-03-30T14:44:48Z</time>
      </trkpt>
      <trkpt lat="44.31107" lon="1.21716">
        <ele>167.317</ele>
        <time>2019-03-30T14:45:08Z</time>
      </trkpt>
      <trkpt lat="44.31064" lon="1.21807">
        <ele>160.408</ele>
        <time>2019-03-30T14:45:28Z</time>
      </trkpt>
      <trkpt lat="44.31047" lon="1.21892">
        <ele>156.484</ele>
        <time>2019-03-30T14:45:48Z</time>
      </trkpt>
      <trkpt lat="44.31024" lon="1.21882">
        <ele>154.541</ele>
        <time>2019-03-30T14:46:08Z</time>
      </trkpt>
      <trkpt lat="44.30958" lon="1.21765">
        <ele>152.21</ele>
        <time>2016-09-26T16:26:46Z</time>
      </trkpt>
      <trkpt lat="44.30937" lon="1.21696">
        <ele>151.549</ele>
        <time>2019-03-30T14:46:48Z</time>
      </trkpt>
      <trkpt lat="44.30795" lon="1.21469">
        <ele>149.345</ele>
        <time>2019-03-30T14:47:08Z</time>
      </trkpt>
      <trkpt lat="44.3078" lon="1.21282">
        <ele>150.366</ele>
        <time>2016-09-26T16:27:46Z</time>
      </trkpt>
      <trkpt lat="44.30686" lon="1.21251">
        <ele>148.039</ele>
        <time>2019-03-30T14:47:48Z</time>
      </trkpt>
      <trkpt lat="44.3058" lon="1.2129">
        <ele>151.518</ele>
        <time>2016-09-26T16:28:26Z</time>
      </trkpt>
      <trkpt lat="44.30517" lon="1.21052">
        <ele>154.787</ele>
        <time>2019-03-30T14:48:28Z</time>
      </trkpt>
      <trkpt lat="44.30456" lon="1.21011">
        <ele>156.542</ele>
        <time>2016-09-26T16:29:26Z</time>
      </trkpt>
      <trkpt lat="44.30398" lon="1.21026">
        <ele>161.226</ele>
        <time>2016-09-26T16:29:46Z</time>
      </trkpt>
      <trkpt lat="44.30318" lon="1.2108">
        <ele>171.008</ele>
        <time>2016-09-26T16:30:06Z</time>
      </trkpt>
      <trkpt lat="44.30283" lon="1.21011">
        <ele>172.494</ele>
        <time>2016-09-26T16:30:26Z</time>
      </trkpt>
      <trkpt lat="44.30287" lon="1.20836">
        <ele>182.391</ele>
        <time>2016-09-26T16:30:46Z</time>
      </trkpt>
      <trkpt lat="44.30272" lon="1.20775">
        <ele>187.53</ele>
        <time>2016-09-26T16:31:06Z</time>
      </trkpt>
      <trkpt lat="44.30163" lon="1.2069">
        <ele>189.699</ele>
        <time>2019-03-30T14:50:48Z</time>
      </trkpt>
      <trkpt lat="44.30087" lon="1.20661">
        <ele>184.985</ele>
        <time>2019-03-30T14:51:08Z</time>
      </trkpt>
      <trkpt lat="44.30064" lon="1.20597">
        <ele>175.236</ele>
        <time>2016-09-26T16:32:06Z</time>
      </trkpt>
      <trkpt lat="44.30059" lon="1.20521">
        <ele>172.379</ele>
        <time>2019-03-30T14:51:48Z</time>
      </trkpt>
      <trkpt lat="44.29976" lon="1.20506">
        <ele>171.378</ele>
        <time>2019-03-30T14:52:08Z</time>
      </trkpt>
      <trkpt lat="44.29891" lon="1.2041">
        <ele>172.329</ele>
        <time>2019-03-30T14:52:28Z</time>
      </trkpt>
      <trkpt lat="44.29845" lon="1.2041">
        <ele>172.1</ele>
        <time>2019-03-30T14:52:48Z</time>
      </trkpt>
      <trkpt lat="44.2972" lon="1.20524">
        <ele>169.72</ele>
        <time>2016-09-26T16:34:06Z</time>
      </trkpt>
      <trkpt lat="44.29622" lon="1.20584">
        <ele>175.408</ele>
        <time>2019-03-30T14:53:28Z</time>
      </trkpt>
      <trkpt lat="44.29536" lon="1.20344">
        <ele>179.028</ele>
        <time>2016-09-26T16:35:06Z</time>
      </trkpt>
      <trkpt lat="44.29531" lon="1.20212">
        <ele>177.975</ele>
        <time>2019-03-30T14:54:08Z</time>
      </trkpt>
      <trkpt lat="44.29495" lon="1.2015">
        <ele>178.264</ele>
        <time>2019-03-30T14:54:28Z</time>
      </trkpt>
      <trkpt lat="44.29417" lon="1.20065">
        <ele>175.343</ele>
        <time>2019-03-30T14:54:48Z</time>
      </trkpt>
      <trkpt lat="44.29367" lon="1.19912">
        <ele>179.939</ele>
        <time>2019-03-30T14:55:08Z</time>
      </trkpt>
      <trkpt lat="44.29366" lon="1.19838">
        <ele>184.45</ele>
        <time>2016-09-26T16:36:46Z</time>
      </trkpt>
      <trkpt lat="44.29328" lon="1.19771">
        <ele>192.493</ele>
        <time>2019-03-30T14:55:48Z</time>
      </trkpt>
      <trkpt lat="44.2917" lon="1.19691">
        <ele>210.272</ele>
        <time>2019-03-30T14:56:08Z</time>
      </trkpt>
      <trkpt lat="44.29133" lon="1.19586">
        <ele>210.692</ele>
        <time>2019-03-30T14:56:28Z</time>
      </trkpt>
      <trkpt lat="44.29166" lon="1.19424">
        <ele>204.573</ele>
        <time>2016-09-26T16:38:06Z</time>
      </trkpt>
      <trkpt lat="44.29174" lon="1.19285">
        <ele>185.92</ele>
        <time>2019-03-30T14:57:08Z</time>
      </trkpt>
      <trkpt lat="44.29148" lon="1.19195">
        <ele>181.408</ele>
        <time>2019-03-30T14:57:28Z</time>
      </trkpt>
      <trkpt lat="44.29025" lon="1.19212">
        <ele>174.545</ele>
        <time>2019-03-30T14:57:48Z</time>
      </trkpt>
      <trkpt lat="44.29022" lon="1.19173">
        <ele>177.372</ele>
        <time>2019-03-30T14:58:08Z</time>
      </trkpt>
      <trkpt lat="44.28976" lon="1.19112">
        <ele>180.951</ele>
        <time>2016-09-26T16:39:46Z</time>
      </trkpt>
      <trkpt lat="44.28919" lon="1.18984">
        <ele>200.72</ele>
        <time>2016-09-26T16:40:06Z</time>
      </trkpt>
      <trkpt lat="44.28894" lon="1.18896">
        <ele>226.056</ele>
        <time>2019-03-30T14:59:08Z</time>
      </trkpt>
      <trkpt lat="44.28797" lon="1.18718">
        <ele>245.887</ele>
        <time>2016-09-26T16:40:46Z</time>
      </trkpt>
      <trkpt lat="44.28677" lon="1.18431">
        <ele>239.52</ele>
        <time>2019-03-30T14:59:48Z</time>
      </trkpt>
      <trkpt lat="44.28538" lon="1.1827">
        <ele>239.169</ele>
        <time>2019-03-30T15:00:08Z</time>
      </trkpt>
      <trkpt lat="44.28476" lon="1.18221">
        <ele>237.054</ele>
        <time>2019-03-30T15:00:28Z</time>
      </trkpt>
      <trkpt lat="44.28435" lon="1.18147">
        <ele>237.956</ele>
        <time>2016-09-26T16:42:06Z</time>
      </trkpt>
      <trkpt lat="44.28299" lon="1.17917">
        <ele>239.211</ele>
        <time>2019-03-30T15:01:08Z</time>
      </trkpt>
      <trkpt lat="44.28257" lon="1.17798">
        <ele>241.508</ele>
        <time>2019-03-30T15:01:28Z</time>
      </trkpt>
      <trkpt lat="44.28174" lon="1.17779">
        <ele>241.771</ele>
        <time>2019-03-30T15:01:48Z</time>
      </trkpt>
      <trkpt lat="44.28145" lon="1.17652">
        <ele>235.618</ele>
        <time>2019-03-30T15:02:08Z</time>
      </trkpt>
      <trkpt lat="44.28161" lon="1.17556">
        <ele>238.827</ele>
        <time>2019-03-30T15:02:28Z</time>
      </trkpt>
      <trkpt lat="44.28158" lon="1.17402">
        <ele>238.176</ele>
        <time>2016-09-26T16:44:06Z</time>
      </trkpt>
      <trkpt lat="44.28066" lon="1.17068">
        <ele>228.322</ele>
        <time>2016-09-26T16:44:46Z</time>
      </trkpt>
      <trkpt lat="44.28066" lon="1.16969">
        <ele>230.263</ele>
        <time>2016-09-26T16:45:06Z</time>
      </trkpt>
      <trkpt lat="44.28032" lon="1.16765">
        <ele>238.056</ele>
        <time>2016-09-26T16:45:26Z</time>
      </trkpt>
      <trkpt lat="44.28055" lon="1.16486">
        <ele>234.545</ele>
        <time>2016-09-26T16:45:46Z</time>
      </trkpt>
      <trkpt lat="44.28066" lon="1.16382">
        <ele>235.214</ele>
        <time>2019-03-30T15:04:28Z</time>
      </trkpt>
      <trkpt lat="44.28041" lon="1.16289">
        <ele>233.854</ele>
        <time>2019-03-30T15:04:48Z</time>
      </trkpt>
      <trkpt lat="44.279" lon="1.16069">
        <ele>234.409</ele>
        <time>2019-03-30T15:05:08Z</time>
      </trkpt>
      <trkpt lat="44.27777" lon="1.15905">
        <ele>235.608</ele>
        <time>2016-09-26T16:46:46Z</time>
      </trkpt>
      <trkpt lat="44.27658" lon="1.16012">
        <ele>225.877</ele>
        <time>2016-09-26T16:47:06Z</time>
      </trkpt>
      <trkpt lat="44.27624" lon="1.16012">
        <ele>216.264</ele>
        <time>2016-09-26T16:47:26Z</time>
      </trkpt>
      <trkpt lat="44.27591" lon="1.16065">
        <ele>209.743</ele>
        <time>2016-09-26T16:47:46Z</time>
      </trkpt>
      <trkpt lat="44.27584" lon="1.1601">
        <ele>203.552</ele>
        <time>2016-09-26T16:48:06Z</time>
      </trkpt>
      <trkpt lat="44.27525" lon="1.15954">
        <ele>182.548</ele>
        <time>2016-09-26T16:48:26Z</time>
      </trkpt>
      <trkpt lat="44.27455" lon="1.1596">
        <ele>170.549</ele>
        <time>2016-09-26T16:48:46Z</time>
      </trkpt>
      <trkpt lat="44.27386" lon="1.15872">
        <ele>165.782</ele>
        <time>2016-09-26T16:49:06Z</time>
      </trkpt>
      <trkpt lat="44.27332" lon="1.15864">
        <ele>166.631</ele>
        <time>2016-09-26T16:49:26Z</time>
      </trkpt>
      <trkpt lat="44.27223" lon="1.15821">
        <ele>170.493</ele>
        <time>2016-09-26T16:49:46Z</time>
      </trkpt>
      <trkpt lat="44.2718" lon="1.15769">
        <ele>181.065</ele>
        <time>2016-09-26T16:50:06Z</time>
      </trkpt>
      <trkpt lat="44.27029" lon="1.15765">
        <ele>192.321</ele>
        <time>2016-09-26T16:50:26Z</time>
      </trkpt>
      <trkpt lat="44.26906" lon="1.15641">
        <ele>166.208</ele>
        <time>2016-09-26T16:50:46Z</time>
      </trkpt>
      <trkpt lat="44.26887" lon="1.15545">
        <ele>164.585</ele>
        <time>2019-03-30T15:09:48Z</time>
      </trkpt>
      <trkpt lat="44.26842" lon="1.15481">
        <ele>161.322</ele>
        <time>2019-03-30T15:10:08Z</time>
      </trkpt>
      <trkpt lat="44.2682" lon="1.15411">
        <ele>162.261</ele>
        <time>2019-03-30T15:10:28Z</time>
      </trkpt>
      <trkpt lat="44.2675" lon="1.15315">
        <ele>156.03</ele>
        <time>2019-03-30T15:10:48Z</time>
      </trkpt>
      <trkpt lat="44.26703" lon="1.15192">
        <ele>147.426</ele>
        <time>2016-09-26T16:52:26Z</time>
      </trkpt>
      <trkpt lat="44.26643" lon="1.15158">
        <ele>143.437</ele>
        <time>2016-09-26T16:52:46Z</time>
      </trkpt>
      <trkpt lat="44.26576" lon="1.15177">
        <ele>143.64</ele>
        <time>2016-09-26T16:53:06Z</time>
      </trkpt>
      <trkpt lat="44.26479" lon="1.14995">
        <ele>143.039</ele>
        <time>2016-09-26T16:53:26Z</time>
      </trkpt>
      <trkpt lat="44.26358" lon="1.1492">
        <ele>127.591</ele>
        <time>2016-09-26T16:53:46Z</time>
      </trkpt>
      <trkpt lat="44.26312" lon="1.14837">
        <ele>129.281</ele>
        <time>2019-03-30T15:12:48Z</time>
      </trkpt>
      <trkpt lat="44.26133" lon="1.14574">
        <ele>128.519</ele>
        <time>2016-09-26T16:54:06Z</time>
      </trkpt>
      <trkpt lat="44.2609" lon="1.14555">
        <ele>128.808</ele>
        <time>2016-09-26T16:54:26Z</time>
      </trkpt>
      <trkpt lat="44.26015" lon="1.14435">
        <ele>129.695</ele>
        <time>2016-09-26T16:54:46Z</time>
      </trkpt>
      <trkpt lat="44.25983" lon="1.14347">
        <ele>138.562</ele>
        <time>2016-09-26T16:55:06Z</time>
      </trkpt>
      <trkpt lat="44.25958" lon="1.14338">
        <ele>139.731</ele>
        <time>2016-09-26T16:55:26Z</time>
      </trkpt>
      <trkpt lat="44.25958" lon="1.14278">
        <ele>142.06</ele>
        <time>2016-09-26T16:55:46Z</time>
      </trkpt>
      <trkpt lat="44.25886" lon="1.14257">
        <ele>152.366</ele>
        <time>2016-09-26T16:56:06Z</time>
      </trkpt>
      <trkpt lat="44.25855" lon="1.14154">
        <ele>164.557</ele>
        <time>2016-09-26T16:56:26Z</time>
      </trkpt>
      <trkpt lat="44.25849" lon="1.14091">
        <ele>172.39</ele>
        <time>2016-09-26T16:56:46Z</time>
      </trkpt>
      <trkpt lat="44.25867" lon="1.14051">
        <ele>176.749</ele>
        <time>2016-09-26T16:57:06Z</time>
      </trkpt>
      <trkpt lat="44.25867" lon="1.13988">
        <ele>181.137</ele>
        <time>2019-03-30T15:16:28Z</time>
      </trkpt>
      <trkpt lat="44.25789" lon="1.1381">
        <ele>214.249</ele>
        <time>2016-09-26T16:57:46Z</time>
      </trkpt>
      <trkpt lat="44.25729" lon="1.13727">
        <ele>215.413</ele>
        <time>2016-09-26T16:58:06Z</time>
      </trkpt>
      <trkpt lat="44.25703" lon="1.13733">
        <ele>222.108</ele>
        <time>2016-09-26T16:58:26Z</time>
      </trkpt>
      <trkpt lat="44.25665" lon="1.1383">
        <ele>228.069</ele>
        <time>2016-09-26T16:58:46Z</time>
      </trkpt>
      <trkpt lat="44.2564" lon="1.13851">
        <ele>226.146</ele>
        <time>2016-09-26T16:59:06Z</time>
      </trkpt>
      <trkpt lat="44.25597" lon="1.13709">
        <ele>219.715</ele>
        <time>2016-09-26T16:59:26Z</time>
      </trkpt>
      <trkpt lat="44.25531" lon="1.13615">
        <ele>207.244</ele>
        <time>2016-09-26T16:59:46Z</time>
      </trkpt>
      <trkpt lat="44.25531" lon="1.13615">
        <ele>207.26</ele>
        <time>2016-09-26T17:00:06Z</time>
      </trkpt>
      <trkpt lat="44.25479" lon="1.13579">
        <ele>199.021</ele>
        <time>2016-09-26T17:00:26Z</time>
      </trkpt>
      <trkpt lat="44.25454" lon="1.13589">
        <ele>191.964</ele>
        <time>2016-09-26T17:00:46Z</time>
      </trkpt>
      <trkpt lat="44.25454" lon="1.13609">
        <ele>190.313</ele>
        <time>2016-09-26T17:01:06Z</time>
      </trkpt>
      <trkpt lat="44.25392" lon="1.13562">
        <ele>174.389</ele>
        <time>2019-03-30T15:20:28Z</time>
      </trkpt>
      <trkpt lat="44.25395" lon="1.13611">
        <ele>175.606</ele>
        <time>2019-03-30T15:20:48Z</time>
      </trkpt>
      <trkpt lat="44.25415" lon="1.13681">
        <ele>174.126</ele>
        <time>2019-03-30T15:21:08Z</time>
      </trkpt>
      <trkpt lat="44.25427" lon="1.13757">
        <ele>173.108</ele>
        <time>2019-03-30T15:21:28Z</time>
      </trkpt>
      <trkpt lat="44.25414" lon="1.13798">
        <ele>170.634</ele>
        <time>2019-03-30T15:21:48Z</time>
      </trkpt>
      <trkpt lat="44.25333" lon="1.13811">
        <ele>154.811</ele>
        <time>2019-03-30T15:22:08Z</time>
      </trkpt>
      <trkpt lat="44.25326" lon="1.13865">
        <ele>152.76</ele>
        <time>2019-03-30T15:22:28Z</time>
      </trkpt>
      <trkpt lat="44.25338" lon="1.13928">
        <ele>151.959</ele>
        <time>2019-03-30T15:22:48Z</time>
      </trkpt>
      <trkpt lat="44.2528" lon="1.13961">
        <ele>139.345</ele>
        <time>2019-03-30T15:23:08Z</time>
      </trkpt>
      <trkpt lat="44.25243" lon="1.13964">
        <ele>132.496</ele>
        <time>2019-03-30T15:23:28Z</time>
      </trkpt>
      <trkpt lat="44.25134" lon="1.14038">
        <ele>112.019</ele>
        <time>2016-09-26T17:04:46Z</time>
      </trkpt>
      <trkpt lat="44.25061" lon="1.14125">
        <ele>102.338</ele>
        <time>2019-03-30T15:24:08Z</time>
      </trkpt>
      <trkpt lat="44.24849" lon="1.14587">
        <ele>111.186</ele>
        <time>2019-03-30T15:24:28Z</time>
      </trkpt>
      <trkpt lat="44.24847" lon="1.14656">
        <ele>114.16</ele>
        <time>2016-09-26T17:05:46Z</time>
      </trkpt>
      <trkpt lat="44.24884" lon="1.14739">
        <ele>119.226</ele>
        <time>2016-09-26T17:06:06Z</time>
      </trkpt>
      <trkpt lat="44.24736" lon="1.14909">
        <ele>132.108</ele>
        <time>2016-09-26T17:06:26Z</time>
      </trkpt>
      <trkpt lat="44.24701" lon="1.14993">
        <ele>136.994</ele>
        <time>2016-09-26T17:06:46Z</time>
      </trkpt>
      <trkpt lat="44.24664" lon="1.1498">
        <ele>134.871</ele>
        <time>2016-09-26T17:07:06Z</time>
      </trkpt>
      <trkpt lat="44.24609" lon="1.15014">
        <ele>145.64</ele>
        <time>2016-09-26T17:07:26Z</time>
      </trkpt>
      <trkpt lat="44.24504" lon="1.15173">
        <ele>174.599</ele>
        <time>2016-09-26T17:07:46Z</time>
      </trkpt>
      <trkpt lat="44.24427" lon="1.15186">
        <ele>178.445</ele>
        <time>2016-09-26T17:08:06Z</time>
      </trkpt>
      <trkpt lat="44.24346" lon="1.15222">
        <ele>184.116</ele>
        <time>2016-09-26T17:08:26Z</time>
      </trkpt>
      <trkpt lat="44.2431" lon="1.15295">
        <ele>201.759</ele>
        <time>2016-09-26T17:08:46Z</time>
      </trkpt>
      <trkpt lat="44.24258" lon="1.15314">
        <ele>209.688</ele>
        <time>2016-09-26T17:09:06Z</time>
      </trkpt>
      <trkpt lat="44.24224" lon="1.15297">
        <ele>212.091</ele>
        <time>2016-09-26T17:09:26Z</time>
      </trkpt>
      <trkpt lat="44.24172" lon="1.15325">
        <ele>211.181</ele>
        <time>2016-09-26T17:09:46Z</time>
      </trkpt>
      <trkpt lat="44.24164" lon="1.15531">
        <ele>224.819</ele>
        <time>2016-09-26T17:10:06Z</time>
      </trkpt>
      <trkpt lat="44.24192" lon="1.15645">
        <ele>228.208</ele>
        <time>2016-09-26T17:10:26Z</time>
      </trkpt>
      <trkpt lat="44.2428" lon="1.15823">
        <ele>222.555</ele>
        <time>2016-09-26T17:10:46Z</time>
      </trkpt>
      <trkpt lat="44.24224" lon="1.15973">
        <ele>205.542</ele>
        <time>2016-09-26T17:11:06Z</time>
      </trkpt>
      <trkpt lat="44.24212" lon="1.16068">
        <ele>202.641</ele>
        <time>2016-09-26T17:11:26Z</time>
      </trkpt>
      <trkpt lat="44.24169" lon="1.16175">
        <ele>195.46</ele>
        <time>2016-09-26T17:11:46Z</time>
      </trkpt>
      <trkpt lat="44.24172" lon="1.16237">
        <ele>194.516</ele>
        <time>2016-09-26T17:12:06Z</time>
      </trkpt>
      <trkpt lat="44.24157" lon="1.16252">
        <ele>191.097</ele>
        <time>2016-09-26T17:12:26Z</time>
      </trkpt>
      <trkpt lat="44.24134" lon="1.16231">
        <ele>185.56</ele>
        <time>2016-09-26T17:12:46Z</time>
      </trkpt>
      <trkpt lat="44.24034" lon="1.16235">
        <ele>170.489</ele>
        <time>2016-09-26T17:13:06Z</time>
      </trkpt>
      <trkpt lat="44.23908" lon="1.16314">
        <ele>156.148</ele>
        <time>2016-09-26T17:13:26Z</time>
      </trkpt>
      <trkpt lat="44.23895" lon="1.16441">
        <ele>158.161</ele>
        <time>2016-09-26T17:13:46Z</time>
      </trkpt>
      <trkpt lat="44.23837" lon="1.1643">
        <ele>159.717</ele>
        <time>2016-09-26T17:14:06Z</time>
      </trkpt>
      <trkpt lat="44.2374" lon="1.16456">
        <ele>169.308</ele>
        <time>2016-09-26T17:14:26Z</time>
      </trkpt>
      <trkpt lat="44.23714" lon="1.16454">
        <ele>170.62</ele>
        <time>2016-09-26T17:14:46Z</time>
      </trkpt>
      <trkpt lat="44.23672" lon="1.16469">
        <ele>171.737</ele>
        <time>2016-09-26T17:15:06Z</time>
      </trkpt>
      <trkpt lat="44.23643" lon="1.16454">
        <ele>167.186</ele>
        <time>2016-09-26T17:15:26Z</time>
      </trkpt>
      <trkpt lat="44.23582" lon="1.1648">
        <ele>176.145</ele>
        <time>2016-09-26T17:15:46Z</time>
      </trkpt>
      <trkpt lat="44.23549" lon="1.16471">
        <ele>179.891</ele>
        <time>2016-09-26T17:16:06Z</time>
      </trkpt>
      <trkpt lat="44.23511" lon="1.16426">
        <ele>173.732</ele>
        <time>2016-09-26T17:16:26Z</time>
      </trkpt>
      <trkpt lat="44.23336" lon="1.16604">
        <ele>170.185</ele>
        <time>2016-09-26T17:16:46Z</time>
      </trkpt>
      <trkpt lat="44.23284" lon="1.1657">
        <ele>162.594</ele>
        <time>2016-09-26T17:17:06Z</time>
      </trkpt>
      <trkpt lat="44.2322" lon="1.16572">
        <ele>155.761</ele>
        <time>2016-09-26T17:17:26Z</time>
      </trkpt>
      <trkpt lat="44.2317" lon="1.16529">
        <ele>150.121</ele>
        <time>2016-09-26T17:17:46Z</time>
      </trkpt>
      <trkpt lat="44.23161" lon="1.16467">
        <ele>150.213</ele>
        <time>2016-09-26T17:18:06Z</time>
      </trkpt>
      <trkpt lat="44.22968" lon="1.16443">
        <ele>137.508</ele>
        <time>2016-09-26T17:18:26Z</time>
      </trkpt>
      <trkpt lat="44.22953" lon="1.16336">
        <ele>135.042</ele>
        <time>2016-09-26T17:18:46Z</time>
      </trkpt>
      <trkpt lat="44.22704" lon="1.16347">
        <ele>120.859</ele>
        <time>2016-09-26T17:19:06Z</time>
      </trkpt>
      <trkpt lat="44.22562" lon="1.16372">
        <ele>115.948</ele>
        <time>2016-09-26T17:19:26Z</time>
      </trkpt>
      <trkpt lat="44.22532" lon="1.16396">
        <ele>114.347</ele>
        <time>2016-09-26T17:19:46Z</time>
      </trkpt>
      <trkpt lat="44.22192" lon="1.16488">
        <ele>104.963</ele>
        <time>2016-09-26T17:20:06Z</time>
      </trkpt>
      <trkpt lat="44.2217" lon="1.1652">
        <ele>104.184</ele>
        <time>2016-09-26T17:20:26Z</time>
      </trkpt>
      <trkpt lat="44.22103" lon="1.16501">
        <ele>106.647</ele>
        <time>2016-09-26T17:20:46Z</time>
      </trkpt>
      <trkpt lat="44.22061" lon="1.16357">
        <ele>105.856</ele>
        <time>2016-09-26T17:21:06Z</time>
      </trkpt>
      <trkpt lat="44.21926" lon="1.16046">
        <ele>105.772</ele>
        <time>2016-09-26T17:21:26Z</time>
      </trkpt>
      <trkpt lat="44.2184" lon="1.15802">
        <ele>105.613</ele>
        <time>2016-09-26T17:21:46Z</time>
      </trkpt>
      <trkpt lat="44.21744" lon="1.15613">
        <ele>104.314</ele>
        <time>2016-09-26T17:22:06Z</time>
      </trkpt>
      <trkpt lat="44.21657" lon="1.15154">
        <ele>101.908</ele>
        <time>2016-09-26T17:22:26Z</time>
      </trkpt>
      <trkpt lat="44.21601" lon="1.15059">
        <ele>102.413</ele>
        <time>2016-09-26T17:22:46Z</time>
      </trkpt>
      <trkpt lat="44.21581" lon="1.14948">
        <ele>104.13</ele>
        <time>2016-09-26T17:23:06Z</time>
      </trkpt>
      <trkpt lat="44.21383" lon="1.15136">
        <ele>119.239</ele>
        <time>2016-09-26T17:23:26Z</time>
      </trkpt>
      <trkpt lat="44.21332" lon="1.15201">
        <ele>123.978</ele>
        <time>2016-09-26T17:23:46Z</time>
      </trkpt>
      <trkpt lat="44.21255" lon="1.15216">
        <ele>131.834</ele>
        <time>2016-09-26T17:24:06Z</time>
      </trkpt>
      <trkpt lat="44.21215" lon="1.15171">
        <ele>137.885</ele>
        <time>2016-09-26T17:24:26Z</time>
      </trkpt>
      <trkpt lat="44.21178" lon="1.15132">
        <ele>141.158</ele>
        <time>2016-09-26T17:24:46Z</time>
      </trkpt>
      <trkpt lat="44.21065" lon="1.15188">
        <ele>149.037</ele>
        <time>2016-09-26T17:25:06Z</time>
      </trkpt>
      <trkpt lat="44.21" lon="1.15259">
        <ele>152.322</ele>
        <time>2016-09-26T17:25:26Z</time>
      </trkpt>
      <trkpt lat="44.20914" lon="1.15327">
        <ele>153.262</ele>
        <time>2016-09-26T17:25:46Z</time>
      </trkpt>
      <trkpt lat="44.20798" lon="1.15375">
        <ele>156.508</ele>
        <time>2016-09-26T17:26:06Z</time>
      </trkpt>
      <trkpt lat="44.2068" lon="1.15314">
        <ele>165.608</ele>
        <time>2016-09-26T17:26:26Z</time>
      </trkpt>
      <trkpt lat="44.20609" lon="1.15441">
        <ele>171.278</ele>
        <time>2016-09-26T17:26:46Z</time>
      </trkpt>
      <trkpt lat="44.20557" lon="1.15456">
        <ele>161.745</ele>
        <time>2016-09-26T17:27:06Z</time>
      </trkpt>
      <trkpt lat="44.20437" lon="1.1536">
        <ele>136.284</ele>
        <time>2016-09-26T17:27:26Z</time>
      </trkpt>
      <trkpt lat="44.20475" lon="1.15248">
        <ele>132.053</ele>
        <time>2016-09-26T17:27:46Z</time>
      </trkpt>
      <trkpt lat="44.20331" lon="1.15138">
        <ele>118.889</ele>
        <time>2016-09-26T17:28:06Z</time>
      </trkpt>
      <trkpt lat="44.20169" lon="1.15394">
        <ele>119.67</ele>
        <time>2016-09-26T17:28:26Z</time>
      </trkpt>
      <trkpt lat="44.20095" lon="1.15456">
        <ele>123.333</ele>
        <time>2016-09-26T17:28:46Z</time>
      </trkpt>
      <trkpt lat="44.19934" lon="1.15802">
        <ele>122.772</ele>
        <time>2016-09-26T17:29:06Z</time>
      </trkpt>
      <trkpt lat="44.199" lon="1.15829">
        <ele>122.345</ele>
        <time>2016-09-26T17:29:26Z</time>
      </trkpt>
      <trkpt lat="44.19868" lon="1.15778">
        <ele>124.547</ele>
        <time>2016-09-26T17:29:46Z</time>
      </trkpt>
      <trkpt lat="44.19811" lon="1.15744">
        <ele>137.111</ele>
        <time>2016-09-26T17:30:06Z</time>
      </trkpt>
      <trkpt lat="44.19725" lon="1.15774">
        <ele>146.108</ele>
        <time>2016-09-26T17:30:26Z</time>
      </trkpt>
      <trkpt lat="44.19592" lon="1.15774">
        <ele>154.78</ele>
        <time>2016-09-26T17:30:46Z</time>
      </trkpt>
      <trkpt lat="44.19557" lon="1.15808">
        <ele>158.827</ele>
        <time>2016-09-26T17:31:06Z</time>
      </trkpt>
      <trkpt lat="44.19499" lon="1.1581">
        <ele>168.996</ele>
        <time>2016-09-26T17:31:26Z</time>
      </trkpt>
      <trkpt lat="44.19482" lon="1.15795">
        <ele>170.785</ele>
        <time>2016-09-26T17:31:46Z</time>
      </trkpt>
      <trkpt lat="44.19432" lon="1.15793">
        <ele>169.831</ele>
        <time>2016-09-26T17:32:06Z</time>
      </trkpt>
      <trkpt lat="44.19328" lon="1.15827">
        <ele>171.452</ele>
        <time>2016-09-26T17:32:26Z</time>
      </trkpt>
      <trkpt lat="44.19228" lon="1.15817">
        <ele>169.135</ele>
        <time>2016-09-26T17:32:46Z</time>
      </trkpt>
      <trkpt lat="44.19185" lon="1.15729">
        <ele>170.934</ele>
        <time>2016-09-26T17:33:06Z</time>
      </trkpt>
      <trkpt lat="44.19216" lon="1.15568">
        <ele>184.211</ele>
        <time>2016-09-26T17:33:26Z</time>
      </trkpt>
      <trkpt lat="44.19209" lon="1.15525">
        <ele>186.921</ele>
        <time>2016-09-26T17:33:46Z</time>
      </trkpt>
      <trkpt lat="44.1918" lon="1.15497">
        <ele>188.303</ele>
        <time>2016-09-26T17:34:06Z</time>
      </trkpt>
      <trkpt lat="44.19072" lon="1.15649">
        <ele>193.608</ele>
        <time>2016-09-26T17:34:26Z</time>
      </trkpt>
      <trkpt lat="44.18966" lon="1.15765">
        <ele>200.427</ele>
        <time>2016-09-26T17:34:46Z</time>
      </trkpt>
      <trkpt lat="44.18908" lon="1.15673">
        <ele>183.314</ele>
        <time>2016-09-26T17:35:06Z</time>
      </trkpt>
      <trkpt lat="44.18931" lon="1.15613">
        <ele>182.173</ele>
        <time>2016-09-26T17:35:26Z</time>
      </trkpt>
      <trkpt lat="44.18895" lon="1.15613">
        <ele>180.322</ele>
        <time>2016-09-26T17:35:46Z</time>
      </trkpt>
      <trkpt lat="44.1868" lon="1.15493">
        <ele>189.048</ele>
        <time>2016-09-26T17:36:06Z</time>
      </trkpt>
      <trkpt lat="44.18523" lon="1.15442">
        <ele>188.619</ele>
        <time>2019-03-30T15:55:28Z</time>
      </trkpt>
      <trkpt lat="44.18414" lon="1.1538">
        <ele>184.342</ele>
        <time>2019-03-30T15:55:48Z</time>
      </trkpt>
      <trkpt lat="44.1836" lon="1.15278">
        <ele>185.071</ele>
        <time>2016-09-26T17:37:06Z</time>
      </trkpt>
      <trkpt lat="44.18312" lon="1.15327">
        <ele>179.887</ele>
        <time>2016-09-26T17:37:26Z</time>
      </trkpt>
      <trkpt lat="44.18177" lon="1.15203">
        <ele>161.942</ele>
        <time>2016-09-26T17:37:46Z</time>
      </trkpt>
      <trkpt lat="44.1802" lon="1.1525">
        <ele>143.926</ele>
        <time>2016-09-26T17:38:06Z</time>
      </trkpt>
      <trkpt lat="44.17989" lon="1.15317">
        <ele>139.108</ele>
        <time>2016-09-26T17:38:26Z</time>
      </trkpt>
      <trkpt lat="44.17925" lon="1.154">
        <ele>138.894</ele>
        <time>2016-09-26T17:38:46Z</time>
      </trkpt>
      <trkpt lat="44.17875" lon="1.15426">
        <ele>135.251</ele>
        <time>2016-09-26T17:39:06Z</time>
      </trkpt>
      <trkpt lat="44.17855" lon="1.15396">
        <ele>134.71</ele>
        <time>2016-09-26T17:39:26Z</time>
      </trkpt>
      <trkpt lat="44.17761" lon="1.15441">
        <ele>139.459</ele>
        <time>2016-09-26T17:39:46Z</time>
      </trkpt>
      <trkpt lat="44.17781" lon="1.15319">
        <ele>147.435</ele>
        <time>2016-09-26T17:40:06Z</time>
      </trkpt>
      <trkpt lat="44.17758" lon="1.15241">
        <ele>154.466</ele>
        <time>2016-09-26T17:40:26Z</time>
      </trkpt>
      <trkpt lat="44.17757" lon="1.15141">
        <ele>159.439</ele>
        <time>2016-09-26T17:40:46Z</time>
      </trkpt>
      <trkpt lat="44.17683" lon="1.15053">
        <ele>174.438</ele>
        <time>2016-09-26T17:41:06Z</time>
      </trkpt>
      <trkpt lat="44.17798" lon="1.14842">
        <ele>177.568</ele>
        <time>2016-09-26T17:41:26Z</time>
      </trkpt>
      <trkpt lat="44.17809" lon="1.1478">
        <ele>180.442</ele>
        <time>2016-09-26T17:41:46Z</time>
      </trkpt>
      <trkpt lat="44.17805" lon="1.14692">
        <ele>185.826</ele>
        <time>2016-09-26T17:42:06Z</time>
      </trkpt>
      <trkpt lat="44.17845" lon="1.14615">
        <ele>187.008</ele>
        <time>2016-09-26T17:42:26Z</time>
      </trkpt>
      <trkpt lat="44.17948" lon="1.14312">
        <ele>182.172</ele>
        <time>2016-09-26T17:42:46Z</time>
      </trkpt>
      <trkpt lat="44.17945" lon="1.1422">
        <ele>181.049</ele>
        <time>2016-09-26T17:43:06Z</time>
      </trkpt>
      <trkpt lat="44.179" lon="1.14091">
        <ele>178.198</ele>
        <time>2016-09-26T17:43:26Z</time>
      </trkpt>
      <trkpt lat="44.17898" lon="1.14029">
        <ele>177.017</ele>
        <time>2016-09-26T17:43:46Z</time>
      </trkpt>
      <trkpt lat="44.17938" lon="1.13909">
        <ele>180.973</ele>
        <time>2016-09-26T17:44:06Z</time>
      </trkpt>
      <trkpt lat="44.17938" lon="1.13744">
        <ele>178.244</ele>
        <time>2016-09-26T17:44:26Z</time>
      </trkpt>
      <trkpt lat="44.17918" lon="1.13544">
        <ele>180.257</ele>
        <time>2016-09-26T17:44:46Z</time>
      </trkpt>
      <trkpt lat="44.17917" lon="1.13308">
        <ele>184.086</ele>
        <time>2016-09-26T17:45:06Z</time>
      </trkpt>
      <trkpt lat="44.17951" lon="1.1316">
        <ele>185.011</ele>
        <time>2016-09-26T17:45:26Z</time>
      </trkpt>
      <trkpt lat="44.18014" lon="1.12999">
        <ele>181.521</ele>
        <time>2016-09-26T17:45:46Z</time>
      </trkpt>
      <trkpt lat="44.18029" lon="1.12892">
        <ele>179.103</ele>
        <time>2016-09-26T17:46:06Z</time>
      </trkpt>
      <trkpt lat="44.18047" lon="1.12609">
        <ele>187.308</ele>
        <time>2021-01-03T08:45:00Z</time>
      </trkpt>
      <trkpt lat="44.17974" lon="1.12606">
        <ele>189.877</ele>
        <time>2021-01-03T08:45:20Z</time>
      </trkpt>
      <trkpt lat="44.17914" lon="1.12665">
        <ele>184.234</ele>
        <time>2021-01-03T08:45:40Z</time>
      </trkpt>
      <trkpt lat="44.1784" lon="1.12488">
        <ele>180.633</ele>
        <time>2016-09-26T17:47:26Z</time>
      </trkpt>
      <trkpt lat="44.17789" lon="1.12413">
        <ele>175.372</ele>
        <time>2016-09-26T17:47:46Z</time>
      </trkpt>
      <trkpt lat="44.17597" lon="1.12276">
        <ele>174.568</ele>
        <time>2016-09-26T17:48:06Z</time>
      </trkpt>
      <trkpt lat="44.17453" lon="1.12108">
        <ele>168.939</ele>
        <time>2019-03-30T16:07:28Z</time>
      </trkpt>
      <trkpt lat="44.17334" lon="1.12056">
        <ele>165.032</ele>
        <time>2019-03-30T16:07:48Z</time>
      </trkpt>
      <trkpt lat="44.17276" lon="1.12014">
        <ele>160.761</ele>
        <time>2019-03-30T16:08:08Z</time>
      </trkpt>
      <trkpt lat="44.17166" lon="1.11985">
        <ele>141.137</ele>
        <time>2019-03-30T16:08:28Z</time>
      </trkpt>
      <trkpt lat="44.17108" lon="1.11892">
        <ele>135.649</ele>
        <time>2019-03-30T16:08:48Z</time>
      </trkpt>
      <trkpt lat="44.17015" lon="1.11804">
        <ele>118.013</ele>
        <time>2016-09-26T17:50:06Z</time>
      </trkpt>
      <trkpt lat="44.16919" lon="1.11785">
        <ele>113.108</ele>
        <time>2019-03-30T16:09:28Z</time>
      </trkpt>
      <trkpt lat="44.16904" lon="1.11804">
        <ele>113.089</ele>
        <time>2019-03-30T16:09:48Z</time>
      </trkpt>
      <trkpt lat="44.16771" lon="1.11773">
        <ele>113.356</ele>
        <time>2019-03-30T16:10:08Z</time>
      </trkpt>
      <trkpt lat="44.16737" lon="1.11806">
        <ele>112.575</ele>
        <time>2019-03-30T16:10:28Z</time>
      </trkpt>
      <trkpt lat="44.16665" lon="1.11812">
        <ele>112.584</ele>
        <time>2019-03-30T16:10:48Z</time>
      </trkpt>
      <trkpt lat="44.16594" lon="1.11759">
        <ele>116.76</ele>
        <time>2019-03-30T16:11:08Z</time>
      </trkpt>
      <trkpt lat="44.16585" lon="1.11809">
        <ele>117.571</ele>
        <time>2021-01-03T08:51:00Z</time>
      </trkpt>
      <trkpt lat="44.1653" lon="1.11841">
        <ele>130.744</ele>
        <time>2021-01-03T08:51:20Z</time>
      </trkpt>
      <trkpt lat="44.16434" lon="1.12025">
        <ele>139.673</ele>
        <time>2021-01-03T08:51:40Z</time>
      </trkpt>
      <trkpt lat="44.16362" lon="1.12069">
        <ele>149.062</ele>
        <time>2021-01-03T08:52:00Z</time>
      </trkpt>
      <trkpt lat="44.16255" lon="1.12165">
        <ele>147.783</ele>
        <time>2021-01-03T08:52:20Z</time>
      </trkpt>
      <trkpt lat="44.16227" lon="1.12161">
        <ele>152.011</ele>
        <time>2021-01-03T08:52:40Z</time>
      </trkpt>
      <trkpt lat="44.16207" lon="1.12101">
        <ele>161.908</ele>
        <time>2021-01-03T08:53:00Z</time>
      </trkpt>
      <trkpt lat="44.16287" lon="1.12016">
        <ele>161.942</ele>
        <time>2021-01-03T08:53:20Z</time>
      </trkpt>
      <trkpt lat="44.16296" lon="1.11984">
        <ele>160.689</ele>
        <time>2021-01-03T08:53:40Z</time>
      </trkpt>
      <trkpt lat="44.16287" lon="1.11976">
        <ele>159.478</ele>
        <time>2021-01-03T08:54:00Z</time>
      </trkpt>
      <trkpt lat="44.1613" lon="1.12051">
        <ele>151.027</ele>
        <time>2021-01-03T08:54:20Z</time>
      </trkpt>
      <trkpt lat="44.16107" lon="1.12034">
        <ele>150.083</ele>
        <time>2021-01-03T08:54:40Z</time>
      </trkpt>
      <trkpt lat="44.16096" lon="1.11932">
        <ele>139.764</ele>
        <time>2021-01-03T08:55:00Z</time>
      </trkpt>
      <trkpt lat="44.1611" lon="1.11842">
        <ele>130.197</ele>
        <time>2021-01-03T08:55:20Z</time>
      </trkpt>
      <trkpt lat="44.16133" lon="1.11789">
        <ele>128.646</ele>
        <time>2021-01-03T08:55:40Z</time>
      </trkpt>
      <trkpt lat="44.16161" lon="1.11745">
        <ele>124.278</ele>
        <time>2021-01-03T08:56:00Z</time>
      </trkpt>
      <trkpt lat="44.1616" lon="1.11713">
        <ele>121.533</ele>
        <time>2021-01-03T08:56:20Z</time>
      </trkpt>
      <trkpt lat="44.16142" lon="1.11698">
        <ele>123.026</ele>
        <time>2021-01-03T08:56:40Z</time>
      </trkpt>
      <trkpt lat="44.16065" lon="1.11681">
        <ele>115.908</ele>
        <time>2021-01-03T08:57:00Z</time>
      </trkpt>
      <trkpt lat="44.16052" lon="1.1165">
        <ele>109.443</ele>
        <time>2021-01-03T08:57:20Z</time>
      </trkpt>
      <trkpt lat="44.16086" lon="1.11564">
        <ele>107.05</ele>
        <time>2021-01-03T08:57:40Z</time>
      </trkpt>
      <trkpt lat="44.16104" lon="1.11484">
        <ele>109.139</ele>
        <time>2021-01-03T08:58:00Z</time>
      </trkpt>
      <trkpt lat="44.16041" lon="1.11446">
        <ele>110.428</ele>
        <time>2021-01-03T08:58:20Z</time>
      </trkpt>
      <trkpt lat="44.1585" lon="1.11211">
        <ele>109.624</ele>
        <time>2021-01-03T08:58:40Z</time>
      </trkpt>
      <trkpt lat="44.1581" lon="1.1128">
        <ele>104.135</ele>
        <time>2016-09-26T17:53:26Z</time>
      </trkpt>
      <trkpt lat="44.15801" lon="1.11338">
        <ele>104.288</ele>
        <time>2016-09-26T17:53:46Z</time>
      </trkpt>
      <trkpt lat="44.15728" lon="1.11366">
        <ele>103.827</ele>
        <time>2016-09-26T17:54:06Z</time>
      </trkpt>
      <trkpt lat="44.15577" lon="1.11351">
        <ele>101.733</ele>
        <time>2016-09-26T17:54:26Z</time>
      </trkpt>
      <trkpt lat="44.15522" lon="1.11383">
        <ele>105.823</ele>
        <time>2016-09-26T17:54:46Z</time>
      </trkpt>
      <trkpt lat="44.15405" lon="1.11353">
        <ele>104.715</ele>
        <time>2016-09-26T17:55:06Z</time>
      </trkpt>
      <trkpt lat="44.15417" lon="1.11413">
        <ele>111.408</ele>
        <time>2016-09-26T17:55:26Z</time>
      </trkpt>
      <trkpt lat="44.15431" lon="1.11461">
        <ele>119.949</ele>
        <time>2016-09-26T17:55:46Z</time>
      </trkpt>
      <trkpt lat="44.15437" lon="1.11587">
        <ele>129.986</ele>
        <time>2016-09-26T17:56:06Z</time>
      </trkpt>
      <trkpt lat="44.1541" lon="1.11669">
        <ele>135.625</ele>
        <time>2016-09-26T17:56:26Z</time>
      </trkpt>
      <trkpt lat="44.15382" lon="1.11697">
        <ele>136.484</ele>
        <time>2016-09-26T17:56:46Z</time>
      </trkpt>
      <trkpt lat="44.15343" lon="1.11851">
        <ele>159.34</ele>
        <time>2016-09-26T17:57:06Z</time>
      </trkpt>
      <trkpt lat="44.15348" lon="1.1189">
        <ele>164.511</ele>
        <time>2016-09-26T17:57:26Z</time>
      </trkpt>
      <trkpt lat="44.15219" lon="1.11984">
        <ele>172.314</ele>
        <time>2016-09-26T17:57:46Z</time>
      </trkpt>
      <trkpt lat="44.15188" lon="1.12042">
        <ele>179.923</ele>
        <time>2016-09-26T17:58:06Z</time>
      </trkpt>
      <trkpt lat="44.15143" lon="1.12059">
        <ele>182.084</ele>
        <time>2016-09-26T17:58:26Z</time>
      </trkpt>
      <trkpt lat="44.1508" lon="1.12188">
        <ele>182.607</ele>
        <time>2016-09-26T17:58:46Z</time>
      </trkpt>
      <trkpt lat="44.15128" lon="1.12042">
        <ele>180.417</ele>
        <time>2016-09-26T17:59:06Z</time>
      </trkpt>
      <trkpt lat="44.15126" lon="1.11808">
        <ele>179.008</ele>
        <time>2016-09-26T17:59:26Z</time>
      </trkpt>
      <trkpt lat="44.15063" lon="1.11564">
        <ele>171.864</ele>
        <time>2016-09-26T17:59:46Z</time>
      </trkpt>
      <trkpt lat="44.15014" lon="1.11448">
        <ele>163.831</ele>
        <time>2016-09-26T18:00:06Z</time>
      </trkpt>
      <trkpt lat="44.14864" lon="1.11347">
        <ele>145.72</ele>
        <time>2016-09-26T18:00:26Z</time>
      </trkpt>
      <trkpt lat="44.14674" lon="1.11345">
        <ele>143.979</ele>
        <time>2016-09-26T18:00:46Z</time>
      </trkpt>
      <trkpt lat="44.1449" lon="1.11248">
        <ele>151.875</ele>
        <time>2016-09-26T18:01:06Z</time>
      </trkpt>
      <trkpt lat="44.14296" lon="1.11197">
        <ele>145.926</ele>
        <time>2016-09-26T18:01:26Z</time>
      </trkpt>
      <trkpt lat="44.14196" lon="1.1116">
        <ele>146.279</ele>
        <time>2016-09-26T18:01:46Z</time>
      </trkpt>
      <trkpt lat="44.14144" lon="1.11156">
        <ele>147.798</ele>
        <time>2016-09-26T18:02:06Z</time>
      </trkpt>
      <trkpt lat="44.1397" lon="1.11182">
        <ele>146.132</ele>
        <time>2016-09-26T18:02:26Z</time>
      </trkpt>
      <trkpt lat="44.13716" lon="1.11113">
        <ele>144.692</ele>
        <time>2016-09-26T18:02:46Z</time>
      </trkpt>
      <trkpt lat="44.13476" lon="1.11156">
        <ele>146.811</ele>
        <time>2016-09-26T18:03:06Z</time>
      </trkpt>
      <trkpt lat="44.13351" lon="1.11081">
        <ele>146.708</ele>
        <time>2016-09-26T18:03:26Z</time>
      </trkpt>
      <trkpt lat="44.1316" lon="1.11072">
        <ele>134.029</ele>
        <time>2016-09-26T18:03:46Z</time>
      </trkpt>
      <trkpt lat="44.13086" lon="1.11038">
        <ele>141.786</ele>
        <time>2016-09-26T18:04:06Z</time>
      </trkpt>
      <trkpt lat="44.13017" lon="1.10976">
        <ele>146.945</ele>
        <time>2016-09-26T18:04:26Z</time>
      </trkpt>
      <trkpt lat="44.1295" lon="1.11019">
        <ele>146.674</ele>
        <time>2016-09-26T18:04:46Z</time>
      </trkpt>
      <trkpt lat="44.12881" lon="1.11038">
        <ele>138.17</ele>
        <time>2016-09-26T18:05:06Z</time>
      </trkpt>
      <trkpt lat="44.12809" lon="1.11087">
        <ele>130.741</ele>
        <time>2016-09-26T18:05:26Z</time>
      </trkpt>
      <trkpt lat="44.12756" lon="1.11143">
        <ele>129.974</ele>
        <time>2016-09-26T18:05:46Z</time>
      </trkpt>
      <trkpt lat="44.12698" lon="1.11182">
        <ele>129.983</ele>
        <time>2016-09-26T18:06:06Z</time>
      </trkpt>
      <trkpt lat="44.12636" lon="1.11177">
        <ele>134.745</ele>
        <time>2016-09-26T18:06:26Z</time>
      </trkpt>
      <trkpt lat="44.12468" lon="1.11107">
        <ele>149.747</ele>
        <time>2016-09-26T18:06:46Z</time>
      </trkpt>
      <trkpt lat="44.1239" lon="1.11079">
        <ele>142.911</ele>
        <time>2016-09-26T18:07:06Z</time>
      </trkpt>
      <trkpt lat="44.12311" lon="1.11023">
        <ele>137.608</ele>
        <time>2016-09-26T18:07:26Z</time>
      </trkpt>
      <trkpt lat="44.12293" lon="1.1098">
        <ele>132.27</ele>
        <time>2016-09-26T18:07:46Z</time>
      </trkpt>
      <trkpt lat="44.12236" lon="1.10939">
        <ele>125.977</ele>
        <time>2016-09-26T18:08:06Z</time>
      </trkpt>
      <trkpt lat="44.12196" lon="1.10845">
        <ele>113.516</ele>
        <time>2016-09-26T18:08:26Z</time>
      </trkpt>
      <trkpt lat="44.12123" lon="1.1077">
        <ele>98.155</ele>
        <time>2016-09-26T18:08:46Z</time>
      </trkpt>
      <trkpt lat="44.12008" lon="1.10692">
        <ele>84.771</ele>
        <time>2016-09-26T18:09:06Z</time>
      </trkpt>
      <trkpt lat="44.11886" lon="1.1068">
        <ele>78.452</ele>
        <time>2016-09-26T18:09:26Z</time>
      </trkpt>
      <trkpt lat="44.11841" lon="1.10617">
        <ele>77.695</ele>
        <time>2016-09-26T18:09:46Z</time>
      </trkpt>
      <trkpt lat="44.11829" lon="1.10564">
        <ele>79.094</ele>
        <time>2016-09-26T18:10:06Z</time>
      </trkpt>
      <trkpt lat="44.11787" lon="1.10519">
        <ele>83.112</ele>
        <time>2016-09-26T18:10:26Z</time>
      </trkpt>
      <trkpt lat="44.11706" lon="1.10572">
        <ele>81.032</ele>
        <time>2016-09-26T18:10:46Z</time>
      </trkpt>
      <trkpt lat="44.11575" lon="1.10574">
        <ele>78.405</ele>
        <time>2016-09-26T18:11:06Z</time>
      </trkpt>
      <trkpt lat="44.11247" lon="1.10497">
        <ele>78.008</ele>
        <time>2016-09-26T18:11:26Z</time>
      </trkpt>
      <trkpt lat="44.11086" lon="1.10341">
        <ele>77.177</ele>
        <time>2016-09-26T18:11:46Z</time>
      </trkpt>
      <trkpt lat="44.1105" lon="1.10274">
        <ele>74.934</ele>
        <time>2016-09-26T18:12:06Z</time>
      </trkpt>
      <trkpt lat="44.11031" lon="1.10201">
        <ele>74.713</ele>
        <time>2016-09-26T18:12:26Z</time>
      </trkpt>
      <trkpt lat="44.10943" lon="1.10053">
        <ele>79.012</ele>
        <time>2016-09-26T18:12:46Z</time>
      </trkpt>
      <trkpt lat="44.10895" lon="1.10004">
        <ele>78.298</ele>
        <time>2016-09-26T18:13:06Z</time>
      </trkpt>
      <trkpt lat="44.10801" lon="1.09907">
        <ele>76.169</ele>
        <time>2016-09-26T18:13:26Z</time>
      </trkpt>
      <trkpt lat="44.10695" lon="1.09583">
        <ele>75.052</ele>
        <time>2016-09-26T18:13:46Z</time>
      </trkpt>
      <trkpt lat="44.10666" lon="1.09547">
        <ele>74.651</ele>
        <time>2016-09-26T18:14:06Z</time>
      </trkpt>
      <trkpt lat="44.10672" lon="1.09497">
        <ele>76.584</ele>
        <time>2016-09-26T18:14:26Z</time>
      </trkpt>
      <trkpt lat="44.10666" lon="1.09172">
        <ele>79.107</ele>
        <time>2019-03-30T16:36:28Z</time>
      </trkpt>
      <trkpt lat="44.1058" lon="1.09211">
        <ele>75.017</ele>
        <time>2019-03-30T16:36:48Z</time>
      </trkpt>
      <trkpt lat="44.10513" lon="1.08984">
        <ele>73.208</ele>
        <time>2016-09-26T18:15:26Z</time>
      </trkpt>
      <trkpt lat="44.10413" lon="1.08796">
        <ele>75.294</ele>
        <time>2016-09-26T18:15:46Z</time>
      </trkpt>
      <trkpt lat="44.10401" lon="1.08699">
        <ele>76.941</ele>
        <time>2016-09-26T18:16:06Z</time>
      </trkpt>
      <trkpt lat="44.10412" lon="1.08577">
        <ele>76.79</ele>
        <time>2016-09-26T18:16:26Z</time>
      </trkpt>
      <trkpt lat="44.10387" lon="1.08489">
        <ele>78.369</ele>
        <time>2021-01-03T09:22:20Z</time>
      </trkpt>
      <trkpt lat="44.10274" lon="1.08559">
        <ele>77.845</ele>
        <time>2019-03-30T16:39:28Z</time>
      </trkpt>
      <trkpt lat="44.10197" lon="1.08677">
        <ele>74.066</ele>
        <time>2019-03-30T16:39:48Z</time>
      </trkpt>
      <trkpt lat="44.10163" lon="1.08771">
        <ele>72.549</ele>
        <time>2019-03-30T16:40:08Z</time>
      </trkpt>
      <trkpt lat="44.1001" lon="1.0868">
        <ele>69.878</ele>
        <time>2021-01-03T09:23:40Z</time>
      </trkpt>
      <trkpt lat="44.09955" lon="1.086">
        <ele>66.886</ele>
        <time>2021-01-03T09:24:00Z</time>
      </trkpt>
      <trkpt lat="44.09955" lon="1.08559">
        <ele>67.16</ele>
        <time>2021-01-03T09:24:20Z</time>
      </trkpt>
      <trkpt lat="44.09974" lon="1.08545">
        <ele>69.426</ele>
        <time>2021-01-03T09:24:40Z</time>
      </trkpt>
      <trkpt lat="44.09961" lon="1.08405">
        <ele>68.608</ele>
        <time>2021-01-03T09:25:00Z</time>
      </trkpt>
      <trkpt lat="44.09959" lon="1.08269">
        <ele>67.674</ele>
        <time>2019-03-30T16:41:28Z</time>
      </trkpt>
      <trkpt lat="44.09977" lon="1.08153">
        <ele>71.381</ele>
        <time>2019-03-30T16:41:48Z</time>
      </trkpt>
      <trkpt lat="44.09993" lon="1.07804">
        <ele>68.33</ele>
        <time>2019-03-30T16:42:08Z</time>
      </trkpt>
      <trkpt lat="44.10054" lon="1.07812">
        <ele>69.089</ele>
        <time>2019-03-30T16:42:28Z</time>
      </trkpt>
      <trkpt lat="44.10084" lon="1.07792">
        <ele>70.025</ele>
        <time>2019-03-30T16:42:48Z</time>
      </trkpt>
      <trkpt lat="44.10083" lon="1.07397">
        <ele>70.096</ele>
        <time>2016-09-26T18:20:26Z</time>
      </trkpt>
      <trkpt lat="44.10051" lon="1.07195">
        <ele>73.869</ele>
        <time>2016-09-26T18:20:46Z</time>
      </trkpt>
      <trkpt lat="44.09942" lon="1.06877">
        <ele>65.018</ele>
        <time>2016-09-26T18:21:06Z</time>
      </trkpt>
      <trkpt lat="44.09845" lon="1.06676">
        <ele>71.013</ele>
        <time>2016-09-26T18:21:26Z</time>
      </trkpt>
      <trkpt lat="44.0966" lon="1.06407">
        <ele>67.543</ele>
        <time>2016-09-26T18:21:46Z</time>
      </trkpt>
      <trkpt lat="44.09596" lon="1.06279">
        <ele>68.907</ele>
        <time>2016-09-26T18:22:06Z</time>
      </trkpt>
      <trkpt lat="44.09556" lon="1.06124">
        <ele>68.008</ele>
        <time>2016-09-26T18:22:26Z</time>
      </trkpt>
      <trkpt lat="44.09521" lon="1.05729">
        <ele>72.027</ele>
        <time>2016-09-26T18:22:46Z</time>
      </trkpt>
      <trkpt lat="44.09487" lon="1.05543">
        <ele>71.094</ele>
        <time>2016-09-26T18:23:06Z</time>
      </trkpt>
      <trkpt lat="44.09405" lon="1.05296">
        <ele>69.993</ele>
        <time>2016-09-26T18:23:26Z</time>
      </trkpt>
      <trkpt lat="44.09298" lon="1.05108">
        <ele>68.792</ele>
        <time>2019-03-30T16:46:28Z</time>
      </trkpt>
      <trkpt lat="44.09371" lon="1.05045">
        <ele>79.748</ele>
        <time>2019-03-30T16:46:48Z</time>
      </trkpt>
      <trkpt lat="44.09481" lon="1.05261">
        <ele>74.979</ele>
        <time>2019-03-30T16:47:08Z</time>
      </trkpt>
      <trkpt lat="44.09521" lon="1.05294">
        <ele>72.982</ele>
        <time>2019-03-30T16:47:28Z</time>
      </trkpt>
      <trkpt lat="44.09535" lon="1.05315">
        <ele>73.231</ele>
        <time>2021-01-03T09:31:40Z</time>
      </trkpt>
      <trkpt lat="44.09547" lon="1.05253">
        <ele>77.676</ele>
        <time>2021-01-03T09:32:00Z</time>
      </trkpt>
      <trkpt lat="44.09554" lon="1.0517">
        <ele>78.49</ele>
        <time>2021-01-03T09:32:20Z</time>
      </trkpt>
      <trkpt lat="44.09568" lon="1.05109">
        <ele>81.119</ele>
        <time>2021-01-03T09:32:40Z</time>
      </trkpt>
      <trkpt lat="44.09593" lon="1.05026">
        <ele>78.608</ele>
        <time>2021-01-03T09:33:00Z</time>
      </trkpt>
      <trkpt lat="44.09645" lon="1.04931">
        <ele>82.183</ele>
        <time>2021-01-03T09:33:20Z</time>
      </trkpt>
      <trkpt lat="44.09683" lon="1.04801">
        <ele>86.39</ele>
        <time>2021-01-03T09:33:40Z</time>
      </trkpt>
      <trkpt lat="44.09753" lon="1.04612">
        <ele>84.139</ele>
        <time>2021-01-03T09:34:00Z</time>
      </trkpt>
      <trkpt lat="44.09816" lon="1.04416">
        <ele>86.628</ele>
        <time>2021-01-03T09:34:20Z</time>
      </trkpt>
      <trkpt lat="44.09859" lon="1.04363">
        <ele>87.284</ele>
        <time>2021-01-03T09:34:40Z</time>
      </trkpt>
      <trkpt lat="44.09905" lon="1.04318">
        <ele>88.635</ele>
        <time>2021-01-03T09:35:00Z</time>
      </trkpt>
      <trkpt lat="44.09926" lon="1.04259">
        <ele>90.878</ele>
        <time>2021-01-03T09:35:20Z</time>
      </trkpt>
      <trkpt lat="44.09944" lon="1.04179">
        <ele>92.297</ele>
        <time>2021-01-03T09:35:40Z</time>
      </trkpt>
      <trkpt lat="44.09967" lon="1.04149">
        <ele>91.462</ele>
        <time>2021-01-03T09:36:00Z</time>
      </trkpt>
      <trkpt lat="44.09954" lon="1.04129">
        <ele>93.583</ele>
        <time>2021-01-03T09:36:20Z</time>
      </trkpt>
      <trkpt lat="44.09909" lon="1.04159">
        <ele>102.211</ele>
        <time>2021-01-03T09:36:40Z</time>
      </trkpt>
      <trkpt lat="44.09882" lon="1.04101">
        <ele>109.308</ele>
        <time>2021-01-03T09:37:00Z</time>
      </trkpt>
      <trkpt lat="44.09858" lon="1.0398">
        <ele>123.512</ele>
        <time>2021-01-03T09:37:20Z</time>
      </trkpt>
      <trkpt lat="44.09881" lon="1.03936">
        <ele>128.929</ele>
        <time>2021-01-03T09:37:40Z</time>
      </trkpt>
      <trkpt lat="44.09861" lon="1.03791">
        <ele>142.558</ele>
        <time>2021-01-03T09:38:00Z</time>
      </trkpt>
      <trkpt lat="44.09816" lon="1.03695">
        <ele>152.357</ele>
        <time>2021-01-03T09:38:20Z</time>
      </trkpt>
      <trkpt lat="44.0971" lon="1.03654">
        <ele>163.773</ele>
        <time>2021-01-03T09:38:40Z</time>
      </trkpt>
      <trkpt lat="44.09616" lon="1.03585">
        <ele>173.134</ele>
        <time>2021-01-03T09:39:00Z</time>
      </trkpt>
      <trkpt lat="44.09636" lon="1.03504">
        <ele>173.377</ele>
        <time>2019-03-30T16:55:28Z</time>
      </trkpt>
      <trkpt lat="44.09676" lon="1.03239">
        <ele>170.096</ele>
        <time>2019-03-30T16:55:48Z</time>
      </trkpt>
      <trkpt lat="44.09737" lon="1.03254">
        <ele>170.681</ele>
        <time>2021-01-03T09:40:00Z</time>
      </trkpt>
      <trkpt lat="44.09769" lon="1.03246">
        <ele>165.661</ele>
        <time>2019-03-30T16:56:08Z</time>
      </trkpt>
      <trkpt lat="44.09785" lon="1.02971">
        <ele>128.917</ele>
        <time>2019-03-30T16:56:28Z</time>
      </trkpt>
      <trkpt lat="44.09774" lon="1.02917">
        <ele>124.008</ele>
        <time>2019-03-30T16:56:48Z</time>
      </trkpt>
      <trkpt lat="44.09733" lon="1.02865">
        <ele>124.614</ele>
        <time>2019-03-30T16:57:08Z</time>
      </trkpt>
      <trkpt lat="44.09712" lon="1.02788">
        <ele>129.691</ele>
        <time>2019-03-30T16:57:28Z</time>
      </trkpt>
      <trkpt lat="44.09674" lon="1.02762">
        <ele>136.91</ele>
        <time>2019-03-30T16:57:48Z</time>
      </trkpt>
      <trkpt lat="44.09677" lon="1.02704">
        <ele>127.729</ele>
        <time>2019-03-30T16:58:08Z</time>
      </trkpt>
      <trkpt lat="44.09753" lon="1.02734">
        <ele>115.695</ele>
        <time>2019-03-30T16:58:28Z</time>
      </trkpt>
      <trkpt lat="44.09773" lon="1.0271">
        <ele>110.436</ele>
        <time>2019-03-30T16:58:48Z</time>
      </trkpt>
      <trkpt lat="44.0976" lon="1.02537">
        <ele>100.679</ele>
        <time>2019-03-30T16:59:08Z</time>
      </trkpt>
      <trkpt lat="44.09789" lon="1.02514">
        <ele>98.068</ele>
        <time>2019-03-30T16:59:28Z</time>
      </trkpt>
      <trkpt lat="44.09804" lon="1.0238">
        <ele>113.524</ele>
        <time>2019-03-30T16:59:48Z</time>
      </trkpt>
      <trkpt lat="44.09788" lon="1.02272">
        <ele>132.904</ele>
        <time>2019-03-30T17:00:08Z</time>
      </trkpt>
      <trkpt lat="44.09794" lon="1.0215">
        <ele>153.214</ele>
        <time>2019-03-30T17:00:28Z</time>
      </trkpt>
      <trkpt lat="44.09865" lon="1.01955">
        <ele>163.608</ele>
        <time>2019-03-30T17:00:48Z</time>
      </trkpt>
      <trkpt lat="44.09806" lon="1.01931">
        <ele>161.598</ele>
        <time>2019-03-30T17:01:08Z</time>
      </trkpt>
      <trkpt lat="44.09729" lon="1.01835">
        <ele>161.155</ele>
        <time>2019-03-30T17:01:28Z</time>
      </trkpt>
      <trkpt lat="44.09712" lon="1.01775">
        <ele>163.414</ele>
        <time>2019-03-30T17:01:48Z</time>
      </trkpt>
      <trkpt lat="44.097" lon="1.01676">
        <ele>172.073</ele>
        <time>2019-03-30T17:02:08Z</time>
      </trkpt>
      <trkpt lat="44.09647" lon="1.0153">
        <ele>172.359</ele>
        <time>2019-03-30T17:02:28Z</time>
      </trkpt>
      <trkpt lat="44.0961" lon="1.01451">
        <ele>173.04</ele>
        <time>2019-03-30T17:02:48Z</time>
      </trkpt>
      <trkpt lat="44.0963" lon="1.01322">
        <ele>175.833</ele>
        <time>2019-03-30T17:03:08Z</time>
      </trkpt>
      <trkpt lat="44.0965" lon="1.01341">
        <ele>174.532</ele>
        <time>2019-03-30T17:03:28Z</time>
      </trkpt>
      <trkpt lat="44.09689" lon="1.01343">
        <ele>170.891</ele>
        <time>2019-03-30T17:03:48Z</time>
      </trkpt>
      <trkpt lat="44.09743" lon="1.01261">
        <ele>165.281</ele>
        <time>2019-03-30T17:04:08Z</time>
      </trkpt>
      <trkpt lat="44.09778" lon="1.01211">
        <ele>160.319</ele>
        <time>2019-03-30T17:04:28Z</time>
      </trkpt>
      <trkpt lat="44.09844" lon="1.01097">
        <ele>142.708</ele>
        <time>2019-03-30T17:04:48Z</time>
      </trkpt>
      <trkpt lat="44.099" lon="1.01035">
        <ele>134.825</ele>
        <time>2019-03-30T17:05:08Z</time>
      </trkpt>
      <trkpt lat="44.09964" lon="1.00874">
        <ele>115.872</ele>
        <time>2019-03-30T17:05:28Z</time>
      </trkpt>
      <trkpt lat="44.10098" lon="1.00717">
        <ele>96.111</ele>
        <time>2019-03-30T17:05:48Z</time>
      </trkpt>
      <trkpt lat="44.0998" lon="1.00526">
        <ele>93.67</ele>
        <time>2019-03-30T17:06:08Z</time>
      </trkpt>
      <trkpt lat="44.09918" lon="1.00461">
        <ele>90.566</ele>
        <time>2019-03-30T17:06:28Z</time>
      </trkpt>
      <trkpt lat="44.09869" lon="1.0035">
        <ele>90.557</ele>
        <time>2019-03-30T17:06:48Z</time>
      </trkpt>
      <trkpt lat="44.09786" lon="1.00254">
        <ele>93.85</ele>
        <time>2019-03-30T17:07:08Z</time>
      </trkpt>
      <trkpt lat="44.09702" lon="1.00191">
        <ele>87.229</ele>
        <time>2019-03-30T17:07:28Z</time>
      </trkpt>
      <trkpt lat="44.09686" lon="1.00123">
        <ele>85.582</ele>
        <time>2019-03-30T17:07:48Z</time>
      </trkpt>
      <trkpt lat="44.09458" lon="0.9982">
        <ele>79.043</ele>
        <time>2019-03-30T17:08:08Z</time>
      </trkpt>
      <trkpt lat="44.09473" lon="0.9975">
        <ele>79.117</ele>
        <time>2019-03-30T17:08:28Z</time>
      </trkpt>
      <trkpt lat="44.09541" lon="0.99644">
        <ele>89.708</ele>
        <time>2019-03-30T17:08:48Z</time>
      </trkpt>
      <trkpt lat="44.09614" lon="0.99485">
        <ele>96.054</ele>
        <time>2019-03-30T17:09:08Z</time>
      </trkpt>
      <trkpt lat="44.09684" lon="0.99226">
        <ele>134.481</ele>
        <time>2019-03-30T17:09:28Z</time>
      </trkpt>
      <trkpt lat="44.09714" lon="0.99172">
        <ele>144.26</ele>
        <time>2019-03-30T17:09:48Z</time>
      </trkpt>
      <trkpt lat="44.09761" lon="0.99013">
        <ele>168.039</ele>
        <time>2019-03-30T17:10:08Z</time>
      </trkpt>
      <trkpt lat="44.09798" lon="0.98989">
        <ele>174.545</ele>
        <time>2019-03-30T17:10:28Z</time>
      </trkpt>
      <trkpt lat="44.09835" lon="0.98936">
        <ele>176.916</ele>
        <time>2019-03-30T17:10:48Z</time>
      </trkpt>
      <trkpt lat="44.09805" lon="0.98879">
        <ele>182.179</ele>
        <time>2019-03-30T17:11:08Z</time>
      </trkpt>
      <trkpt lat="44.09729" lon="0.98832">
        <ele>181.198</ele>
        <time>2019-03-30T17:11:28Z</time>
      </trkpt>
      <trkpt lat="44.09607" lon="0.98851">
        <ele>181.153</ele>
        <time>2019-03-30T17:11:48Z</time>
      </trkpt>
      <trkpt lat="44.09507" lon="0.98793">
        <ele>171.904</ele>
        <time>2019-03-30T17:12:08Z</time>
      </trkpt>
      <trkpt lat="44.09329" lon="0.98717">
        <ele>162.614</ele>
        <time>2019-03-30T17:12:28Z</time>
      </trkpt>
      <trkpt lat="44.09219" lon="0.98539">
        <ele>161.008</ele>
        <time>2019-03-30T17:12:48Z</time>
      </trkpt>
      <trkpt lat="44.09271" lon="0.98283">
        <ele>141.341</ele>
        <time>2019-03-30T17:13:08Z</time>
      </trkpt>
      <trkpt lat="44.09259" lon="0.98192">
        <ele>133.678</ele>
        <time>2019-03-30T17:13:28Z</time>
      </trkpt>
      <trkpt lat="44.09207" lon="0.9807">
        <ele>121.327</ele>
        <time>2019-03-30T17:13:48Z</time>
      </trkpt>
      <trkpt lat="44.09172" lon="0.98025">
        <ele>116.536</ele>
        <time>2019-03-30T17:14:08Z</time>
      </trkpt>
      <trkpt lat="44.09139" lon="0.97915">
        <ele>105.912</ele>
        <time>2019-03-30T17:14:28Z</time>
      </trkpt>
      <trkpt lat="44.09088" lon="0.97843">
        <ele>102.943</ele>
        <time>2019-03-30T17:14:48Z</time>
      </trkpt>
      <trkpt lat="44.09019" lon="0.97784">
        <ele>92.976</ele>
        <time>2019-03-30T17:15:08Z</time>
      </trkpt>
      <trkpt lat="44.09029" lon="0.97713">
        <ele>92.285</ele>
        <time>2019-03-30T17:15:28Z</time>
      </trkpt>
      <trkpt lat="44.08989" lon="0.97601">
        <ele>92.011</ele>
        <time>2019-03-30T17:15:48Z</time>
      </trkpt>
      <trkpt lat="44.08993" lon="0.97561">
        <ele>91.921</ele>
        <time>2019-03-30T17:16:08Z</time>
      </trkpt>
      <trkpt lat="44.0903" lon="0.97545">
        <ele>96.503</ele>
        <time>2019-03-30T17:16:28Z</time>
      </trkpt>
      <trkpt lat="44.09139" lon="0.97233">
        <ele>78.408</ele>
        <time>2019-03-30T17:16:48Z</time>
      </trkpt>
      <trkpt lat="44.09054" lon="0.97268">
        <ele>82.297</ele>
        <time>2019-03-30T17:17:08Z</time>
      </trkpt>
      <trkpt lat="44.09" lon="0.9727">
        <ele>77.714</ele>
        <time>2019-03-30T17:17:28Z</time>
      </trkpt>
      <trkpt lat="44.0902" lon="0.97195">
        <ele>74.763</ele>
        <time>2019-03-30T17:17:48Z</time>
      </trkpt>
      <trkpt lat="44.08983" lon="0.97157">
        <ele>68.012</ele>
        <time>2019-03-30T17:18:08Z</time>
      </trkpt>
      <trkpt lat="44.08964" lon="0.97094">
        <ele>66.618</ele>
        <time>2019-03-30T17:18:28Z</time>
      </trkpt>
      <trkpt lat="44.08883" lon="0.9697">
        <ele>65.149</ele>
        <time>2019-03-30T17:18:48Z</time>
      </trkpt>
      <trkpt lat="44.08806" lon="0.96925">
        <ele>67.842</ele>
        <time>2019-03-30T17:19:08Z</time>
      </trkpt>
      <trkpt lat="44.08838" lon="0.96848">
        <ele>76.271</ele>
        <time>2016-09-26T18:33:26Z</time>
      </trkpt>
      <trkpt lat="44.09239" lon="0.95447">
        <ele>70.334</ele>
        <time>2016-09-26T18:33:46Z</time>
      </trkpt>
      <trkpt lat="44.09239" lon="0.95447">
        <ele>70.355</ele>
        <time>2016-09-26T18:34:06Z</time>
      </trkpt>
      <trkpt lat="44.09393" lon="0.94865">
        <ele>77.21</ele>
        <time>2016-09-26T18:34:26Z</time>
      </trkpt>
      <trkpt lat="44.09685" lon="0.9343">
        <ele>70.108</ele>
        <time>2021-01-03T10:05:00Z</time>
      </trkpt>
      <trkpt lat="44.09824" lon="0.9349">
        <ele>65.229</ele>
        <time>2021-01-03T10:05:20Z</time>
      </trkpt>
      <trkpt lat="44.09942" lon="0.93482">
        <ele>67.836</ele>
        <time>2021-01-03T10:05:40Z</time>
      </trkpt>
      <trkpt lat="44.09938" lon="0.93389">
        <ele>69.295</ele>
        <time>2021-01-03T10:06:00Z</time>
      </trkpt>
      <trkpt lat="44.0995" lon="0.93359">
        <ele>71.664</ele>
        <time>2021-01-03T10:06:20Z</time>
      </trkpt>
      <trkpt lat="44.09991" lon="0.93326">
        <ele>73.34</ele>
        <time>2021-01-03T10:06:40Z</time>
      </trkpt>
      <trkpt lat="44.10029" lon="0.93267">
        <ele>72.091</ele>
        <time>2021-01-03T10:07:00Z</time>
      </trkpt>
      <trkpt lat="44.09995" lon="0.93218">
        <ele>73.134</ele>
        <time>2021-01-03T10:07:20Z</time>
      </trkpt>
      <trkpt lat="44.09968" lon="0.93217">
        <ele>72.973</ele>
        <time>2021-01-03T10:07:40Z</time>
      </trkpt>
      <trkpt lat="44.09956" lon="0.93157">
        <ele>73.446</ele>
        <time>2021-01-03T10:08:00Z</time>
      </trkpt>
      <trkpt lat="44.09974" lon="0.93037">
        <ele>70.488</ele>
        <time>2021-01-03T10:08:20Z</time>
      </trkpt>
      <trkpt lat="44.09993" lon="0.92858">
        <ele>71.316</ele>
        <time>2021-01-03T10:08:40Z</time>
      </trkpt>
      <trkpt lat="44.09533" lon="0.9267">
        <ele>61.308</ele>
        <time>2016-09-26T18:35:46Z</time>
      </trkpt>
      <trkpt lat="44.09507" lon="0.92692">
        <ele>60.47</ele>
        <time>2016-09-26T18:36:06Z</time>
      </trkpt>
      <trkpt lat="44.09472" lon="0.92649">
        <ele>59.087</ele>
        <time>2016-09-26T18:36:26Z</time>
      </trkpt>
      <trkpt lat="44.09402" lon="0.92617">
        <ele>59.516</ele>
        <time>2016-09-26T18:36:46Z</time>
      </trkpt>
      <trkpt lat="44.09308" lon="0.9252">
        <ele>61.035</ele>
        <time>2016-09-26T18:37:06Z</time>
      </trkpt>
      <trkpt lat="44.09234" lon="0.92361">
        <ele>60.441</ele>
        <time>2016-09-26T18:37:26Z</time>
      </trkpt>
      <trkpt lat="44.0917" lon="0.92241">
        <ele>58.982</ele>
        <time>2016-09-26T18:37:46Z</time>
      </trkpt>
      <trkpt lat="44.08995" lon="0.91992">
        <ele>59.945</ele>
        <time>2016-09-26T18:38:06Z</time>
      </trkpt>
      <trkpt lat="44.08883" lon="0.9187">
        <ele>59.834</ele>
        <time>2016-09-26T18:38:26Z</time>
      </trkpt>
      <trkpt lat="44.08794" lon="0.91823">
        <ele>58.614</ele>
        <time>2016-09-26T18:38:46Z</time>
      </trkpt>
      <trkpt lat="44.08712" lon="0.91741">
        <ele>60.254</ele>
        <time>2016-09-26T18:39:06Z</time>
      </trkpt>
      <trkpt lat="44.08638" lon="0.91706">
        <ele>58.409</ele>
        <time>2019-03-30T17:24:48Z</time>
      </trkpt>
      <trkpt lat="44.08532" lon="0.91564">
        <ele>59.108</ele>
        <time>2019-03-30T17:25:08Z</time>
      </trkpt>
      <trkpt lat="44.08432" lon="0.91476">
        <ele>60.087</ele>
        <time>2019-03-30T17:25:28Z</time>
      </trkpt>
      <trkpt lat="44.08288" lon="0.91292">
        <ele>57.484</ele>
        <time>2019-03-30T17:25:48Z</time>
      </trkpt>
      <trkpt lat="44.08218" lon="0.91225">
        <ele>55.393</ele>
        <time>2019-03-30T17:26:08Z</time>
      </trkpt>
      <trkpt lat="44.0808" lon="0.91023">
        <ele>58.932</ele>
        <time>2019-03-30T17:26:28Z</time>
      </trkpt>
      <trkpt lat="44.07876" lon="0.91024">
        <ele>60.938</ele>
        <time>2016-09-26T18:42:06Z</time>
      </trkpt>
      <trkpt lat="44.07844" lon="0.91001">
        <ele>59.459</ele>
        <time>2016-09-26T18:42:26Z</time>
      </trkpt>
      <trkpt lat="44.07858" lon="0.90842">
        <ele>58.182</ele>
        <time>2016-09-26T18:42:46Z</time>
      </trkpt>
      <trkpt lat="44.07846" lon="0.90765">
        <ele>60.011</ele>
        <time>2016-09-26T18:43:06Z</time>
      </trkpt>
      <trkpt lat="44.07819" lon="0.90707">
        <ele>60.091</ele>
        <time>2016-09-26T18:43:26Z</time>
      </trkpt>
      <trkpt lat="44.07748" lon="0.90687">
        <ele>59.081</ele>
        <time>2016-09-26T18:43:46Z</time>
      </trkpt>
      <trkpt lat="44.07701" lon="0.90645">
        <ele>60.619</ele>
        <time>2016-09-26T18:44:06Z</time>
      </trkpt>
      <trkpt lat="44.07707" lon="0.9046">
        <ele>62.008</ele>
        <time>2016-09-26T18:44:26Z</time>
      </trkpt>
      <trkpt lat="44.07695" lon="0.90286">
        <ele>64.355</ele>
        <time>2016-09-26T18:44:46Z</time>
      </trkpt>
      <trkpt lat="44.0767" lon="0.90155">
        <ele>61.742</ele>
        <time>2016-09-26T18:45:06Z</time>
      </trkpt>
      <trkpt lat="44.07733" lon="0.90085">
        <ele>61.071</ele>
        <time>2016-09-26T18:45:26Z</time>
      </trkpt>
      <trkpt lat="44.07389" lon="0.89587">
        <ele>59.11</ele>
        <time>2016-09-26T18:45:46Z</time>
      </trkpt>
      <trkpt lat="44.07375" lon="0.89653">
        <ele>58.516</ele>
        <time>2016-09-26T18:46:06Z</time>
      </trkpt>
      <trkpt lat="44.07305" lon="0.89711">
        <ele>66.447</ele>
        <time>2016-09-26T18:46:26Z</time>
      </trkpt>
      <trkpt lat="44.07244" lon="0.89823">
        <ele>66.54</ele>
        <time>2016-09-26T18:46:46Z</time>
      </trkpt>
      <trkpt lat="44.07224" lon="0.89833">
        <ele>69.619</ele>
        <time>2016-09-26T18:47:06Z</time>
      </trkpt>
      <trkpt lat="44.07194" lon="0.89885">
        <ele>77.383</ele>
        <time>2016-09-26T18:47:26Z</time>
      </trkpt>
      <trkpt lat="44.07167" lon="0.89827">
        <ele>88.925</ele>
        <time>2016-09-26T18:47:46Z</time>
      </trkpt>
      <trkpt lat="44.07018" lon="0.89778">
        <ele>109.417</ele>
        <time>2016-09-26T18:48:06Z</time>
      </trkpt>
      <trkpt lat="44.06955" lon="0.89932">
        <ele>118.608</ele>
        <time>2016-09-26T18:48:26Z</time>
      </trkpt>
      <trkpt lat="44.06744" lon="0.89912">
        <ele>127.564</ele>
        <time>2019-03-30T17:33:28Z</time>
      </trkpt>
      <trkpt lat="44.06733" lon="0.89936">
        <ele>128.661</ele>
        <time>2019-03-30T17:33:48Z</time>
      </trkpt>
      <trkpt lat="44.06642" lon="0.89914">
        <ele>138.81</ele>
        <time>2019-03-30T17:34:08Z</time>
      </trkpt>
      <trkpt lat="44.06568" lon="0.89818">
        <ele>145.639</ele>
        <time>2019-03-30T17:34:28Z</time>
      </trkpt>
      <trkpt lat="44.06534" lon="0.89612">
        <ele>148.685</ele>
        <time>2016-09-26T18:50:46Z</time>
      </trkpt>
      <trkpt lat="44.06464" lon="0.89604">
        <ele>146.096</ele>
        <time>2016-09-26T18:51:06Z</time>
      </trkpt>
      <trkpt lat="44.06374" lon="0.89502">
        <ele>141.929</ele>
        <time>2019-03-30T17:35:28Z</time>
      </trkpt>
      <trkpt lat="44.06349" lon="0.89384">
        <ele>132.678</ele>
        <time>2019-03-30T17:35:48Z</time>
      </trkpt>
      <trkpt lat="44.06312" lon="0.89357">
        <ele>130.376</ele>
        <time>2019-03-30T17:36:08Z</time>
      </trkpt>
      <trkpt lat="44.06249" lon="0.89434">
        <ele>122.49</ele>
        <time>2019-03-30T17:36:28Z</time>
      </trkpt>
      <trkpt lat="44.06161" lon="0.89471">
        <ele>105.119</ele>
        <time>2019-03-30T17:36:48Z</time>
      </trkpt>
      <trkpt lat="44.05982" lon="0.89344">
        <ele>92.608</ele>
        <time>2019-03-30T17:37:08Z</time>
      </trkpt>
      <trkpt lat="44.05939" lon="0.89187">
        <ele>95.423</ele>
        <time>2019-03-30T17:37:28Z</time>
      </trkpt>
      <trkpt lat="44.05887" lon="0.8924">
        <ele>102.54</ele>
        <time>2019-03-30T17:37:48Z</time>
      </trkpt>
      <trkpt lat="44.05831" lon="0.89346">
        <ele>105.629</ele>
        <time>2019-03-30T17:38:08Z</time>
      </trkpt>
      <trkpt lat="44.05767" lon="0.89389">
        <ele>113.718</ele>
        <time>2016-09-26T18:54:06Z</time>
      </trkpt>
      <trkpt lat="44.05617" lon="0.89345">
        <ele>125.114</ele>
        <time>2019-03-30T17:38:48Z</time>
      </trkpt>
      <trkpt lat="44.05361" lon="0.88961">
        <ele>139.885</ele>
        <time>2019-03-30T17:39:08Z</time>
      </trkpt>
      <trkpt lat="44.04634" lon="0.8885">
        <ele>158.038</ele>
        <time>2019-03-30T17:39:28Z</time>
      </trkpt>
      <trkpt lat="44.04543" lon="0.88753">
        <ele>155.867</ele>
        <time>2019-03-30T17:39:48Z</time>
      </trkpt>
      <trkpt lat="44.0444" lon="0.88813">
        <ele>155.896</ele>
        <time>2019-03-30T17:40:08Z</time>
      </trkpt>
      <trkpt lat="44.04051" lon="0.88751">
        <ele>162.031</ele>
        <time>2019-03-30T17:40:28Z</time>
      </trkpt>
      <trkpt lat="44.03967" lon="0.88677">
        <ele>160.324</ele>
        <time>2016-09-26T18:56:46Z</time>
      </trkpt>
      <trkpt lat="44.03803" lon="0.88442">
        <ele>160.008</ele>
        <time>2019-03-30T17:41:08Z</time>
      </trkpt>
      <trkpt lat="44.03837" lon="0.88356">
        <ele>162.935</ele>
        <time>2019-03-30T17:41:28Z</time>
      </trkpt>
      <trkpt lat="44.03817" lon="0.8809">
        <ele>159.822</ele>
        <time>2019-03-30T17:41:48Z</time>
      </trkpt>
      <trkpt lat="44.0371" lon="0.87601">
        <ele>163.291</ele>
        <time>2019-03-30T17:42:08Z</time>
      </trkpt>
      <trkpt lat="44.03652" lon="0.87447">
        <ele>164.94</ele>
        <time>2019-03-30T17:42:28Z</time>
      </trkpt>
      <trkpt lat="44.03659" lon="0.87107">
        <ele>168.576</ele>
        <time>2019-03-30T17:42:48Z</time>
      </trkpt>
      <trkpt lat="44.03693" lon="0.86805">
        <ele>163.037</ele>
        <time>2019-03-30T17:43:08Z</time>
      </trkpt>
      <trkpt lat="44.03704" lon="0.86602">
        <ele>165.88</ele>
        <time>2016-09-26T19:00:06Z</time>
      </trkpt>
      <trkpt lat="44.03723" lon="0.86423">
        <ele>149.149</ele>
        <time>2019-03-30T17:43:48Z</time>
      </trkpt>
      <trkpt lat="44.0377" lon="0.86311">
        <ele>131.895</ele>
        <time>2019-03-30T17:44:08Z</time>
      </trkpt>
      <trkpt lat="44.03777" lon="0.8618">
        <ele>118.049</ele>
        <time>2019-03-30T17:44:28Z</time>
      </trkpt>
      <trkpt lat="44.03849" lon="0.8599">
        <ele>98.323</ele>
        <time>2016-09-26T19:01:06Z</time>
      </trkpt>
      <trkpt lat="44.03897" lon="0.85757">
        <ele>81.308</ele>
        <time>2016-09-26T19:01:26Z</time>
      </trkpt>
      <trkpt lat="44.03922" lon="0.85487">
        <ele>69.675</ele>
        <time>2019-03-30T17:45:28Z</time>
      </trkpt>
      <trkpt lat="44.0398" lon="0.85228">
        <ele>67.252</ele>
        <time>2019-03-30T17:45:48Z</time>
      </trkpt>
      <trkpt lat="44.04129" lon="0.85237">
        <ele>66.091</ele>
        <time>2016-09-26T19:02:46Z</time>
      </trkpt>
      <trkpt lat="44.04101" lon="0.85">
        <ele>67.08</ele>
        <time>2019-03-30T17:46:28Z</time>
      </trkpt>
      <trkpt lat="44.04054" lon="0.84904">
        <ele>66.056</ele>
        <time>2019-03-30T17:46:48Z</time>
      </trkpt>
      <trkpt lat="44.04037" lon="0.84773">
        <ele>69.367</ele>
        <time>2019-03-30T17:47:08Z</time>
      </trkpt>
      <trkpt lat="44.04011" lon="0.84638">
        <ele>71.48</ele>
        <time>2019-03-30T17:47:28Z</time>
      </trkpt>
      <trkpt lat="44.03929" lon="0.84587">
        <ele>73.879</ele>
        <time>2016-09-26T19:04:06Z</time>
      </trkpt>
      <trkpt lat="44.03872" lon="0.84443">
        <ele>79.555</ele>
        <time>2016-09-26T19:04:26Z</time>
      </trkpt>
      <trkpt lat="44.0384" lon="0.84281">
        <ele>80.907</ele>
        <time>2019-03-30T17:48:28Z</time>
      </trkpt>
      <trkpt lat="44.0375" lon="0.8413">
        <ele>79.017</ele>
        <time>2016-09-26T19:05:26Z</time>
      </trkpt>
      <trkpt lat="44.03674" lon="0.84087">
        <ele>76.108</ele>
        <time>2016-09-26T19:05:46Z</time>
      </trkpt>
      <trkpt lat="44.03596" lon="0.83971">
        <ele>75.541</ele>
        <time>2016-09-26T19:06:06Z</time>
      </trkpt>
      <trkpt lat="44.03546" lon="0.8386">
        <ele>74.768</ele>
        <time>2016-09-26T19:06:26Z</time>
      </trkpt>
      <trkpt lat="44.03454" lon="0.83721">
        <ele>76.487</ele>
        <time>2019-03-30T17:50:08Z</time>
      </trkpt>
      <trkpt lat="44.03229" lon="0.83537">
        <ele>80.016</ele>
        <time>2019-03-30T17:50:28Z</time>
      </trkpt>
      <trkpt lat="44.0319" lon="0.8343">
        <ele>84.512</ele>
        <time>2016-09-26T19:07:26Z</time>
      </trkpt>
      <trkpt lat="44.03109" lon="0.83256">
        <ele>102.733</ele>
        <time>2019-03-30T17:51:08Z</time>
      </trkpt>
      <trkpt lat="44.03101" lon="0.83088">
        <ele>114.116</ele>
        <time>2019-03-30T17:51:28Z</time>
      </trkpt>
      <trkpt lat="44.03058" lon="0.82786">
        <ele>125.215</ele>
        <time>2019-03-30T17:51:48Z</time>
      </trkpt>
      <trkpt lat="44.03028" lon="0.82649">
        <ele>128.357</ele>
        <time>2016-09-26T19:09:26Z</time>
      </trkpt>
      <trkpt lat="44.03006" lon="0.82546">
        <ele>129.4</ele>
        <time>2016-09-26T19:09:46Z</time>
      </trkpt>
      <trkpt lat="44.02898" lon="0.82349">
        <ele>133.52</ele>
        <time>2016-09-26T19:10:06Z</time>
      </trkpt>
      <trkpt lat="44.02855" lon="0.82216">
        <ele>136.808</ele>
        <time>2016-09-26T19:10:26Z</time>
      </trkpt>
      <trkpt lat="44.02843" lon="0.82092">
        <ele>138.371</ele>
        <time>2016-09-26T19:10:46Z</time>
      </trkpt>
      <trkpt lat="44.02801" lon="0.82064">
        <ele>137.158</ele>
        <time>2016-09-26T19:11:06Z</time>
      </trkpt>
      <trkpt lat="44.02775" lon="0.81991">
        <ele>141.797</ele>
        <time>2016-09-26T19:11:26Z</time>
      </trkpt>
      <trkpt lat="44.0276" lon="0.81868">
        <ele>143.746</ele>
        <time>2016-09-26T19:11:46Z</time>
      </trkpt>
      <trkpt lat="44.02703" lon="0.81722">
        <ele>143.762</ele>
        <time>2016-09-26T19:12:06Z</time>
      </trkpt>
      <trkpt lat="44.02686" lon="0.81656">
        <ele>144.473</ele>
        <time>2016-09-26T19:12:26Z</time>
      </trkpt>
      <trkpt lat="44.02659" lon="0.81634">
        <ele>140.756</ele>
        <time>2016-09-26T19:12:46Z</time>
      </trkpt>
      <trkpt lat="44.02607" lon="0.81547">
        <ele>122.265</ele>
        <time>2016-09-26T19:13:06Z</time>
      </trkpt>
      <trkpt lat="44.02564" lon="0.81495">
        <ele>115.599</ele>
        <time>2016-09-26T19:13:26Z</time>
      </trkpt>
      <trkpt lat="44.02513" lon="0.81394">
        <ele>101.807</ele>
        <time>2016-09-26T19:13:46Z</time>
      </trkpt>
      <trkpt lat="44.02459" lon="0.81247">
        <ele>96.627</ele>
        <time>2019-03-30T17:56:48Z</time>
      </trkpt>
      <trkpt lat="44.0243" lon="0.80902">
        <ele>110.808</ele>
        <time>2019-03-30T17:57:08Z</time>
      </trkpt>
      <trkpt lat="44.02376" lon="0.80617">
        <ele>122.665</ele>
        <time>2019-03-30T17:57:28Z</time>
      </trkpt>
      <trkpt lat="44.02311" lon="0.80411">
        <ele>129.232</ele>
        <time>2019-03-30T17:57:48Z</time>
      </trkpt>
      <trkpt lat="44.02205" lon="0.8014">
        <ele>136.961</ele>
        <time>2019-03-30T17:58:08Z</time>
      </trkpt>
      <trkpt lat="44.02169" lon="0.80024">
        <ele>145.82</ele>
        <time>2019-03-30T17:58:28Z</time>
      </trkpt>
      <trkpt lat="44.02106" lon="0.79881">
        <ele>153.386</ele>
        <time>2019-03-30T17:58:48Z</time>
      </trkpt>
      <trkpt lat="44.02063" lon="0.79683">
        <ele>157.927</ele>
        <time>2019-03-30T17:59:08Z</time>
      </trkpt>
      <trkpt lat="44.02023" lon="0.79591">
        <ele>159.06</ele>
        <time>2019-03-30T17:59:28Z</time>
      </trkpt>
      <trkpt lat="44.01958" lon="0.79526">
        <ele>163.629</ele>
        <time>2019-03-30T17:59:48Z</time>
      </trkpt>
      <trkpt lat="44.01823" lon="0.79434">
        <ele>180.196</ele>
        <time>2019-03-30T18:00:08Z</time>
      </trkpt>
      <trkpt lat="44.01781" lon="0.79366">
        <ele>194.531</ele>
        <time>2016-09-26T19:18:06Z</time>
      </trkpt>
      <trkpt lat="44.01732" lon="0.79344">
        <ele>199.424</ele>
        <time>2019-03-30T18:00:48Z</time>
      </trkpt>
      <trkpt lat="44.0172" lon="0.7926">
        <ele>199.508</ele>
        <time>2019-03-30T18:01:08Z</time>
      </trkpt>
      <trkpt lat="44.01655" lon="0.79048">
        <ele>194.675</ele>
        <time>2019-03-30T18:01:28Z</time>
      </trkpt>
      <trkpt lat="44.01634" lon="0.78881">
        <ele>188.122</ele>
        <time>2019-03-30T18:01:48Z</time>
      </trkpt>
      <trkpt lat="44.01731" lon="0.78417">
        <ele>198.331</ele>
        <time>2019-03-30T18:02:08Z</time>
      </trkpt>
      <trkpt lat="44.01708" lon="0.78207">
        <ele>209.11</ele>
        <time>2019-03-30T18:02:28Z</time>
      </trkpt>
      <trkpt lat="44.0162" lon="0.78142">
        <ele>207.656</ele>
        <time>2019-03-30T18:02:48Z</time>
      </trkpt>
      <trkpt lat="44.01556" lon="0.78139">
        <ele>207.037</ele>
        <time>2016-09-26T19:21:06Z</time>
      </trkpt>
      <trkpt lat="44.01516" lon="0.78107">
        <ele>202.93</ele>
        <time>2016-09-26T19:21:26Z</time>
      </trkpt>
      <trkpt lat="44.01374" lon="0.78004">
        <ele>179.439</ele>
        <time>2016-09-26T19:21:46Z</time>
      </trkpt>
      <trkpt lat="44.01403" lon="0.77935">
        <ele>174.499</ele>
        <time>2016-09-26T19:22:06Z</time>
      </trkpt>
      <trkpt lat="44.01359" lon="0.77916">
        <ele>168.707</ele>
        <time>2016-09-26T19:22:26Z</time>
      </trkpt>
      <trkpt lat="44.0134" lon="0.77847">
        <ele>164.627</ele>
        <time>2016-09-26T19:22:46Z</time>
      </trkpt>
      <trkpt lat="44.01312" lon="0.778">
        <ele>161.708</ele>
        <time>2016-09-26T19:23:06Z</time>
      </trkpt>
      <trkpt lat="44.01053" lon="0.7775">
        <ele>156.855</ele>
        <time>2019-03-30T18:05:28Z</time>
      </trkpt>
      <trkpt lat="44.01005" lon="0.77555">
        <ele>160.692</ele>
        <time>2016-09-26T19:23:46Z</time>
      </trkpt>
      <trkpt lat="44.00915" lon="0.77469">
        <ele>155.161</ele>
        <time>2019-03-30T18:06:08Z</time>
      </trkpt>
      <trkpt lat="44.00817" lon="0.77402">
        <ele>160.89</ele>
        <time>2019-03-30T18:06:28Z</time>
      </trkpt>
      <trkpt lat="44.00632" lon="0.7705">
        <ele>155.626</ele>
        <time>2019-03-30T18:06:48Z</time>
      </trkpt>
      <trkpt lat="44.00487" lon="0.76855">
        <ele>159.787</ele>
        <time>2019-03-30T18:07:08Z</time>
      </trkpt>
      <trkpt lat="44.00433" lon="0.76842">
        <ele>163.83</ele>
        <time>2019-03-30T18:07:28Z</time>
      </trkpt>
      <trkpt lat="44.00364" lon="0.76713">
        <ele>175.199</ele>
        <time>2019-03-30T18:07:48Z</time>
      </trkpt>
      <trkpt lat="44.00355" lon="0.76633">
        <ele>182.521</ele>
        <time>2016-09-26T19:26:06Z</time>
      </trkpt>
      <trkpt lat="44.00157" lon="0.76471">
        <ele>211.041</ele>
        <time>2019-03-30T18:08:28Z</time>
      </trkpt>
      <trkpt lat="44.00114" lon="0.76186">
        <ele>201.605</ele>
        <time>2019-03-30T18:08:48Z</time>
      </trkpt>
      <trkpt lat="44.00064" lon="0.76048">
        <ele>193.608</ele>
        <time>2019-03-30T18:09:08Z</time>
      </trkpt>
      <trkpt lat="43.99946" lon="0.75834">
        <ele>195.948</ele>
        <time>2016-09-26T19:27:26Z</time>
      </trkpt>
      <trkpt lat="43.99903" lon="0.75736">
        <ele>200.075</ele>
        <time>2016-09-26T19:27:46Z</time>
      </trkpt>
      <trkpt lat="43.99862" lon="0.75731">
        <ele>200.094</ele>
        <time>2019-03-30T18:10:08Z</time>
      </trkpt>
      <trkpt lat="43.99797" lon="0.75604">
        <ele>200.013</ele>
        <time>2019-03-30T18:10:28Z</time>
      </trkpt>
      <trkpt lat="43.99732" lon="0.75565">
        <ele>200.039</ele>
        <time>2019-03-30T18:10:48Z</time>
      </trkpt>
      <trkpt lat="43.99449" lon="0.75553">
        <ele>197.59</ele>
        <time>2016-09-26T19:29:06Z</time>
      </trkpt>
      <trkpt lat="43.993" lon="0.75407">
        <ele>188.713</ele>
        <time>2016-09-26T19:29:26Z</time>
      </trkpt>
      <trkpt lat="43.99207" lon="0.75365">
        <ele>185.292</ele>
        <time>2016-09-26T19:29:46Z</time>
      </trkpt>
      <trkpt lat="43.99097" lon="0.75255">
        <ele>175.175</ele>
        <time>2016-09-26T19:30:06Z</time>
      </trkpt>
      <trkpt lat="43.98952" lon="0.75096">
        <ele>168.828</ele>
        <time>2016-09-26T19:30:26Z</time>
      </trkpt>
      <trkpt lat="43.98921" lon="0.74871">
        <ele>163.42</ele>
        <time>2016-09-26T19:30:46Z</time>
      </trkpt>
      <trkpt lat="43.98879" lon="0.74679">
        <ele>154.208</ele>
        <time>2019-03-30T18:13:08Z</time>
      </trkpt>
      <trkpt lat="43.9885" lon="0.7468">
        <ele>156.393</ele>
        <time>2016-09-26T19:31:26Z</time>
      </trkpt>
      <trkpt lat="43.98761" lon="0.74639">
        <ele>160.01</ele>
        <time>2016-09-26T19:31:46Z</time>
      </trkpt>
      <trkpt lat="43.98665" lon="0.74468">
        <ele>180.619</ele>
        <time>2016-09-26T19:32:06Z</time>
      </trkpt>
      <trkpt lat="43.98651" lon="0.74382">
        <ele>186.828</ele>
        <time>2016-09-26T19:32:26Z</time>
      </trkpt>
      <trkpt lat="43.98651" lon="0.74382">
        <ele>186.874</ele>
        <time>2016-09-26T19:32:46Z</time>
      </trkpt>
      <trkpt lat="43.98509" lon="0.74189">
        <ele>196.875</ele>
        <time>2016-09-26T19:33:06Z</time>
      </trkpt>
      <trkpt lat="43.98464" lon="0.74034">
        <ele>194.738</ele>
        <time>2016-09-26T19:33:26Z</time>
      </trkpt>
      <trkpt lat="43.98398" lon="0.73955">
        <ele>186.687</ele>
        <time>2016-09-26T19:33:46Z</time>
      </trkpt>
      <trkpt lat="43.98182" lon="0.73852">
        <ele>149.188</ele>
        <time>2016-09-26T19:34:06Z</time>
      </trkpt>
      <trkpt lat="43.98186" lon="0.73624">
        <ele>145.224</ele>
        <time>2016-09-26T19:34:26Z</time>
      </trkpt>
      <trkpt lat="43.9827" lon="0.73348">
        <ele>136.626</ele>
        <time>2016-09-26T19:34:46Z</time>
      </trkpt>
      <trkpt lat="43.98304" lon="0.733">
        <ele>138.708</ele>
        <time>2016-09-26T19:35:06Z</time>
      </trkpt>
      <trkpt lat="43.98305" lon="0.73163">
        <ele>136.054</ele>
        <time>2016-09-26T19:35:26Z</time>
      </trkpt>
      <trkpt lat="43.98322" lon="0.7306">
        <ele>134.321</ele>
        <time>2016-09-26T19:35:46Z</time>
      </trkpt>
      <trkpt lat="43.98239" lon="0.72513">
        <ele>100.15</ele>
        <time>2016-09-26T19:36:06Z</time>
      </trkpt>
      <trkpt lat="43.98197" lon="0.72395">
        <ele>96.199</ele>
        <time>2016-09-26T19:36:26Z</time>
      </trkpt>
      <trkpt lat="43.98157" lon="0.72352">
        <ele>95.865</ele>
        <time>2016-09-26T19:36:46Z</time>
      </trkpt>
      <trkpt lat="43.9806" lon="0.72146">
        <ele>97.076</ele>
        <time>2016-09-26T19:37:06Z</time>
      </trkpt>
      <trkpt lat="43.98046" lon="0.71824">
        <ele>101.919</ele>
        <time>2016-09-26T19:37:26Z</time>
      </trkpt>
      <trkpt lat="43.98015" lon="0.71828">
        <ele>103.028</ele>
        <time>2016-09-26T19:37:46Z</time>
      </trkpt>
      <trkpt lat="43.98009" lon="0.71717">
        <ele>104.097</ele>
        <time>2016-09-26T19:38:06Z</time>
      </trkpt>
      <trkpt lat="43.97956" lon="0.71586">
        <ele>105.923</ele>
        <time>2016-09-26T19:38:26Z</time>
      </trkpt>
      <trkpt lat="43.97941" lon="0.71521">
        <ele>106.225</ele>
        <time>2016-09-26T19:38:46Z</time>
      </trkpt>
      <trkpt lat="43.97956" lon="0.71504">
        <ele>106.808</ele>
        <time>2016-09-26T19:39:06Z</time>
      </trkpt>
      <trkpt lat="43.97842" lon="0.71348">
        <ele>106.315</ele>
        <time>2016-09-26T19:39:26Z</time>
      </trkpt>
      <trkpt lat="43.97774" lon="0.71324">
        <ele>103.242</ele>
        <time>2016-09-26T19:39:46Z</time>
      </trkpt>
      <trkpt lat="43.97774" lon="0.71324">
        <ele>103.211</ele>
        <time>2016-09-26T19:40:06Z</time>
      </trkpt>
      <trkpt lat="43.97686" lon="0.71262">
        <ele>108.63</ele>
        <time>2016-09-26T19:40:26Z</time>
      </trkpt>
      <trkpt lat="43.97601" lon="0.71182">
        <ele>110.256</ele>
        <time>2016-09-26T19:40:46Z</time>
      </trkpt>
      <trkpt lat="43.97597" lon="0.71148">
        <ele>110.887</ele>
        <time>2016-09-26T19:41:06Z</time>
      </trkpt>
      <trkpt lat="43.97384" lon="0.70966">
        <ele>116.44</ele>
        <time>2016-09-26T19:41:26Z</time>
      </trkpt>
      <trkpt lat="43.97024" lon="0.70605">
        <ele>127.239</ele>
        <time>2016-09-26T19:41:46Z</time>
      </trkpt>
      <trkpt lat="43.9699" lon="0.7061">
        <ele>126.624</ele>
        <time>2016-09-26T19:42:06Z</time>
      </trkpt>
      <trkpt lat="43.96939" lon="0.70575">
        <ele>124.904</ele>
        <time>2016-09-26T19:42:26Z</time>
      </trkpt>
      <trkpt lat="43.96699" lon="0.70333">
        <ele>116.014</ele>
        <time>2016-09-26T19:42:46Z</time>
      </trkpt>
      <trkpt lat="43.96475" lon="0.70041">
        <ele>122.208</ele>
        <time>2016-09-26T19:43:06Z</time>
      </trkpt>
      <trkpt lat="43.96253" lon="0.69968">
        <ele>112.478</ele>
        <time>2016-09-26T19:43:26Z</time>
      </trkpt>
      <trkpt lat="43.96222" lon="0.69968">
        <ele>110.255</ele>
        <time>2016-09-26T19:43:46Z</time>
      </trkpt>
      <trkpt lat="43.96165" lon="0.69798">
        <ele>110.954</ele>
        <time>2016-09-26T19:44:06Z</time>
      </trkpt>
      <trkpt lat="43.96168" lon="0.69638">
        <ele>114.193</ele>
        <time>2016-09-26T19:44:26Z</time>
      </trkpt>
      <trkpt lat="43.9616" lon="0.69569">
        <ele>114.959</ele>
        <time>2016-09-26T19:44:46Z</time>
      </trkpt>
      <trkpt lat="43.9619" lon="0.69384">
        <ele>123.24</ele>
        <time>2016-09-26T19:45:06Z</time>
      </trkpt>
      <trkpt lat="43.96224" lon="0.69157">
        <ele>127.853</ele>
        <time>2016-09-26T19:45:26Z</time>
      </trkpt>
      <trkpt lat="43.96204" lon="0.69039">
        <ele>124.792</ele>
        <time>2016-09-26T19:45:46Z</time>
      </trkpt>
      <trkpt lat="43.96128" lon="0.68824">
        <ele>119.646</ele>
        <time>2016-09-26T19:46:06Z</time>
      </trkpt>
      <trkpt lat="43.96075" lon="0.68753">
        <ele>119.688</ele>
        <time>2016-09-26T19:46:26Z</time>
      </trkpt>
      <trkpt lat="43.9602" lon="0.68758">
        <ele>117.516</ele>
        <time>2016-09-26T19:46:46Z</time>
      </trkpt>
      <trkpt lat="43.95961" lon="0.68642">
        <ele>119.908</ele>
        <time>2016-09-26T19:47:06Z</time>
      </trkpt>
      <trkpt lat="43.95899" lon="0.6855">
        <ele>120.07</ele>
        <time>2016-09-26T19:47:26Z</time>
      </trkpt>
      <trkpt lat="43.95855" lon="0.68419">
        <ele>122.997</ele>
        <time>2016-09-26T19:47:46Z</time>
      </trkpt>
      <trkpt lat="43.95844" lon="0.68326">
        <ele>124.636</ele>
        <time>2016-09-26T19:48:06Z</time>
      </trkpt>
      <trkpt lat="43.95807" lon="0.68243">
        <ele>124.385</ele>
        <time>2016-09-26T19:48:26Z</time>
      </trkpt>
      <trkpt lat="43.95824" lon="0.68204">
        <ele>127.051</ele>
        <time>2016-09-26T19:48:46Z</time>
      </trkpt>
      <trkpt lat="43.9575" lon="0.68041">
        <ele>127.522</ele>
        <time>2016-09-26T19:49:06Z</time>
      </trkpt>
      <trkpt lat="43.95685" lon="0.68007">
        <ele>127.215</ele>
        <time>2016-09-26T19:49:26Z</time>
      </trkpt>
      <trkpt lat="43.95683" lon="0.67889">
        <ele>128.434</ele>
        <time>2016-09-26T19:49:46Z</time>
      </trkpt>
      <trkpt lat="43.95601" lon="0.67766">
        <ele>130.081</ele>
        <time>2016-09-26T19:50:06Z</time>
      </trkpt>
      <trkpt lat="43.95456" lon="0.67711">
        <ele>133.661</ele>
        <time>2016-09-26T19:50:26Z</time>
      </trkpt>
      <trkpt lat="43.95402" lon="0.67629">
        <ele>136.617</ele>
        <time>2016-09-26T19:50:46Z</time>
      </trkpt>
      <trkpt lat="43.95348" lon="0.67472">
        <ele>140.408</ele>
        <time>2016-09-26T19:51:06Z</time>
      </trkpt>
      <trkpt lat="43.95308" lon="0.67262">
        <ele>141.444</ele>
        <time>2016-09-26T19:51:26Z</time>
      </trkpt>
      <trkpt lat="43.95221" lon="0.67093">
        <ele>150.531</ele>
        <time>2016-09-26T19:51:46Z</time>
      </trkpt>
      <trkpt lat="43.95292" lon="0.6694">
        <ele>158.53</ele>
        <time>2016-09-26T19:52:06Z</time>
      </trkpt>
      <trkpt lat="43.95325" lon="0.66936">
        <ele>158.049</ele>
        <time>2016-09-26T19:52:26Z</time>
      </trkpt>
      <trkpt lat="43.95373" lon="0.66889">
        <ele>156.865</ele>
        <time>2016-09-26T19:52:46Z</time>
      </trkpt>
      <trkpt lat="43.95405" lon="0.66775">
        <ele>158.886</ele>
        <time>2016-09-26T19:53:06Z</time>
      </trkpt>
      <trkpt lat="43.95422" lon="0.66623">
        <ele>160.719</ele>
        <time>2016-09-26T19:53:26Z</time>
      </trkpt>
      <trkpt lat="43.95453" lon="0.66528">
        <ele>159.028</ele>
        <time>2016-09-26T19:53:46Z</time>
      </trkpt>
      <trkpt lat="43.95467" lon="0.66402">
        <ele>163.128</ele>
        <time>2016-09-26T19:54:06Z</time>
      </trkpt>
      <trkpt lat="43.95502" lon="0.66187">
        <ele>169.289</ele>
        <time>2016-09-26T19:54:26Z</time>
      </trkpt>
      <trkpt lat="43.95496" lon="0.6611">
        <ele>171.217</ele>
        <time>2016-09-26T19:54:46Z</time>
      </trkpt>
      <trkpt lat="43.95471" lon="0.66095">
        <ele>172.708</ele>
        <time>2016-09-26T19:55:06Z</time>
      </trkpt>
      <trkpt lat="43.95444" lon="0.65958">
        <ele>175.018</ele>
        <time>2016-09-26T19:55:26Z</time>
      </trkpt>
      <trkpt lat="43.94912" lon="0.65533">
        <ele>210.065</ele>
        <time>2016-09-26T19:55:46Z</time>
      </trkpt>
      <trkpt lat="43.94878" lon="0.65535">
        <ele>210.074</ele>
        <time>2016-09-26T19:56:06Z</time>
      </trkpt>
      <trkpt lat="43.94833" lon="0.65569">
        <ele>210.073</ele>
        <time>2016-09-26T19:56:26Z</time>
      </trkpt>
      <trkpt lat="43.94614" lon="0.65458">
        <ele>210.949</ele>
        <time>2016-09-26T19:56:46Z</time>
      </trkpt>
      <trkpt lat="43.94529" lon="0.65419">
        <ele>211.18</ele>
        <time>2016-09-26T19:57:06Z</time>
      </trkpt>
      <trkpt lat="43.94353" lon="0.65277">
        <ele>202.123</ele>
        <time>2016-09-26T19:57:26Z</time>
      </trkpt>
      <trkpt lat="43.94222" lon="0.65088">
        <ele>182.942</ele>
        <time>2016-09-26T19:57:46Z</time>
      </trkpt>
      <trkpt lat="43.94118" lon="0.65061">
        <ele>173.584</ele>
        <time>2016-09-26T19:58:06Z</time>
      </trkpt>
      <trkpt lat="43.94064" lon="0.65022">
        <ele>167.907</ele>
        <time>2016-09-26T19:58:26Z</time>
      </trkpt>
      <trkpt lat="43.94127" lon="0.64958">
        <ele>173.217</ele>
        <time>2016-09-26T19:58:46Z</time>
      </trkpt>
      <trkpt lat="43.94175" lon="0.64928">
        <ele>176.708</ele>
        <time>2016-09-26T19:59:06Z</time>
      </trkpt>
      <trkpt lat="43.94229" lon="0.64887">
        <ele>178.734</ele>
        <time>2016-09-26T19:59:26Z</time>
      </trkpt>
      <trkpt lat="43.94401" lon="0.64837">
        <ele>194.451</ele>
        <time>2016-09-26T19:59:46Z</time>
      </trkpt>
      <trkpt lat="43.94435" lon="0.64728">
        <ele>196.78</ele>
        <time>2016-09-26T20:00:06Z</time>
      </trkpt>
      <trkpt lat="43.94467" lon="0.64571">
        <ele>197.639</ele>
        <time>2016-09-26T20:00:26Z</time>
      </trkpt>
      <trkpt lat="43.94416" lon="0.64475">
        <ele>190.975</ele>
        <time>2016-09-26T20:00:46Z</time>
      </trkpt>
      <trkpt lat="43.94401" lon="0.64408">
        <ele>186.436</ele>
        <time>2016-09-26T20:01:06Z</time>
      </trkpt>
      <trkpt lat="43.94402" lon="0.64365">
        <ele>184.749</ele>
        <time>2016-09-26T20:01:26Z</time>
      </trkpt>
      <trkpt lat="43.94334" lon="0.64209">
        <ele>174.678</ele>
        <time>2016-09-26T20:01:46Z</time>
      </trkpt>
      <trkpt lat="43.94256" lon="0.64119">
        <ele>162.752</ele>
        <time>2016-09-26T20:02:06Z</time>
      </trkpt>
      <trkpt lat="43.94219" lon="0.63951">
        <ele>160.653</ele>
        <time>2016-09-26T20:02:26Z</time>
      </trkpt>
      <trkpt lat="43.94226" lon="0.63857">
        <ele>164.708</ele>
        <time>2016-09-26T20:02:46Z</time>
      </trkpt>
      <trkpt lat="43.94185" lon="0.63717">
        <ele>154.708</ele>
        <time>2016-09-26T20:03:06Z</time>
      </trkpt>
      <trkpt lat="43.94198" lon="0.63569">
        <ele>155.171</ele>
        <time>2016-09-26T20:03:26Z</time>
      </trkpt>
      <trkpt lat="43.94186" lon="0.63531">
        <ele>155.078</ele>
        <time>2016-09-26T20:03:46Z</time>
      </trkpt>
      <trkpt lat="43.94103" lon="0.63505">
        <ele>139.377</ele>
        <time>2016-09-26T20:04:06Z</time>
      </trkpt>
      <trkpt lat="43.93979" lon="0.63355">
        <ele>123.046</ele>
        <time>2016-09-26T20:04:26Z</time>
      </trkpt>
      <trkpt lat="43.93913" lon="0.63232">
        <ele>122.552</ele>
        <time>2016-09-26T20:04:46Z</time>
      </trkpt>
      <trkpt lat="43.93838" lon="0.63164">
        <ele>128.043</ele>
        <time>2016-09-26T20:05:06Z</time>
      </trkpt>
      <trkpt lat="43.93808" lon="0.63119">
        <ele>125.976</ele>
        <time>2016-09-26T20:05:26Z</time>
      </trkpt>
      <trkpt lat="43.93698" lon="0.63056">
        <ele>126.775</ele>
        <time>2016-09-26T20:05:46Z</time>
      </trkpt>
      <trkpt lat="43.93678" lon="0.6281">
        <ele>143.826</ele>
        <time>2016-09-26T20:06:06Z</time>
      </trkpt>
      <trkpt lat="43.93667" lon="0.62743">
        <ele>150.247</ele>
        <time>2016-09-26T20:06:26Z</time>
      </trkpt>
      <trkpt lat="43.93673" lon="0.62629">
        <ele>154.311</ele>
        <time>2016-09-26T20:06:46Z</time>
      </trkpt>
      <trkpt lat="43.93647" lon="0.62526">
        <ele>155.108</ele>
        <time>2016-09-26T20:07:06Z</time>
      </trkpt>
      <trkpt lat="43.93604" lon="0.62494">
        <ele>158.978</ele>
        <time>2016-09-26T20:07:26Z</time>
      </trkpt>
      <trkpt lat="43.93604" lon="0.62494">
        <ele>158.945</ele>
        <time>2016-09-26T20:07:46Z</time>
      </trkpt>
      <trkpt lat="43.93559" lon="0.62362">
        <ele>158.164</ele>
        <time>2016-09-26T20:08:06Z</time>
      </trkpt>
      <trkpt lat="43.9352" lon="0.62375">
        <ele>166.673</ele>
        <time>2016-09-26T20:08:26Z</time>
      </trkpt>
      <trkpt lat="43.93525" lon="0.62281">
        <ele>165.539</ele>
        <time>2016-09-26T20:08:46Z</time>
      </trkpt>
      <trkpt lat="43.93451" lon="0.62313">
        <ele>176.98</ele>
        <time>2016-09-26T20:09:06Z</time>
      </trkpt>
      <trkpt lat="43.93407" lon="0.62321">
        <ele>179.523</ele>
        <time>2021-01-03T11:39:20Z</time>
      </trkpt>
      <trkpt lat="43.9341" lon="0.62229">
        <ele>179.112</ele>
        <time>2021-01-03T11:39:40Z</time>
      </trkpt>
      <trkpt lat="43.93422" lon="0.62151">
        <ele>178.835</ele>
        <time>2021-01-03T11:40:00Z</time>
      </trkpt>
      <trkpt lat="43.93551" lon="0.61692">
        <ele>165.986</ele>
        <time>2021-01-03T11:40:20Z</time>
      </trkpt>
      <trkpt lat="43.93596" lon="0.61658">
        <ele>160.714</ele>
        <time>2021-01-03T11:40:40Z</time>
      </trkpt>
      <trkpt lat="43.93615" lon="0.61588">
        <ele>157.408</ele>
        <time>2021-01-03T11:41:00Z</time>
      </trkpt>
      <trkpt lat="43.93632" lon="0.61577">
        <ele>153.539</ele>
        <time>2021-01-03T11:41:20Z</time>
      </trkpt>
      <trkpt lat="43.9362" lon="0.61531">
        <ele>148.616</ele>
        <time>2021-01-03T11:41:40Z</time>
      </trkpt>
      <trkpt lat="43.93651" lon="0.61545">
        <ele>146.465</ele>
        <time>2021-01-03T11:42:00Z</time>
      </trkpt>
      <trkpt lat="43.93639" lon="0.61514">
        <ele>144.154</ele>
        <time>2021-01-03T11:42:20Z</time>
      </trkpt>
      <trkpt lat="43.93615" lon="0.6149">
        <ele>142.44</ele>
        <time>2021-01-03T11:42:40Z</time>
      </trkpt>
      <trkpt lat="43.93628" lon="0.61482">
        <ele>140.611</ele>
        <time>2021-01-03T11:43:00Z</time>
      </trkpt>
      <trkpt lat="43.9367" lon="0.61483">
        <ele>138.384</ele>
        <time>2021-01-03T11:43:20Z</time>
      </trkpt>
      <trkpt lat="43.93689" lon="0.61467">
        <ele>133.933</ele>
        <time>2021-01-03T11:43:40Z</time>
      </trkpt>
      <trkpt lat="43.93663" lon="0.61424">
        <ele>124.713</ele>
        <time>2021-01-03T11:44:00Z</time>
      </trkpt>
      <trkpt lat="43.93615" lon="0.61365">
        <ele>116.443</ele>
        <time>2021-01-03T11:44:20Z</time>
      </trkpt>
      <trkpt lat="43.93599" lon="0.61309">
        <ele>105.107</ele>
        <time>2021-01-03T11:44:40Z</time>
      </trkpt>
      <trkpt lat="43.93543" lon="0.61249">
        <ele>95.208</ele>
        <time>2021-01-03T11:45:00Z</time>
      </trkpt>
      <trkpt lat="43.93465" lon="0.61264">
        <ele>95.667</ele>
        <time>2021-01-03T11:45:20Z</time>
      </trkpt>
      <trkpt lat="43.93386" lon="0.61296">
        <ele>93.234</ele>
        <time>2021-01-03T11:45:40Z</time>
      </trkpt>
      <trkpt lat="43.93369" lon="0.61293">
        <ele>90.393</ele>
        <time>2021-01-03T11:46:00Z</time>
      </trkpt>
      <trkpt lat="43.93403" lon="0.61168">
        <ele>77.032</ele>
        <time>2021-01-03T11:46:20Z</time>
      </trkpt>
      <trkpt lat="43.93437" lon="0.60904">
        <ele>76.698</ele>
        <time>2021-01-03T11:46:40Z</time>
      </trkpt>
      <trkpt lat="43.93451" lon="0.60945">
        <ele>76.089</ele>
        <time>2021-01-03T11:47:00Z</time>
      </trkpt>
      <trkpt lat="43.93459" lon="0.60991">
        <ele>76.012</ele>
        <time>2021-01-03T11:47:20Z</time>
      </trkpt>
      <trkpt lat="43.93494" lon="0.60984">
        <ele>76.091</ele>
        <time>2021-01-03T11:47:40Z</time>
      </trkpt>
      <trkpt lat="43.93543" lon="0.60991">
        <ele>76.422</ele>
        <time>2016-09-26T20:16:26Z</time>
      </trkpt>
      <trkpt lat="43.93594" lon="0.60933">
        <ele>76.062</ele>
        <time>2016-09-26T20:16:46Z</time>
      </trkpt>
      <trkpt lat="43.93605" lon="0.60877">
        <ele>76.008</ele>
        <time>2016-09-26T20:17:06Z</time>
      </trkpt>
      <trkpt lat="43.93648" lon="0.60785">
        <ele>77.008</ele>
        <time>2016-09-26T20:17:26Z</time>
      </trkpt>
      <trkpt lat="43.93744" lon="0.60674">
        <ele>77.048</ele>
        <time>2016-09-26T20:17:46Z</time>
      </trkpt>
      <trkpt lat="43.93747" lon="0.60547">
        <ele>77.065</ele>
        <time>2016-09-26T20:18:06Z</time>
      </trkpt>
      <trkpt lat="43.93769" lon="0.60427">
        <ele>77.074</ele>
        <time>2016-09-26T20:18:26Z</time>
      </trkpt>
      <trkpt lat="43.93767" lon="0.60384">
        <ele>77.273</ele>
        <time>2016-09-26T20:18:46Z</time>
      </trkpt>
      <trkpt lat="43.93803" lon="0.60302">
        <ele>81.339</ele>
        <time>2016-09-26T20:19:06Z</time>
      </trkpt>
      <trkpt lat="43.93798" lon="0.60251">
        <ele>85.02</ele>
        <time>2016-09-26T20:19:26Z</time>
      </trkpt>
      <trkpt lat="43.93707" lon="0.5989">
        <ele>93.463</ele>
        <time>2016-09-26T20:19:46Z</time>
      </trkpt>
      <trkpt lat="43.93699" lon="0.59684">
        <ele>98.512</ele>
        <time>2016-09-26T20:20:06Z</time>
      </trkpt>
      <trkpt lat="43.93713" lon="0.59592">
        <ele>101.786</ele>
        <time>2016-09-26T20:20:26Z</time>
      </trkpt>
      <trkpt lat="43.93692" lon="0.59442">
        <ele>107.36</ele>
        <time>2016-09-26T20:20:46Z</time>
      </trkpt>
      <trkpt lat="43.93715" lon="0.59393">
        <ele>110.026</ele>
        <time>2016-09-26T20:21:06Z</time>
      </trkpt>
      <trkpt lat="43.93744" lon="0.59298">
        <ele>114.408</ele>
        <time>2016-09-26T20:21:26Z</time>
      </trkpt>
      <trkpt lat="43.93812" lon="0.59174">
        <ele>113.164</ele>
        <time>2016-09-26T20:21:46Z</time>
      </trkpt>
      <trkpt lat="43.93772" lon="0.59038">
        <ele>107.071</ele>
        <time>2016-09-26T20:22:06Z</time>
      </trkpt>
      <trkpt lat="43.93761" lon="0.58985">
        <ele>108.38</ele>
        <time>2016-09-26T20:22:26Z</time>
      </trkpt>
      <trkpt lat="43.9375" lon="0.58946">
        <ele>110.039</ele>
        <time>2016-09-26T20:22:46Z</time>
      </trkpt>
      <trkpt lat="43.93737" lon="0.58852">
        <ele>112.365</ele>
        <time>2016-09-26T20:23:06Z</time>
      </trkpt>
      <trkpt lat="43.93737" lon="0.58826">
        <ele>114.786</ele>
        <time>2016-09-26T20:23:26Z</time>
      </trkpt>
      <trkpt lat="43.93676" lon="0.5862">
        <ele>126.999</ele>
        <time>2016-09-26T20:23:46Z</time>
      </trkpt>
      <trkpt lat="43.93664" lon="0.58468">
        <ele>131.378</ele>
        <time>2016-09-26T20:24:06Z</time>
      </trkpt>
      <trkpt lat="43.93528" lon="0.58474">
        <ele>147.195</ele>
        <time>2016-09-26T20:24:26Z</time>
      </trkpt>
      <trkpt lat="43.93499" lon="0.58569">
        <ele>154.449</ele>
        <time>2016-09-26T20:24:46Z</time>
      </trkpt>
      <trkpt lat="43.93438" lon="0.58337">
        <ele>156.423</ele>
        <time>2016-09-26T20:25:06Z</time>
      </trkpt>
      <trkpt lat="43.93434" lon="0.58112">
        <ele>162.208</ele>
        <time>2016-09-26T20:25:26Z</time>
      </trkpt>
      <trkpt lat="43.93401" lon="0.57824">
        <ele>167.685</ele>
        <time>2016-09-26T20:25:46Z</time>
      </trkpt>
      <trkpt lat="43.93401" lon="0.57678">
        <ele>171.712</ele>
        <time>2016-09-26T20:26:06Z</time>
      </trkpt>
      <trkpt lat="43.93418" lon="0.57588">
        <ele>174.741</ele>
        <time>2016-09-26T20:26:26Z</time>
      </trkpt>
      <trkpt lat="43.93454" lon="0.57466">
        <ele>179.04</ele>
        <time>2016-09-26T20:26:46Z</time>
      </trkpt>
      <trkpt lat="43.9352" lon="0.57303">
        <ele>181.846</ele>
        <time>2016-09-26T20:27:06Z</time>
      </trkpt>
      <trkpt lat="43.93584" lon="0.57275">
        <ele>184.047</ele>
        <time>2016-09-26T20:27:26Z</time>
      </trkpt>
      <trkpt lat="43.93631" lon="0.57227">
        <ele>184.87</ele>
        <time>2016-09-26T20:27:46Z</time>
      </trkpt>
      <trkpt lat="43.93741" lon="0.56929">
        <ele>185.169</ele>
        <time>2016-09-26T20:28:06Z</time>
      </trkpt>
      <trkpt lat="43.93784" lon="0.56758">
        <ele>176.525</ele>
        <time>2016-09-26T20:28:26Z</time>
      </trkpt>
      <trkpt lat="43.93789" lon="0.56481">
        <ele>165.626</ele>
        <time>2016-09-26T20:28:46Z</time>
      </trkpt>
      <trkpt lat="43.93862" lon="0.56309">
        <ele>173.708</ele>
        <time>2016-09-26T20:29:06Z</time>
      </trkpt>
      <trkpt lat="43.9392" lon="0.5612">
        <ele>177.308</ele>
        <time>2016-09-26T20:29:26Z</time>
      </trkpt>
      <trkpt lat="43.93962" lon="0.55906">
        <ele>178.558</ele>
        <time>2016-09-26T20:29:46Z</time>
      </trkpt>
      <trkpt lat="43.94103" lon="0.55558">
        <ele>173.445</ele>
        <time>2016-09-26T20:30:06Z</time>
      </trkpt>
      <trkpt lat="43.94202" lon="0.5544">
        <ele>168.534</ele>
        <time>2016-09-26T20:30:26Z</time>
      </trkpt>
      <trkpt lat="43.94205" lon="0.55348">
        <ele>169.843</ele>
        <time>2016-09-26T20:30:46Z</time>
      </trkpt>
      <trkpt lat="43.94361" lon="0.5512">
        <ele>170.789</ele>
        <time>2016-09-26T20:31:06Z</time>
      </trkpt>
      <trkpt lat="43.94387" lon="0.5512">
        <ele>169.78</ele>
        <time>2016-09-26T20:31:26Z</time>
      </trkpt>
      <trkpt lat="43.9443" lon="0.55026">
        <ele>170.173</ele>
        <time>2016-09-26T20:31:46Z</time>
      </trkpt>
      <trkpt lat="43.94494" lon="0.54979">
        <ele>170.752</ele>
        <time>2016-09-26T20:32:06Z</time>
      </trkpt>
      <trkpt lat="43.94583" lon="0.54852">
        <ele>175.099</ele>
        <time>2016-09-26T20:32:26Z</time>
      </trkpt>
      <trkpt lat="43.9464" lon="0.54751">
        <ele>176.007</ele>
        <time>2016-09-26T20:32:46Z</time>
      </trkpt>
      <trkpt lat="43.94704" lon="0.54676">
        <ele>174.727</ele>
        <time>2016-09-26T20:33:06Z</time>
      </trkpt>
      <trkpt lat="43.94719" lon="0.54603">
        <ele>174.108</ele>
        <time>2016-09-26T20:33:26Z</time>
      </trkpt>
      <trkpt lat="43.94758" lon="0.54494">
        <ele>173.725</ele>
        <time>2016-09-26T20:33:46Z</time>
      </trkpt>
      <trkpt lat="43.94585" lon="0.54301">
        <ele>175.062</ele>
        <time>2016-09-26T20:34:06Z</time>
      </trkpt>
      <trkpt lat="43.9443" lon="0.5415">
        <ele>172.081</ele>
        <time>2016-09-26T20:34:26Z</time>
      </trkpt>
      <trkpt lat="43.94365" lon="0.54065">
        <ele>170.07</ele>
        <time>2016-09-26T20:34:46Z</time>
      </trkpt>
      <trkpt lat="43.94328" lon="0.54056">
        <ele>168.566</ele>
        <time>2016-09-26T20:35:06Z</time>
      </trkpt>
      <trkpt lat="43.94309" lon="0.54089">
        <ele>168.537</ele>
        <time>2021-01-03T12:07:00Z</time>
      </trkpt>
      <trkpt lat="43.94265" lon="0.53924">
        <ele>157.96</ele>
        <time>2021-01-03T12:07:20Z</time>
      </trkpt>
      <trkpt lat="43.94221" lon="0.53802">
        <ele>143.419</ele>
        <time>2021-01-03T12:07:40Z</time>
      </trkpt>
      <trkpt lat="43.94231" lon="0.53724">
        <ele>133.342</ele>
        <time>2021-01-03T12:08:00Z</time>
      </trkpt>
      <trkpt lat="43.94329" lon="0.5365">
        <ele>127.622</ele>
        <time>2021-01-03T12:08:20Z</time>
      </trkpt>
      <trkpt lat="43.94363" lon="0.53606">
        <ele>121.314</ele>
        <time>2016-09-25T16:19:55Z</time>
      </trkpt>
      <trkpt lat="43.94212" lon="0.5316">
        <ele>109.908</ele>
        <time>2016-09-25T16:20:15Z</time>
      </trkpt>
      <trkpt lat="43.94192" lon="0.53171">
        <ele>108.96</ele>
        <time>2016-09-25T16:20:35Z</time>
      </trkpt>
      <trkpt lat="43.94112" lon="0.52922">
        <ele>115.047</ele>
        <time>2016-09-25T16:20:55Z</time>
      </trkpt>
      <trkpt lat="43.94139" lon="0.52898">
        <ele>117.416</ele>
        <time>2016-09-25T16:21:15Z</time>
      </trkpt>
      <trkpt lat="43.94126" lon="0.52808">
        <ele>122.325</ele>
        <time>2016-09-25T16:21:35Z</time>
      </trkpt>
      <trkpt lat="43.94109" lon="0.52793">
        <ele>122.371</ele>
        <time>2016-09-25T16:21:55Z</time>
      </trkpt>
      <trkpt lat="43.94075" lon="0.52701">
        <ele>127.052</ele>
        <time>2016-09-25T16:22:15Z</time>
      </trkpt>
      <trkpt lat="43.94059" lon="0.52604">
        <ele>132.835</ele>
        <time>2016-09-25T16:22:35Z</time>
      </trkpt>
      <trkpt lat="43.94017" lon="0.5251">
        <ele>136.454</ele>
        <time>2016-09-25T16:22:55Z</time>
      </trkpt>
      <trkpt lat="43.9399" lon="0.52401">
        <ele>139.471</ele>
        <time>2016-09-25T16:23:15Z</time>
      </trkpt>
      <trkpt lat="43.93991" lon="0.52319">
        <ele>142.441</ele>
        <time>2016-09-25T16:23:35Z</time>
      </trkpt>
      <trkpt lat="43.94011" lon="0.52203">
        <ele>150.615</ele>
        <time>2016-09-25T16:23:55Z</time>
      </trkpt>
      <trkpt lat="43.94016" lon="0.52092">
        <ele>155.408</ele>
        <time>2016-09-25T16:24:15Z</time>
      </trkpt>
      <trkpt lat="43.93867" lon="0.51941">
        <ele>176.343</ele>
        <time>2016-09-25T16:24:35Z</time>
      </trkpt>
      <trkpt lat="43.93796" lon="0.51879">
        <ele>182.76</ele>
        <time>2016-09-25T16:24:55Z</time>
      </trkpt>
      <trkpt lat="43.9383" lon="0.5154">
        <ele>191.959</ele>
        <time>2016-09-25T16:25:15Z</time>
      </trkpt>
      <trkpt lat="43.9382" lon="0.51405">
        <ele>194.198</ele>
        <time>2016-09-25T16:25:35Z</time>
      </trkpt>
      <trkpt lat="43.93871" lon="0.51302">
        <ele>193.514</ele>
        <time>2016-09-25T16:25:55Z</time>
      </trkpt>
      <trkpt lat="43.93954" lon="0.51122">
        <ele>191.285</ele>
        <time>2016-09-25T16:26:15Z</time>
      </trkpt>
      <trkpt lat="43.93985" lon="0.51027">
        <ele>187.658</ele>
        <time>2016-09-25T16:26:35Z</time>
      </trkpt>
      <trkpt lat="43.94056" lon="0.50937">
        <ele>173.527</ele>
        <time>2016-09-25T16:26:55Z</time>
      </trkpt>
      <trkpt lat="43.9409" lon="0.50879">
        <ele>168.865</ele>
        <time>2016-09-25T16:27:15Z</time>
      </trkpt>
      <trkpt lat="43.94127" lon="0.50838">
        <ele>168.068</ele>
        <time>2016-09-25T16:27:35Z</time>
      </trkpt>
      <trkpt lat="43.94198" lon="0.50645">
        <ele>163.814</ele>
        <time>2016-09-25T16:27:55Z</time>
      </trkpt>
      <trkpt lat="43.94266" lon="0.50517">
        <ele>170.908</ele>
        <time>2016-09-25T16:28:15Z</time>
      </trkpt>
      <trkpt lat="43.9432" lon="0.50345">
        <ele>177.652</ele>
        <time>2016-09-25T16:28:35Z</time>
      </trkpt>
      <trkpt lat="43.9436" lon="0.50132">
        <ele>177.799</ele>
        <time>2016-09-25T16:28:55Z</time>
      </trkpt>
      <trkpt lat="43.94425" lon="0.49989">
        <ele>177.388</ele>
        <time>2016-09-25T16:29:15Z</time>
      </trkpt>
      <trkpt lat="43.94479" lon="0.49832">
        <ele>177.087</ele>
        <time>2016-09-25T16:29:35Z</time>
      </trkpt>
      <trkpt lat="43.94502" lon="0.49701">
        <ele>175.923</ele>
        <time>2016-09-25T16:29:55Z</time>
      </trkpt>
      <trkpt lat="43.94569" lon="0.49502">
        <ele>175.024</ele>
        <time>2016-09-25T16:30:15Z</time>
      </trkpt>
      <trkpt lat="43.94608" lon="0.4939">
        <ele>175.027</ele>
        <time>2016-09-25T16:30:35Z</time>
      </trkpt>
      <trkpt lat="43.94671" lon="0.49236">
        <ele>174.266</ele>
        <time>2016-09-25T16:30:55Z</time>
      </trkpt>
      <trkpt lat="43.94696" lon="0.49102">
        <ele>170.634</ele>
        <time>2016-09-25T16:31:15Z</time>
      </trkpt>
      <trkpt lat="43.94699" lon="0.48937">
        <ele>169.055</ele>
        <time>2016-09-25T16:31:35Z</time>
      </trkpt>
      <trkpt lat="43.94699" lon="0.48937">
        <ele>169.01</ele>
        <time>2016-09-25T16:31:55Z</time>
      </trkpt>
      <trkpt lat="43.94747" lon="0.48954">
        <ele>166.408</ele>
        <time>2016-09-25T16:32:15Z</time>
      </trkpt>
      <trkpt lat="43.94832" lon="0.48954">
        <ele>159.889</ele>
        <time>2016-09-25T16:32:35Z</time>
      </trkpt>
      <trkpt lat="43.94875" lon="0.48924">
        <ele>156.746</ele>
        <time>2016-09-25T16:32:55Z</time>
      </trkpt>
      <trkpt lat="43.95051" lon="0.48999">
        <ele>140.595</ele>
        <time>2016-09-25T16:33:15Z</time>
      </trkpt>
      <trkpt lat="43.95117" lon="0.49045">
        <ele>141.714</ele>
        <time>2016-09-25T16:33:35Z</time>
      </trkpt>
      <trkpt lat="43.95229" lon="0.4901">
        <ele>153.15</ele>
        <time>2016-09-25T16:33:55Z</time>
      </trkpt>
      <trkpt lat="43.954" lon="0.48989">
        <ele>150.451</ele>
        <time>2016-09-25T16:34:15Z</time>
      </trkpt>
      <trkpt lat="43.95621" lon="0.49126">
        <ele>172.164</ele>
        <time>2016-09-25T16:34:35Z</time>
      </trkpt>
      <trkpt lat="43.95924" lon="0.49107">
        <ele>148.623</ele>
        <time>2016-09-25T16:34:55Z</time>
      </trkpt>
      <trkpt lat="43.9601" lon="0.49148">
        <ele>160.537</ele>
        <time>2016-09-25T16:35:15Z</time>
      </trkpt>
      <trkpt lat="43.9607" lon="0.49253">
        <ele>164.549</ele>
        <time>2016-09-25T16:35:35Z</time>
      </trkpt>
      <trkpt lat="43.96095" lon="0.49276">
        <ele>164.413</ele>
        <time>2016-09-25T16:35:55Z</time>
      </trkpt>
      <trkpt lat="43.96124" lon="0.4936">
        <ele>168.408</ele>
        <time>2016-09-25T16:36:15Z</time>
      </trkpt>
      <trkpt lat="43.96242" lon="0.49424">
        <ele>182.219</ele>
        <time>2016-09-25T16:36:35Z</time>
      </trkpt>
      <trkpt lat="43.96335" lon="0.49472">
        <ele>196.156</ele>
        <time>2016-09-25T16:36:55Z</time>
      </trkpt>
      <trkpt lat="43.96413" lon="0.49497">
        <ele>204.925</ele>
        <time>2016-09-25T16:37:15Z</time>
      </trkpt>
      <trkpt lat="43.96424" lon="0.49454">
        <ele>205.074</ele>
        <time>2016-09-25T16:37:35Z</time>
      </trkpt>
      <trkpt lat="43.96477" lon="0.4936">
        <ele>205.02</ele>
        <time>2016-09-25T16:37:55Z</time>
      </trkpt>
      <trkpt lat="43.96501" lon="0.49203">
        <ele>200.931</ele>
        <time>2016-09-25T16:38:15Z</time>
      </trkpt>
      <trkpt lat="43.96558" lon="0.4913">
        <ele>204.484</ele>
        <time>2016-09-25T16:38:35Z</time>
      </trkpt>
      <trkpt lat="43.966" lon="0.49062">
        <ele>204.163</ele>
        <time>2016-09-25T16:38:55Z</time>
      </trkpt>
      <trkpt lat="43.96767" lon="0.48961">
        <ele>202.417</ele>
        <time>2016-09-25T16:39:15Z</time>
      </trkpt>
      <trkpt lat="43.9685" lon="0.4906">
        <ele>205.087</ele>
        <time>2016-09-25T16:39:35Z</time>
      </trkpt>
      <trkpt lat="43.96985" lon="0.48961">
        <ele>209.815</ele>
        <time>2016-09-25T16:39:55Z</time>
      </trkpt>
      <trkpt lat="43.9705" lon="0.48881">
        <ele>210.008</ele>
        <time>2016-09-25T16:40:15Z</time>
      </trkpt>
      <trkpt lat="43.97084" lon="0.48817">
        <ele>210.087</ele>
        <time>2016-09-25T16:40:35Z</time>
      </trkpt>
      <trkpt lat="43.97229" lon="0.48718">
        <ele>210.094</ele>
        <time>2016-09-25T16:40:55Z</time>
      </trkpt>
      <trkpt lat="43.97328" lon="0.48716">
        <ele>210.073</ele>
        <time>2016-09-25T16:41:15Z</time>
      </trkpt>
      <trkpt lat="43.97426" lon="0.48665">
        <ele>210.092</ele>
        <time>2016-09-25T16:41:35Z</time>
      </trkpt>
      <trkpt lat="43.97428" lon="0.48723">
        <ele>208.648</ele>
        <time>2016-09-25T16:41:55Z</time>
      </trkpt>
      <trkpt lat="43.97511" lon="0.49165">
        <ele>191.539</ele>
        <time>2016-09-25T16:42:15Z</time>
      </trkpt>
      <trkpt lat="43.97775" lon="0.49426">
        <ele>181.192</ele>
        <time>2016-09-25T16:42:35Z</time>
      </trkpt>
      <trkpt lat="43.97927" lon="0.49514">
        <ele>180.041</ele>
        <time>2016-09-25T16:42:55Z</time>
      </trkpt>
      <trkpt lat="43.98049" lon="0.49523">
        <ele>185.141</ele>
        <time>2021-01-03T12:32:00Z</time>
      </trkpt>
      <trkpt lat="43.98009" lon="0.49694">
        <ele>180.081</ele>
        <time>2021-01-03T12:32:20Z</time>
      </trkpt>
      <trkpt lat="43.98111" lon="0.49785">
        <ele>182.009</ele>
        <time>2021-01-03T12:32:40Z</time>
      </trkpt>
      <trkpt lat="43.9811" lon="0.49834">
        <ele>183.008</ele>
        <time>2021-01-03T12:33:00Z</time>
      </trkpt>
      <trkpt lat="43.98143" lon="0.49912">
        <ele>184.94</ele>
        <time>2021-01-03T12:33:20Z</time>
      </trkpt>
      <trkpt lat="43.98184" lon="0.49821">
        <ele>183.197</ele>
        <time>2021-01-03T12:33:40Z</time>
      </trkpt>
      <trkpt lat="43.98203" lon="0.49742">
        <ele>183.736</ele>
        <time>2021-01-03T12:34:00Z</time>
      </trkpt>
      <trkpt lat="43.98267" lon="0.49798">
        <ele>180.445</ele>
        <time>2021-01-03T12:34:20Z</time>
      </trkpt>
      <trkpt lat="43.98269" lon="0.49757">
        <ele>180.351</ele>
        <time>2021-01-03T12:34:40Z</time>
      </trkpt>
      <trkpt lat="43.98261" lon="0.49682">
        <ele>181.192</ele>
        <time>2021-01-03T12:35:00Z</time>
      </trkpt>
      <trkpt lat="43.98216" lon="0.49544">
        <ele>186.865</ele>
        <time>2021-01-03T12:35:20Z</time>
      </trkpt>
      <trkpt lat="43.98194" lon="0.49497">
        <ele>190.044</ele>
        <time>2016-09-25T16:43:35Z</time>
      </trkpt>
      <trkpt lat="43.98158" lon="0.49366">
        <ele>192.819</ele>
        <time>2016-09-25T16:43:55Z</time>
      </trkpt>
      <trkpt lat="43.98161" lon="0.49075">
        <ele>201.009</ele>
        <time>2016-09-25T16:44:15Z</time>
      </trkpt>
      <trkpt lat="43.98168" lon="0.48965">
        <ele>203.319</ele>
        <time>2016-09-25T16:44:35Z</time>
      </trkpt>
      <trkpt lat="43.98195" lon="0.48781">
        <ele>206.908</ele>
        <time>2016-09-25T16:44:55Z</time>
      </trkpt>
      <trkpt lat="43.98172" lon="0.48512">
        <ele>210.087</ele>
        <time>2016-09-25T16:45:15Z</time>
      </trkpt>
      <trkpt lat="43.98249" lon="0.48345">
        <ele>207.444</ele>
        <time>2016-09-25T16:45:35Z</time>
      </trkpt>
      <trkpt lat="43.98252" lon="0.48259">
        <ele>205.073</ele>
        <time>2016-09-25T16:45:55Z</time>
      </trkpt>
      <trkpt lat="43.98283" lon="0.48221">
        <ele>202.982</ele>
        <time>2016-09-25T16:46:15Z</time>
      </trkpt>
      <trkpt lat="43.98294" lon="0.48118">
        <ele>194.348</ele>
        <time>2016-09-25T16:46:35Z</time>
      </trkpt>
      <trkpt lat="43.98334" lon="0.47892">
        <ele>179.139</ele>
        <time>2016-09-25T16:46:55Z</time>
      </trkpt>
      <trkpt lat="43.98351" lon="0.47766">
        <ele>175.612</ele>
        <time>2016-09-25T16:47:15Z</time>
      </trkpt>
      <trkpt lat="43.98541" lon="0.47749">
        <ele>180.451</ele>
        <time>2016-09-25T16:47:35Z</time>
      </trkpt>
      <trkpt lat="43.9858" lon="0.47538">
        <ele>176.212</ele>
        <time>2016-09-25T16:47:55Z</time>
      </trkpt>
      <trkpt lat="43.98538" lon="0.47463">
        <ele>172.432</ele>
        <time>2016-09-25T16:48:15Z</time>
      </trkpt>
      <trkpt lat="43.9854" lon="0.47367">
        <ele>169.305</ele>
        <time>2016-09-25T16:48:35Z</time>
      </trkpt>
      <trkpt lat="43.98506" lon="0.47283">
        <ele>165.208</ele>
        <time>2016-09-25T16:48:55Z</time>
      </trkpt>
      <trkpt lat="43.98495" lon="0.47221">
        <ele>163.587</ele>
        <time>2016-09-25T16:49:15Z</time>
      </trkpt>
      <trkpt lat="43.98452" lon="0.47133">
        <ele>156.514</ele>
        <time>2016-09-25T16:49:35Z</time>
      </trkpt>
      <trkpt lat="43.98416" lon="0.47036">
        <ele>155.623</ele>
        <time>2016-09-25T16:49:55Z</time>
      </trkpt>
      <trkpt lat="43.98356" lon="0.4697">
        <ele>150.342</ele>
        <time>2016-09-25T16:50:15Z</time>
      </trkpt>
      <trkpt lat="43.983" lon="0.46794">
        <ele>146.088</ele>
        <time>2016-09-25T16:50:35Z</time>
      </trkpt>
      <trkpt lat="43.98172" lon="0.46695">
        <ele>133.039</ele>
        <time>2016-09-25T16:50:55Z</time>
      </trkpt>
      <trkpt lat="43.98086" lon="0.4648">
        <ele>141.422</ele>
        <time>2016-09-25T16:51:15Z</time>
      </trkpt>
      <trkpt lat="43.98084" lon="0.4636">
        <ele>144.961</ele>
        <time>2016-09-25T16:51:35Z</time>
      </trkpt>
      <trkpt lat="43.98015" lon="0.46266">
        <ele>162.348</ele>
        <time>2016-09-25T16:51:55Z</time>
      </trkpt>
      <trkpt lat="43.9799" lon="0.46189">
        <ele>165.061</ele>
        <time>2016-09-25T16:52:15Z</time>
      </trkpt>
      <trkpt lat="43.97967" lon="0.46225">
        <ele>165.017</ele>
        <time>2016-09-25T16:52:35Z</time>
      </trkpt>
      <trkpt lat="43.97876" lon="0.46174">
        <ele>154.308</ele>
        <time>2016-09-25T16:52:55Z</time>
      </trkpt>
      <trkpt lat="43.97836" lon="0.46126">
        <ele>147.84</ele>
        <time>2016-09-25T16:53:15Z</time>
      </trkpt>
      <trkpt lat="43.97797" lon="0.46109">
        <ele>140.467</ele>
        <time>2016-09-25T16:53:35Z</time>
      </trkpt>
      <trkpt lat="43.97738" lon="0.46113">
        <ele>130.576</ele>
        <time>2016-09-25T16:53:55Z</time>
      </trkpt>
      <trkpt lat="43.97516" lon="0.45968">
        <ele>112.535</ele>
        <time>2016-09-25T16:54:15Z</time>
      </trkpt>
      <trkpt lat="43.97399" lon="0.46006">
        <ele>121.071</ele>
        <time>2016-09-25T16:54:35Z</time>
      </trkpt>
      <trkpt lat="43.97351" lon="0.4604">
        <ele>124.892</ele>
        <time>2016-09-25T16:54:55Z</time>
      </trkpt>
      <trkpt lat="43.97243" lon="0.46028">
        <ele>139.635</ele>
        <time>2016-09-25T16:55:15Z</time>
      </trkpt>
      <trkpt lat="43.97128" lon="0.45912">
        <ele>162.464</ele>
        <time>2016-09-25T16:55:35Z</time>
      </trkpt>
      <trkpt lat="43.97119" lon="0.4585">
        <ele>164.778</ele>
        <time>2016-09-25T16:55:55Z</time>
      </trkpt>
      <trkpt lat="43.97121" lon="0.45794">
        <ele>163.133</ele>
        <time>2016-09-25T16:56:15Z</time>
      </trkpt>
      <trkpt lat="43.97071" lon="0.45669">
        <ele>148.726</ele>
        <time>2016-09-25T16:56:35Z</time>
      </trkpt>
      <trkpt lat="43.9708" lon="0.45628">
        <ele>144.508</ele>
        <time>2016-09-25T16:56:55Z</time>
      </trkpt>
      <trkpt lat="43.97037" lon="0.45208">
        <ele>102.083</ele>
        <time>2016-09-25T16:57:15Z</time>
      </trkpt>
      <trkpt lat="43.96975" lon="0.45075">
        <ele>104.28</ele>
        <time>2016-09-25T16:57:35Z</time>
      </trkpt>
      <trkpt lat="43.96906" lon="0.45045">
        <ele>105.429</ele>
        <time>2016-09-25T16:57:55Z</time>
      </trkpt>
      <trkpt lat="43.96824" lon="0.45032">
        <ele>104.028</ele>
        <time>2016-09-25T16:58:15Z</time>
      </trkpt>
      <trkpt lat="43.96773" lon="0.45008">
        <ele>109.634</ele>
        <time>2016-09-25T16:58:35Z</time>
      </trkpt>
      <trkpt lat="43.96645" lon="0.448">
        <ele>120.525</ele>
        <time>2016-09-25T16:58:55Z</time>
      </trkpt>
      <trkpt lat="43.96563" lon="0.44717">
        <ele>133.458</ele>
        <time>2016-09-25T16:59:15Z</time>
      </trkpt>
      <trkpt lat="43.96528" lon="0.44652">
        <ele>139.537</ele>
        <time>2016-09-25T16:59:35Z</time>
      </trkpt>
      <trkpt lat="43.96501" lon="0.44633">
        <ele>142.148</ele>
        <time>2016-09-25T16:59:55Z</time>
      </trkpt>
      <trkpt lat="43.96483" lon="0.44646">
        <ele>143.661</ele>
        <time>2016-09-25T17:00:15Z</time>
      </trkpt>
      <trkpt lat="43.9644" lon="0.44611">
        <ele>150.317</ele>
        <time>2016-09-25T17:00:35Z</time>
      </trkpt>
      <trkpt lat="43.96461" lon="0.44393">
        <ele>153.108</ele>
        <time>2016-09-25T17:00:55Z</time>
      </trkpt>
      <trkpt lat="43.96386" lon="0.44324">
        <ele>160.47</ele>
        <time>2016-09-25T17:01:15Z</time>
      </trkpt>
      <trkpt lat="43.96342" lon="0.44234">
        <ele>164.697</ele>
        <time>2016-09-25T17:01:35Z</time>
      </trkpt>
      <trkpt lat="43.96387" lon="0.44163">
        <ele>165.096</ele>
        <time>2016-09-25T17:01:55Z</time>
      </trkpt>
      <trkpt lat="43.96389" lon="0.44118">
        <ele>165.065</ele>
        <time>2016-09-25T17:02:15Z</time>
      </trkpt>
      <trkpt lat="43.96318" lon="0.44077">
        <ele>164.921</ele>
        <time>2016-09-25T17:02:35Z</time>
      </trkpt>
      <trkpt lat="43.96072" lon="0.44021">
        <ele>163.542</ele>
        <time>2016-09-25T17:02:55Z</time>
      </trkpt>
      <trkpt lat="43.95996" lon="0.44038">
        <ele>163.675</ele>
        <time>2016-09-25T17:03:15Z</time>
      </trkpt>
      <trkpt lat="43.95927" lon="0.44069">
        <ele>163.974</ele>
        <time>2016-09-25T17:03:35Z</time>
      </trkpt>
      <trkpt lat="43.95908" lon="0.43757">
        <ele>148.269</ele>
        <time>2016-09-25T17:03:55Z</time>
      </trkpt>
      <trkpt lat="43.9591" lon="0.43635">
        <ele>144.704</ele>
        <time>2016-09-25T17:04:15Z</time>
      </trkpt>
      <trkpt lat="43.95928" lon="0.43601">
        <ele>142.524</ele>
        <time>2016-09-25T17:04:35Z</time>
      </trkpt>
      <trkpt lat="43.9595" lon="0.43476">
        <ele>135.408</ele>
        <time>2016-09-25T17:04:55Z</time>
      </trkpt>
      <trkpt lat="43.9595" lon="0.43395">
        <ele>125.062</ele>
        <time>2016-09-25T17:05:15Z</time>
      </trkpt>
      <trkpt lat="43.95819" lon="0.43403">
        <ele>126.649</ele>
        <time>2016-09-25T17:05:35Z</time>
      </trkpt>
      <trkpt lat="43.95811" lon="0.43384">
        <ele>125.868</ele>
        <time>2016-09-25T17:05:55Z</time>
      </trkpt>
      <trkpt lat="43.95846" lon="0.43352">
        <ele>125.247</ele>
        <time>2016-09-25T17:06:15Z</time>
      </trkpt>
      <trkpt lat="43.95888" lon="0.43348">
        <ele>123.573</ele>
        <time>2016-09-25T17:06:35Z</time>
      </trkpt>
      <trkpt lat="43.95927" lon="0.43302">
        <ele>124.594</ele>
        <time>2016-09-25T17:06:55Z</time>
      </trkpt>
      <trkpt lat="43.96018" lon="0.43234">
        <ele>125.137</ele>
        <time>2016-09-25T17:07:15Z</time>
      </trkpt>
      <trkpt lat="43.961" lon="0.43189">
        <ele>124.366</ele>
        <time>2016-09-25T17:07:35Z</time>
      </trkpt>
      <trkpt lat="43.96162" lon="0.43103">
        <ele>125.147</ele>
        <time>2016-09-25T17:07:55Z</time>
      </trkpt>
      <trkpt lat="43.96251" lon="0.43032">
        <ele>123.829</ele>
        <time>2016-09-25T17:08:15Z</time>
      </trkpt>
      <trkpt lat="43.96297" lon="0.4294">
        <ele>124.221</ele>
        <time>2016-09-25T17:08:35Z</time>
      </trkpt>
      <trkpt lat="43.96352" lon="0.42882">
        <ele>124.208</ele>
        <time>2016-09-25T17:08:55Z</time>
      </trkpt>
      <trkpt lat="43.96402" lon="0.4283">
        <ele>124.92</ele>
        <time>2016-09-25T17:09:15Z</time>
      </trkpt>
      <trkpt lat="43.96458" lon="0.42704">
        <ele>131.077</ele>
        <time>2016-09-25T17:09:35Z</time>
      </trkpt>
      <trkpt lat="43.96486" lon="0.42543">
        <ele>133.026</ele>
        <time>2016-09-25T17:09:55Z</time>
      </trkpt>
      <trkpt lat="43.96466" lon="0.42425">
        <ele>131.965</ele>
        <time>2016-09-25T17:10:15Z</time>
      </trkpt>
      <trkpt lat="43.96416" lon="0.42234">
        <ele>124.931</ele>
        <time>2016-09-25T17:10:35Z</time>
      </trkpt>
      <trkpt lat="43.96362" lon="0.42099">
        <ele>125.522</ele>
        <time>2016-09-25T17:10:55Z</time>
      </trkpt>
      <trkpt lat="43.96352" lon="0.42015">
        <ele>126.775</ele>
        <time>2016-09-25T17:11:15Z</time>
      </trkpt>
      <trkpt lat="43.96338" lon="0.41953">
        <ele>130.164</ele>
        <time>2016-09-25T17:11:35Z</time>
      </trkpt>
      <trkpt lat="43.96319" lon="0.41648">
        <ele>139.966</ele>
        <time>2016-09-25T17:11:55Z</time>
      </trkpt>
      <trkpt lat="43.96336" lon="0.41537">
        <ele>142.629</ele>
        <time>2016-09-25T17:12:15Z</time>
      </trkpt>
      <trkpt lat="43.96376" lon="0.41444">
        <ele>145.521</ele>
        <time>2016-09-25T17:12:35Z</time>
      </trkpt>
      <trkpt lat="43.96348" lon="0.4135">
        <ele>149.308</ele>
        <time>2016-09-25T17:12:55Z</time>
      </trkpt>
      <trkpt lat="43.9631" lon="0.41152">
        <ele>163.012</ele>
        <time>2016-09-25T17:13:15Z</time>
      </trkpt>
      <trkpt lat="43.96307" lon="0.41101">
        <ele>165.739</ele>
        <time>2016-09-25T17:13:35Z</time>
      </trkpt>
      <trkpt lat="43.96158" lon="0.40511">
        <ele>156.598</ele>
        <time>2016-09-25T17:13:55Z</time>
      </trkpt>
      <trkpt lat="43.96138" lon="0.40378">
        <ele>151.577</ele>
        <time>2016-09-25T17:14:15Z</time>
      </trkpt>
      <trkpt lat="43.96063" lon="0.40034">
        <ele>144.713</ele>
        <time>2016-09-25T17:14:35Z</time>
      </trkpt>
      <trkpt lat="43.96009" lon="0.39751">
        <ele>144.464</ele>
        <time>2016-09-25T17:14:55Z</time>
      </trkpt>
      <trkpt lat="43.95993" lon="0.39573">
        <ele>143.067</ele>
        <time>2016-09-25T17:15:15Z</time>
      </trkpt>
      <trkpt lat="43.95965" lon="0.39361">
        <ele>142.716</ele>
        <time>2016-09-25T17:15:35Z</time>
      </trkpt>
      <trkpt lat="43.95972" lon="0.39165">
        <ele>140.167</ele>
        <time>2016-09-25T17:15:55Z</time>
      </trkpt>
      <trkpt lat="43.95944" lon="0.38949">
        <ele>134.481</ele>
        <time>2016-09-25T17:16:15Z</time>
      </trkpt>
      <trkpt lat="43.95913" lon="0.38603">
        <ele>117.919</ele>
        <time>2016-09-25T17:16:35Z</time>
      </trkpt>
      <trkpt lat="43.95928" lon="0.3849">
        <ele>114.608</ele>
        <time>2016-09-25T17:16:55Z</time>
      </trkpt>
      <trkpt lat="43.95921" lon="0.3826">
        <ele>106.442</ele>
        <time>2016-09-25T17:17:15Z</time>
      </trkpt>
      <trkpt lat="43.95887" lon="0.38234">
        <ele>104.799</ele>
        <time>2016-09-25T17:17:35Z</time>
      </trkpt>
      <trkpt lat="43.95762" lon="0.3806">
        <ele>87.028</ele>
        <time>2016-09-25T17:17:55Z</time>
      </trkpt>
      <trkpt lat="43.95647" lon="0.38013">
        <ele>76.597</ele>
        <time>2016-09-25T17:18:15Z</time>
      </trkpt>
      <trkpt lat="43.95721" lon="0.37653">
        <ele>79.093</ele>
        <time>2016-09-25T17:18:35Z</time>
      </trkpt>
      <trkpt lat="43.95685" lon="0.3758">
        <ele>81.554</ele>
        <time>2021-01-03T13:11:00Z</time>
      </trkpt>
      <trkpt lat="43.95719" lon="0.37524">
        <ele>81.397</ele>
        <time>2021-01-03T13:11:20Z</time>
      </trkpt>
      <trkpt lat="43.95758" lon="0.37371">
        <ele>83.196</ele>
        <time>2021-01-03T13:11:40Z</time>
      </trkpt>
      <trkpt lat="43.95758" lon="0.37221">
        <ele>84.783</ele>
        <time>2021-01-03T13:12:00Z</time>
      </trkpt>
      <trkpt lat="43.95746" lon="0.37179">
        <ele>85.025</ele>
        <time>2021-01-03T13:12:20Z</time>
      </trkpt>
      <trkpt lat="43.95706" lon="0.37153">
        <ele>85.017</ele>
        <time>2021-01-03T13:12:40Z</time>
      </trkpt>
      <trkpt lat="43.95727" lon="0.37085">
        <ele>82.908</ele>
        <time>2021-01-03T13:13:00Z</time>
      </trkpt>
      <trkpt lat="43.95733" lon="0.3699">
        <ele>77.564</ele>
        <time>2021-01-03T13:13:20Z</time>
      </trkpt>
      <trkpt lat="43.95717" lon="0.36951">
        <ele>75.621</ele>
        <time>2021-01-03T13:13:40Z</time>
      </trkpt>
      <trkpt lat="43.95673" lon="0.36911">
        <ele>73.22</ele>
        <time>2021-01-03T13:14:00Z</time>
      </trkpt>
      <trkpt lat="43.95677" lon="0.36842">
        <ele>70.029</ele>
        <time>2021-01-03T13:14:20Z</time>
      </trkpt>
      <trkpt lat="43.95586" lon="0.36826">
        <ele>70.075</ele>
        <time>2021-01-03T13:14:40Z</time>
      </trkpt>
      <trkpt lat="43.95565" lon="0.36796">
        <ele>70.076</ele>
        <time>2021-01-03T13:15:00Z</time>
      </trkpt>
      <trkpt lat="43.95551" lon="0.36618">
        <ele>71.869</ele>
        <time>2016-09-25T17:22:35Z</time>
      </trkpt>
      <trkpt lat="43.95458" lon="0.3647">
        <ele>71.098</ele>
        <time>2016-09-25T17:22:55Z</time>
      </trkpt>
      <trkpt lat="43.95345" lon="0.36429">
        <ele>70.799</ele>
        <time>2016-09-25T17:23:15Z</time>
      </trkpt>
      <trkpt lat="43.95365" lon="0.36324">
        <ele>72.307</ele>
        <time>2016-09-25T17:23:35Z</time>
      </trkpt>
      <trkpt lat="43.95399" lon="0.36258">
        <ele>73.827</ele>
        <time>2016-09-25T17:23:55Z</time>
      </trkpt>
      <trkpt lat="43.95356" lon="0.36223">
        <ele>74.408</ele>
        <time>2016-09-25T17:24:15Z</time>
      </trkpt>
      <trkpt lat="43.95302" lon="0.36219">
        <ele>80.125</ele>
        <time>2016-09-25T17:24:35Z</time>
      </trkpt>
      <trkpt lat="43.95246" lon="0.36174">
        <ele>82.812</ele>
        <time>2016-09-25T17:24:55Z</time>
      </trkpt>
      <trkpt lat="43.95144" lon="0.35889">
        <ele>86.221</ele>
        <time>2016-09-25T17:25:15Z</time>
      </trkpt>
      <trkpt lat="43.95084" lon="0.35779">
        <ele>87.07</ele>
        <time>2016-09-25T17:25:35Z</time>
      </trkpt>
      <trkpt lat="43.95033" lon="0.35759">
        <ele>86.766</ele>
        <time>2021-01-03T13:18:40Z</time>
      </trkpt>
      <trkpt lat="43.94954" lon="0.35758">
        <ele>85.177</ele>
        <time>2021-01-03T13:19:00Z</time>
      </trkpt>
      <trkpt lat="43.94981" lon="0.35614">
        <ele>88.95</ele>
        <time>2016-09-25T17:26:35Z</time>
      </trkpt>
      <trkpt lat="43.94945" lon="0.35571">
        <ele>89.029</ele>
        <time>2016-09-25T17:26:55Z</time>
      </trkpt>
      <trkpt lat="43.94923" lon="0.35522">
        <ele>89.932</ele>
        <time>2016-09-25T17:27:15Z</time>
      </trkpt>
      <trkpt lat="43.94908" lon="0.35442">
        <ele>93.992</ele>
        <time>2016-09-25T17:27:35Z</time>
      </trkpt>
      <trkpt lat="43.94778" lon="0.35333">
        <ele>108.011</ele>
        <time>2016-09-25T17:27:55Z</time>
      </trkpt>
      <trkpt lat="43.94752" lon="0.35251">
        <ele>110.108</ele>
        <time>2016-09-25T17:28:15Z</time>
      </trkpt>
      <trkpt lat="43.94769" lon="0.35103">
        <ele>112.119</ele>
        <time>2016-09-25T17:28:35Z</time>
      </trkpt>
      <trkpt lat="43.9472" lon="0.34745">
        <ele>106.896</ele>
        <time>2016-09-25T17:28:55Z</time>
      </trkpt>
      <trkpt lat="43.94696" lon="0.34644">
        <ele>107.915</ele>
        <time>2016-09-25T17:29:15Z</time>
      </trkpt>
      <trkpt lat="43.94645" lon="0.34552">
        <ele>105.844</ele>
        <time>2016-09-25T17:29:35Z</time>
      </trkpt>
      <trkpt lat="43.94542" lon="0.34509">
        <ele>109.76</ele>
        <time>2016-09-25T17:29:55Z</time>
      </trkpt>
      <trkpt lat="43.94491" lon="0.34445">
        <ele>115.061</ele>
        <time>2016-09-25T17:30:15Z</time>
      </trkpt>
      <trkpt lat="43.94475" lon="0.34331">
        <ele>116.284</ele>
        <time>2016-09-25T17:30:35Z</time>
      </trkpt>
      <trkpt lat="43.94394" lon="0.34009">
        <ele>110.393</ele>
        <time>2016-09-25T17:30:55Z</time>
      </trkpt>
      <trkpt lat="43.94333" lon="0.33895">
        <ele>107.833</ele>
        <time>2016-09-25T17:31:15Z</time>
      </trkpt>
      <trkpt lat="43.94285" lon="0.33586">
        <ele>118.923</ele>
        <time>2016-09-25T17:31:35Z</time>
      </trkpt>
      <trkpt lat="43.94307" lon="0.33301">
        <ele>135.415</ele>
        <time>2016-09-25T17:31:55Z</time>
      </trkpt>
      <trkpt lat="43.94241" lon="0.33217">
        <ele>139.708</ele>
        <time>2016-09-25T17:32:15Z</time>
      </trkpt>
      <trkpt lat="43.94188" lon="0.3311">
        <ele>150.519</ele>
        <time>2016-09-25T17:32:35Z</time>
      </trkpt>
      <trkpt lat="43.94153" lon="0.33069">
        <ele>153.086</ele>
        <time>2016-09-25T17:32:55Z</time>
      </trkpt>
      <trkpt lat="43.94126" lon="0.32932">
        <ele>153.375</ele>
        <time>2016-09-25T17:33:15Z</time>
      </trkpt>
      <trkpt lat="43.94097" lon="0.32857">
        <ele>150.914</ele>
        <time>2016-09-25T17:33:35Z</time>
      </trkpt>
      <trkpt lat="43.94066" lon="0.32668">
        <ele>156.77</ele>
        <time>2016-09-25T17:33:55Z</time>
      </trkpt>
      <trkpt lat="43.94024" lon="0.32556">
        <ele>168.371</ele>
        <time>2016-09-25T17:34:15Z</time>
      </trkpt>
      <trkpt lat="43.9401" lon="0.32451">
        <ele>172.894</ele>
        <time>2016-09-25T17:34:35Z</time>
      </trkpt>
      <trkpt lat="43.94009" lon="0.32359">
        <ele>174.453</ele>
        <time>2016-09-25T17:34:55Z</time>
      </trkpt>
      <trkpt lat="43.93967" lon="0.32159">
        <ele>175.034</ele>
        <time>2016-09-25T17:35:15Z</time>
      </trkpt>
      <trkpt lat="43.93932" lon="0.32054">
        <ele>175.055</ele>
        <time>2016-09-25T17:35:35Z</time>
      </trkpt>
      <trkpt lat="43.93925" lon="0.31923">
        <ele>175.01</ele>
        <time>2016-09-25T17:35:55Z</time>
      </trkpt>
      <trkpt lat="43.93828" lon="0.31754">
        <ele>154.808</ele>
        <time>2016-09-25T17:36:15Z</time>
      </trkpt>
      <trkpt lat="43.93774" lon="0.31627">
        <ele>142.749</ele>
        <time>2016-09-25T17:36:35Z</time>
      </trkpt>
      <trkpt lat="43.93635" lon="0.31513">
        <ele>128.786</ele>
        <time>2016-09-25T17:36:55Z</time>
      </trkpt>
      <trkpt lat="43.93539" lon="0.31355">
        <ele>110.715</ele>
        <time>2016-09-25T17:37:15Z</time>
      </trkpt>
      <trkpt lat="43.93535" lon="0.31307">
        <ele>106.674</ele>
        <time>2016-09-25T17:37:35Z</time>
      </trkpt>
      <trkpt lat="43.93516" lon="0.31295">
        <ele>106.89</ele>
        <time>2016-09-25T17:37:55Z</time>
      </trkpt>
      <trkpt lat="43.93531" lon="0.31219">
        <ele>101.361</ele>
        <time>2016-09-25T17:38:15Z</time>
      </trkpt>
      <trkpt lat="43.93525" lon="0.31129">
        <ele>99.674</ele>
        <time>2016-09-25T17:38:35Z</time>
      </trkpt>
      <trkpt lat="43.93536" lon="0.3091">
        <ele>88.523</ele>
        <time>2016-09-25T17:38:55Z</time>
      </trkpt>
      <trkpt lat="43.93425" lon="0.30726">
        <ele>83.257</ele>
        <time>2016-09-25T17:39:15Z</time>
      </trkpt>
      <trkpt lat="43.93399" lon="0.30565">
        <ele>76.6</ele>
        <time>2016-09-25T17:39:35Z</time>
      </trkpt>
      <trkpt lat="43.93354" lon="0.30475">
        <ele>79.22</ele>
        <time>2016-09-25T17:39:55Z</time>
      </trkpt>
      <trkpt lat="43.93341" lon="0.30325">
        <ele>82.208</ele>
        <time>2016-09-25T17:40:15Z</time>
      </trkpt>
      <trkpt lat="43.93406" lon="0.30305">
        <ele>81.421</ele>
        <time>2016-09-25T17:40:35Z</time>
      </trkpt>
      <trkpt lat="43.93501" lon="0.302">
        <ele>81.858</ele>
        <time>2016-09-25T17:40:55Z</time>
      </trkpt>
      <trkpt lat="43.93587" lon="0.30044">
        <ele>82.197</ele>
        <time>2016-09-25T17:41:15Z</time>
      </trkpt>
      <trkpt lat="43.93777" lon="0.29846">
        <ele>81.646</ele>
        <time>2016-09-25T17:41:35Z</time>
      </trkpt>
      <trkpt lat="43.93703" lon="0.2961">
        <ele>89.032</ele>
        <time>2016-09-25T17:41:55Z</time>
      </trkpt>
      <trkpt lat="43.93721" lon="0.29539">
        <ele>90.063</ele>
        <time>2016-09-25T17:42:15Z</time>
      </trkpt>
      <trkpt lat="43.93789" lon="0.29205">
        <ele>107.986</ele>
        <time>2016-09-25T17:42:35Z</time>
      </trkpt>
      <trkpt lat="43.93827" lon="0.29136">
        <ele>110.095</ele>
        <time>2016-09-25T17:42:55Z</time>
      </trkpt>
      <trkpt lat="43.93856" lon="0.28778">
        <ele>113.275</ele>
        <time>2016-09-25T17:43:15Z</time>
      </trkpt>
      <trkpt lat="43.93856" lon="0.2858">
        <ele>120.428</ele>
        <time>2016-09-25T17:43:35Z</time>
      </trkpt>
      <trkpt lat="43.93884" lon="0.28344">
        <ele>124.82</ele>
        <time>2016-09-25T17:43:55Z</time>
      </trkpt>
      <trkpt lat="43.938" lon="0.28123">
        <ele>125.008</ele>
        <time>2016-09-25T17:44:15Z</time>
      </trkpt>
      <trkpt lat="43.93666" lon="0.27805">
        <ele>125.183</ele>
        <time>2016-09-25T17:44:35Z</time>
      </trkpt>
      <trkpt lat="43.93613" lon="0.27524">
        <ele>132.82</ele>
        <time>2016-09-25T17:44:55Z</time>
      </trkpt>
      <trkpt lat="43.9385" lon="0.27308">
        <ele>121.039</ele>
        <time>2016-09-25T17:45:15Z</time>
      </trkpt>
      <trkpt lat="43.93899" lon="0.27284">
        <ele>125.528</ele>
        <time>2016-09-25T17:45:35Z</time>
      </trkpt>
      <trkpt lat="43.94038" lon="0.2717">
        <ele>137.864</ele>
        <time>2016-09-25T17:45:55Z</time>
      </trkpt>
      <trkpt lat="43.94044" lon="0.26733">
        <ele>141.335</ele>
        <time>2016-09-25T17:46:15Z</time>
      </trkpt>
      <trkpt lat="43.94075" lon="0.26597">
        <ele>151.198</ele>
        <time>2016-09-25T17:46:35Z</time>
      </trkpt>
      <trkpt lat="43.94092" lon="0.26344">
        <ele>161.377</ele>
        <time>2016-09-25T17:46:55Z</time>
      </trkpt>
      <trkpt lat="43.94086" lon="0.26207">
        <ele>162.026</ele>
        <time>2016-09-25T17:47:15Z</time>
      </trkpt>
      <trkpt lat="43.94098" lon="0.26132">
        <ele>162.047</ele>
        <time>2016-09-25T17:47:35Z</time>
      </trkpt>
      <trkpt lat="43.94188" lon="0.25902">
        <ele>161.911</ele>
        <time>2016-09-25T17:47:55Z</time>
      </trkpt>
      <trkpt lat="43.94326" lon="0.25432">
        <ele>155.008</ele>
        <time>2016-09-25T17:48:15Z</time>
      </trkpt>
      <trkpt lat="43.94424" lon="0.25145">
        <ele>153.588</ele>
        <time>2016-09-25T17:48:35Z</time>
      </trkpt>
      <trkpt lat="43.94602" lon="0.24997">
        <ele>153.995</ele>
        <time>2016-09-25T17:48:55Z</time>
      </trkpt>
      <trkpt lat="43.94747" lon="0.24812">
        <ele>150.094</ele>
        <time>2016-09-25T17:49:15Z</time>
      </trkpt>
      <trkpt lat="43.94837" lon="0.24709">
        <ele>150.063</ele>
        <time>2016-09-25T17:49:35Z</time>
      </trkpt>
      <trkpt lat="43.94962" lon="0.24499">
        <ele>150.069</ele>
        <time>2016-09-25T17:49:55Z</time>
      </trkpt>
      <trkpt lat="43.95039" lon="0.24192">
        <ele>140.27</ele>
        <time>2016-09-25T17:50:15Z</time>
      </trkpt>
      <trkpt lat="43.95027" lon="0.24074">
        <ele>138.863</ele>
        <time>2016-09-25T17:50:35Z</time>
      </trkpt>
      <trkpt lat="43.94996" lon="0.23971">
        <ele>129.172</ele>
        <time>2016-09-25T17:50:55Z</time>
      </trkpt>
      <trkpt lat="43.94995" lon="0.23784">
        <ele>115.825</ele>
        <time>2016-09-25T17:51:15Z</time>
      </trkpt>
      <trkpt lat="43.94984" lon="0.23643">
        <ele>106.626</ele>
        <time>2016-09-25T17:51:35Z</time>
      </trkpt>
      <trkpt lat="43.94991" lon="0.23531">
        <ele>100.108</ele>
        <time>2016-09-25T17:51:55Z</time>
      </trkpt>
      <trkpt lat="43.95012" lon="0.23422">
        <ele>99.008</ele>
        <time>2016-09-25T17:52:15Z</time>
      </trkpt>
      <trkpt lat="43.95013" lon="0.23224">
        <ele>111.748</ele>
        <time>2016-09-25T17:52:35Z</time>
      </trkpt>
      <trkpt lat="43.95027" lon="0.2304">
        <ele>126.125</ele>
        <time>2016-09-25T17:52:55Z</time>
      </trkpt>
      <trkpt lat="43.95029" lon="0.22877">
        <ele>134.454</ele>
        <time>2016-09-25T17:53:15Z</time>
      </trkpt>
      <trkpt lat="43.95039" lon="0.22772">
        <ele>136.923</ele>
        <time>2016-09-25T17:53:35Z</time>
      </trkpt>
      <trkpt lat="43.95107" lon="0.22458">
        <ele>143.459</ele>
        <time>2016-09-25T17:53:55Z</time>
      </trkpt>
      <trkpt lat="43.95024" lon="0.22426">
        <ele>151.29</ele>
        <time>2016-09-25T17:54:15Z</time>
      </trkpt>
      <trkpt lat="43.94954" lon="0.22291">
        <ele>155.683</ele>
        <time>2016-09-25T17:54:35Z</time>
      </trkpt>
      <trkpt lat="43.94931" lon="0.22104">
        <ele>158.652</ele>
        <time>2016-09-25T17:54:55Z</time>
      </trkpt>
      <trkpt lat="43.94869" lon="0.2181">
        <ele>162.375</ele>
        <time>2016-09-25T17:55:15Z</time>
      </trkpt>
      <trkpt lat="43.94868" lon="0.2166">
        <ele>157.828</ele>
        <time>2016-09-25T17:55:35Z</time>
      </trkpt>
      <trkpt lat="43.94908" lon="0.21452">
        <ele>149.92</ele>
        <time>2016-09-25T17:55:55Z</time>
      </trkpt>
      <trkpt lat="43.95052" lon="0.20948">
        <ele>134.408</ele>
        <time>2016-09-25T17:56:15Z</time>
      </trkpt>
      <trkpt lat="43.95033" lon="0.20888">
        <ele>131.863</ele>
        <time>2016-09-25T17:56:35Z</time>
      </trkpt>
      <trkpt lat="43.95022" lon="0.20697">
        <ele>131.29</ele>
        <time>2016-09-25T17:56:55Z</time>
      </trkpt>
      <trkpt lat="43.95015" lon="0.20051">
        <ele>119.939</ele>
        <time>2016-09-25T17:57:15Z</time>
      </trkpt>
      <trkpt lat="43.94948" lon="0.20049">
        <ele>113.428</ele>
        <time>2016-09-25T17:57:35Z</time>
      </trkpt>
      <trkpt lat="43.94925" lon="0.19931">
        <ele>106.654</ele>
        <time>2016-09-25T17:57:55Z</time>
      </trkpt>
      <trkpt lat="43.94942" lon="0.19817">
        <ele>106.475</ele>
        <time>2016-09-25T17:58:15Z</time>
      </trkpt>
      <trkpt lat="43.94998" lon="0.19821">
        <ele>110.838</ele>
        <time>2016-09-25T17:58:35Z</time>
      </trkpt>
      <trkpt lat="43.94971" lon="0.19776">
        <ele>101.377</ele>
        <time>2016-09-25T17:58:55Z</time>
      </trkpt>
      <trkpt lat="43.9491" lon="0.19765">
        <ele>89.588</ele>
        <time>2016-09-25T17:59:15Z</time>
      </trkpt>
      <trkpt lat="43.94839" lon="0.19847">
        <ele>83.824</ele>
        <time>2016-09-25T17:59:35Z</time>
      </trkpt>
      <trkpt lat="43.94713" lon="0.19875">
        <ele>87.926</ele>
        <time>2016-09-25T17:59:55Z</time>
      </trkpt>
      <trkpt lat="43.94632" lon="0.19883">
        <ele>85.808</ele>
        <time>2016-09-25T18:00:15Z</time>
      </trkpt>
      <trkpt lat="43.94492" lon="0.1992">
        <ele>86.014</ele>
        <time>2016-09-25T18:00:35Z</time>
      </trkpt>
      <trkpt lat="43.94457" lon="0.19941">
        <ele>86.841</ele>
        <time>2016-09-25T18:00:55Z</time>
      </trkpt>
      <trkpt lat="43.9438" lon="0.19926">
        <ele>89.03</ele>
        <time>2016-09-25T18:01:15Z</time>
      </trkpt>
      <trkpt lat="43.94289" lon="0.19888">
        <ele>91.449</ele>
        <time>2016-09-25T18:01:35Z</time>
      </trkpt>
      <trkpt lat="43.94216" lon="0.19868">
        <ele>89.595</ele>
        <time>2016-09-25T18:01:55Z</time>
      </trkpt>
      <trkpt lat="43.94091" lon="0.19776">
        <ele>86.566</ele>
        <time>2016-09-25T18:02:15Z</time>
      </trkpt>
      <trkpt lat="43.94029" lon="0.19667">
        <ele>86.949</ele>
        <time>2016-09-25T18:02:35Z</time>
      </trkpt>
      <trkpt lat="43.93831" lon="0.19619">
        <ele>86.328</ele>
        <time>2016-09-25T18:02:55Z</time>
      </trkpt>
      <trkpt lat="43.93681" lon="0.19568">
        <ele>85.358</ele>
        <time>2016-09-25T18:03:15Z</time>
      </trkpt>
      <trkpt lat="43.93378" lon="0.19602">
        <ele>86.152</ele>
        <time>2016-09-25T18:03:35Z</time>
      </trkpt>
      <trkpt lat="43.93351" lon="0.19626">
        <ele>89.417</ele>
        <time>2016-09-25T18:03:55Z</time>
      </trkpt>
      <trkpt lat="43.93233" lon="0.19611">
        <ele>87.008</ele>
        <time>2016-09-25T18:04:15Z</time>
      </trkpt>
      <trkpt lat="43.93122" lon="0.19598">
        <ele>91.681</ele>
        <time>2016-09-25T18:04:35Z</time>
      </trkpt>
      <trkpt lat="43.93076" lon="0.19536">
        <ele>85.328</ele>
        <time>2016-09-25T18:04:55Z</time>
      </trkpt>
      <trkpt lat="43.92881" lon="0.19564">
        <ele>92.957</ele>
        <time>2016-09-25T18:05:15Z</time>
      </trkpt>
      <trkpt lat="43.9272" lon="0.19538">
        <ele>102.686</ele>
        <time>2016-09-25T18:05:35Z</time>
      </trkpt>
      <trkpt lat="43.92675" lon="0.19598">
        <ele>107.972</ele>
        <time>2016-09-25T18:05:55Z</time>
      </trkpt>
      <trkpt lat="43.92411" lon="0.19714">
        <ele>99.463</ele>
        <time>2016-09-25T18:06:15Z</time>
      </trkpt>
      <trkpt lat="43.9232" lon="0.19782">
        <ele>96.076</ele>
        <time>2016-09-25T18:06:35Z</time>
      </trkpt>
      <trkpt lat="43.92255" lon="0.19879">
        <ele>95.495</ele>
        <time>2016-09-25T18:06:55Z</time>
      </trkpt>
      <trkpt lat="43.92161" lon="0.20115">
        <ele>98.851</ele>
        <time>2016-09-25T18:07:15Z</time>
      </trkpt>
      <trkpt lat="43.92065" lon="0.20248">
        <ele>91.501</ele>
        <time>2016-09-25T18:07:35Z</time>
      </trkpt>
      <trkpt lat="43.92083" lon="0.20051">
        <ele>87.011</ele>
        <time>2016-09-25T18:07:55Z</time>
      </trkpt>
      <trkpt lat="43.9212" lon="0.19553">
        <ele>90.408</ele>
        <time>2016-09-25T18:08:15Z</time>
      </trkpt>
      <trkpt lat="43.92006" lon="0.19424">
        <ele>104.061</ele>
        <time>2016-09-25T18:08:35Z</time>
      </trkpt>
      <trkpt lat="43.91974" lon="0.19351">
        <ele>106.468</ele>
        <time>2016-09-25T18:08:55Z</time>
      </trkpt>
      <trkpt lat="43.9185" lon="0.1936">
        <ele>108.967</ele>
        <time>2016-09-25T18:09:15Z</time>
      </trkpt>
      <trkpt lat="43.91821" lon="0.1921">
        <ele>115.216</ele>
        <time>2016-09-25T18:09:35Z</time>
      </trkpt>
      <trkpt lat="43.91818" lon="0.1907">
        <ele>119.032</ele>
        <time>2016-09-25T18:09:55Z</time>
      </trkpt>
      <trkpt lat="43.91822" lon="0.18993">
        <ele>121.153</ele>
        <time>2016-09-25T18:10:15Z</time>
      </trkpt>
      <trkpt lat="43.91787" lon="0.18733">
        <ele>124.076</ele>
        <time>2016-09-25T18:10:35Z</time>
      </trkpt>
      <trkpt lat="43.91814" lon="0.18547">
        <ele>129.365</ele>
        <time>2016-09-25T18:10:55Z</time>
      </trkpt>
      <trkpt lat="43.91638" lon="0.183">
        <ele>137.559</ele>
        <time>2016-09-25T18:11:15Z</time>
      </trkpt>
      <trkpt lat="43.91538" lon="0.18235">
        <ele>143.503</ele>
        <time>2016-09-25T18:11:35Z</time>
      </trkpt>
      <trkpt lat="43.91507" lon="0.18173">
        <ele>140.523</ele>
        <time>2016-09-25T18:11:55Z</time>
      </trkpt>
      <trkpt lat="43.91433" lon="0.17986">
        <ele>140.008</ele>
        <time>2016-09-25T18:12:15Z</time>
      </trkpt>
      <trkpt lat="43.91205" lon="0.17718">
        <ele>146.381</ele>
        <time>2016-09-25T18:12:35Z</time>
      </trkpt>
      <trkpt lat="43.91184" lon="0.1763">
        <ele>145.068</ele>
        <time>2016-09-25T18:12:55Z</time>
      </trkpt>
      <trkpt lat="43.91188" lon="0.17465">
        <ele>145.077</ele>
        <time>2016-09-25T18:13:15Z</time>
      </trkpt>
      <trkpt lat="43.91184" lon="0.1725">
        <ele>143.456</ele>
        <time>2016-09-25T18:13:35Z</time>
      </trkpt>
      <trkpt lat="43.91117" lon="0.16989">
        <ele>152.572</ele>
        <time>2016-09-25T18:13:55Z</time>
      </trkpt>
      <trkpt lat="43.91101" lon="0.16878">
        <ele>154.073</ele>
        <time>2021-01-03T14:07:00Z</time>
      </trkpt>
      <trkpt lat="43.90932" lon="0.16564">
        <ele>156.466</ele>
        <time>2021-01-03T14:07:20Z</time>
      </trkpt>
      <trkpt lat="43.91103" lon="0.1657">
        <ele>159.995</ele>
        <time>2016-09-25T18:15:15Z</time>
      </trkpt>
      <trkpt lat="43.91113" lon="0.16388">
        <ele>157.041</ele>
        <time>2016-09-25T18:15:35Z</time>
      </trkpt>
      <trkpt lat="43.9114" lon="0.16315">
        <ele>155.481</ele>
        <time>2016-09-25T18:15:55Z</time>
      </trkpt>
      <trkpt lat="43.91128" lon="0.16268">
        <ele>153.709</ele>
        <time>2016-09-25T18:16:15Z</time>
      </trkpt>
      <trkpt lat="43.91142" lon="0.16068">
        <ele>138.508</ele>
        <time>2016-09-25T18:16:35Z</time>
      </trkpt>
      <trkpt lat="43.91105" lon="0.15916">
        <ele>136.05</ele>
        <time>2016-09-25T18:16:55Z</time>
      </trkpt>
      <trkpt lat="43.91127" lon="0.1569">
        <ele>131.027</ele>
        <time>2016-09-25T18:17:15Z</time>
      </trkpt>
      <trkpt lat="43.91035" lon="0.1566">
        <ele>130.756</ele>
        <time>2016-09-25T18:17:35Z</time>
      </trkpt>
      <trkpt lat="43.90972" lon="0.15622">
        <ele>129.455</ele>
        <time>2016-09-25T18:17:55Z</time>
      </trkpt>
      <trkpt lat="43.90941" lon="0.15622">
        <ele>129.051</ele>
        <time>2016-09-25T18:18:15Z</time>
      </trkpt>
      <trkpt lat="43.90839" lon="0.15553">
        <ele>129.162</ele>
        <time>2016-09-25T18:18:35Z</time>
      </trkpt>
      <trkpt lat="43.90799" lon="0.1551">
        <ele>128.915</ele>
        <time>2016-09-25T18:18:55Z</time>
      </trkpt>
      <trkpt lat="43.90562" lon="0.15439">
        <ele>145.934</ele>
        <time>2016-09-25T18:19:15Z</time>
      </trkpt>
      <trkpt lat="43.90505" lon="0.15409">
        <ele>151.095</ele>
        <time>2016-09-25T18:19:35Z</time>
      </trkpt>
      <trkpt lat="43.90487" lon="0.1542">
        <ele>152.949</ele>
        <time>2021-01-03T14:12:20Z</time>
      </trkpt>
      <trkpt lat="43.90456" lon="0.15414">
        <ele>154.023</ele>
        <time>2021-01-03T14:12:40Z</time>
      </trkpt>
      <trkpt lat="43.90442" lon="0.15427">
        <ele>155.508</ele>
        <time>2021-01-03T14:13:00Z</time>
      </trkpt>
      <trkpt lat="43.90439" lon="0.15364">
        <ele>149.035</ele>
        <time>2016-09-25T18:20:15Z</time>
      </trkpt>
      <trkpt lat="43.90464" lon="0.15347">
        <ele>147.072</ele>
        <time>2021-01-03T14:13:40Z</time>
      </trkpt>
      <trkpt lat="43.90446" lon="0.15176">
        <ele>123.541</ele>
        <time>2016-09-25T18:20:55Z</time>
      </trkpt>
      <trkpt lat="43.90419" lon="0.15158">
        <ele>119.86</ele>
        <time>2016-09-25T18:21:15Z</time>
      </trkpt>
      <trkpt lat="43.90398" lon="0.1513">
        <ele>118.266</ele>
        <time>2016-09-25T18:21:35Z</time>
      </trkpt>
      <trkpt lat="43.90293" lon="0.151">
        <ele>116.847</ele>
        <time>2016-09-25T18:21:55Z</time>
      </trkpt>
      <trkpt lat="43.90187" lon="0.15034">
        <ele>115.25</ele>
        <time>2016-09-25T18:22:15Z</time>
      </trkpt>
      <trkpt lat="43.90092" lon="0.14924">
        <ele>121.739</ele>
        <time>2016-09-25T18:22:35Z</time>
      </trkpt>
      <trkpt lat="43.90024" lon="0.14787">
        <ele>123.576</ele>
        <time>2016-09-25T18:22:55Z</time>
      </trkpt>
      <trkpt lat="43.89986" lon="0.14549">
        <ele>123.39</ele>
        <time>2016-09-25T18:23:15Z</time>
      </trkpt>
      <trkpt lat="43.8991" lon="0.13785">
        <ele>123.619</ele>
        <time>2016-09-25T18:23:35Z</time>
      </trkpt>
      <trkpt lat="43.89888" lon="0.13395">
        <ele>125.008</ele>
        <time>2016-09-25T18:23:55Z</time>
      </trkpt>
      <trkpt lat="43.89876" lon="0.13289">
        <ele>127.123</ele>
        <time>2016-09-25T18:24:15Z</time>
      </trkpt>
      <trkpt lat="43.89837" lon="0.13178">
        <ele>125.61</ele>
        <time>2016-09-25T18:24:35Z</time>
      </trkpt>
      <trkpt lat="43.89809" lon="0.13154">
        <ele>126.519</ele>
        <time>2016-09-25T18:24:55Z</time>
      </trkpt>
      <trkpt lat="43.89769" lon="0.13075">
        <ele>128.778</ele>
        <time>2016-09-25T18:25:15Z</time>
      </trkpt>
      <trkpt lat="43.89738" lon="0.13058">
        <ele>127.594</ele>
        <time>2016-09-25T18:25:35Z</time>
      </trkpt>
      <trkpt lat="43.89604" lon="0.12873">
        <ele>131.695</ele>
        <time>2016-09-25T18:25:55Z</time>
      </trkpt>
      <trkpt lat="43.89188" lon="0.12362">
        <ele>136.648</ele>
        <time>2016-09-25T18:26:15Z</time>
      </trkpt>
      <trkpt lat="43.88957" lon="0.11995">
        <ele>136.257</ele>
        <time>2016-09-25T18:26:35Z</time>
      </trkpt>
      <trkpt lat="43.88758" lon="0.11551">
        <ele>143.675</ele>
        <time>2016-09-25T18:26:55Z</time>
      </trkpt>
      <trkpt lat="43.88673" lon="0.113">
        <ele>145.928</ele>
        <time>2016-09-25T18:27:15Z</time>
      </trkpt>
      <trkpt lat="43.88628" lon="0.11045">
        <ele>150.62</ele>
        <time>2016-09-25T18:27:35Z</time>
      </trkpt>
      <trkpt lat="43.88565" lon="0.1074">
        <ele>156.608</ele>
        <time>2016-09-25T18:27:55Z</time>
      </trkpt>
      <trkpt lat="43.88464" lon="0.10596">
        <ele>147.483</ele>
        <time>2016-09-25T18:28:15Z</time>
      </trkpt>
      <trkpt lat="43.8837" lon="0.10551">
        <ele>152.07</ele>
        <time>2016-09-25T18:28:35Z</time>
      </trkpt>
      <trkpt lat="43.88289" lon="0.10556">
        <ele>143.469</ele>
        <time>2016-09-25T18:28:55Z</time>
      </trkpt>
      <trkpt lat="43.87804" lon="0.10687">
        <ele>141.488</ele>
        <time>2016-09-25T18:29:15Z</time>
      </trkpt>
      <trkpt lat="43.8762" lon="0.10706">
        <ele>141.054</ele>
        <time>2016-09-25T18:29:35Z</time>
      </trkpt>
      <trkpt lat="43.87383" lon="0.1083">
        <ele>135.765</ele>
        <time>2016-09-25T18:29:55Z</time>
      </trkpt>
      <trkpt lat="43.87278" lon="0.10852">
        <ele>131.718</ele>
        <time>2016-09-25T18:30:15Z</time>
      </trkpt>
      <trkpt lat="43.87173" lon="0.10828">
        <ele>129.987</ele>
        <time>2016-09-25T18:30:35Z</time>
      </trkpt>
      <trkpt lat="43.87069" lon="0.10781">
        <ele>130.041</ele>
        <time>2016-09-25T18:30:55Z</time>
      </trkpt>
      <trkpt lat="43.8669" lon="0.10603">
        <ele>137.981</ele>
        <time>2016-09-25T18:31:15Z</time>
      </trkpt>
      <trkpt lat="43.86599" lon="0.10581">
        <ele>135.609</ele>
        <time>2016-09-25T18:31:35Z</time>
      </trkpt>
      <trkpt lat="43.8651" lon="0.1059">
        <ele>136.008</ele>
        <time>2016-09-25T18:31:55Z</time>
      </trkpt>
      <trkpt lat="43.86428" lon="0.10624">
        <ele>138.36</ele>
        <time>2016-09-25T18:32:15Z</time>
      </trkpt>
      <trkpt lat="43.86312" lon="0.10753">
        <ele>139.787</ele>
        <time>2016-09-25T18:32:35Z</time>
      </trkpt>
      <trkpt lat="43.86227" lon="0.10689">
        <ele>143.286</ele>
        <time>2016-09-25T18:32:55Z</time>
      </trkpt>
      <trkpt lat="43.86165" lon="0.10581">
        <ele>147.135</ele>
        <time>2016-09-25T18:33:15Z</time>
      </trkpt>
      <trkpt lat="43.8607" lon="0.10036">
        <ele>157.261</ele>
        <time>2016-09-25T18:33:35Z</time>
      </trkpt>
      <trkpt lat="43.85842" lon="0.10049">
        <ele>160.012</ele>
        <time>2016-09-25T18:33:55Z</time>
      </trkpt>
      <trkpt lat="43.85729" lon="0.09996">
        <ele>160.045</ele>
        <time>2016-09-25T18:34:15Z</time>
      </trkpt>
      <trkpt lat="43.85513" lon="0.09843">
        <ele>157.474</ele>
        <time>2016-09-25T18:34:35Z</time>
      </trkpt>
      <trkpt lat="43.8557" lon="0.09755">
        <ele>154.669</ele>
        <time>2016-09-25T18:34:55Z</time>
      </trkpt>
      <trkpt lat="43.85642" lon="0.09652">
        <ele>150.004</ele>
        <time>2016-09-25T18:35:15Z</time>
      </trkpt>
      <trkpt lat="43.85559" lon="0.09509">
        <ele>150.024</ele>
        <time>2016-09-25T18:35:35Z</time>
      </trkpt>
      <trkpt lat="43.85509" lon="0.0941">
        <ele>152.708</ele>
        <time>2016-09-25T18:35:55Z</time>
      </trkpt>
      <trkpt lat="43.85423" lon="0.0932">
        <ele>156.732</ele>
        <time>2016-09-25T18:36:15Z</time>
      </trkpt>
      <trkpt lat="43.85331" lon="0.08974">
        <ele>164.929</ele>
        <time>2016-09-25T18:36:35Z</time>
      </trkpt>
      <trkpt lat="43.8527" lon="0.08893">
        <ele>165.068</ele>
        <time>2016-09-25T18:36:55Z</time>
      </trkpt>
      <trkpt lat="43.85144" lon="0.08693">
        <ele>172.957</ele>
        <time>2016-09-25T18:37:15Z</time>
      </trkpt>
      <trkpt lat="43.85016" lon="0.08519">
        <ele>177.443</ele>
        <time>2016-09-25T18:37:35Z</time>
      </trkpt>
      <trkpt lat="43.85022" lon="0.0844">
        <ele>173.874</ele>
        <time>2016-09-25T18:37:55Z</time>
      </trkpt>
      <trkpt lat="43.84949" lon="0.08386">
        <ele>177.767</ele>
        <time>2016-09-25T18:38:15Z</time>
      </trkpt>
      <trkpt lat="43.8496" lon="0.0835">
        <ele>176.146</ele>
        <time>2016-09-25T18:38:35Z</time>
      </trkpt>
      <trkpt lat="43.84925" lon="0.08187">
        <ele>165.981</ele>
        <time>2016-09-25T18:38:55Z</time>
      </trkpt>
      <trkpt lat="43.84931" lon="0.08094">
        <ele>164.061</ele>
        <time>2016-09-25T18:39:15Z</time>
      </trkpt>
      <trkpt lat="43.84955" lon="0.07981">
        <ele>162.017</ele>
        <time>2016-09-25T18:39:35Z</time>
      </trkpt>
      <trkpt lat="43.84904" lon="0.07908">
        <ele>169.408</ele>
        <time>2016-09-25T18:39:55Z</time>
      </trkpt>
      <trkpt lat="43.8476" lon="0.07783">
        <ele>172.134</ele>
        <time>2016-09-25T18:40:15Z</time>
      </trkpt>
      <trkpt lat="43.84725" lon="0.07698">
        <ele>168.291</ele>
        <time>2016-09-25T18:40:35Z</time>
      </trkpt>
      <trkpt lat="43.84641" lon="0.07612">
        <ele>163.25</ele>
        <time>2016-09-25T18:40:55Z</time>
      </trkpt>
      <trkpt lat="43.84507" lon="0.075">
        <ele>161.249</ele>
        <time>2016-09-25T18:41:15Z</time>
      </trkpt>
      <trkpt lat="43.84389" lon="0.07421">
        <ele>158.045</ele>
        <time>2016-09-25T18:41:35Z</time>
      </trkpt>
      <trkpt lat="43.84372" lon="0.07365">
        <ele>156.976</ele>
        <time>2016-09-25T18:41:55Z</time>
      </trkpt>
      <trkpt lat="43.84323" lon="0.07294">
        <ele>149.449</ele>
        <time>2016-09-25T18:42:15Z</time>
      </trkpt>
      <trkpt lat="43.84245" lon="0.07217">
        <ele>138.558</ele>
        <time>2016-09-25T18:42:35Z</time>
      </trkpt>
      <trkpt lat="43.84276" lon="0.07099">
        <ele>135.519</ele>
        <time>2016-09-25T18:42:55Z</time>
      </trkpt>
      <trkpt lat="43.84148" lon="0.07052">
        <ele>133.609</ele>
        <time>2016-09-25T18:43:15Z</time>
      </trkpt>
      <trkpt lat="43.84087" lon="0.06942">
        <ele>130.319</ele>
        <time>2016-09-25T18:43:35Z</time>
      </trkpt>
      <trkpt lat="43.84001" lon="0.06816">
        <ele>127.008</ele>
        <time>2016-09-25T18:43:55Z</time>
      </trkpt>
      <trkpt lat="43.83991" lon="0.06758">
        <ele>127.037</ele>
        <time>2016-09-25T18:44:15Z</time>
      </trkpt>
      <trkpt lat="43.84027" lon="0.067">
        <ele>127.044</ele>
        <time>2016-09-25T18:44:35Z</time>
      </trkpt>
      <trkpt lat="43.84021" lon="0.06603">
        <ele>127.093</ele>
        <time>2016-09-25T18:44:55Z</time>
      </trkpt>
      <trkpt lat="43.839" lon="0.06532">
        <ele>135.392</ele>
        <time>2016-09-25T18:45:15Z</time>
      </trkpt>
      <trkpt lat="43.8385" lon="0.06519">
        <ele>141.198</ele>
        <time>2016-09-25T18:45:35Z</time>
      </trkpt>
      <trkpt lat="43.83843" lon="0.06483">
        <ele>142.339</ele>
        <time>2016-09-25T18:45:55Z</time>
      </trkpt>
      <trkpt lat="43.83816" lon="0.06466">
        <ele>145.542</ele>
        <time>2016-09-25T18:46:15Z</time>
      </trkpt>
      <trkpt lat="43.83764" lon="0.06389">
        <ele>148.521</ele>
        <time>2016-09-25T18:46:35Z</time>
      </trkpt>
      <trkpt lat="43.83708" lon="0.06374">
        <ele>152.587</ele>
        <time>2016-09-25T18:46:55Z</time>
      </trkpt>
      <trkpt lat="43.83702" lon="0.06344">
        <ele>151.542</ele>
        <time>2016-09-25T18:47:15Z</time>
      </trkpt>
      <trkpt lat="43.83626" lon="0.06232">
        <ele>152.326</ele>
        <time>2016-09-25T18:47:35Z</time>
      </trkpt>
      <trkpt lat="43.83539" lon="0.06165">
        <ele>156.208</ele>
        <time>2016-09-25T18:47:55Z</time>
      </trkpt>
      <trkpt lat="43.83433" lon="0.06035">
        <ele>163.214</ele>
        <time>2016-09-25T18:48:15Z</time>
      </trkpt>
      <trkpt lat="43.8336" lon="0.05917">
        <ele>155.011</ele>
        <time>2016-09-25T18:48:35Z</time>
      </trkpt>
      <trkpt lat="43.83282" lon="0.05854">
        <ele>155.72</ele>
        <time>2016-09-25T18:48:55Z</time>
      </trkpt>
      <trkpt lat="43.8321" lon="0.05764">
        <ele>163.429</ele>
        <time>2016-09-25T18:49:15Z</time>
      </trkpt>
      <trkpt lat="43.83208" lon="0.05736">
        <ele>164.895</ele>
        <time>2016-09-25T18:49:35Z</time>
      </trkpt>
      <trkpt lat="43.83148" lon="0.05663">
        <ele>170.026</ele>
        <time>2016-09-25T18:49:55Z</time>
      </trkpt>
      <trkpt lat="43.8307" lon="0.05775">
        <ele>175.089</ele>
        <time>2016-09-25T18:50:15Z</time>
      </trkpt>
      <trkpt lat="43.83021" lon="0.05429">
        <ele>169.118</ele>
        <time>2016-09-25T18:50:35Z</time>
      </trkpt>
      <trkpt lat="43.83049" lon="0.05292">
        <ele>164.343</ele>
        <time>2016-09-25T18:50:55Z</time>
      </trkpt>
      <trkpt lat="43.83118" lon="0.05146">
        <ele>160.264</ele>
        <time>2016-09-25T18:51:15Z</time>
      </trkpt>
      <trkpt lat="43.83227" lon="0.04964">
        <ele>156.91</ele>
        <time>2016-09-25T18:51:35Z</time>
      </trkpt>
      <trkpt lat="43.83343" lon="0.04816">
        <ele>157.008</ele>
        <time>2016-09-25T18:51:55Z</time>
      </trkpt>
      <trkpt lat="43.83292" lon="0.04747">
        <ele>154.95</ele>
        <time>2016-09-25T18:52:15Z</time>
      </trkpt>
      <trkpt lat="43.83281" lon="0.04719">
        <ele>153.097</ele>
        <time>2016-09-25T18:52:35Z</time>
      </trkpt>
      <trkpt lat="43.83216" lon="0.04614">
        <ele>142.346</ele>
        <time>2016-09-25T18:52:55Z</time>
      </trkpt>
      <trkpt lat="43.83188" lon="0.04543">
        <ele>135.335</ele>
        <time>2016-09-25T18:53:15Z</time>
      </trkpt>
      <trkpt lat="43.83151" lon="0.04496">
        <ele>134.041</ele>
        <time>2016-09-25T18:53:35Z</time>
      </trkpt>
      <trkpt lat="43.83104" lon="0.04472">
        <ele>135.062</ele>
        <time>2016-09-25T18:53:55Z</time>
      </trkpt>
      <trkpt lat="43.83069" lon="0.04496">
        <ele>137.055</ele>
        <time>2016-09-25T18:54:15Z</time>
      </trkpt>
      <trkpt lat="43.83004" lon="0.04502">
        <ele>141.434</ele>
        <time>2016-09-25T18:54:35Z</time>
      </trkpt>
      <trkpt lat="43.82747" lon="0.04374">
        <ele>156.053</ele>
        <time>2016-09-25T18:54:55Z</time>
      </trkpt>
      <trkpt lat="43.82628" lon="0.04354">
        <ele>156.304</ele>
        <time>2016-09-25T18:55:15Z</time>
      </trkpt>
      <trkpt lat="43.82573" lon="0.04359">
        <ele>157.114</ele>
        <time>2016-09-25T18:55:35Z</time>
      </trkpt>
      <trkpt lat="43.82519" lon="0.04348">
        <ele>159.108</ele>
        <time>2016-09-25T18:55:55Z</time>
      </trkpt>
      <trkpt lat="43.82386" lon="0.0438">
        <ele>164.431</ele>
        <time>2016-09-25T18:56:15Z</time>
      </trkpt>
      <trkpt lat="43.82309" lon="0.04346">
        <ele>161.318</ele>
        <time>2016-09-25T18:56:35Z</time>
      </trkpt>
      <trkpt lat="43.82207" lon="0.04264">
        <ele>149.717</ele>
        <time>2016-09-25T18:56:55Z</time>
      </trkpt>
      <trkpt lat="43.82111" lon="0.04138">
        <ele>136.996</ele>
        <time>2016-09-25T18:57:15Z</time>
      </trkpt>
      <trkpt lat="43.82005" lon="0.04011">
        <ele>130.452</ele>
        <time>2016-09-25T18:57:35Z</time>
      </trkpt>
      <trkpt lat="43.81962" lon="0.03902">
        <ele>128.653</ele>
        <time>2016-09-25T18:57:55Z</time>
      </trkpt>
      <trkpt lat="43.81889" lon="0.03807">
        <ele>126.086</ele>
        <time>2016-09-25T18:58:15Z</time>
      </trkpt>
      <trkpt lat="43.81785" lon="0.03548">
        <ele>119.225</ele>
        <time>2016-09-25T18:58:35Z</time>
      </trkpt>
      <trkpt lat="43.81665" lon="0.03554">
        <ele>119.017</ele>
        <time>2016-09-25T18:58:55Z</time>
      </trkpt>
      <trkpt lat="43.81516" lon="0.03627">
        <ele>136.887</ele>
        <time>2016-09-25T18:59:15Z</time>
      </trkpt>
      <trkpt lat="43.81372" lon="0.03601">
        <ele>142.415</ele>
        <time>2016-09-25T18:59:35Z</time>
      </trkpt>
      <trkpt lat="43.80993" lon="0.03676">
        <ele>149.808</ele>
        <time>2016-09-25T18:59:55Z</time>
      </trkpt>
      <trkpt lat="43.80756" lon="0.03792">
        <ele>153.297</ele>
        <time>2016-09-25T19:00:15Z</time>
      </trkpt>
      <trkpt lat="43.80599" lon="0.03837">
        <ele>139.254</ele>
        <time>2016-09-25T19:00:35Z</time>
      </trkpt>
      <trkpt lat="43.80503" lon="0.03797">
        <ele>134.433</ele>
        <time>2016-09-25T19:00:55Z</time>
      </trkpt>
      <trkpt lat="43.80434" lon="0.0379">
        <ele>132.272</ele>
        <time>2016-09-25T19:01:15Z</time>
      </trkpt>
      <trkpt lat="43.80362" lon="0.03842">
        <ele>134.088</ele>
        <time>2016-09-25T19:01:35Z</time>
      </trkpt>
      <trkpt lat="43.80254" lon="0.04011">
        <ele>130.159</ele>
        <time>2016-09-25T19:01:55Z</time>
      </trkpt>
      <trkpt lat="43.80127" lon="0.04127">
        <ele>132.832</ele>
        <time>2021-01-03T14:55:20Z</time>
      </trkpt>
      <trkpt lat="43.80062" lon="0.04144">
        <ele>133.121</ele>
        <time>2021-01-03T14:55:40Z</time>
      </trkpt>
      <trkpt lat="43.80019" lon="0.0417">
        <ele>134.328</ele>
        <time>2021-01-03T14:56:00Z</time>
      </trkpt>
      <trkpt lat="43.79998" lon="0.04098">
        <ele>132.689</ele>
        <time>2021-01-03T14:56:20Z</time>
      </trkpt>
      <trkpt lat="43.79956" lon="0.04122">
        <ele>135.617</ele>
        <time>2021-01-03T14:56:40Z</time>
      </trkpt>
      <trkpt lat="43.79936" lon="0.04064">
        <ele>132.908</ele>
        <time>2021-01-03T14:57:00Z</time>
      </trkpt>
      <trkpt lat="43.79897" lon="0.0404">
        <ele>131.058</ele>
        <time>2021-01-03T14:57:20Z</time>
      </trkpt>
      <trkpt lat="43.79806" lon="0.03931">
        <ele>123.185</ele>
        <time>2021-01-03T14:57:40Z</time>
      </trkpt>
      <trkpt lat="43.79766" lon="0.03829">
        <ele>119.064</ele>
        <time>2021-01-03T14:58:00Z</time>
      </trkpt>
      <trkpt lat="43.79762" lon="0.03804">
        <ele>119.083</ele>
        <time>2021-01-03T14:58:20Z</time>
      </trkpt>
      <trkpt lat="43.79737" lon="0.03754">
        <ele>118.139</ele>
        <time>2021-01-03T14:58:40Z</time>
      </trkpt>
      <trkpt lat="43.79556" lon="0.03292">
        <ele>120.03</ele>
        <time>2016-09-25T19:03:15Z</time>
      </trkpt>
      <trkpt lat="43.79483" lon="0.0317">
        <ele>120.063</ele>
        <time>2016-09-25T19:03:35Z</time>
      </trkpt>
      <trkpt lat="43.79407" lon="0.03258">
        <ele>119.862</ele>
        <time>2016-09-25T19:03:55Z</time>
      </trkpt>
      <trkpt lat="43.79328" lon="0.03194">
        <ele>119.824</ele>
        <time>2016-09-25T19:04:15Z</time>
      </trkpt>
      <trkpt lat="43.79106" lon="0.03082">
        <ele>118.904</ele>
        <time>2016-09-25T19:04:35Z</time>
      </trkpt>
      <trkpt lat="43.78979" lon="0.03116">
        <ele>117.214</ele>
        <time>2016-09-25T19:04:55Z</time>
      </trkpt>
      <trkpt lat="43.78922" lon="0.03155">
        <ele>118.608</ele>
        <time>2016-09-25T19:05:15Z</time>
      </trkpt>
      <trkpt lat="43.78821" lon="0.03316">
        <ele>119.358</ele>
        <time>2016-09-25T19:05:35Z</time>
      </trkpt>
      <trkpt lat="43.78626" lon="0.03348">
        <ele>125.925</ele>
        <time>2016-09-25T19:05:55Z</time>
      </trkpt>
      <trkpt lat="43.78584" lon="0.03307">
        <ele>129.924</ele>
        <time>2016-09-25T19:06:15Z</time>
      </trkpt>
      <trkpt lat="43.78383" lon="0.03161">
        <ele>149.243</ele>
        <time>2016-09-25T19:06:35Z</time>
      </trkpt>
      <trkpt lat="43.78231" lon="0.02994">
        <ele>150.439</ele>
        <time>2016-09-25T19:06:55Z</time>
      </trkpt>
      <trkpt lat="43.78244" lon="0.029">
        <ele>150.01</ele>
        <time>2016-09-25T19:07:15Z</time>
      </trkpt>
      <trkpt lat="43.78257" lon="0.02771">
        <ele>148.233</ele>
        <time>2016-09-25T19:07:35Z</time>
      </trkpt>
      <trkpt lat="43.78239" lon="0.02752">
        <ele>148.042</ele>
        <time>2016-09-25T19:07:55Z</time>
      </trkpt>
      <trkpt lat="43.78259" lon="0.0261">
        <ele>145.791</ele>
        <time>2016-09-25T19:08:15Z</time>
      </trkpt>
      <trkpt lat="43.78163" lon="0.02588">
        <ele>142.081</ele>
        <time>2016-09-25T19:08:35Z</time>
      </trkpt>
      <trkpt lat="43.78175" lon="0.02423">
        <ele>141.319</ele>
        <time>2016-09-25T19:08:55Z</time>
      </trkpt>
      <trkpt lat="43.7803" lon="0.02372">
        <ele>134.708</ele>
        <time>2016-09-25T19:09:15Z</time>
      </trkpt>
      <trkpt lat="43.78037" lon="0.02284">
        <ele>136.935</ele>
        <time>2016-09-25T19:09:35Z</time>
      </trkpt>
      <trkpt lat="43.78223" lon="0.01552">
        <ele>130.192</ele>
        <time>2016-09-25T19:09:55Z</time>
      </trkpt>
      <trkpt lat="43.78216" lon="0.015">
        <ele>129.551</ele>
        <time>2021-01-03T15:06:00Z</time>
      </trkpt>
      <trkpt lat="43.78151" lon="0.01341">
        <ele>119.91</ele>
        <time>2021-01-03T15:06:20Z</time>
      </trkpt>
      <trkpt lat="43.7814" lon="0.01274">
        <ele>116.016</ele>
        <time>2021-01-03T15:06:40Z</time>
      </trkpt>
      <trkpt lat="43.78259" lon="0.01268">
        <ele>120.527</ele>
        <time>2021-01-03T15:07:00Z</time>
      </trkpt>
      <trkpt lat="43.78292" lon="0.01095">
        <ele>128.77</ele>
        <time>2016-09-25T19:11:15Z</time>
      </trkpt>
      <trkpt lat="43.78248" lon="0.00994">
        <ele>136.129</ele>
        <time>2016-09-25T19:11:35Z</time>
      </trkpt>
      <trkpt lat="43.78036" lon="0.00921">
        <ele>130.089</ele>
        <time>2016-09-25T19:11:55Z</time>
      </trkpt>
      <trkpt lat="43.77932" lon="0.00906">
        <ele>130.006</ele>
        <time>2016-09-25T19:12:15Z</time>
      </trkpt>
      <trkpt lat="43.77782" lon="0.00801">
        <ele>125.326</ele>
        <time>2016-09-25T19:12:35Z</time>
      </trkpt>
      <trkpt lat="43.77701" lon="0.00792">
        <ele>115.908</ele>
        <time>2016-09-25T19:12:55Z</time>
      </trkpt>
      <trkpt lat="43.77508" lon="0.00653">
        <ele>99.094</ele>
        <time>2016-09-25T19:13:15Z</time>
      </trkpt>
      <trkpt lat="43.77528" lon="0.00589">
        <ele>99.041</ele>
        <time>2016-09-25T19:13:35Z</time>
      </trkpt>
      <trkpt lat="43.77531" lon="0.00486">
        <ele>99.04</ele>
        <time>2016-09-25T19:13:55Z</time>
      </trkpt>
      <trkpt lat="43.77463" lon="0.00316">
        <ele>99.049</ele>
        <time>2016-09-25T19:14:15Z</time>
      </trkpt>
      <trkpt lat="43.77458" lon="0.00252">
        <ele>99.085</ele>
        <time>2016-09-25T19:14:35Z</time>
      </trkpt>
      <trkpt lat="43.77393" lon="0.00202">
        <ele>107.066</ele>
        <time>2016-09-25T19:14:55Z</time>
      </trkpt>
      <trkpt lat="43.77345" lon="0.00258">
        <ele>109.359</ele>
        <time>2016-09-25T19:15:15Z</time>
      </trkpt>
      <trkpt lat="43.77289" lon="0.00243">
        <ele>115.988</ele>
        <time>2016-09-25T19:15:35Z</time>
      </trkpt>
      <trkpt lat="43.77227" lon="0.00179">
        <ele>126.515</ele>
        <time>2016-09-25T19:15:55Z</time>
      </trkpt>
      <trkpt lat="43.77212" lon="0.00138">
        <ele>130.265</ele>
        <time>2016-09-25T19:16:15Z</time>
      </trkpt>
      <trkpt lat="43.77139" lon="0.00046">
        <ele>139.411</ele>
        <time>2016-09-25T19:16:35Z</time>
      </trkpt>
      <trkpt lat="43.77033" lon="0.00101">
        <ele>134.908</ele>
        <time>2016-09-25T19:16:55Z</time>
      </trkpt>
      <trkpt lat="43.76984" lon="-0.00045">
        <ele>134.167</ele>
        <time>2016-09-25T19:17:15Z</time>
      </trkpt>
      <trkpt lat="43.76883" lon="-0.001">
        <ele>135.624</ele>
        <time>2016-09-25T19:17:35Z</time>
      </trkpt>
      <trkpt lat="43.76852" lon="-0.00167">
        <ele>127.433</ele>
        <time>2016-09-25T19:17:55Z</time>
      </trkpt>
      <trkpt lat="43.76827" lon="-0.00165">
        <ele>123.392</ele>
        <time>2016-09-25T19:18:15Z</time>
      </trkpt>
      <trkpt lat="43.76707" lon="-0.00278">
        <ele>104.948</ele>
        <time>2016-09-25T19:18:35Z</time>
      </trkpt>
      <trkpt lat="43.76672" lon="-0.00411">
        <ele>101.859</ele>
        <time>2016-09-25T19:18:55Z</time>
      </trkpt>
      <trkpt lat="43.76617" lon="-0.00499">
        <ele>98.082</ele>
        <time>2016-09-25T19:19:15Z</time>
      </trkpt>
      <trkpt lat="43.76634" lon="-0.00632">
        <ele>99.361</ele>
        <time>2016-09-25T19:19:35Z</time>
      </trkpt>
      <trkpt lat="43.7661" lon="-0.00995">
        <ele>115.038</ele>
        <time>2016-09-25T19:19:55Z</time>
      </trkpt>
      <trkpt lat="43.76575" lon="-0.01111">
        <ele>120.37</ele>
        <time>2016-09-25T19:20:15Z</time>
      </trkpt>
      <trkpt lat="43.76485" lon="-0.01745">
        <ele>134.617</ele>
        <time>2021-01-03T15:16:40Z</time>
      </trkpt>
      <trkpt lat="43.7635" lon="-0.01775">
        <ele>130.608</ele>
        <time>2021-01-03T15:17:00Z</time>
      </trkpt>
      <trkpt lat="43.76358" lon="-0.01887">
        <ele>120.219</ele>
        <time>2021-01-03T15:17:20Z</time>
      </trkpt>
      <trkpt lat="43.7631" lon="-0.0207">
        <ele>96.036</ele>
        <time>2021-01-03T15:17:40Z</time>
      </trkpt>
      <trkpt lat="43.76464" lon="-0.02126">
        <ele>97.625</ele>
        <time>2021-01-03T15:18:00Z</time>
      </trkpt>
      <trkpt lat="43.76486" lon="-0.02265">
        <ele>93.244</ele>
        <time>2016-09-25T19:21:15Z</time>
      </trkpt>
      <trkpt lat="43.76299" lon="-0.02847">
        <ele>95.04</ele>
        <time>2016-09-25T19:21:35Z</time>
      </trkpt>
      <trkpt lat="43.75783" lon="-0.03437">
        <ele>104.661</ele>
        <time>2016-09-25T19:21:55Z</time>
      </trkpt>
      <trkpt lat="43.7576" lon="-0.03473">
        <ele>105.074</ele>
        <time>2016-09-25T19:22:15Z</time>
      </trkpt>
      <trkpt lat="43.75733" lon="-0.03566">
        <ele>108.423</ele>
        <time>2016-09-25T19:22:35Z</time>
      </trkpt>
      <trkpt lat="43.75726" lon="-0.04624">
        <ele>145.086</ele>
        <time>2016-09-25T19:22:55Z</time>
      </trkpt>
      <trkpt lat="43.75626" lon="-0.04849">
        <ele>145.06</ele>
        <time>2016-09-25T19:23:15Z</time>
      </trkpt>
      <trkpt lat="43.75671" lon="-0.05128">
        <ele>142.726</ele>
        <time>2016-09-25T19:23:35Z</time>
      </trkpt>
      <trkpt lat="43.75636" lon="-0.05246">
        <ele>145.008</ele>
        <time>2016-09-25T19:23:55Z</time>
      </trkpt>
      <trkpt lat="43.7562" lon="-0.05381">
        <ele>145.014</ele>
        <time>2016-09-25T19:24:15Z</time>
      </trkpt>
      <trkpt lat="43.75698" lon="-0.05643">
        <ele>139.081</ele>
        <time>2016-09-25T19:24:35Z</time>
      </trkpt>
      <trkpt lat="43.75738" lon="-0.05937">
        <ele>131.02</ele>
        <time>2016-09-25T19:24:55Z</time>
      </trkpt>
      <trkpt lat="43.75738" lon="-0.05937">
        <ele>131.029</ele>
        <time>2016-09-25T19:25:15Z</time>
      </trkpt>
      <trkpt lat="43.75736" lon="-0.06261">
        <ele>107.895</ele>
        <time>2016-09-25T19:25:35Z</time>
      </trkpt>
      <trkpt lat="43.75749" lon="-0.06329">
        <ele>100.356</ele>
        <time>2016-09-25T19:25:55Z</time>
      </trkpt>
      <trkpt lat="43.75822" lon="-0.06342">
        <ele>100.459</ele>
        <time>2016-09-25T19:26:15Z</time>
      </trkpt>
      <trkpt lat="43.75941" lon="-0.06424">
        <ele>100.098</ele>
        <time>2016-09-25T19:26:35Z</time>
      </trkpt>
      <trkpt lat="43.75992" lon="-0.06357">
        <ele>100.853</ele>
        <time>2016-09-25T19:26:55Z</time>
      </trkpt>
      <trkpt lat="43.76025" lon="-0.06357">
        <ele>104.404</ele>
        <time>2016-09-25T19:27:15Z</time>
      </trkpt>
      <trkpt lat="43.75995" lon="-0.06531">
        <ele>100.014</ele>
        <time>2016-09-25T19:27:35Z</time>
      </trkpt>
      <trkpt lat="43.75946" lon="-0.066">
        <ele>100.008</ele>
        <time>2016-09-25T19:27:55Z</time>
      </trkpt>
      <trkpt lat="43.75921" lon="-0.06847">
        <ele>100.071</ele>
        <time>2016-09-25T19:28:15Z</time>
      </trkpt>
      <trkpt lat="43.75932" lon="-0.06887">
        <ele>100.958</ele>
        <time>2016-09-25T19:28:35Z</time>
      </trkpt>
      <trkpt lat="43.75884" lon="-0.06935">
        <ele>106.397</ele>
        <time>2016-09-25T19:28:55Z</time>
      </trkpt>
      <trkpt lat="43.75863" lon="-0.07136">
        <ele>122.786</ele>
        <time>2016-09-25T19:29:15Z</time>
      </trkpt>
      <trkpt lat="43.75772" lon="-0.07477">
        <ele>140.082</ele>
        <time>2016-09-25T19:29:35Z</time>
      </trkpt>
      <trkpt lat="43.75836" lon="-0.07578">
        <ele>140.013</ele>
        <time>2016-09-25T19:29:55Z</time>
      </trkpt>
      <trkpt lat="43.75828" lon="-0.07675">
        <ele>138.636</ele>
        <time>2016-09-25T19:30:15Z</time>
      </trkpt>
      <trkpt lat="43.75724" lon="-0.08068">
        <ele>102.115</ele>
        <time>2016-09-25T19:30:35Z</time>
      </trkpt>
      <trkpt lat="43.75726" lon="-0.08196">
        <ele>94.064</ele>
        <time>2016-09-25T19:30:55Z</time>
      </trkpt>
      <trkpt lat="43.75702" lon="-0.08316">
        <ele>92.906</ele>
        <time>2016-09-25T19:31:15Z</time>
      </trkpt>
      <trkpt lat="43.75606" lon="-0.08308">
        <ele>94.016</ele>
        <time>2016-09-25T19:31:35Z</time>
      </trkpt>
      <trkpt lat="43.75558" lon="-0.08265">
        <ele>94.008</ele>
        <time>2016-09-25T19:31:55Z</time>
      </trkpt>
      <trkpt lat="43.75492" lon="-0.08265">
        <ele>94.172</ele>
        <time>2016-09-25T19:32:15Z</time>
      </trkpt>
      <trkpt lat="43.75479" lon="-0.08286">
        <ele>94.029</ele>
        <time>2016-09-25T19:32:35Z</time>
      </trkpt>
      <trkpt lat="43.75071" lon="-0.0849">
        <ele>94.028</ele>
        <time>2016-09-25T19:32:55Z</time>
      </trkpt>
      <trkpt lat="43.75082" lon="-0.09437">
        <ele>109.737</ele>
        <time>2016-09-25T19:33:15Z</time>
      </trkpt>
      <trkpt lat="43.74717" lon="-0.09327">
        <ele>104.663</ele>
        <time>2016-09-25T19:33:35Z</time>
      </trkpt>
      <trkpt lat="43.74642" lon="-0.09364">
        <ele>101.464</ele>
        <time>2016-09-25T19:33:55Z</time>
      </trkpt>
      <trkpt lat="43.74589" lon="-0.09437">
        <ele>102.017</ele>
        <time>2016-09-25T19:34:15Z</time>
      </trkpt>
      <trkpt lat="43.74554" lon="-0.09331">
        <ele>100.166</ele>
        <time>2016-09-25T19:34:35Z</time>
      </trkpt>
      <trkpt lat="43.74557" lon="-0.09293">
        <ele>99.029</ele>
        <time>2016-09-25T19:34:55Z</time>
      </trkpt>
      <trkpt lat="43.74478" lon="-0.09181">
        <ele>98.1</ele>
        <time>2016-09-25T19:35:15Z</time>
      </trkpt>
      <trkpt lat="43.74459" lon="-0.09297">
        <ele>100.42</ele>
        <time>2016-09-25T19:35:35Z</time>
      </trkpt>
      <trkpt lat="43.74337" lon="-0.09143">
        <ele>100.108</ele>
        <time>2016-09-25T19:35:55Z</time>
      </trkpt>
      <trkpt lat="43.74313" lon="-0.09213">
        <ele>102.228</ele>
        <time>2016-09-25T19:36:15Z</time>
      </trkpt>
      <trkpt lat="43.74284" lon="-0.09308">
        <ele>104.175</ele>
        <time>2016-09-25T19:36:35Z</time>
      </trkpt>
      <trkpt lat="43.74267" lon="-0.09411">
        <ele>106.854</ele>
        <time>2016-09-25T19:36:55Z</time>
      </trkpt>
      <trkpt lat="43.74213" lon="-0.09542">
        <ele>110.323</ele>
        <time>2016-09-25T19:37:15Z</time>
      </trkpt>
      <trkpt lat="43.74172" lon="-0.09585">
        <ele>111.269</ele>
        <time>2016-09-25T19:37:35Z</time>
      </trkpt>
      <trkpt lat="43.74179" lon="-0.09649">
        <ele>114.52</ele>
        <time>2016-09-25T19:37:55Z</time>
      </trkpt>
      <trkpt lat="43.74155" lon="-0.09707">
        <ele>116.363</ele>
        <time>2016-09-25T19:38:15Z</time>
      </trkpt>
      <trkpt lat="43.74171" lon="-0.09761">
        <ele>122.382</ele>
        <time>2016-09-25T19:38:35Z</time>
      </trkpt>
      <trkpt lat="43.74158" lon="-0.09834">
        <ele>126.137</ele>
        <time>2016-09-25T19:38:55Z</time>
      </trkpt>
      <trkpt lat="43.74176" lon="-0.09926">
        <ele>131.149</ele>
        <time>2016-09-25T19:39:15Z</time>
      </trkpt>
      <trkpt lat="43.7434" lon="-0.10218">
        <ele>132.113</ele>
        <time>2016-09-25T19:39:35Z</time>
      </trkpt>
      <trkpt lat="43.74275" lon="-0.10396">
        <ele>131.008</ele>
        <time>2016-09-25T19:39:55Z</time>
      </trkpt>
      <trkpt lat="43.74486" lon="-0.10649">
        <ele>130.049</ele>
        <time>2016-09-25T19:40:15Z</time>
      </trkpt>
      <trkpt lat="43.74417" lon="-0.10709">
        <ele>130.056</ele>
        <time>2016-09-25T19:40:35Z</time>
      </trkpt>
      <trkpt lat="43.74445" lon="-0.10896">
        <ele>130.035</ele>
        <time>2016-09-25T19:40:55Z</time>
      </trkpt>
      <trkpt lat="43.74531" lon="-0.11078">
        <ele>123.774</ele>
        <time>2016-09-25T19:41:15Z</time>
      </trkpt>
      <trkpt lat="43.74487" lon="-0.11187">
        <ele>120.07</ele>
        <time>2016-09-25T19:41:35Z</time>
      </trkpt>
      <trkpt lat="43.74431" lon="-0.11209">
        <ele>118.931</ele>
        <time>2016-09-25T19:41:55Z</time>
      </trkpt>
      <trkpt lat="43.74315" lon="-0.1131">
        <ele>115.014</ele>
        <time>2016-09-25T19:42:15Z</time>
      </trkpt>
      <trkpt lat="43.74284" lon="-0.11312">
        <ele>115.083</ele>
        <time>2016-09-25T19:42:35Z</time>
      </trkpt>
      <trkpt lat="43.74194" lon="-0.11194">
        <ele>112.054</ele>
        <time>2016-09-25T19:42:55Z</time>
      </trkpt>
      <trkpt lat="43.74047" lon="-0.11318">
        <ele>127.656</ele>
        <time>2016-09-25T19:43:15Z</time>
      </trkpt>
      <trkpt lat="43.74039" lon="-0.11406">
        <ele>129.411</ele>
        <time>2016-09-25T19:43:35Z</time>
      </trkpt>
      <trkpt lat="43.7392" lon="-0.11415">
        <ele>130.008</ele>
        <time>2016-09-25T19:43:55Z</time>
      </trkpt>
      <trkpt lat="43.73914" lon="-0.11486">
        <ele>130.071</ele>
        <time>2016-09-25T19:44:15Z</time>
      </trkpt>
      <trkpt lat="43.7387" lon="-0.11516">
        <ele>128.958</ele>
        <time>2016-09-25T19:44:35Z</time>
      </trkpt>
      <trkpt lat="43.73814" lon="-0.11587">
        <ele>124.457</ele>
        <time>2016-09-25T19:44:55Z</time>
      </trkpt>
      <trkpt lat="43.73755" lon="-0.11683">
        <ele>124.576</ele>
        <time>2016-09-25T19:45:15Z</time>
      </trkpt>
      <trkpt lat="43.73676" lon="-0.11711">
        <ele>114.862</ele>
        <time>2016-09-25T19:45:35Z</time>
      </trkpt>
      <trkpt lat="43.73644" lon="-0.11739">
        <ele>109.943</ele>
        <time>2016-09-25T19:45:55Z</time>
      </trkpt>
      <trkpt lat="43.73644" lon="-0.11739">
        <ele>109.936</ele>
        <time>2016-09-25T19:46:15Z</time>
      </trkpt>
      <trkpt lat="43.73603" lon="-0.11573">
        <ele>106.065</ele>
        <time>2016-09-25T19:46:35Z</time>
      </trkpt>
      <trkpt lat="43.73603" lon="-0.11573">
        <ele>106.049</ele>
        <time>2016-09-25T19:46:55Z</time>
      </trkpt>
      <trkpt lat="43.73577" lon="-0.11592">
        <ele>105.002</ele>
        <time>2016-09-25T19:47:15Z</time>
      </trkpt>
      <trkpt lat="43.73565" lon="-0.11661">
        <ele>106.222</ele>
        <time>2016-09-25T19:47:35Z</time>
      </trkpt>
      <trkpt lat="43.73402" lon="-0.11792">
        <ele>124.008</ele>
        <time>2016-09-25T19:47:55Z</time>
      </trkpt>
      <trkpt lat="43.73334" lon="-0.11794">
        <ele>126.14</ele>
        <time>2016-09-25T19:48:15Z</time>
      </trkpt>
      <trkpt lat="43.73293" lon="-0.11824">
        <ele>134.597</ele>
        <time>2016-09-25T19:48:35Z</time>
      </trkpt>
      <trkpt lat="43.73262" lon="-0.11819">
        <ele>133.736</ele>
        <time>2016-09-25T19:48:55Z</time>
      </trkpt>
      <trkpt lat="43.73245" lon="-0.11845">
        <ele>134.015</ele>
        <time>2016-09-25T19:49:15Z</time>
      </trkpt>
      <trkpt lat="43.73247" lon="-0.11933">
        <ele>135.071</ele>
        <time>2016-09-25T19:49:35Z</time>
      </trkpt>
      <trkpt lat="43.73208" lon="-0.12053">
        <ele>135.032</ele>
        <time>2016-09-25T19:49:55Z</time>
      </trkpt>
      <trkpt lat="43.73146" lon="-0.12154">
        <ele>131.475</ele>
        <time>2016-09-25T19:50:15Z</time>
      </trkpt>
      <trkpt lat="43.73117" lon="-0.1224">
        <ele>130.884</ele>
        <time>2016-09-25T19:50:35Z</time>
      </trkpt>
      <trkpt lat="43.73095" lon="-0.12352">
        <ele>133.239</ele>
        <time>2016-09-25T19:50:55Z</time>
      </trkpt>
      <trkpt lat="43.73174" lon="-0.1242">
        <ele>127.501</ele>
        <time>2016-09-25T19:51:15Z</time>
      </trkpt>
      <trkpt lat="43.72941" lon="-0.12972">
        <ele>140.321</ele>
        <time>2016-09-25T19:51:35Z</time>
      </trkpt>
      <trkpt lat="43.72856" lon="-0.12903">
        <ele>150.008</ele>
        <time>2016-09-25T19:51:55Z</time>
      </trkpt>
      <trkpt lat="43.72839" lon="-0.13313">
        <ele>151.829</ele>
        <time>2016-09-25T19:52:15Z</time>
      </trkpt>
      <trkpt lat="43.728" lon="-0.13517">
        <ele>154.266</ele>
        <time>2016-09-25T19:52:35Z</time>
      </trkpt>
      <trkpt lat="43.72771" lon="-0.13551">
        <ele>158.765</ele>
        <time>2016-09-25T19:52:55Z</time>
      </trkpt>
      <trkpt lat="43.72762" lon="-0.13721">
        <ele>160.074</ele>
        <time>2016-09-25T19:53:15Z</time>
      </trkpt>
      <trkpt lat="43.72717" lon="-0.13712">
        <ele>156.86</ele>
        <time>2016-09-25T19:53:35Z</time>
      </trkpt>
      <trkpt lat="43.72554" lon="-0.13826">
        <ele>149.251</ele>
        <time>2016-09-25T19:53:55Z</time>
      </trkpt>
      <trkpt lat="43.72441" lon="-0.13856">
        <ele>146.484</ele>
        <time>2016-09-25T19:54:15Z</time>
      </trkpt>
      <trkpt lat="43.72368" lon="-0.13637">
        <ele>155.063</ele>
        <time>2016-09-25T19:54:35Z</time>
      </trkpt>
      <trkpt lat="43.72323" lon="-0.13622">
        <ele>154.997</ele>
        <time>2016-09-25T19:54:55Z</time>
      </trkpt>
      <trkpt lat="43.7229" lon="-0.13648">
        <ele>152.023</ele>
        <time>2016-09-25T19:55:15Z</time>
      </trkpt>
      <trkpt lat="43.72241" lon="-0.13622">
        <ele>145.625</ele>
        <time>2016-09-25T19:55:35Z</time>
      </trkpt>
      <trkpt lat="43.72137" lon="-0.13671">
        <ele>138.108</ele>
        <time>2016-09-25T19:55:55Z</time>
      </trkpt>
      <trkpt lat="43.71997" lon="-0.13922">
        <ele>147.865</ele>
        <time>2016-09-25T19:56:15Z</time>
      </trkpt>
      <trkpt lat="43.71937" lon="-0.13924">
        <ele>144.672</ele>
        <time>2016-09-25T19:56:35Z</time>
      </trkpt>
      <trkpt lat="43.71864" lon="-0.13982">
        <ele>144.131</ele>
        <time>2016-09-25T19:56:55Z</time>
      </trkpt>
      <trkpt lat="43.71819" lon="-0.14019">
        <ele>141.89</ele>
        <time>2016-09-25T19:57:15Z</time>
      </trkpt>
      <trkpt lat="43.71668" lon="-0.14042">
        <ele>144.666</ele>
        <time>2016-09-25T19:57:35Z</time>
      </trkpt>
      <trkpt lat="43.71574" lon="-0.1407">
        <ele>145.087</ele>
        <time>2016-09-25T19:57:55Z</time>
      </trkpt>
      <trkpt lat="43.71555" lon="-0.1403">
        <ele>145.03</ele>
        <time>2016-09-25T19:58:15Z</time>
      </trkpt>
      <trkpt lat="43.7142" lon="-0.1407">
        <ele>140.079</ele>
        <time>2016-09-25T19:58:35Z</time>
      </trkpt>
      <trkpt lat="43.71281" lon="-0.14087">
        <ele>138.275</ele>
        <time>2016-09-25T19:58:55Z</time>
      </trkpt>
      <trkpt lat="43.71274" lon="-0.1406">
        <ele>137.028</ele>
        <time>2016-09-25T19:59:15Z</time>
      </trkpt>
      <trkpt lat="43.71105" lon="-0.14055">
        <ele>135.02</ele>
        <time>2016-09-25T19:59:35Z</time>
      </trkpt>
      <trkpt lat="43.71105" lon="-0.14055">
        <ele>135.008</ele>
        <time>2016-09-25T19:59:55Z</time>
      </trkpt>
      <trkpt lat="43.71022" lon="-0.141">
        <ele>133.453</ele>
        <time>2016-09-25T20:00:15Z</time>
      </trkpt>
      <trkpt lat="43.70958" lon="-0.14111">
        <ele>130.08</ele>
        <time>2016-09-25T20:00:35Z</time>
      </trkpt>
      <trkpt lat="43.70893" lon="-0.14169">
        <ele>127.379</ele>
        <time>2016-09-25T20:00:55Z</time>
      </trkpt>
      <trkpt lat="43.70893" lon="-0.14169">
        <ele>127.338</ele>
        <time>2016-09-25T20:01:15Z</time>
      </trkpt>
      <trkpt lat="43.70892" lon="-0.14221">
        <ele>126.274</ele>
        <time>2016-09-25T20:01:35Z</time>
      </trkpt>
      <trkpt lat="43.70771" lon="-0.14367">
        <ele>113.515</ele>
        <time>2016-09-25T20:01:55Z</time>
      </trkpt>
      <trkpt lat="43.70695" lon="-0.14414">
        <ele>114.888</ele>
        <time>2016-09-25T20:02:15Z</time>
      </trkpt>
      <trkpt lat="43.7065" lon="-0.14459">
        <ele>119.697</ele>
        <time>2016-09-25T20:02:35Z</time>
      </trkpt>
      <trkpt lat="43.70642" lon="-0.14506">
        <ele>124.322</ele>
        <time>2016-09-25T20:02:55Z</time>
      </trkpt>
      <trkpt lat="43.70667" lon="-0.14605">
        <ele>129.862</ele>
        <time>2016-09-25T20:03:15Z</time>
      </trkpt>
      <trkpt lat="43.70609" lon="-0.14714">
        <ele>125.508</ele>
        <time>2016-09-25T20:03:35Z</time>
      </trkpt>
      <trkpt lat="43.70754" lon="-0.14822">
        <ele>134.908</ele>
        <time>2016-09-25T20:03:55Z</time>
      </trkpt>
      <trkpt lat="43.70879" lon="-0.14957">
        <ele>137.548</ele>
        <time>2016-09-25T20:04:15Z</time>
      </trkpt>
      <trkpt lat="43.70836" lon="-0.14972">
        <ele>141.825</ele>
        <time>2016-09-25T20:04:35Z</time>
      </trkpt>
      <trkpt lat="43.70845" lon="-0.15146">
        <ele>141.614</ele>
        <time>2016-09-25T20:04:55Z</time>
      </trkpt>
      <trkpt lat="43.70788" lon="-0.15212">
        <ele>143.713</ele>
        <time>2016-09-25T20:05:15Z</time>
      </trkpt>
      <trkpt lat="43.70788" lon="-0.15212">
        <ele>143.729</ele>
        <time>2016-09-25T20:05:35Z</time>
      </trkpt>
      <trkpt lat="43.70685" lon="-0.15405">
        <ele>142.52</ele>
        <time>2016-09-25T20:05:55Z</time>
      </trkpt>
      <trkpt lat="43.70626" lon="-0.15457">
        <ele>139.063</ele>
        <time>2016-09-25T20:06:15Z</time>
      </trkpt>
      <trkpt lat="43.70392" lon="-0.15536">
        <ele>133.292</ele>
        <time>2016-09-25T20:06:35Z</time>
      </trkpt>
      <trkpt lat="43.70145" lon="-0.15663">
        <ele>111.629</ele>
        <time>2016-09-25T20:06:55Z</time>
      </trkpt>
      <trkpt lat="43.70139" lon="-0.15867">
        <ele>105.2</ele>
        <time>2016-09-25T20:07:15Z</time>
      </trkpt>
      <trkpt lat="43.70068" lon="-0.15908">
        <ele>105.02</ele>
        <time>2016-09-25T20:07:35Z</time>
      </trkpt>
      <trkpt lat="43.70034" lon="-0.15955">
        <ele>105.108</ele>
        <time>2016-09-25T20:07:55Z</time>
      </trkpt>
      <trkpt lat="43.69928" lon="-0.15987">
        <ele>104.088</ele>
        <time>2016-09-25T20:08:15Z</time>
      </trkpt>
      <trkpt lat="43.69809" lon="-0.16058">
        <ele>103.065</ele>
        <time>2016-09-25T20:08:35Z</time>
      </trkpt>
      <trkpt lat="43.6972" lon="-0.16135">
        <ele>102.084</ele>
        <time>2016-09-25T20:08:55Z</time>
      </trkpt>
      <trkpt lat="43.69612" lon="-0.16287">
        <ele>100.783</ele>
        <time>2016-09-25T20:09:15Z</time>
      </trkpt>
      <trkpt lat="43.69497" lon="-0.16388">
        <ele>99.099</ele>
        <time>2016-09-25T20:09:35Z</time>
      </trkpt>
      <trkpt lat="43.69432" lon="-0.16581">
        <ele>99.05</ele>
        <time>2016-09-25T20:09:55Z</time>
      </trkpt>
      <trkpt lat="43.69395" lon="-0.1668">
        <ele>98.083</ele>
        <time>2016-09-25T20:10:15Z</time>
      </trkpt>
      <trkpt lat="43.69353" lon="-0.17047">
        <ele>97.022</ele>
        <time>2016-09-25T20:10:35Z</time>
      </trkpt>
      <trkpt lat="43.69312" lon="-0.17158">
        <ele>97.041</ele>
        <time>2016-09-25T20:10:55Z</time>
      </trkpt>
      <trkpt lat="43.69257" lon="-0.17236">
        <ele>97.081</ele>
        <time>2016-09-25T20:11:15Z</time>
      </trkpt>
      <trkpt lat="43.68949" lon="-0.1747">
        <ele>97.009</ele>
        <time>2016-09-25T20:11:35Z</time>
      </trkpt>
      <trkpt lat="43.69486" lon="-0.19416">
        <ele>92.008</ele>
        <time>2016-09-25T20:11:55Z</time>
      </trkpt>
      <trkpt lat="43.69486" lon="-0.19416">
        <ele>92.04</ele>
        <time>2016-09-25T20:12:15Z</time>
      </trkpt>
      <trkpt lat="43.69665" lon="-0.20087">
        <ele>92.037</ele>
        <time>2016-09-25T20:12:35Z</time>
      </trkpt>
      <trkpt lat="43.69731" lon="-0.20362">
        <ele>92.096</ele>
        <time>2016-09-25T20:12:55Z</time>
      </trkpt>
      <trkpt lat="43.69544" lon="-0.20523">
        <ele>90.695</ele>
        <time>2016-09-25T20:13:15Z</time>
      </trkpt>
      <trkpt lat="43.69554" lon="-0.20572">
        <ele>90.411</ele>
        <time>2016-09-25T20:13:35Z</time>
      </trkpt>
      <trkpt lat="43.6935" lon="-0.20723">
        <ele>85.692</ele>
        <time>2016-09-25T20:13:55Z</time>
      </trkpt>
      <trkpt lat="43.69416" lon="-0.20823">
        <ele>85.435</ele>
        <time>2016-09-25T20:14:15Z</time>
      </trkpt>
      <trkpt lat="43.69416" lon="-0.20823">
        <ele>85.484</ele>
        <time>2016-09-25T20:14:35Z</time>
      </trkpt>
      <trkpt lat="43.6963" lon="-0.21836">
        <ele>84.083</ele>
        <time>2016-09-25T20:14:55Z</time>
      </trkpt>
      <trkpt lat="43.69932" lon="-0.23239">
        <ele>82.025</ele>
        <time>2019-03-30T18:01:05Z</time>
      </trkpt>
      <trkpt lat="43.7015" lon="-0.23435">
        <ele>81.017</ele>
        <time>2019-03-30T18:01:25Z</time>
      </trkpt>
      <trkpt lat="43.7017" lon="-0.23669">
        <ele>80.908</ele>
        <time>2016-09-25T20:15:55Z</time>
      </trkpt>
      <trkpt lat="43.70198" lon="-0.23802">
        <ele>80.014</ele>
        <time>2016-09-25T20:16:15Z</time>
      </trkpt>
      <trkpt lat="43.70302" lon="-0.23752">
        <ele>81.011</ele>
        <time>2016-09-25T20:16:35Z</time>
      </trkpt>
      <trkpt lat="43.70397" lon="-0.24132">
        <ele>80.09</ele>
        <time>2016-09-25T20:16:55Z</time>
      </trkpt>
      <trkpt lat="43.70293" lon="-0.24184">
        <ele>80.029</ele>
        <time>2016-09-25T20:17:15Z</time>
      </trkpt>
      <trkpt lat="43.70378" lon="-0.24615">
        <ele>80.035</ele>
        <time>2016-09-25T20:17:35Z</time>
      </trkpt>
      <trkpt lat="43.70347" lon="-0.24838">
        <ele>79.596</ele>
        <time>2016-09-25T20:17:55Z</time>
      </trkpt>
      <trkpt lat="43.70308" lon="-0.24978">
        <ele>77.959</ele>
        <time>2016-09-25T20:18:15Z</time>
      </trkpt>
      <trkpt lat="43.70425" lon="-0.25031">
        <ele>77.398</ele>
        <time>2016-09-25T20:18:35Z</time>
      </trkpt>
      <trkpt lat="43.70459" lon="-0.26003">
        <ele>77.014</ele>
        <time>2016-09-25T20:18:55Z</time>
      </trkpt>
      <trkpt lat="43.70412" lon="-0.26051">
        <ele>77.054</ele>
        <time>2021-01-03T16:16:20Z</time>
      </trkpt>
      <trkpt lat="43.70432" lon="-0.26089">
        <ele>77.009</ele>
        <time>2016-09-25T20:19:35Z</time>
      </trkpt>
      <trkpt lat="43.70443" lon="-0.26172">
        <ele>77.008</ele>
        <time>2021-01-03T16:17:00Z</time>
      </trkpt>
      <trkpt lat="43.70273" lon="-0.2621">
        <ele>77.287</ele>
        <time>2021-01-03T16:17:20Z</time>
      </trkpt>
      <trkpt lat="43.70176" lon="-0.26276">
        <ele>78.014</ele>
        <time>2021-01-03T16:17:40Z</time>
      </trkpt>
      <trkpt lat="43.6999" lon="-0.26317">
        <ele>80.593</ele>
        <time>2021-01-03T16:18:00Z</time>
      </trkpt>
      <trkpt lat="43.70002" lon="-0.26427">
        <ele>82.932</ele>
        <time>2019-03-30T14:31:45Z</time>
      </trkpt>
      <trkpt lat="43.70002" lon="-0.26427">
        <ele>82.998</ele>
        <time>2019-03-30T14:31:45Z</time>
      </trkpt>
      <trkpt lat="43.69986" lon="-0.26628">
        <ele>85.019</ele>
        <time>2019-03-30T14:32:05Z</time>
      </trkpt>
      <trkpt lat="43.69964" lon="-0.26695">
        <ele>91.842</ele>
        <time>2019-03-30T14:32:25Z</time>
      </trkpt>
      <trkpt lat="43.69732" lon="-0.26897">
        <ele>125.361</ele>
        <time>2019-03-30T14:32:45Z</time>
      </trkpt>
      <trkpt lat="43.68963" lon="-0.27419">
        <ele>150.027</ele>
        <time>2019-03-30T14:33:05Z</time>
      </trkpt>
      <trkpt lat="43.6898" lon="-0.27692">
        <ele>150.068</ele>
        <time>2019-03-30T14:33:25Z</time>
      </trkpt>
      <trkpt lat="43.68855" lon="-0.27784">
        <ele>152.014</ele>
        <time>2016-09-25T15:54:42Z</time>
      </trkpt>
      <trkpt lat="43.68855" lon="-0.27839">
        <ele>152.008</ele>
        <time>2016-09-25T15:55:02Z</time>
      </trkpt>
      <trkpt lat="43.68788" lon="-0.27906">
        <ele>152.068</ele>
        <time>2016-09-25T15:55:22Z</time>
      </trkpt>
      <trkpt lat="43.68746" lon="-0.27972">
        <ele>152.025</ele>
        <time>2016-09-25T15:55:42Z</time>
      </trkpt>
      <trkpt lat="43.68664" lon="-0.28069">
        <ele>151.524</ele>
        <time>2016-09-25T15:56:02Z</time>
      </trkpt>
      <trkpt lat="43.6861" lon="-0.28097">
        <ele>151.633</ele>
        <time>2016-09-25T15:56:22Z</time>
      </trkpt>
      <trkpt lat="43.68453" lon="-0.28078">
        <ele>155.079</ele>
        <time>2016-09-25T15:56:42Z</time>
      </trkpt>
      <trkpt lat="43.68391" lon="-0.28178">
        <ele>155.06</ele>
        <time>2016-09-25T15:57:02Z</time>
      </trkpt>
      <trkpt lat="43.68354" lon="-0.28292">
        <ele>151.083</ele>
        <time>2016-09-25T15:57:22Z</time>
      </trkpt>
      <trkpt lat="43.68211" lon="-0.28374">
        <ele>136.692</ele>
        <time>2016-09-25T15:57:42Z</time>
      </trkpt>
      <trkpt lat="43.68158" lon="-0.28421">
        <ele>128.245</ele>
        <time>2016-09-25T15:58:02Z</time>
      </trkpt>
      <trkpt lat="43.68045" lon="-0.28434">
        <ele>116.647</ele>
        <time>2016-09-25T15:58:22Z</time>
      </trkpt>
      <trkpt lat="43.68011" lon="-0.28397">
        <ele>118.611</ele>
        <time>2016-09-25T15:58:42Z</time>
      </trkpt>
      <trkpt lat="43.6795" lon="-0.28399">
        <ele>114.608</ele>
        <time>2016-09-25T15:59:02Z</time>
      </trkpt>
      <trkpt lat="43.67915" lon="-0.2838">
        <ele>119.78</ele>
        <time>2016-09-25T15:59:22Z</time>
      </trkpt>
      <trkpt lat="43.67857" lon="-0.28434">
        <ele>113.347</ele>
        <time>2016-09-25T15:59:42Z</time>
      </trkpt>
      <trkpt lat="43.67811" lon="-0.28421">
        <ele>113.436</ele>
        <time>2016-09-25T16:00:02Z</time>
      </trkpt>
      <trkpt lat="43.67713" lon="-0.28348">
        <ele>118.945</ele>
        <time>2016-09-25T16:00:22Z</time>
      </trkpt>
      <trkpt lat="43.67686" lon="-0.28359">
        <ele>115.331</ele>
        <time>2016-09-25T16:00:42Z</time>
      </trkpt>
      <trkpt lat="43.67677" lon="-0.28316">
        <ele>124.262</ele>
        <time>2016-09-25T16:01:02Z</time>
      </trkpt>
      <trkpt lat="43.67624" lon="-0.28275">
        <ele>128.925</ele>
        <time>2016-09-25T16:01:22Z</time>
      </trkpt>
      <trkpt lat="43.67516" lon="-0.28311">
        <ele>117.844</ele>
        <time>2016-09-25T16:01:42Z</time>
      </trkpt>
      <trkpt lat="43.67471" lon="-0.28275">
        <ele>124.474</ele>
        <time>2016-09-25T16:02:02Z</time>
      </trkpt>
      <trkpt lat="43.6733" lon="-0.28278">
        <ele>120.056</ele>
        <time>2019-03-30T14:41:25Z</time>
      </trkpt>
      <trkpt lat="43.67207" lon="-0.28236">
        <ele>118.221</ele>
        <time>2019-03-30T14:41:45Z</time>
      </trkpt>
      <trkpt lat="43.67069" lon="-0.28247">
        <ele>115.108</ele>
        <time>2016-09-25T16:02:42Z</time>
      </trkpt>
      <trkpt lat="43.67058" lon="-0.28329">
        <ele>114.993</ele>
        <time>2016-09-25T16:03:02Z</time>
      </trkpt>
      <trkpt lat="43.66991" lon="-0.28395">
        <ele>115.02</ele>
        <time>2016-09-25T16:03:22Z</time>
      </trkpt>
      <trkpt lat="43.66965" lon="-0.28447">
        <ele>115.879</ele>
        <time>2016-09-25T16:03:42Z</time>
      </trkpt>
      <trkpt lat="43.66833" lon="-0.28638">
        <ele>124.998</ele>
        <time>2019-03-30T14:43:25Z</time>
      </trkpt>
      <trkpt lat="43.6703" lon="-0.28771">
        <ele>134.264</ele>
        <time>2016-09-25T16:04:42Z</time>
      </trkpt>
      <trkpt lat="43.6707" lon="-0.28824">
        <ele>140.655</ele>
        <time>2016-09-25T16:05:02Z</time>
      </trkpt>
      <trkpt lat="43.6707" lon="-0.28914">
        <ele>150.668</ele>
        <time>2016-09-25T16:05:22Z</time>
      </trkpt>
      <trkpt lat="43.67004" lon="-0.29371">
        <ele>160.037</ele>
        <time>2016-09-25T16:05:42Z</time>
      </trkpt>
      <trkpt lat="43.66921" lon="-0.29719">
        <ele>159.863</ele>
        <time>2016-09-25T16:06:02Z</time>
      </trkpt>
      <trkpt lat="43.66935" lon="-0.2988">
        <ele>157.344</ele>
        <time>2016-09-25T16:06:22Z</time>
      </trkpt>
      <trkpt lat="43.6676" lon="-0.29927">
        <ele>160.018</ele>
        <time>2016-09-25T16:06:42Z</time>
      </trkpt>
      <trkpt lat="43.66696" lon="-0.29934">
        <ele>160.008</ele>
        <time>2016-09-25T16:07:02Z</time>
      </trkpt>
      <trkpt lat="43.66328" lon="-0.30084">
        <ele>162.032</ele>
        <time>2016-09-25T16:07:22Z</time>
      </trkpt>
      <trkpt lat="43.66055" lon="-0.29916">
        <ele>163.029</ele>
        <time>2016-09-25T16:07:42Z</time>
      </trkpt>
      <trkpt lat="43.6603" lon="-0.29936">
        <ele>163.998</ele>
        <time>2016-09-25T16:08:02Z</time>
      </trkpt>
      <trkpt lat="43.66046" lon="-0.302">
        <ele>164.417</ele>
        <time>2016-09-25T16:08:22Z</time>
      </trkpt>
      <trkpt lat="43.65204" lon="-0.30303">
        <ele>168.153</ele>
        <time>2016-09-25T16:08:42Z</time>
      </trkpt>
      <trkpt lat="43.64889" lon="-0.30335">
        <ele>167.034</ele>
        <time>2016-09-25T16:09:02Z</time>
      </trkpt>
      <trkpt lat="43.64459" lon="-0.30434">
        <ele>170.017</ele>
        <time>2019-03-30T14:48:25Z</time>
      </trkpt>
      <trkpt lat="43.64518" lon="-0.30682">
        <ele>167.056</ele>
        <time>2016-09-25T16:09:42Z</time>
      </trkpt>
      <trkpt lat="43.64368" lon="-0.31421">
        <ele>172.024</ele>
        <time>2016-09-25T16:10:02Z</time>
      </trkpt>
      <trkpt lat="43.64273" lon="-0.31395">
        <ele>172.004</ele>
        <time>2016-09-25T16:10:22Z</time>
      </trkpt>
      <trkpt lat="43.64273" lon="-0.31395">
        <ele>172.014</ele>
        <time>2016-09-25T16:10:42Z</time>
      </trkpt>
      <trkpt lat="43.63731" lon="-0.31101">
        <ele>174.708</ele>
        <time>2016-09-25T16:11:02Z</time>
      </trkpt>
      <trkpt lat="43.63183" lon="-0.30846">
        <ele>175.088</ele>
        <time>2016-09-25T16:11:22Z</time>
      </trkpt>
      <trkpt lat="43.62892" lon="-0.30831">
        <ele>175.065</ele>
        <time>2016-09-25T16:11:42Z</time>
      </trkpt>
      <trkpt lat="43.62588" lon="-0.30745">
        <ele>177.094</ele>
        <time>2016-09-25T16:12:02Z</time>
      </trkpt>
      <trkpt lat="43.62414" lon="-0.30734">
        <ele>179.043</ele>
        <time>2016-09-25T16:12:22Z</time>
      </trkpt>
      <trkpt lat="43.62335" lon="-0.30697">
        <ele>179.189</ele>
        <time>2016-09-25T16:12:42Z</time>
      </trkpt>
      <trkpt lat="43.62224" lon="-0.30672">
        <ele>180.07</ele>
        <time>2016-09-25T16:13:02Z</time>
      </trkpt>
      <trkpt lat="43.62091" lon="-0.30594">
        <ele>180.093</ele>
        <time>2016-09-25T16:13:22Z</time>
      </trkpt>
      <trkpt lat="43.61723" lon="-0.30322">
        <ele>182.072</ele>
        <time>2016-09-25T16:13:42Z</time>
      </trkpt>
      <trkpt lat="43.61364" lon="-0.30097">
        <ele>184.012</ele>
        <time>2016-09-25T16:14:02Z</time>
      </trkpt>
      <trkpt lat="43.61199" lon="-0.29865">
        <ele>185.032</ele>
        <time>2016-09-25T16:14:22Z</time>
      </trkpt>
      <trkpt lat="43.60961" lon="-0.29875">
        <ele>185.005</ele>
        <time>2019-03-30T14:53:45Z</time>
      </trkpt>
      <trkpt lat="43.60657" lon="-0.29823">
        <ele>185.008</ele>
        <time>2019-03-30T14:54:05Z</time>
      </trkpt>
      <trkpt lat="43.60645" lon="-0.30139">
        <ele>185.097</ele>
        <time>2019-03-30T14:54:25Z</time>
      </trkpt>
      <trkpt lat="43.60577" lon="-0.30141">
        <ele>185.074</ele>
        <time>2019-03-30T14:54:45Z</time>
      </trkpt>
      <trkpt lat="43.60557" lon="-0.30568">
        <ele>182.713</ele>
        <time>2019-03-30T14:55:05Z</time>
      </trkpt>
      <trkpt lat="43.60466" lon="-0.30554">
        <ele>176.472</ele>
        <time>2016-09-25T16:17:22Z</time>
      </trkpt>
      <trkpt lat="43.60413" lon="-0.30618">
        <ele>171.258</ele>
        <time>2016-09-25T16:17:42Z</time>
      </trkpt>
      <trkpt lat="43.60307" lon="-0.30573">
        <ele>173.339</ele>
        <time>2016-09-25T16:18:02Z</time>
      </trkpt>
      <trkpt lat="43.60248" lon="-0.30588">
        <ele>170.022</ele>
        <time>2016-09-25T16:18:22Z</time>
      </trkpt>
      <trkpt lat="43.60298" lon="-0.30725">
        <ele>169.081</ele>
        <time>2019-03-30T14:56:45Z</time>
      </trkpt>
      <trkpt lat="43.60337" lon="-0.31034">
        <ele>181.467</ele>
        <time>2016-09-25T16:19:02Z</time>
      </trkpt>
      <trkpt lat="43.60356" lon="-0.31107">
        <ele>184.781</ele>
        <time>2019-03-30T14:57:25Z</time>
      </trkpt>
      <trkpt lat="43.60343" lon="-0.31403">
        <ele>187.519</ele>
        <time>2016-09-25T16:20:02Z</time>
      </trkpt>
      <trkpt lat="43.60293" lon="-0.31484">
        <ele>188.008</ele>
        <time>2019-03-30T14:58:05Z</time>
      </trkpt>
      <trkpt lat="43.60203" lon="-0.31575">
        <ele>188.832</ele>
        <time>2016-09-25T16:20:42Z</time>
      </trkpt>
      <trkpt lat="43.60135" lon="-0.3168">
        <ele>188.089</ele>
        <time>2016-09-25T16:21:02Z</time>
      </trkpt>
      <trkpt lat="43.60175" lon="-0.31818">
        <ele>186.348</ele>
        <time>2016-09-25T16:21:22Z</time>
      </trkpt>
      <trkpt lat="43.60205" lon="-0.32069">
        <ele>188.077</ele>
        <time>2016-09-25T16:21:42Z</time>
      </trkpt>
      <trkpt lat="43.60159" lon="-0.32515">
        <ele>201.293</ele>
        <time>2019-03-30T14:59:45Z</time>
      </trkpt>
      <trkpt lat="43.60143" lon="-0.32594">
        <ele>209.894</ele>
        <time>2019-03-30T15:00:05Z</time>
      </trkpt>
      <trkpt lat="43.60034" lon="-0.32665">
        <ele>219.987</ele>
        <time>2019-03-30T15:00:25Z</time>
      </trkpt>
      <trkpt lat="43.59993" lon="-0.32724">
        <ele>217.666</ele>
        <time>2019-03-30T15:00:45Z</time>
      </trkpt>
      <trkpt lat="43.59863" lon="-0.3268">
        <ele>213.144</ele>
        <time>2016-09-25T16:23:22Z</time>
      </trkpt>
      <trkpt lat="43.59812" lon="-0.32682">
        <ele>210.805</ele>
        <time>2016-09-25T16:23:42Z</time>
      </trkpt>
      <trkpt lat="43.59774" lon="-0.32717">
        <ele>208.015</ele>
        <time>2019-03-30T15:01:45Z</time>
      </trkpt>
      <trkpt lat="43.59661" lon="-0.32721">
        <ele>215.208</ele>
        <time>2016-09-25T16:24:22Z</time>
      </trkpt>
      <trkpt lat="43.59585" lon="-0.32745">
        <ele>213.08</ele>
        <time>2016-09-25T16:24:42Z</time>
      </trkpt>
      <trkpt lat="43.59509" lon="-0.32734">
        <ele>205.557</ele>
        <time>2016-09-25T16:25:02Z</time>
      </trkpt>
      <trkpt lat="43.59501" lon="-0.32654">
        <ele>201.666</ele>
        <time>2016-09-25T16:25:22Z</time>
      </trkpt>
      <trkpt lat="43.59372" lon="-0.32655">
        <ele>204.825</ele>
        <time>2019-03-30T15:03:25Z</time>
      </trkpt>
      <trkpt lat="43.59251" lon="-0.32473">
        <ele>201.091</ele>
        <time>2019-03-30T15:03:45Z</time>
      </trkpt>
      <trkpt lat="43.59142" lon="-0.32406">
        <ele>200.082</ele>
        <time>2016-09-25T16:26:42Z</time>
      </trkpt>
      <trkpt lat="43.58948" lon="-0.32202">
        <ele>199.335</ele>
        <time>2016-09-25T16:27:02Z</time>
      </trkpt>
      <trkpt lat="43.58848" lon="-0.32189">
        <ele>199.864</ele>
        <time>2016-09-25T16:27:22Z</time>
      </trkpt>
      <trkpt lat="43.58747" lon="-0.32221">
        <ele>200.049</ele>
        <time>2016-09-25T16:27:42Z</time>
      </trkpt>
      <trkpt lat="43.58651" lon="-0.32283">
        <ele>203.602</ele>
        <time>2016-09-25T16:28:02Z</time>
      </trkpt>
      <trkpt lat="43.58251" lon="-0.32364">
        <ele>196.922</ele>
        <time>2019-03-30T15:05:45Z</time>
      </trkpt>
      <trkpt lat="43.57922" lon="-0.32093">
        <ele>200.108</ele>
        <time>2019-03-30T15:06:05Z</time>
      </trkpt>
      <trkpt lat="43.5774" lon="-0.32131">
        <ele>203.09</ele>
        <time>2016-09-25T16:29:42Z</time>
      </trkpt>
      <trkpt lat="43.576" lon="-0.32397">
        <ele>204.867</ele>
        <time>2016-09-25T16:30:22Z</time>
      </trkpt>
      <trkpt lat="43.57524" lon="-0.32589">
        <ele>210.096</ele>
        <time>2019-03-30T15:07:05Z</time>
      </trkpt>
      <trkpt lat="43.57476" lon="-0.32657">
        <ele>210.095</ele>
        <time>2016-09-25T16:31:02Z</time>
      </trkpt>
      <trkpt lat="43.57538" lon="-0.32742">
        <ele>210.091</ele>
        <time>2016-09-25T16:31:22Z</time>
      </trkpt>
      <trkpt lat="43.57664" lon="-0.32781">
        <ele>206.632</ele>
        <time>2016-09-25T16:31:42Z</time>
      </trkpt>
      <trkpt lat="43.57692" lon="-0.32931">
        <ele>207.555</ele>
        <time>2016-09-25T16:32:02Z</time>
      </trkpt>
      <trkpt lat="43.57688" lon="-0.33045">
        <ele>201.534</ele>
        <time>2016-09-25T16:32:22Z</time>
      </trkpt>
      <trkpt lat="43.57732" lon="-0.33272">
        <ele>197.131</ele>
        <time>2016-09-25T16:32:42Z</time>
      </trkpt>
      <trkpt lat="43.57729" lon="-0.33384">
        <ele>192.761</ele>
        <time>2016-09-25T16:33:02Z</time>
      </trkpt>
      <trkpt lat="43.57749" lon="-0.33442">
        <ele>190.107</ele>
        <time>2016-09-25T16:33:22Z</time>
      </trkpt>
      <trkpt lat="43.5785" lon="-0.33622">
        <ele>183.608</ele>
        <time>2016-09-25T16:33:42Z</time>
      </trkpt>
      <trkpt lat="43.57856" lon="-0.33696">
        <ele>179.379</ele>
        <time>2019-03-30T15:10:25Z</time>
      </trkpt>
      <trkpt lat="43.57909" lon="-0.33787">
        <ele>167.686</ele>
        <time>2016-09-25T16:34:22Z</time>
      </trkpt>
      <trkpt lat="43.57995" lon="-0.33824">
        <ele>157.165</ele>
        <time>2019-03-30T15:11:05Z</time>
      </trkpt>
      <trkpt lat="43.58102" lon="-0.33837">
        <ele>144.434</ele>
        <time>2019-03-30T15:11:25Z</time>
      </trkpt>
      <trkpt lat="43.58127" lon="-0.33893">
        <ele>139.35</ele>
        <time>2016-09-25T16:35:02Z</time>
      </trkpt>
      <trkpt lat="43.58156" lon="-0.34013">
        <ele>136.481</ele>
        <time>2016-09-25T16:35:22Z</time>
      </trkpt>
      <trkpt lat="43.58161" lon="-0.34232">
        <ele>144.024</ele>
        <time>2016-09-25T16:35:42Z</time>
      </trkpt>
      <trkpt lat="43.58197" lon="-0.34354">
        <ele>141.613</ele>
        <time>2016-09-25T16:36:02Z</time>
      </trkpt>
      <trkpt lat="43.58212" lon="-0.34569">
        <ele>138.088</ele>
        <time>2019-03-30T15:13:05Z</time>
      </trkpt>
      <trkpt lat="43.58176" lon="-0.34647">
        <ele>133.724</ele>
        <time>2019-03-30T15:13:25Z</time>
      </trkpt>
      <trkpt lat="43.5824" lon="-0.34772">
        <ele>130.026</ele>
        <time>2016-09-25T16:37:02Z</time>
      </trkpt>
      <trkpt lat="43.58204" lon="-0.34938">
        <ele>133.708</ele>
        <time>2019-03-30T15:14:05Z</time>
      </trkpt>
      <trkpt lat="43.5829" lon="-0.34925">
        <ele>140.344</ele>
        <time>2016-09-25T16:37:42Z</time>
      </trkpt>
      <trkpt lat="43.58296" lon="-0.3506">
        <ele>147.351</ele>
        <time>2016-09-25T16:38:02Z</time>
      </trkpt>
      <trkpt lat="43.5838" lon="-0.35038">
        <ele>144.44</ele>
        <time>2016-09-25T16:38:22Z</time>
      </trkpt>
      <trkpt lat="43.5855" lon="-0.35056">
        <ele>134.959</ele>
        <time>2016-09-25T16:38:42Z</time>
      </trkpt>
      <trkpt lat="43.5862" lon="-0.35063">
        <ele>130.675</ele>
        <time>2019-03-30T15:15:45Z</time>
      </trkpt>
      <trkpt lat="43.58696" lon="-0.3506">
        <ele>132.196</ele>
        <time>2016-09-25T16:39:22Z</time>
      </trkpt>
      <trkpt lat="43.58815" lon="-0.35083">
        <ele>131.069</ele>
        <time>2019-03-30T15:16:25Z</time>
      </trkpt>
      <trkpt lat="43.58944" lon="-0.35075">
        <ele>127.728</ele>
        <time>2016-09-25T16:40:02Z</time>
      </trkpt>
      <trkpt lat="43.58687" lon="-0.35901">
        <ele>165.159</ele>
        <time>2019-03-30T15:17:05Z</time>
      </trkpt>
      <trkpt lat="43.58691" lon="-0.36145">
        <ele>173.903</ele>
        <time>2019-03-30T15:17:25Z</time>
      </trkpt>
      <trkpt lat="43.58687" lon="-0.36273">
        <ele>176.523</ele>
        <time>2019-03-30T15:17:45Z</time>
      </trkpt>
      <trkpt lat="43.58711" lon="-0.36478">
        <ele>182.108</ele>
        <time>2016-09-25T16:41:22Z</time>
      </trkpt>
      <trkpt lat="43.58838" lon="-0.36553">
        <ele>184.251</ele>
        <time>2019-03-30T15:18:25Z</time>
      </trkpt>
      <trkpt lat="43.58623" lon="-0.36697">
        <ele>156.958</ele>
        <time>2016-09-25T16:42:02Z</time>
      </trkpt>
      <trkpt lat="43.58492" lon="-0.36832">
        <ele>157.037</ele>
        <time>2016-09-25T16:42:42Z</time>
      </trkpt>
      <trkpt lat="43.58239" lon="-0.37118">
        <ele>141.386</ele>
        <time>2016-09-25T16:43:42Z</time>
      </trkpt>
      <trkpt lat="43.57956" lon="-0.37229">
        <ele>174.352</ele>
        <time>2016-09-25T16:44:02Z</time>
      </trkpt>
      <trkpt lat="43.57956" lon="-0.37229">
        <ele>174.393</ele>
        <time>2016-09-25T16:44:22Z</time>
      </trkpt>
      <trkpt lat="43.57884" lon="-0.37328">
        <ele>170.726</ele>
        <time>2016-09-25T16:44:42Z</time>
      </trkpt>
      <trkpt lat="43.57785" lon="-0.37433">
        <ele>154.945</ele>
        <time>2016-09-25T16:45:02Z</time>
      </trkpt>
      <trkpt lat="43.57748" lon="-0.37568">
        <ele>172.235</ele>
        <time>2016-09-25T16:45:22Z</time>
      </trkpt>
      <trkpt lat="43.57625" lon="-0.37583">
        <ele>181.086</ele>
        <time>2016-09-25T16:45:42Z</time>
      </trkpt>
      <trkpt lat="43.57536" lon="-0.37625">
        <ele>190.514</ele>
        <time>2019-03-30T15:21:45Z</time>
      </trkpt>
      <trkpt lat="43.57514" lon="-0.37603">
        <ele>192.908</ele>
        <time>2019-03-30T15:22:05Z</time>
      </trkpt>
      <trkpt lat="43.57476" lon="-0.37549">
        <ele>194.199</ele>
        <time>2019-03-30T15:22:25Z</time>
      </trkpt>
      <trkpt lat="43.57455" lon="-0.37445">
        <ele>188.016</ele>
        <time>2019-03-30T15:22:45Z</time>
      </trkpt>
      <trkpt lat="43.57405" lon="-0.37293">
        <ele>190.315</ele>
        <time>2019-03-30T15:23:05Z</time>
      </trkpt>
      <trkpt lat="43.57357" lon="-0.37245">
        <ele>182.174</ele>
        <time>2019-03-30T15:23:25Z</time>
      </trkpt>
      <trkpt lat="43.5734" lon="-0.37188">
        <ele>182.64</ele>
        <time>2019-03-30T15:23:45Z</time>
      </trkpt>
      <trkpt lat="43.57279" lon="-0.37037">
        <ele>173.521</ele>
        <time>2019-03-30T15:24:05Z</time>
      </trkpt>
      <trkpt lat="43.57287" lon="-0.37155">
        <ele>162.124</ele>
        <time>2019-03-30T15:24:25Z</time>
      </trkpt>
      <trkpt lat="43.57282" lon="-0.37214">
        <ele>152.283</ele>
        <time>2019-03-30T15:24:45Z</time>
      </trkpt>
      <trkpt lat="43.57294" lon="-0.37268">
        <ele>149.815</ele>
        <time>2019-03-30T15:25:05Z</time>
      </trkpt>
      <trkpt lat="43.57286" lon="-0.37326">
        <ele>141.065</ele>
        <time>2019-03-30T15:25:25Z</time>
      </trkpt>
      <trkpt lat="43.57252" lon="-0.37401">
        <ele>124.211</ele>
        <time>2016-09-25T16:48:22Z</time>
      </trkpt>
      <trkpt lat="43.57254" lon="-0.37471">
        <ele>120.208</ele>
        <time>2019-03-30T15:26:05Z</time>
      </trkpt>
      <trkpt lat="43.57187" lon="-0.375">
        <ele>115.067</ele>
        <time>2019-03-30T15:26:25Z</time>
      </trkpt>
      <trkpt lat="43.57139" lon="-0.37504">
        <ele>114.764</ele>
        <time>2019-03-30T15:26:45Z</time>
      </trkpt>
      <trkpt lat="43.57102" lon="-0.37558">
        <ele>113.033</ele>
        <time>2019-03-30T15:27:05Z</time>
      </trkpt>
      <trkpt lat="43.57018" lon="-0.37606">
        <ele>113.032</ele>
        <time>2019-03-30T15:27:25Z</time>
      </trkpt>
      <trkpt lat="43.56928" lon="-0.37641">
        <ele>112.938</ele>
        <time>2019-03-30T15:27:45Z</time>
      </trkpt>
      <trkpt lat="43.5683" lon="-0.37749">
        <ele>110.929</ele>
        <time>2019-03-30T15:28:05Z</time>
      </trkpt>
      <trkpt lat="43.56812" lon="-0.37809">
        <ele>110.082</ele>
        <time>2019-03-30T15:28:25Z</time>
      </trkpt>
      <trkpt lat="43.56625" lon="-0.37965">
        <ele>116.561</ele>
        <time>2016-09-25T16:51:02Z</time>
      </trkpt>
      <trkpt lat="43.56524" lon="-0.37993">
        <ele>119.115</ele>
        <time>2016-09-25T16:51:22Z</time>
      </trkpt>
      <trkpt lat="43.56395" lon="-0.38088">
        <ele>125.765</ele>
        <time>2016-09-25T16:51:42Z</time>
      </trkpt>
      <trkpt lat="43.56247" lon="-0.3818">
        <ele>129.211</ele>
        <time>2016-09-25T16:52:02Z</time>
      </trkpt>
      <trkpt lat="43.56167" lon="-0.38271">
        <ele>134.708</ele>
        <time>2019-03-30T15:30:05Z</time>
      </trkpt>
      <trkpt lat="43.56079" lon="-0.38345">
        <ele>145.027</ele>
        <time>2016-09-25T16:52:42Z</time>
      </trkpt>
      <trkpt lat="43.56014" lon="-0.38386">
        <ele>152.394</ele>
        <time>2016-09-25T16:53:02Z</time>
      </trkpt>
      <trkpt lat="43.55902" lon="-0.38519">
        <ele>171.393</ele>
        <time>2016-09-25T16:53:22Z</time>
      </trkpt>
      <trkpt lat="43.55809" lon="-0.38656">
        <ele>177.942</ele>
        <time>2019-03-30T15:31:25Z</time>
      </trkpt>
      <trkpt lat="43.55831" lon="-0.38685">
        <ele>177.748</ele>
        <time>2019-03-30T15:31:45Z</time>
      </trkpt>
      <trkpt lat="43.55783" lon="-0.38847">
        <ele>179.999</ele>
        <time>2019-03-30T15:32:05Z</time>
      </trkpt>
      <trkpt lat="43.55646" lon="-0.38957">
        <ele>181.032</ele>
        <time>2016-09-25T16:54:42Z</time>
      </trkpt>
      <trkpt lat="43.5561" lon="-0.39152">
        <ele>181.091</ele>
        <time>2016-09-25T16:55:02Z</time>
      </trkpt>
      <trkpt lat="43.55551" lon="-0.3933">
        <ele>180.959</ele>
        <time>2016-09-25T16:55:22Z</time>
      </trkpt>
      <trkpt lat="43.5551" lon="-0.39356">
        <ele>179.203</ele>
        <time>2016-09-25T16:55:42Z</time>
      </trkpt>
      <trkpt lat="43.55429" lon="-0.39551">
        <ele>181.023</ele>
        <time>2016-09-25T16:56:02Z</time>
      </trkpt>
      <trkpt lat="43.55223" lon="-0.39482">
        <ele>184.008</ele>
        <time>2016-09-25T16:56:22Z</time>
      </trkpt>
      <trkpt lat="43.55183" lon="-0.39496">
        <ele>184.431</ele>
        <time>2019-03-30T15:34:25Z</time>
      </trkpt>
      <trkpt lat="43.55108" lon="-0.39607">
        <ele>185.068</ele>
        <time>2019-03-30T15:34:45Z</time>
      </trkpt>
      <trkpt lat="43.5494" lon="-0.39459">
        <ele>185.037</ele>
        <time>2016-09-25T16:57:42Z</time>
      </trkpt>
      <trkpt lat="43.54888" lon="-0.39375">
        <ele>185.046</ele>
        <time>2016-09-25T16:58:02Z</time>
      </trkpt>
      <trkpt lat="43.54555" lon="-0.39834">
        <ele>180.082</ele>
        <time>2016-09-25T16:58:22Z</time>
      </trkpt>
      <trkpt lat="43.54402" lon="-0.4008">
        <ele>185.493</ele>
        <time>2021-01-03T17:23:00Z</time>
      </trkpt>
      <trkpt lat="43.54047" lon="-0.39834">
        <ele>186.366</ele>
        <time>2021-01-03T17:23:20Z</time>
      </trkpt>
      <trkpt lat="43.53917" lon="-0.40211">
        <ele>197.145</ele>
        <time>2021-01-03T17:23:40Z</time>
      </trkpt>
      <trkpt lat="43.53768" lon="-0.40487">
        <ele>221.926</ele>
        <time>2021-01-03T17:24:00Z</time>
      </trkpt>
      <trkpt lat="43.53717" lon="-0.40487">
        <ele>226.147</ele>
        <time>2021-01-03T17:24:20Z</time>
      </trkpt>
      <trkpt lat="43.53649" lon="-0.40566">
        <ele>235.011</ele>
        <time>2021-01-03T17:24:40Z</time>
      </trkpt>
      <trkpt lat="43.53609" lon="-0.40854">
        <ele>235.008</ele>
        <time>2021-01-03T17:25:00Z</time>
      </trkpt>
      <trkpt lat="43.53625" lon="-0.40984">
        <ele>231.398</ele>
        <time>2021-01-03T17:25:20Z</time>
      </trkpt>
      <trkpt lat="43.53544" lon="-0.41175">
        <ele>235.035</ele>
        <time>2021-01-03T17:25:40Z</time>
      </trkpt>
      <trkpt lat="43.53655" lon="-0.41403">
        <ele>234.294</ele>
        <time>2021-01-03T17:26:00Z</time>
      </trkpt>
      <trkpt lat="43.53584" lon="-0.41388">
        <ele>235.053</ele>
        <time>2021-01-03T17:26:20Z</time>
      </trkpt>
      <trkpt lat="43.53506" lon="-0.41403">
        <ele>232.589</ele>
        <time>2021-01-03T17:26:40Z</time>
      </trkpt>
      <trkpt lat="43.53464" lon="-0.41462">
        <ele>230.11</ele>
        <time>2021-01-03T17:27:00Z</time>
      </trkpt>
      <trkpt lat="43.53431" lon="-0.41654">
        <ele>214.523</ele>
        <time>2021-01-03T17:27:20Z</time>
      </trkpt>
      <trkpt lat="43.53569" lon="-0.41755">
        <ele>215.672</ele>
        <time>2021-01-03T17:27:40Z</time>
      </trkpt>
      <trkpt lat="43.53555" lon="-0.41824">
        <ele>210.675</ele>
        <time>2021-01-03T17:28:00Z</time>
      </trkpt>
      <trkpt lat="43.53354" lon="-0.42007">
        <ele>209.128</ele>
        <time>2021-01-03T17:28:20Z</time>
      </trkpt>
      <trkpt lat="43.53239" lon="-0.41847">
        <ele>212.92</ele>
        <time>2021-01-03T17:28:40Z</time>
      </trkpt>
      <trkpt lat="43.53209" lon="-0.41715">
        <ele>210.908</ele>
        <time>2021-01-03T17:29:00Z</time>
      </trkpt>
      <trkpt lat="43.5318" lon="-0.41617">
        <ele>208.333</ele>
        <time>2021-01-03T17:29:20Z</time>
      </trkpt>
      <trkpt lat="43.53135" lon="-0.4166">
        <ele>225.11</ele>
        <time>2019-03-30T15:44:45Z</time>
      </trkpt>
      <trkpt lat="43.53015" lon="-0.41725">
        <ele>235.079</ele>
        <time>2019-03-30T15:45:05Z</time>
      </trkpt>
      <trkpt lat="43.52872" lon="-0.41906">
        <ele>235.078</ele>
        <time>2019-03-30T15:45:25Z</time>
      </trkpt>
      <trkpt lat="43.52732" lon="-0.42009">
        <ele>236.364</ele>
        <time>2019-03-30T15:45:45Z</time>
      </trkpt>
      <trkpt lat="43.52629" lon="-0.42553">
        <ele>227.515</ele>
        <time>2019-03-30T15:46:05Z</time>
      </trkpt>
      <trkpt lat="43.52551" lon="-0.42691">
        <ele>214.778</ele>
        <time>2019-03-30T15:46:25Z</time>
      </trkpt>
      <trkpt lat="43.52488" lon="-0.42785">
        <ele>204.757</ele>
        <time>2019-03-30T15:46:45Z</time>
      </trkpt>
      <trkpt lat="43.52437" lon="-0.42952">
        <ele>200.744</ele>
        <time>2019-03-30T15:47:05Z</time>
      </trkpt>
      <trkpt lat="43.52292" lon="-0.43227">
        <ele>173.805</ele>
        <time>2019-03-30T15:47:25Z</time>
      </trkpt>
      <trkpt lat="43.52282" lon="-0.43292">
        <ele>170.715</ele>
        <time>2019-03-30T15:47:45Z</time>
      </trkpt>
      <trkpt lat="43.52177" lon="-0.43473">
        <ele>163.108</ele>
        <time>2019-03-30T15:48:05Z</time>
      </trkpt>
      <trkpt lat="43.52099" lon="-0.43572">
        <ele>147.97</ele>
        <time>2019-03-30T15:48:25Z</time>
      </trkpt>
      <trkpt lat="43.51967" lon="-0.43708">
        <ele>128.387</ele>
        <time>2019-03-30T15:48:45Z</time>
      </trkpt>
      <trkpt lat="43.51934" lon="-0.43787">
        <ele>118.336</ele>
        <time>2019-03-30T15:49:05Z</time>
      </trkpt>
      <trkpt lat="43.51861" lon="-0.43818">
        <ele>110.245</ele>
        <time>2019-03-30T15:49:25Z</time>
      </trkpt>
      <trkpt lat="43.51814" lon="-0.43809">
        <ele>107.591</ele>
        <time>2019-03-30T15:49:45Z</time>
      </trkpt>
      <trkpt lat="43.51742" lon="-0.43867">
        <ele>105.052</ele>
        <time>2019-03-30T15:50:05Z</time>
      </trkpt>
      <trkpt lat="43.51678" lon="-0.43994">
        <ele>102.035</ele>
        <time>2019-03-30T15:50:25Z</time>
      </trkpt>
      <trkpt lat="43.51661" lon="-0.44059">
        <ele>102.074</ele>
        <time>2019-03-30T15:50:45Z</time>
      </trkpt>
      <trkpt lat="43.51626" lon="-0.44113">
        <ele>102.036</ele>
        <time>2019-03-30T15:51:05Z</time>
      </trkpt>
      <trkpt lat="43.51618" lon="-0.44117">
        <ele>102.017</ele>
        <time>2016-09-25T17:14:22Z</time>
      </trkpt>
      <trkpt lat="43.51467" lon="-0.44081">
        <ele>105.018</ele>
        <time>2016-09-25T17:14:42Z</time>
      </trkpt>
      <trkpt lat="43.51431" lon="-0.441">
        <ele>105.008</ele>
        <time>2016-09-25T17:15:02Z</time>
      </trkpt>
      <trkpt lat="43.51262" lon="-0.44306">
        <ele>108.039</ele>
        <time>2016-09-25T17:15:22Z</time>
      </trkpt>
      <trkpt lat="43.51234" lon="-0.4439">
        <ele>109.076</ele>
        <time>2016-09-25T17:15:42Z</time>
      </trkpt>
      <trkpt lat="43.51167" lon="-0.44368">
        <ele>109.095</ele>
        <time>2016-09-25T17:16:02Z</time>
      </trkpt>
      <trkpt lat="43.5105" lon="-0.44437">
        <ele>114.954</ele>
        <time>2016-09-25T17:16:22Z</time>
      </trkpt>
      <trkpt lat="43.51066" lon="-0.44514">
        <ele>119.18</ele>
        <time>2016-09-25T17:16:42Z</time>
      </trkpt>
      <trkpt lat="43.51018" lon="-0.4457">
        <ele>132.231</ele>
        <time>2016-09-25T17:17:02Z</time>
      </trkpt>
      <trkpt lat="43.51013" lon="-0.44664">
        <ele>143.034</ele>
        <time>2016-09-25T17:17:22Z</time>
      </trkpt>
      <trkpt lat="43.50993" lon="-0.44795">
        <ele>155.813</ele>
        <time>2016-09-25T17:17:42Z</time>
      </trkpt>
      <trkpt lat="43.5098" lon="-0.44963">
        <ele>169.544</ele>
        <time>2016-09-25T17:18:02Z</time>
      </trkpt>
      <trkpt lat="43.50938" lon="-0.45177">
        <ele>172.505</ele>
        <time>2016-09-25T17:18:22Z</time>
      </trkpt>
      <trkpt lat="43.50888" lon="-0.45194">
        <ele>165.915</ele>
        <time>2016-09-25T17:18:42Z</time>
      </trkpt>
      <trkpt lat="43.50793" lon="-0.45164">
        <ele>160.108</ele>
        <time>2016-09-25T17:19:02Z</time>
      </trkpt>
      <trkpt lat="43.50719" lon="-0.45269">
        <ele>159.78</ele>
        <time>2016-09-25T17:19:22Z</time>
      </trkpt>
      <trkpt lat="43.50632" lon="-0.45267">
        <ele>150.397</ele>
        <time>2016-09-25T17:19:42Z</time>
      </trkpt>
      <trkpt lat="43.50588" lon="-0.45147">
        <ele>145.916</ele>
        <time>2016-09-25T17:20:02Z</time>
      </trkpt>
      <trkpt lat="43.50502" lon="-0.44999">
        <ele>157.515</ele>
        <time>2016-09-25T17:20:22Z</time>
      </trkpt>
      <trkpt lat="43.50379" lon="-0.45059">
        <ele>173.361</ele>
        <time>2016-09-25T17:20:42Z</time>
      </trkpt>
      <trkpt lat="43.50295" lon="-0.45057">
        <ele>177.452</ele>
        <time>2016-09-25T17:21:02Z</time>
      </trkpt>
      <trkpt lat="43.50221" lon="-0.45061">
        <ele>188.975</ele>
        <time>2016-09-25T17:21:22Z</time>
      </trkpt>
      <trkpt lat="43.50163" lon="-0.45038">
        <ele>198.524</ele>
        <time>2016-09-25T17:21:42Z</time>
      </trkpt>
      <trkpt lat="43.50092" lon="-0.44922">
        <ele>198.913</ele>
        <time>2016-09-25T17:22:02Z</time>
      </trkpt>
      <trkpt lat="43.49972" lon="-0.44885">
        <ele>203.543</ele>
        <time>2016-09-25T17:22:22Z</time>
      </trkpt>
      <trkpt lat="43.49891" lon="-0.44763">
        <ele>199.107</ele>
        <time>2016-09-25T17:22:42Z</time>
      </trkpt>
      <trkpt lat="43.49852" lon="-0.44772">
        <ele>201.308</ele>
        <time>2016-09-25T17:23:02Z</time>
      </trkpt>
      <trkpt lat="43.4981" lon="-0.44799">
        <ele>205.887</ele>
        <time>2016-09-25T17:23:22Z</time>
      </trkpt>
      <trkpt lat="43.49751" lon="-0.44767">
        <ele>212.954</ele>
        <time>2016-09-25T17:23:42Z</time>
      </trkpt>
      <trkpt lat="43.49729" lon="-0.44701">
        <ele>220.333</ele>
        <time>2016-09-25T17:24:02Z</time>
      </trkpt>
      <trkpt lat="43.49721" lon="-0.44619">
        <ele>224.012</ele>
        <time>2016-09-25T17:24:22Z</time>
      </trkpt>
      <trkpt lat="43.49673" lon="-0.44572">
        <ele>226.048</ele>
        <time>2016-09-25T17:24:42Z</time>
      </trkpt>
      <trkpt lat="43.49514" lon="-0.44392">
        <ele>226.849</ele>
        <time>2016-09-25T17:25:02Z</time>
      </trkpt>
      <trkpt lat="43.49425" lon="-0.44353">
        <ele>215.862</ele>
        <time>2016-09-25T17:25:22Z</time>
      </trkpt>
      <trkpt lat="43.4938" lon="-0.44284">
        <ele>209.721</ele>
        <time>2016-09-25T17:25:42Z</time>
      </trkpt>
      <trkpt lat="43.49293" lon="-0.44257">
        <ele>203.916</ele>
        <time>2016-09-25T17:26:02Z</time>
      </trkpt>
      <trkpt lat="43.49232" lon="-0.44261">
        <ele>207.776</ele>
        <time>2016-09-25T17:26:22Z</time>
      </trkpt>
      <trkpt lat="43.49007" lon="-0.43971">
        <ele>225.013</ele>
        <time>2016-09-25T17:26:42Z</time>
      </trkpt>
      <trkpt lat="43.48927" lon="-0.4381">
        <ele>231.008</ele>
        <time>2016-09-25T17:27:02Z</time>
      </trkpt>
      <trkpt lat="43.48926" lon="-0.43752">
        <ele>232.437</ele>
        <time>2016-09-25T17:27:22Z</time>
      </trkpt>
      <trkpt lat="43.48901" lon="-0.43619">
        <ele>234.624</ele>
        <time>2016-09-25T17:27:42Z</time>
      </trkpt>
      <trkpt lat="43.4884" lon="-0.43686">
        <ele>230.743</ele>
        <time>2016-09-25T17:28:02Z</time>
      </trkpt>
      <trkpt lat="43.48814" lon="-0.43789">
        <ele>218.322</ele>
        <time>2016-09-25T17:28:22Z</time>
      </trkpt>
      <trkpt lat="43.4881" lon="-0.43986">
        <ele>201.768</ele>
        <time>2016-09-25T17:28:42Z</time>
      </trkpt>
      <trkpt lat="43.48809" lon="-0.44095">
        <ele>184.839</ele>
        <time>2019-03-30T16:06:05Z</time>
      </trkpt>
      <trkpt lat="43.48776" lon="-0.44151">
        <ele>188.482</ele>
        <time>2016-09-25T17:29:22Z</time>
      </trkpt>
      <trkpt lat="43.48806" lon="-0.44246">
        <ele>189.181</ele>
        <time>2016-09-25T17:29:42Z</time>
      </trkpt>
      <trkpt lat="43.48759" lon="-0.44212">
        <ele>200.523</ele>
        <time>2016-09-25T17:30:02Z</time>
      </trkpt>
      <trkpt lat="43.48725" lon="-0.44254">
        <ele>207.283</ele>
        <time>2016-09-25T17:30:22Z</time>
      </trkpt>
      <trkpt lat="43.48658" lon="-0.44276">
        <ele>223.011</ele>
        <time>2016-09-25T17:30:42Z</time>
      </trkpt>
      <trkpt lat="43.48653" lon="-0.44342">
        <ele>233.408</ele>
        <time>2016-09-25T17:31:02Z</time>
      </trkpt>
      <trkpt lat="43.4861" lon="-0.4446">
        <ele>240.068</ele>
        <time>2016-09-25T17:31:22Z</time>
      </trkpt>
      <trkpt lat="43.48608" lon="-0.44561">
        <ele>240.065</ele>
        <time>2016-09-25T17:31:42Z</time>
      </trkpt>
      <trkpt lat="43.48566" lon="-0.44677">
        <ele>240.624</ele>
        <time>2016-09-25T17:32:02Z</time>
      </trkpt>
      <trkpt lat="43.48533" lon="-0.44799">
        <ele>245.083</ele>
        <time>2016-09-25T17:32:22Z</time>
      </trkpt>
      <trkpt lat="43.4851" lon="-0.44862">
        <ele>245.019</ele>
        <time>2016-09-25T17:32:42Z</time>
      </trkpt>
      <trkpt lat="43.48466" lon="-0.44821">
        <ele>245.08</ele>
        <time>2016-09-25T17:33:02Z</time>
      </trkpt>
      <trkpt lat="43.48384" lon="-0.4481">
        <ele>245.063</ele>
        <time>2016-09-25T17:33:22Z</time>
      </trkpt>
      <trkpt lat="43.48359" lon="-0.44909">
        <ele>241.872</ele>
        <time>2016-09-25T17:33:42Z</time>
      </trkpt>
      <trkpt lat="43.48378" lon="-0.45278">
        <ele>220.889</ele>
        <time>2016-09-25T17:34:02Z</time>
      </trkpt>
      <trkpt lat="43.48345" lon="-0.45538">
        <ele>212.006</ele>
        <time>2016-09-25T17:34:22Z</time>
      </trkpt>
      <trkpt lat="43.48346" lon="-0.45619">
        <ele>209.226</ele>
        <time>2016-09-25T17:34:42Z</time>
      </trkpt>
      <trkpt lat="43.48314" lon="-0.45802">
        <ele>206.208</ele>
        <time>2016-09-25T17:35:02Z</time>
      </trkpt>
      <trkpt lat="43.48297" lon="-0.45971">
        <ele>206.444</ele>
        <time>2016-09-25T17:35:22Z</time>
      </trkpt>
      <trkpt lat="43.48262" lon="-0.46014">
        <ele>207.441</ele>
        <time>2016-09-25T17:35:42Z</time>
      </trkpt>
      <trkpt lat="43.48216" lon="-0.46156">
        <ele>202.95</ele>
        <time>2016-09-25T17:36:02Z</time>
      </trkpt>
      <trkpt lat="43.48231" lon="-0.46226">
        <ele>201.959</ele>
        <time>2016-09-25T17:36:22Z</time>
      </trkpt>
      <trkpt lat="43.48223" lon="-0.46317">
        <ele>204.925</ele>
        <time>2016-09-25T17:36:42Z</time>
      </trkpt>
      <trkpt lat="43.48231" lon="-0.46394">
        <ele>205.026</ele>
        <time>2016-09-25T17:37:02Z</time>
      </trkpt>
      <trkpt lat="43.48214" lon="-0.46542">
        <ele>193.359</ele>
        <time>2016-09-25T17:37:22Z</time>
      </trkpt>
      <trkpt lat="43.48113" lon="-0.46632">
        <ele>180.878</ele>
        <time>2016-09-25T17:37:42Z</time>
      </trkpt>
      <trkpt lat="43.48052" lon="-0.46733">
        <ele>174.021</ele>
        <time>2016-09-25T17:38:02Z</time>
      </trkpt>
      <trkpt lat="43.48074" lon="-0.46889">
        <ele>161.341</ele>
        <time>2016-09-25T17:38:22Z</time>
      </trkpt>
      <trkpt lat="43.48063" lon="-0.47061">
        <ele>141.705</ele>
        <time>2016-09-25T17:38:42Z</time>
      </trkpt>
      <trkpt lat="43.47928" lon="-0.47355">
        <ele>126.008</ele>
        <time>2016-09-25T17:39:02Z</time>
      </trkpt>
      <trkpt lat="43.47906" lon="-0.47434">
        <ele>124.078</ele>
        <time>2016-09-25T17:39:22Z</time>
      </trkpt>
      <trkpt lat="43.47795" lon="-0.47544">
        <ele>121.325</ele>
        <time>2016-09-25T17:39:42Z</time>
      </trkpt>
      <trkpt lat="43.47523" lon="-0.47683">
        <ele>115.074</ele>
        <time>2016-09-25T17:40:02Z</time>
      </trkpt>
      <trkpt lat="43.47478" lon="-0.47851">
        <ele>113.093</ele>
        <time>2016-09-25T17:40:22Z</time>
      </trkpt>
      <trkpt lat="43.47412" lon="-0.47999">
        <ele>111.079</ele>
        <time>2016-09-25T17:40:42Z</time>
      </trkpt>
      <trkpt lat="43.47331" lon="-0.47973">
        <ele>110.94</ele>
        <time>2016-09-25T17:41:02Z</time>
      </trkpt>
      <trkpt lat="43.47208" lon="-0.47988">
        <ele>110.093</ele>
        <time>2016-09-25T17:41:22Z</time>
      </trkpt>
      <trkpt lat="43.47107" lon="-0.47947">
        <ele>110.342</ele>
        <time>2016-09-25T17:41:42Z</time>
      </trkpt>
      <trkpt lat="43.47087" lon="-0.47969">
        <ele>111.026</ele>
        <time>2016-09-25T17:42:02Z</time>
      </trkpt>
      <trkpt lat="43.47084" lon="-0.48014">
        <ele>113.047</ele>
        <time>2016-09-25T17:42:22Z</time>
      </trkpt>
      <trkpt lat="43.47" lon="-0.48025">
        <ele>122.711</ele>
        <time>2016-09-25T17:42:42Z</time>
      </trkpt>
      <trkpt lat="43.46973" lon="-0.4801">
        <ele>123.608</ele>
        <time>2016-09-25T17:43:02Z</time>
      </trkpt>
      <trkpt lat="43.46911" lon="-0.48016">
        <ele>132.218</ele>
        <time>2016-09-25T17:43:22Z</time>
      </trkpt>
      <trkpt lat="43.46889" lon="-0.48044">
        <ele>138.155</ele>
        <time>2016-09-25T17:43:42Z</time>
      </trkpt>
      <trkpt lat="43.46803" lon="-0.48078">
        <ele>140.064</ele>
        <time>2016-09-25T17:44:02Z</time>
      </trkpt>
      <trkpt lat="43.46719" lon="-0.48145">
        <ele>140.033</ele>
        <time>2016-09-25T17:44:22Z</time>
      </trkpt>
      <trkpt lat="43.46905" lon="-0.48477">
        <ele>140.089</ele>
        <time>2016-09-25T17:44:42Z</time>
      </trkpt>
      <trkpt lat="43.46912" lon="-0.48537">
        <ele>140.07</ele>
        <time>2016-09-25T17:45:02Z</time>
      </trkpt>
      <trkpt lat="43.46962" lon="-0.48604">
        <ele>140.043</ele>
        <time>2016-09-25T17:45:22Z</time>
      </trkpt>
      <trkpt lat="43.47043" lon="-0.4858">
        <ele>140.072</ele>
        <time>2016-09-25T17:45:42Z</time>
      </trkpt>
      <trkpt lat="43.47124" lon="-0.48664">
        <ele>140.048</ele>
        <time>2016-09-25T17:46:02Z</time>
      </trkpt>
      <trkpt lat="43.47202" lon="-0.48726">
        <ele>140.061</ele>
        <time>2016-09-25T17:46:22Z</time>
      </trkpt>
      <trkpt lat="43.47353" lon="-0.48962">
        <ele>137.117</ele>
        <time>2016-09-25T17:46:42Z</time>
      </trkpt>
      <trkpt lat="43.47464" lon="-0.49082">
        <ele>135.008</ele>
        <time>2016-09-25T17:47:02Z</time>
      </trkpt>
      <trkpt lat="43.4752" lon="-0.49134">
        <ele>134.87</ele>
        <time>2016-09-25T17:47:22Z</time>
      </trkpt>
      <trkpt lat="43.47663" lon="-0.49359">
        <ele>122.767</ele>
        <time>2016-09-25T17:47:42Z</time>
      </trkpt>
      <trkpt lat="43.47677" lon="-0.49469">
        <ele>116.436</ele>
        <time>2016-09-25T17:48:02Z</time>
      </trkpt>
      <trkpt lat="43.47753" lon="-0.49582">
        <ele>109.095</ele>
        <time>2016-09-25T17:48:22Z</time>
      </trkpt>
      <trkpt lat="43.4783" lon="-0.49748">
        <ele>109.011</ele>
        <time>2016-09-25T17:48:42Z</time>
      </trkpt>
      <trkpt lat="43.47836" lon="-0.49818">
        <ele>109.022</ele>
        <time>2016-09-25T17:49:02Z</time>
      </trkpt>
      <trkpt lat="43.4783" lon="-0.49879">
        <ele>110.195</ele>
        <time>2016-09-25T17:49:22Z</time>
      </trkpt>
      <trkpt lat="43.47872" lon="-0.49924">
        <ele>109.774</ele>
        <time>2016-09-25T17:49:42Z</time>
      </trkpt>
      <trkpt lat="43.47898" lon="-0.49994">
        <ele>111.815</ele>
        <time>2016-09-25T17:50:02Z</time>
      </trkpt>
      <trkpt lat="43.47887" lon="-0.50093">
        <ele>115.865</ele>
        <time>2016-09-25T17:50:22Z</time>
      </trkpt>
      <trkpt lat="43.47865" lon="-0.50168">
        <ele>122.911</ele>
        <time>2016-09-25T17:50:42Z</time>
      </trkpt>
      <trkpt lat="43.47912" lon="-0.50245">
        <ele>127.708</ele>
        <time>2016-09-25T17:51:02Z</time>
      </trkpt>
      <trkpt lat="43.47928" lon="-0.5031">
        <ele>131.817</ele>
        <time>2016-09-25T17:51:22Z</time>
      </trkpt>
      <trkpt lat="43.48024" lon="-0.50342">
        <ele>131.474</ele>
        <time>2016-09-25T17:51:42Z</time>
      </trkpt>
      <trkpt lat="43.48021" lon="-0.50396">
        <ele>133.033</ele>
        <time>2016-09-25T17:52:02Z</time>
      </trkpt>
      <trkpt lat="43.47976" lon="-0.50496">
        <ele>132.962</ele>
        <time>2016-09-25T17:52:22Z</time>
      </trkpt>
      <trkpt lat="43.47988" lon="-0.50638">
        <ele>134.678</ele>
        <time>2016-09-25T17:52:42Z</time>
      </trkpt>
      <trkpt lat="43.47886" lon="-0.50756">
        <ele>135.099</ele>
        <time>2016-09-25T17:53:02Z</time>
      </trkpt>
      <trkpt lat="43.48018" lon="-0.51106">
        <ele>134.042</ele>
        <time>2016-09-25T17:53:22Z</time>
      </trkpt>
      <trkpt lat="43.4802" lon="-0.51157">
        <ele>134.391</ele>
        <time>2016-09-25T17:53:42Z</time>
      </trkpt>
      <trkpt lat="43.4804" lon="-0.51213">
        <ele>133.626</ele>
        <time>2016-09-25T17:54:02Z</time>
      </trkpt>
      <trkpt lat="43.4827" lon="-0.51438">
        <ele>130.047</ele>
        <time>2016-09-25T17:54:22Z</time>
      </trkpt>
      <trkpt lat="43.48368" lon="-0.5152">
        <ele>130.011</ele>
        <time>2016-09-25T17:54:42Z</time>
      </trkpt>
      <trkpt lat="43.48191" lon="-0.51778">
        <ele>117.008</ele>
        <time>2016-09-25T17:55:02Z</time>
      </trkpt>
      <trkpt lat="43.48111" lon="-0.51962">
        <ele>115.648</ele>
        <time>2016-09-25T17:55:22Z</time>
      </trkpt>
      <trkpt lat="43.4806" lon="-0.51986">
        <ele>118.435</ele>
        <time>2016-09-25T17:55:42Z</time>
      </trkpt>
      <trkpt lat="43.4801" lon="-0.51975">
        <ele>118.214</ele>
        <time>2016-09-25T17:56:02Z</time>
      </trkpt>
      <trkpt lat="43.47984" lon="-0.52007">
        <ele>124.813</ele>
        <time>2016-09-25T17:56:22Z</time>
      </trkpt>
      <trkpt lat="43.47987" lon="-0.52093">
        <ele>130.279</ele>
        <time>2016-09-25T17:56:42Z</time>
      </trkpt>
      <trkpt lat="43.47982" lon="-0.52181">
        <ele>131.89</ele>
        <time>2016-09-25T17:57:02Z</time>
      </trkpt>
      <trkpt lat="43.48202" lon="-0.52112">
        <ele>130.083</ele>
        <time>2016-09-25T17:57:22Z</time>
      </trkpt>
      <trkpt lat="43.48259" lon="-0.52134">
        <ele>130.812</ele>
        <time>2016-09-25T17:57:42Z</time>
      </trkpt>
      <trkpt lat="43.48259" lon="-0.52134">
        <ele>130.826</ele>
        <time>2016-09-25T17:58:02Z</time>
      </trkpt>
      <trkpt lat="43.48294" lon="-0.5225">
        <ele>131.047</ele>
        <time>2016-09-25T17:58:22Z</time>
      </trkpt>
      <trkpt lat="43.48304" lon="-0.52316">
        <ele>132.011</ele>
        <time>2016-09-25T17:58:42Z</time>
      </trkpt>
      <trkpt lat="43.48345" lon="-0.52393">
        <ele>132.008</ele>
        <time>2016-09-25T17:59:02Z</time>
      </trkpt>
      <trkpt lat="43.48606" lon="-0.52728">
        <ele>130.868</ele>
        <time>2016-09-25T17:59:22Z</time>
      </trkpt>
      <trkpt lat="43.48647" lon="-0.52829">
        <ele>130.065</ele>
        <time>2016-09-25T17:59:42Z</time>
      </trkpt>
      <trkpt lat="43.48748" lon="-0.5299">
        <ele>130.094</ele>
        <time>2016-09-25T18:00:02Z</time>
      </trkpt>
      <trkpt lat="43.48782" lon="-0.53099">
        <ele>130.033</ele>
        <time>2016-09-25T18:00:22Z</time>
      </trkpt>
      <trkpt lat="43.48829" lon="-0.53479">
        <ele>129.489</ele>
        <time>2016-09-25T18:00:42Z</time>
      </trkpt>
      <trkpt lat="43.48814" lon="-0.53511">
        <ele>130.03</ele>
        <time>2016-09-25T18:01:02Z</time>
      </trkpt>
      <trkpt lat="43.4887" lon="-0.53767">
        <ele>130.033</ele>
        <time>2016-09-25T18:01:22Z</time>
      </trkpt>
      <trkpt lat="43.48776" lon="-0.53831">
        <ele>130.012</ele>
        <time>2019-03-30T16:38:45Z</time>
      </trkpt>
      <trkpt lat="43.48883" lon="-0.54046">
        <ele>130.084</ele>
        <time>2019-03-30T16:39:05Z</time>
      </trkpt>
      <trkpt lat="43.4894" lon="-0.54198">
        <ele>129.807</ele>
        <time>2016-09-25T18:02:22Z</time>
      </trkpt>
      <trkpt lat="43.48814" lon="-0.54449">
        <ele>125.017</ele>
        <time>2016-09-25T18:02:42Z</time>
      </trkpt>
      <trkpt lat="43.48709" lon="-0.54397">
        <ele>128.008</ele>
        <time>2016-09-25T18:03:02Z</time>
      </trkpt>
      <trkpt lat="43.48613" lon="-0.54496">
        <ele>130.034</ele>
        <time>2016-09-25T18:03:22Z</time>
      </trkpt>
      <trkpt lat="43.48375" lon="-0.54527">
        <ele>133.561</ele>
        <time>2019-03-30T16:40:45Z</time>
      </trkpt>
      <trkpt lat="43.48085" lon="-0.54985">
        <ele>134.45</ele>
        <time>2016-09-25T18:04:02Z</time>
      </trkpt>
      <trkpt lat="43.47897" lon="-0.55144">
        <ele>133.819</ele>
        <time>2016-09-25T18:04:22Z</time>
      </trkpt>
      <trkpt lat="43.47826" lon="-0.55221">
        <ele>133.065</ele>
        <time>2016-09-25T18:04:42Z</time>
      </trkpt>
      <trkpt lat="43.47789" lon="-0.55247">
        <ele>133.086</ele>
        <time>2016-09-25T18:05:02Z</time>
      </trkpt>
      <trkpt lat="43.47699" lon="-0.555">
        <ele>133.049</ele>
        <time>2016-09-25T18:05:22Z</time>
      </trkpt>
      <trkpt lat="43.47582" lon="-0.5596">
        <ele>132.078</ele>
        <time>2016-09-25T18:05:42Z</time>
      </trkpt>
      <trkpt lat="43.47541" lon="-0.56114">
        <ele>131.073</ele>
        <time>2016-09-25T18:06:02Z</time>
      </trkpt>
      <trkpt lat="43.47515" lon="-0.5629">
        <ele>130.085</ele>
        <time>2016-09-25T18:06:22Z</time>
      </trkpt>
      <trkpt lat="43.47521" lon="-0.56365">
        <ele>130.013</ele>
        <time>2016-09-25T18:06:42Z</time>
      </trkpt>
      <trkpt lat="43.47545" lon="-0.5641">
        <ele>130.008</ele>
        <time>2016-09-25T18:07:02Z</time>
      </trkpt>
      <trkpt lat="43.47489" lon="-0.56557">
        <ele>130.073</ele>
        <time>2019-03-30T16:44:25Z</time>
      </trkpt>
      <trkpt lat="43.47452" lon="-0.56585">
        <ele>130.05</ele>
        <time>2019-03-30T16:44:45Z</time>
      </trkpt>
      <trkpt lat="43.47378" lon="-0.56541">
        <ele>130.099</ele>
        <time>2019-03-30T16:45:05Z</time>
      </trkpt>
      <trkpt lat="43.47271" lon="-0.56529">
        <ele>130.048</ele>
        <time>2019-03-30T16:45:25Z</time>
      </trkpt>
      <trkpt lat="43.47214" lon="-0.56582">
        <ele>131.054</ele>
        <time>2016-09-25T18:08:42Z</time>
      </trkpt>
      <trkpt lat="43.4716" lon="-0.56526">
        <ele>131.075</ele>
        <time>2016-09-25T18:09:02Z</time>
      </trkpt>
      <trkpt lat="43.46987" lon="-0.56766">
        <ele>135.398</ele>
        <time>2016-09-25T18:09:22Z</time>
      </trkpt>
      <trkpt lat="43.46933" lon="-0.56867">
        <ele>138.677</ele>
        <time>2016-09-25T18:09:42Z</time>
      </trkpt>
      <trkpt lat="43.46777" lon="-0.57056">
        <ele>153.158</ele>
        <time>2016-09-25T18:10:02Z</time>
      </trkpt>
      <trkpt lat="43.46697" lon="-0.57105">
        <ele>162.152</ele>
        <time>2016-09-25T18:10:22Z</time>
      </trkpt>
      <trkpt lat="43.4666" lon="-0.57174">
        <ele>171.217</ele>
        <time>2016-09-25T18:10:42Z</time>
      </trkpt>
      <trkpt lat="43.46662" lon="-0.57219">
        <ele>178.208</ele>
        <time>2016-09-25T18:11:02Z</time>
      </trkpt>
      <trkpt lat="43.46694" lon="-0.57286">
        <ele>188.131</ele>
        <time>2016-09-25T18:11:22Z</time>
      </trkpt>
      <trkpt lat="43.46696" lon="-0.57434">
        <ele>198.478</ele>
        <time>2016-09-25T18:11:42Z</time>
      </trkpt>
      <trkpt lat="43.46641" lon="-0.57466">
        <ele>199.817</ele>
        <time>2016-09-25T18:12:02Z</time>
      </trkpt>
      <trkpt lat="43.46624" lon="-0.5755">
        <ele>201.066</ele>
        <time>2016-09-25T18:12:22Z</time>
      </trkpt>
      <trkpt lat="43.46532" lon="-0.57612">
        <ele>200.062</ele>
        <time>2016-09-25T18:12:42Z</time>
      </trkpt>
      <trkpt lat="43.46478" lon="-0.57683">
        <ele>199.953</ele>
        <time>2016-09-25T18:13:02Z</time>
      </trkpt>
      <trkpt lat="43.46478" lon="-0.57756">
        <ele>198.856</ele>
        <time>2016-09-25T18:13:22Z</time>
      </trkpt>
      <trkpt lat="43.46441" lon="-0.57932">
        <ele>194.595</ele>
        <time>2016-09-25T18:13:42Z</time>
      </trkpt>
      <trkpt lat="43.46444" lon="-0.5802">
        <ele>189.795</ele>
        <time>2016-09-25T18:14:02Z</time>
      </trkpt>
      <trkpt lat="43.4642" lon="-0.5815">
        <ele>176.649</ele>
        <time>2016-09-25T18:14:22Z</time>
      </trkpt>
      <trkpt lat="43.46402" lon="-0.58322">
        <ele>157.823</ele>
        <time>2016-09-25T18:14:42Z</time>
      </trkpt>
      <trkpt lat="43.46282" lon="-0.58421">
        <ele>139.008</ele>
        <time>2016-09-25T18:15:02Z</time>
      </trkpt>
      <trkpt lat="43.46236" lon="-0.58543">
        <ele>135.485</ele>
        <time>2016-09-25T18:15:22Z</time>
      </trkpt>
      <trkpt lat="43.46249" lon="-0.58938">
        <ele>134.072</ele>
        <time>2016-09-25T18:15:42Z</time>
      </trkpt>
      <trkpt lat="43.46157" lon="-0.59112">
        <ele>136.451</ele>
        <time>2016-09-25T18:16:02Z</time>
      </trkpt>
      <trkpt lat="43.4616" lon="-0.59337">
        <ele>142.16</ele>
        <time>2016-09-25T18:16:22Z</time>
      </trkpt>
      <trkpt lat="43.46129" lon="-0.59616">
        <ele>155.356</ele>
        <time>2016-09-25T18:16:42Z</time>
      </trkpt>
      <trkpt lat="43.46062" lon="-0.59633">
        <ele>153.167</ele>
        <time>2016-09-25T18:17:02Z</time>
      </trkpt>
      <trkpt lat="43.46031" lon="-0.59794">
        <ele>160.56</ele>
        <time>2016-09-25T18:17:22Z</time>
      </trkpt>
      <trkpt lat="43.45933" lon="-0.59676">
        <ele>167.419</ele>
        <time>2016-09-25T18:17:42Z</time>
      </trkpt>
      <trkpt lat="43.45866" lon="-0.59661">
        <ele>170.911</ele>
        <time>2016-09-25T18:18:02Z</time>
      </trkpt>
      <trkpt lat="43.45807" lon="-0.59663">
        <ele>172.721</ele>
        <time>2016-09-25T18:18:22Z</time>
      </trkpt>
      <trkpt lat="43.45765" lon="-0.59693">
        <ele>172.903</ele>
        <time>2016-09-25T18:18:42Z</time>
      </trkpt>
      <trkpt lat="43.45724" lon="-0.59698">
        <ele>172.208</ele>
        <time>2016-09-25T18:19:02Z</time>
      </trkpt>
      <trkpt lat="43.45587" lon="-0.59775">
        <ele>170.557</ele>
        <time>2016-09-25T18:19:22Z</time>
      </trkpt>
      <trkpt lat="43.45514" lon="-0.59749">
        <ele>167.464</ele>
        <time>2016-09-25T18:19:42Z</time>
      </trkpt>
      <trkpt lat="43.45466" lon="-0.59769">
        <ele>174.263</ele>
        <time>2019-03-30T16:57:05Z</time>
      </trkpt>
      <trkpt lat="43.45548" lon="-0.59901">
        <ele>182.042</ele>
        <time>2016-09-25T18:20:22Z</time>
      </trkpt>
      <trkpt lat="43.45635" lon="-0.59976">
        <ele>187.658</ele>
        <time>2016-09-25T18:20:42Z</time>
      </trkpt>
      <trkpt lat="43.45708" lon="-0.59923">
        <ele>192.619</ele>
        <time>2016-09-25T18:21:02Z</time>
      </trkpt>
      <trkpt lat="43.45819" lon="-0.59934">
        <ele>198.042</ele>
        <time>2016-09-25T18:21:22Z</time>
      </trkpt>
      <trkpt lat="43.45833" lon="-0.60049">
        <ele>204.631</ele>
        <time>2016-09-25T18:21:42Z</time>
      </trkpt>
      <trkpt lat="43.45872" lon="-0.60112">
        <ele>205.037</ele>
        <time>2016-09-25T18:22:02Z</time>
      </trkpt>
      <trkpt lat="43.45937" lon="-0.60127">
        <ele>204.649</ele>
        <time>2019-03-30T16:59:25Z</time>
      </trkpt>
      <trkpt lat="43.46032" lon="-0.60135">
        <ele>203.813</ele>
        <time>2019-03-30T16:59:45Z</time>
      </trkpt>
      <trkpt lat="43.46146" lon="-0.60127">
        <ele>204.708</ele>
        <time>2016-09-25T18:22:42Z</time>
      </trkpt>
      <trkpt lat="43.46254" lon="-0.60191">
        <ele>208.189</ele>
        <time>2016-09-25T18:23:02Z</time>
      </trkpt>
      <trkpt lat="43.46335" lon="-0.60277">
        <ele>209.916</ele>
        <time>2016-09-25T18:23:22Z</time>
      </trkpt>
      <trkpt lat="43.46422" lon="-0.60434">
        <ele>210.025</ele>
        <time>2016-09-25T18:23:42Z</time>
      </trkpt>
      <trkpt lat="43.46483" lon="-0.60618">
        <ele>210.074</ele>
        <time>2016-09-25T18:24:02Z</time>
      </trkpt>
      <trkpt lat="43.4649" lon="-0.60728">
        <ele>210.34</ele>
        <time>2016-09-25T18:24:22Z</time>
      </trkpt>
      <trkpt lat="43.46486" lon="-0.60826">
        <ele>208.381</ele>
        <time>2016-09-25T18:24:42Z</time>
      </trkpt>
      <trkpt lat="43.46433" lon="-0.60968">
        <ele>210.064</ele>
        <time>2016-09-25T18:25:02Z</time>
      </trkpt>
      <trkpt lat="43.46417" lon="-0.61137">
        <ele>210.083</ele>
        <time>2016-09-25T18:25:22Z</time>
      </trkpt>
      <trkpt lat="43.4645" lon="-0.61414">
        <ele>209.222</ele>
        <time>2016-09-25T18:25:42Z</time>
      </trkpt>
      <trkpt lat="43.46501" lon="-0.61509">
        <ele>205.262</ele>
        <time>2016-09-25T18:26:02Z</time>
      </trkpt>
      <trkpt lat="43.46472" lon="-0.61588">
        <ele>202.908</ele>
        <time>2016-09-25T18:26:22Z</time>
      </trkpt>
      <trkpt lat="43.4647" lon="-0.61715">
        <ele>199.208</ele>
        <time>2016-09-25T18:26:42Z</time>
      </trkpt>
      <trkpt lat="43.46487" lon="-0.6191">
        <ele>200.988</ele>
        <time>2016-09-25T18:27:02Z</time>
      </trkpt>
      <trkpt lat="43.46472" lon="-0.6224">
        <ele>215.085</ele>
        <time>2016-09-25T18:27:22Z</time>
      </trkpt>
      <trkpt lat="43.46526" lon="-0.62545">
        <ele>221.554</ele>
        <time>2016-09-25T18:27:42Z</time>
      </trkpt>
      <trkpt lat="43.465" lon="-0.62796">
        <ele>224.313</ele>
        <time>2016-09-25T18:28:02Z</time>
      </trkpt>
      <trkpt lat="43.46523" lon="-0.62944">
        <ele>222.859</ele>
        <time>2016-09-25T18:28:22Z</time>
      </trkpt>
      <trkpt lat="43.46613" lon="-0.63111">
        <ele>227.15</ele>
        <time>2016-09-25T18:28:42Z</time>
      </trkpt>
      <trkpt lat="43.46693" lon="-0.63199">
        <ele>229.533</ele>
        <time>2016-09-25T18:29:02Z</time>
      </trkpt>
      <trkpt lat="43.46736" lon="-0.63225">
        <ele>228.712</ele>
        <time>2016-09-25T18:29:22Z</time>
      </trkpt>
      <trkpt lat="43.46964" lon="-0.63511">
        <ele>219.994</ele>
        <time>2016-09-25T18:29:42Z</time>
      </trkpt>
      <trkpt lat="43.47045" lon="-0.63674">
        <ele>219.957</ele>
        <time>2016-09-25T18:30:02Z</time>
      </trkpt>
      <trkpt lat="43.47112" lon="-0.63927">
        <ele>219.922</ele>
        <time>2016-09-25T18:30:22Z</time>
      </trkpt>
      <trkpt lat="43.47233" lon="-0.64139">
        <ele>214.208</ele>
        <time>2016-09-25T18:30:42Z</time>
      </trkpt>
      <trkpt lat="43.47257" lon="-0.64253">
        <ele>214.135</ele>
        <time>2016-09-25T18:31:02Z</time>
      </trkpt>
      <trkpt lat="43.47222" lon="-0.64463">
        <ele>216.782</ele>
        <time>2016-09-25T18:31:22Z</time>
      </trkpt>
      <trkpt lat="43.47235" lon="-0.64549">
        <ele>216.651</ele>
        <time>2016-09-25T18:31:42Z</time>
      </trkpt>
      <trkpt lat="43.47302" lon="-0.64637">
        <ele>215.08</ele>
        <time>2016-09-25T18:32:02Z</time>
      </trkpt>
      <trkpt lat="43.47325" lon="-0.64706">
        <ele>213.086</ele>
        <time>2016-09-25T18:32:22Z</time>
      </trkpt>
      <trkpt lat="43.47411" lon="-0.64884">
        <ele>203.157</ele>
        <time>2016-09-25T18:32:42Z</time>
      </trkpt>
      <trkpt lat="43.47453" lon="-0.65122">
        <ele>204.95</ele>
        <time>2016-09-25T18:33:02Z</time>
      </trkpt>
      <trkpt lat="43.47602" lon="-0.65251">
        <ele>196.999</ele>
        <time>2016-09-25T18:33:22Z</time>
      </trkpt>
      <trkpt lat="43.47657" lon="-0.65334">
        <ele>194.634</ele>
        <time>2016-09-25T18:33:42Z</time>
      </trkpt>
      <trkpt lat="43.47694" lon="-0.65429">
        <ele>193.555</ele>
        <time>2016-09-25T18:34:02Z</time>
      </trkpt>
      <trkpt lat="43.47696" lon="-0.65631">
        <ele>183.11</ele>
        <time>2016-09-25T18:34:22Z</time>
      </trkpt>
      <trkpt lat="43.47689" lon="-0.65712">
        <ele>182.608</ele>
        <time>2016-09-25T18:34:42Z</time>
      </trkpt>
      <trkpt lat="43.47719" lon="-0.65918">
        <ele>186.119</ele>
        <time>2016-09-25T18:35:02Z</time>
      </trkpt>
      <trkpt lat="43.47688" lon="-0.66234">
        <ele>188.676</ele>
        <time>2016-09-25T18:35:22Z</time>
      </trkpt>
      <trkpt lat="43.47624" lon="-0.66658">
        <ele>185.865</ele>
        <time>2016-09-25T18:35:42Z</time>
      </trkpt>
      <trkpt lat="43.47587" lon="-0.66757">
        <ele>189.694</ele>
        <time>2016-09-25T18:36:02Z</time>
      </trkpt>
      <trkpt lat="43.47562" lon="-0.66761">
        <ele>189.14</ele>
        <time>2016-09-25T18:36:22Z</time>
      </trkpt>
      <trkpt lat="43.47534" lon="-0.66789">
        <ele>189.151</ele>
        <time>2016-09-25T18:36:42Z</time>
      </trkpt>
      <trkpt lat="43.47423" lon="-0.66772">
        <ele>165.584</ele>
        <time>2016-09-25T18:37:02Z</time>
      </trkpt>
      <trkpt lat="43.47375" lon="-0.66787">
        <ele>157.043</ele>
        <time>2016-09-25T18:37:22Z</time>
      </trkpt>
      <trkpt lat="43.47285" lon="-0.66776">
        <ele>140.093</ele>
        <time>2016-09-25T18:37:42Z</time>
      </trkpt>
      <trkpt lat="43.47238" lon="-0.66787">
        <ele>136.265</ele>
        <time>2016-09-25T18:38:02Z</time>
      </trkpt>
      <trkpt lat="43.47191" lon="-0.66761">
        <ele>134.321</ele>
        <time>2016-09-25T18:38:22Z</time>
      </trkpt>
      <trkpt lat="43.47074" lon="-0.66761">
        <ele>129.808</ele>
        <time>2016-09-25T18:38:42Z</time>
      </trkpt>
      <trkpt lat="43.47004" lon="-0.66806">
        <ele>123.515</ele>
        <time>2016-09-25T18:39:02Z</time>
      </trkpt>
      <trkpt lat="43.46895" lon="-0.66839">
        <ele>118.422</ele>
        <time>2016-09-25T18:39:22Z</time>
      </trkpt>
      <trkpt lat="43.46881" lon="-0.66894">
        <ele>120.151</ele>
        <time>2016-09-25T18:39:42Z</time>
      </trkpt>
      <trkpt lat="43.4683" lon="-0.66955">
        <ele>119.28</ele>
        <time>2016-09-25T18:40:02Z</time>
      </trkpt>
      <trkpt lat="43.4673" lon="-0.67238">
        <ele>116.636</ele>
        <time>2016-09-25T18:40:22Z</time>
      </trkpt>
      <trkpt lat="43.46609" lon="-0.67351">
        <ele>109.897</ele>
        <time>2016-09-25T18:40:42Z</time>
      </trkpt>
      <trkpt lat="43.46609" lon="-0.67351">
        <ele>109.87</ele>
        <time>2016-09-25T18:41:02Z</time>
      </trkpt>
      <trkpt lat="43.46537" lon="-0.67442">
        <ele>106.769</ele>
        <time>2016-09-25T18:41:22Z</time>
      </trkpt>
      <trkpt lat="43.46433" lon="-0.67555">
        <ele>102.682</ele>
        <time>2016-09-25T18:41:42Z</time>
      </trkpt>
      <trkpt lat="43.46384" lon="-0.67633">
        <ele>100.843</ele>
        <time>2016-09-25T18:42:02Z</time>
      </trkpt>
      <trkpt lat="43.46236" lon="-0.67768">
        <ele>100.017</ele>
        <time>2016-09-25T18:42:22Z</time>
      </trkpt>
      <trkpt lat="43.46117" lon="-0.67851">
        <ele>95.008</ele>
        <time>2016-09-25T18:42:42Z</time>
      </trkpt>
      <trkpt lat="43.46059" lon="-0.67942">
        <ele>95.994</ele>
        <time>2016-09-25T18:43:02Z</time>
      </trkpt>
      <trkpt lat="43.45937" lon="-0.68068">
        <ele>97.381</ele>
        <time>2016-09-25T18:43:22Z</time>
      </trkpt>
      <trkpt lat="43.45763" lon="-0.68141">
        <ele>94.56</ele>
        <time>2016-09-25T18:43:42Z</time>
      </trkpt>
      <trkpt lat="43.45716" lon="-0.68184">
        <ele>95.069</ele>
        <time>2016-09-25T18:44:02Z</time>
      </trkpt>
      <trkpt lat="43.45624" lon="-0.68201">
        <ele>94.175</ele>
        <time>2016-09-25T18:44:22Z</time>
      </trkpt>
      <trkpt lat="43.455" lon="-0.68203">
        <ele>85.386</ele>
        <time>2016-09-25T18:44:42Z</time>
      </trkpt>
      <trkpt lat="43.45405" lon="-0.68261">
        <ele>77.959</ele>
        <time>2016-09-25T18:45:02Z</time>
      </trkpt>
      <trkpt lat="43.45349" lon="-0.68324">
        <ele>74.058</ele>
        <time>2016-09-25T18:45:22Z</time>
      </trkpt>
      <trkpt lat="43.45269" lon="-0.68326">
        <ele>72.726</ele>
        <time>2016-09-25T18:45:42Z</time>
      </trkpt>
      <trkpt lat="43.45199" lon="-0.68414">
        <ele>70.247</ele>
        <time>2016-09-25T18:46:02Z</time>
      </trkpt>
      <trkpt lat="43.44763" lon="-0.68858">
        <ele>74.011</ele>
        <time>2016-09-25T18:46:22Z</time>
      </trkpt>
      <trkpt lat="43.44704" lon="-0.68888">
        <ele>75.008</ele>
        <time>2016-09-25T18:46:42Z</time>
      </trkpt>
      <trkpt lat="43.44587" lon="-0.68903">
        <ele>75.028</ele>
        <time>2016-09-25T18:47:02Z</time>
      </trkpt>
      <trkpt lat="43.44459" lon="-0.68957">
        <ele>75.055</ele>
        <time>2016-09-25T18:47:22Z</time>
      </trkpt>
      <trkpt lat="43.44269" lon="-0.69057">
        <ele>75.044</ele>
        <time>2016-09-25T18:47:42Z</time>
      </trkpt>
      <trkpt lat="43.44218" lon="-0.69132">
        <ele>75.073</ele>
        <time>2016-09-25T18:48:02Z</time>
      </trkpt>
      <trkpt lat="43.44029" lon="-0.69321">
        <ele>76.059</ele>
        <time>2016-09-25T18:48:22Z</time>
      </trkpt>
      <trkpt lat="43.43948" lon="-0.69242">
        <ele>75.05</ele>
        <time>2016-09-25T18:48:42Z</time>
      </trkpt>
      <trkpt lat="43.43889" lon="-0.69302">
        <ele>76.083</ele>
        <time>2016-09-25T18:49:02Z</time>
      </trkpt>
      <trkpt lat="43.43841" lon="-0.69272">
        <ele>76.062</ele>
        <time>2016-09-25T18:49:22Z</time>
      </trkpt>
      <trkpt lat="43.43686" lon="-0.69259">
        <ele>75.293</ele>
        <time>2016-09-25T18:49:42Z</time>
      </trkpt>
      <trkpt lat="43.4347" lon="-0.69381">
        <ele>76.065</ele>
        <time>2016-09-25T18:50:02Z</time>
      </trkpt>
      <trkpt lat="43.43451" lon="-0.69343">
        <ele>75.821</ele>
        <time>2016-09-25T18:50:22Z</time>
      </trkpt>
      <trkpt lat="43.43317" lon="-0.69266">
        <ele>76.008</ele>
        <time>2016-09-25T18:50:42Z</time>
      </trkpt>
      <trkpt lat="43.4318" lon="-0.69072">
        <ele>77.015</ele>
        <time>2016-09-25T18:51:02Z</time>
      </trkpt>
      <trkpt lat="43.43023" lon="-0.68875">
        <ele>77.682</ele>
        <time>2016-09-25T18:51:22Z</time>
      </trkpt>
      <trkpt lat="43.42957" lon="-0.68813">
        <ele>78.041</ele>
        <time>2016-09-25T18:51:42Z</time>
      </trkpt>
      <trkpt lat="43.42918" lon="-0.68793">
        <ele>78.01</ele>
        <time>2016-09-25T18:52:02Z</time>
      </trkpt>
      <trkpt lat="43.42917" lon="-0.68725">
        <ele>78.056</ele>
        <time>2016-09-25T18:52:22Z</time>
      </trkpt>
      <trkpt lat="43.42862" lon="-0.68617">
        <ele>77.237</ele>
        <time>2016-09-25T18:52:42Z</time>
      </trkpt>
      <trkpt lat="43.42765" lon="-0.68484">
        <ele>77.28</ele>
        <time>2016-09-25T18:53:02Z</time>
      </trkpt>
      <trkpt lat="43.4272" lon="-0.68452">
        <ele>77.359</ele>
        <time>2016-09-25T18:53:22Z</time>
      </trkpt>
      <trkpt lat="43.42697" lon="-0.68407">
        <ele>77.029</ele>
        <time>2016-09-25T18:53:42Z</time>
      </trkpt>
      <trkpt lat="43.42507" lon="-0.6818">
        <ele>78</ele>
        <time>2016-09-25T18:54:02Z</time>
      </trkpt>
      <trkpt lat="43.42462" lon="-0.6815">
        <ele>78.02</ele>
        <time>2016-09-25T18:54:22Z</time>
      </trkpt>
      <trkpt lat="43.42418" lon="-0.68092">
        <ele>78.008</ele>
        <time>2016-09-25T18:54:42Z</time>
      </trkpt>
      <trkpt lat="43.42312" lon="-0.68015">
        <ele>78.898</ele>
        <time>2016-09-25T18:55:02Z</time>
      </trkpt>
      <trkpt lat="43.42187" lon="-0.67961">
        <ele>79.025</ele>
        <time>2016-09-25T18:55:22Z</time>
      </trkpt>
      <trkpt lat="43.421" lon="-0.67873">
        <ele>79.094</ele>
        <time>2016-09-25T18:55:42Z</time>
      </trkpt>
      <trkpt lat="43.41927" lon="-0.67761">
        <ele>87.053</ele>
        <time>2016-09-25T18:56:02Z</time>
      </trkpt>
      <trkpt lat="43.41788" lon="-0.67785">
        <ele>103.249</ele>
        <time>2016-09-25T18:56:22Z</time>
      </trkpt>
      <trkpt lat="43.41712" lon="-0.67836">
        <ele>111.32</ele>
        <time>2016-09-25T18:56:42Z</time>
      </trkpt>
      <trkpt lat="43.4157" lon="-0.67809">
        <ele>128.543</ele>
        <time>2016-09-25T18:57:02Z</time>
      </trkpt>
      <trkpt lat="43.41469" lon="-0.67673">
        <ele>148.262</ele>
        <time>2016-09-25T18:57:22Z</time>
      </trkpt>
      <trkpt lat="43.41389" lon="-0.67607">
        <ele>169.962</ele>
        <time>2016-09-25T18:57:42Z</time>
      </trkpt>
      <trkpt lat="43.4133" lon="-0.67648">
        <ele>172.983</ele>
        <time>2016-09-25T18:58:02Z</time>
      </trkpt>
      <trkpt lat="43.41221" lon="-0.67678">
        <ele>170.011</ele>
        <time>2016-09-25T18:58:22Z</time>
      </trkpt>
      <trkpt lat="43.41155" lon="-0.67729">
        <ele>173.008</ele>
        <time>2016-09-25T18:58:42Z</time>
      </trkpt>
      <trkpt lat="43.41124" lon="-0.67618">
        <ele>173.262</ele>
        <time>2016-09-25T18:59:02Z</time>
      </trkpt>
      <trkpt lat="43.41053" lon="-0.67605">
        <ele>166.119</ele>
        <time>2016-09-25T18:59:22Z</time>
      </trkpt>
      <trkpt lat="43.40934" lon="-0.67553">
        <ele>160.848</ele>
        <time>2016-09-25T18:59:42Z</time>
      </trkpt>
      <trkpt lat="43.40866" lon="-0.67609">
        <ele>147.227</ele>
        <time>2016-09-25T19:00:02Z</time>
      </trkpt>
      <trkpt lat="43.40732" lon="-0.67675">
        <ele>133.653</ele>
        <time>2016-09-25T19:00:22Z</time>
      </trkpt>
      <trkpt lat="43.40675" lon="-0.67806">
        <ele>118.214</ele>
        <time>2016-09-25T19:00:42Z</time>
      </trkpt>
      <trkpt lat="43.40625" lon="-0.67879">
        <ele>108.357</ele>
        <time>2016-09-25T19:01:02Z</time>
      </trkpt>
      <trkpt lat="43.40541" lon="-0.67791">
        <ele>105.776</ele>
        <time>2016-09-25T19:01:22Z</time>
      </trkpt>
      <trkpt lat="43.40382" lon="-0.67881">
        <ele>95.034</ele>
        <time>2016-09-25T19:01:42Z</time>
      </trkpt>
      <trkpt lat="43.40332" lon="-0.67866">
        <ele>95.055</ele>
        <time>2016-09-25T19:02:02Z</time>
      </trkpt>
      <trkpt lat="43.40109" lon="-0.67991">
        <ele>100.01</ele>
        <time>2016-09-25T19:02:22Z</time>
      </trkpt>
      <trkpt lat="43.39936" lon="-0.68177">
        <ele>109.408</ele>
        <time>2019-03-30T17:40:05Z</time>
      </trkpt>
      <trkpt lat="43.39907" lon="-0.68184">
        <ele>109.299</ele>
        <time>2016-09-25T19:03:02Z</time>
      </trkpt>
      <trkpt lat="43.39826" lon="-0.68332">
        <ele>115.756</ele>
        <time>2016-09-25T19:03:22Z</time>
      </trkpt>
      <trkpt lat="43.39805" lon="-0.68332">
        <ele>114.935</ele>
        <time>2016-09-25T19:03:42Z</time>
      </trkpt>
      <trkpt lat="43.39726" lon="-0.68463">
        <ele>117.754</ele>
        <time>2016-09-25T19:04:02Z</time>
      </trkpt>
      <trkpt lat="43.39684" lon="-0.68459">
        <ele>114.33</ele>
        <time>2016-09-25T19:04:22Z</time>
      </trkpt>
      <trkpt lat="43.39676" lon="-0.6848">
        <ele>115.961</ele>
        <time>2016-09-25T19:04:42Z</time>
      </trkpt>
      <trkpt lat="43.3964" lon="-0.6848">
        <ele>115.054</ele>
        <time>2016-09-25T19:05:02Z</time>
      </trkpt>
      <trkpt lat="43.39614" lon="-0.68512">
        <ele>115.063</ele>
        <time>2016-09-25T19:05:22Z</time>
      </trkpt>
      <trkpt lat="43.39546" lon="-0.68451">
        <ele>123.499</ele>
        <time>2019-03-30T17:43:05Z</time>
      </trkpt>
      <trkpt lat="43.39423" lon="-0.68429">
        <ele>129.407</ele>
        <time>2016-09-25T19:06:02Z</time>
      </trkpt>
      <trkpt lat="43.39397" lon="-0.68459">
        <ele>130.427</ele>
        <time>2016-09-25T19:06:22Z</time>
      </trkpt>
      <trkpt lat="43.39453" lon="-0.68517">
        <ele>125.008</ele>
        <time>2016-09-25T19:06:42Z</time>
      </trkpt>
      <trkpt lat="43.39423" lon="-0.68626">
        <ele>126.135</ele>
        <time>2016-09-25T19:07:02Z</time>
      </trkpt>
      <trkpt lat="43.39388" lon="-0.68663">
        <ele>129.552</ele>
        <time>2019-03-30T17:44:45Z</time>
      </trkpt>
      <trkpt lat="43.39405" lon="-0.68905">
        <ele>152.991</ele>
        <time>2016-09-25T19:07:42Z</time>
      </trkpt>
      <trkpt lat="43.39445" lon="-0.69032">
        <ele>163.22</ele>
        <time>2016-09-25T19:08:02Z</time>
      </trkpt>
      <trkpt lat="43.39436" lon="-0.69092">
        <ele>167.316</ele>
        <time>2016-09-25T19:08:22Z</time>
      </trkpt>
      <trkpt lat="43.39447" lon="-0.69158">
        <ele>171.697</ele>
        <time>2016-09-25T19:08:42Z</time>
      </trkpt>
      <trkpt lat="43.39447" lon="-0.6925">
        <ele>177.15</ele>
        <time>2016-09-25T19:09:02Z</time>
      </trkpt>
      <trkpt lat="43.39395" lon="-0.69399">
        <ele>191.979</ele>
        <time>2016-09-25T19:09:22Z</time>
      </trkpt>
      <trkpt lat="43.39419" lon="-0.69476">
        <ele>198.157</ele>
        <time>2016-09-25T19:09:42Z</time>
      </trkpt>
      <trkpt lat="43.39404" lon="-0.69495">
        <ele>196.5</ele>
        <time>2019-03-30T17:47:25Z</time>
      </trkpt>
      <trkpt lat="43.39393" lon="-0.69777">
        <ele>163.02</ele>
        <time>2019-03-30T17:47:45Z</time>
      </trkpt>
      <trkpt lat="43.39399" lon="-0.70081">
        <ele>149.308</ele>
        <time>2016-09-25T19:10:22Z</time>
      </trkpt>
      <trkpt lat="43.39481" lon="-0.70377">
        <ele>125.251</ele>
        <time>2016-09-25T19:10:42Z</time>
      </trkpt>
      <trkpt lat="43.39589" lon="-0.70476">
        <ele>113.328</ele>
        <time>2016-09-25T19:11:02Z</time>
      </trkpt>
      <trkpt lat="43.39606" lon="-0.70525">
        <ele>108.647</ele>
        <time>2016-09-25T19:11:22Z</time>
      </trkpt>
      <trkpt lat="43.39537" lon="-0.70639">
        <ele>110.366</ele>
        <time>2016-09-25T19:11:42Z</time>
      </trkpt>
      <trkpt lat="43.39503" lon="-0.70804">
        <ele>118.232</ele>
        <time>2016-09-25T19:12:02Z</time>
      </trkpt>
      <trkpt lat="43.39037" lon="-0.70712">
        <ele>126.953</ele>
        <time>2016-09-25T19:12:22Z</time>
      </trkpt>
      <trkpt lat="43.38904" lon="-0.70622">
        <ele>127.866</ele>
        <time>2016-09-25T19:12:42Z</time>
      </trkpt>
      <trkpt lat="43.38681" lon="-0.70581">
        <ele>137.275</ele>
        <time>2016-09-25T19:13:02Z</time>
      </trkpt>
      <trkpt lat="43.38608" lon="-0.70624">
        <ele>140.047</ele>
        <time>2016-09-25T19:13:22Z</time>
      </trkpt>
      <trkpt lat="43.3853" lon="-0.70707">
        <ele>138.329</ele>
        <time>2016-09-25T19:13:42Z</time>
      </trkpt>
      <trkpt lat="43.38229" lon="-0.70793">
        <ele>122.721</ele>
        <time>2016-09-25T19:14:02Z</time>
      </trkpt>
      <trkpt lat="43.38184" lon="-0.70834">
        <ele>125.708</ele>
        <time>2016-09-25T19:14:22Z</time>
      </trkpt>
      <trkpt lat="43.38125" lon="-0.70937">
        <ele>135.54</ele>
        <time>2016-09-25T19:14:42Z</time>
      </trkpt>
      <trkpt lat="43.38067" lon="-0.70967">
        <ele>136.557</ele>
        <time>2016-09-25T19:15:02Z</time>
      </trkpt>
      <trkpt lat="43.38047" lon="-0.70967">
        <ele>136.146</ele>
        <time>2016-09-25T19:15:22Z</time>
      </trkpt>
      <trkpt lat="43.38017" lon="-0.71004">
        <ele>140.435</ele>
        <time>2016-09-25T19:15:42Z</time>
      </trkpt>
      <trkpt lat="43.37964" lon="-0.71336">
        <ele>175.051</ele>
        <time>2016-09-25T19:16:02Z</time>
      </trkpt>
      <trkpt lat="43.37858" lon="-0.71396">
        <ele>175.022</ele>
        <time>2016-09-25T19:16:22Z</time>
      </trkpt>
      <trkpt lat="43.37749" lon="-0.71422">
        <ele>175.635</ele>
        <time>2016-09-25T19:16:42Z</time>
      </trkpt>
      <trkpt lat="43.37622" lon="-0.71398">
        <ele>177.644</ele>
        <time>2016-09-25T19:17:02Z</time>
      </trkpt>
      <trkpt lat="43.37499" lon="-0.71416">
        <ele>187.164</ele>
        <time>2016-09-25T19:17:22Z</time>
      </trkpt>
      <trkpt lat="43.37449" lon="-0.71409">
        <ele>192.406</ele>
        <time>2016-09-25T19:17:42Z</time>
      </trkpt>
      <trkpt lat="43.37343" lon="-0.71465">
        <ele>199.216</ele>
        <time>2016-09-25T19:18:02Z</time>
      </trkpt>
      <trkpt lat="43.3729" lon="-0.71546">
        <ele>203.808</ele>
        <time>2016-09-25T19:18:22Z</time>
      </trkpt>
      <trkpt lat="43.37236" lon="-0.71701">
        <ele>218.922</ele>
        <time>2016-09-25T19:18:42Z</time>
      </trkpt>
      <trkpt lat="43.37212" lon="-0.71815">
        <ele>225.059</ele>
        <time>2016-09-25T19:19:02Z</time>
      </trkpt>
      <trkpt lat="43.37089" lon="-0.72019">
        <ele>238.578</ele>
        <time>2016-09-25T19:19:22Z</time>
      </trkpt>
      <trkpt lat="43.37044" lon="-0.72057">
        <ele>246.667</ele>
        <time>2016-09-25T19:19:42Z</time>
      </trkpt>
      <trkpt lat="43.37041" lon="-0.72094">
        <ele>247.313</ele>
        <time>2016-09-25T19:20:02Z</time>
      </trkpt>
      <trkpt lat="43.37119" lon="-0.72396">
        <ele>239.294</ele>
        <time>2016-09-25T19:20:22Z</time>
      </trkpt>
      <trkpt lat="43.372" lon="-0.72531">
        <ele>240.037</ele>
        <time>2016-09-25T19:20:42Z</time>
      </trkpt>
      <trkpt lat="43.37377" lon="-0.72652">
        <ele>240.956</ele>
        <time>2016-09-25T19:21:02Z</time>
      </trkpt>
      <trkpt lat="43.37382" lon="-0.72686">
        <ele>239.849</ele>
        <time>2016-09-25T19:21:22Z</time>
      </trkpt>
      <trkpt lat="43.37371" lon="-0.7274">
        <ele>236.502</ele>
        <time>2016-09-25T19:21:42Z</time>
      </trkpt>
      <trkpt lat="43.3739" lon="-0.72821">
        <ele>232.522</ele>
        <time>2016-09-25T19:22:02Z</time>
      </trkpt>
      <trkpt lat="43.37385" lon="-0.72905">
        <ele>226.408</ele>
        <time>2016-09-25T19:22:22Z</time>
      </trkpt>
      <trkpt lat="43.37409" lon="-0.72963">
        <ele>220.11</ele>
        <time>2016-09-25T19:22:42Z</time>
      </trkpt>
      <trkpt lat="43.37332" lon="-0.73006">
        <ele>213.487</ele>
        <time>2016-09-25T19:23:02Z</time>
      </trkpt>
      <trkpt lat="43.37243" lon="-0.73001">
        <ele>211.536</ele>
        <time>2016-09-25T19:23:22Z</time>
      </trkpt>
      <trkpt lat="43.37156" lon="-0.73044">
        <ele>199.665</ele>
        <time>2016-09-25T19:23:42Z</time>
      </trkpt>
      <trkpt lat="43.37109" lon="-0.73048">
        <ele>189.971</ele>
        <time>2016-09-25T19:24:02Z</time>
      </trkpt>
      <trkpt lat="43.37044" lon="-0.73091">
        <ele>181.492</ele>
        <time>2016-09-25T19:24:22Z</time>
      </trkpt>
      <trkpt lat="43.37044" lon="-0.73091">
        <ele>181.425</ele>
        <time>2016-09-25T19:24:42Z</time>
      </trkpt>
      <trkpt lat="43.36995" lon="-0.73179">
        <ele>172.574</ele>
        <time>2016-09-25T19:25:02Z</time>
      </trkpt>
      <trkpt lat="43.36945" lon="-0.7325">
        <ele>161.183</ele>
        <time>2016-09-25T19:25:22Z</time>
      </trkpt>
      <trkpt lat="43.36846" lon="-0.73229">
        <ele>155.725</ele>
        <time>2016-09-25T19:25:42Z</time>
      </trkpt>
      <trkpt lat="43.36805" lon="-0.73173">
        <ele>157.317</ele>
        <time>2016-09-25T19:26:02Z</time>
      </trkpt>
      <trkpt lat="43.36768" lon="-0.73136">
        <ele>159.208</ele>
        <time>2016-09-25T19:26:22Z</time>
      </trkpt>
      <trkpt lat="43.36713" lon="-0.73197">
        <ele>171.534</ele>
        <time>2016-09-25T19:26:42Z</time>
      </trkpt>
      <trkpt lat="43.36696" lon="-0.73321">
        <ele>180.431</ele>
        <time>2016-09-25T19:27:02Z</time>
      </trkpt>
      <trkpt lat="43.36705" lon="-0.73407">
        <ele>183.51</ele>
        <time>2016-09-25T19:27:22Z</time>
      </trkpt>
      <trkpt lat="43.36739" lon="-0.73533">
        <ele>188.869</ele>
        <time>2016-09-25T19:27:42Z</time>
      </trkpt>
      <trkpt lat="43.36719" lon="-0.73602">
        <ele>195.625</ele>
        <time>2016-09-25T19:28:02Z</time>
      </trkpt>
      <trkpt lat="43.36671" lon="-0.73684">
        <ele>203.936</ele>
        <time>2016-09-25T19:28:22Z</time>
      </trkpt>
      <trkpt lat="43.3661" lon="-0.73877">
        <ele>223.429</ele>
        <time>2016-09-25T19:28:42Z</time>
      </trkpt>
      <trkpt lat="43.36573" lon="-0.73935">
        <ele>230.438</ele>
        <time>2016-09-25T19:29:02Z</time>
      </trkpt>
      <trkpt lat="43.36529" lon="-0.73958">
        <ele>240.846</ele>
        <time>2016-09-25T19:29:22Z</time>
      </trkpt>
      <trkpt lat="43.3646" lon="-0.74029">
        <ele>240.888</ele>
        <time>2016-09-25T19:29:42Z</time>
      </trkpt>
      <trkpt lat="43.36399" lon="-0.74036">
        <ele>240.316</ele>
        <time>2016-09-25T19:30:02Z</time>
      </trkpt>
      <trkpt lat="43.36392" lon="-0.74066">
        <ele>241.008</ele>
        <time>2016-09-25T19:30:22Z</time>
      </trkpt>
      <trkpt lat="43.36334" lon="-0.74036">
        <ele>240.31</ele>
        <time>2016-09-25T19:30:42Z</time>
      </trkpt>
      <trkpt lat="43.36215" lon="-0.73945">
        <ele>240.097</ele>
        <time>2016-09-25T19:31:02Z</time>
      </trkpt>
      <trkpt lat="43.35978" lon="-0.73821">
        <ele>249.526</ele>
        <time>2016-09-25T19:31:22Z</time>
      </trkpt>
      <trkpt lat="43.35925" lon="-0.73754">
        <ele>250.015</ele>
        <time>2016-09-25T19:31:42Z</time>
      </trkpt>
      <trkpt lat="43.35594" lon="-0.73613">
        <ele>256.641</ele>
        <time>2016-09-25T19:32:02Z</time>
      </trkpt>
      <trkpt lat="43.35498" lon="-0.73604">
        <ele>256.992</ele>
        <time>2016-09-25T19:32:22Z</time>
      </trkpt>
      <trkpt lat="43.35463" lon="-0.73581">
        <ele>256.675</ele>
        <time>2016-09-25T19:32:42Z</time>
      </trkpt>
      <trkpt lat="43.35293" lon="-0.73364">
        <ele>254.054</ele>
        <time>2016-09-25T19:33:02Z</time>
      </trkpt>
      <trkpt lat="43.35187" lon="-0.73317">
        <ele>257.596</ele>
        <time>2016-09-25T19:33:22Z</time>
      </trkpt>
      <trkpt lat="43.35092" lon="-0.73237">
        <ele>258.031</ele>
        <time>2016-09-25T19:33:42Z</time>
      </trkpt>
      <trkpt lat="43.35064" lon="-0.73302">
        <ele>260.024</ele>
        <time>2016-09-25T19:34:02Z</time>
      </trkpt>
      <trkpt lat="43.34967" lon="-0.73321">
        <ele>260.108</ele>
        <time>2016-09-25T19:34:22Z</time>
      </trkpt>
      <trkpt lat="43.34788" lon="-0.73443">
        <ele>254.245</ele>
        <time>2016-09-25T19:34:42Z</time>
      </trkpt>
      <trkpt lat="43.34572" lon="-0.73649">
        <ele>237.732</ele>
        <time>2016-09-25T19:35:02Z</time>
      </trkpt>
      <trkpt lat="43.34443" lon="-0.7363">
        <ele>225.631</ele>
        <time>2016-09-25T19:35:22Z</time>
      </trkpt>
      <trkpt lat="43.34402" lon="-0.73677">
        <ele>218.75</ele>
        <time>2016-09-25T19:35:42Z</time>
      </trkpt>
      <trkpt lat="43.34332" lon="-0.73701">
        <ele>208.666</ele>
        <time>2016-09-25T19:36:02Z</time>
      </trkpt>
      <trkpt lat="43.34238" lon="-0.73662">
        <ele>193.147</ele>
        <time>2016-09-25T19:36:22Z</time>
      </trkpt>
      <trkpt lat="43.34149" lon="-0.73666">
        <ele>180.98</ele>
        <time>2016-09-25T19:36:42Z</time>
      </trkpt>
      <trkpt lat="43.3412" lon="-0.73703">
        <ele>178.269</ele>
        <time>2016-09-25T19:37:02Z</time>
      </trkpt>
      <trkpt lat="43.34064" lon="-0.73694">
        <ele>168.974</ele>
        <time>2016-09-25T19:37:22Z</time>
      </trkpt>
      <trkpt lat="43.34029" lon="-0.73707">
        <ele>165.156</ele>
        <time>2016-09-25T19:37:42Z</time>
      </trkpt>
      <trkpt lat="43.34003" lon="-0.73703">
        <ele>164.021</ele>
        <time>2016-09-25T19:38:02Z</time>
      </trkpt>
      <trkpt lat="43.33976" lon="-0.73729">
        <ele>163.208</ele>
        <time>2016-09-25T19:38:22Z</time>
      </trkpt>
      <trkpt lat="43.33936" lon="-0.73724">
        <ele>160.293</ele>
        <time>2016-09-25T19:38:42Z</time>
      </trkpt>
      <trkpt lat="43.3387" lon="-0.7378">
        <ele>160.17</ele>
        <time>2016-09-25T19:39:02Z</time>
      </trkpt>
      <trkpt lat="43.33808" lon="-0.73849">
        <ele>152.499</ele>
        <time>2016-09-25T19:39:22Z</time>
      </trkpt>
      <trkpt lat="43.33772" lon="-0.74042">
        <ele>157.518</ele>
        <time>2016-09-25T19:39:42Z</time>
      </trkpt>
      <trkpt lat="43.33794" lon="-0.74218">
        <ele>148.744</ele>
        <time>2016-09-25T19:40:02Z</time>
      </trkpt>
      <trkpt lat="43.33786" lon="-0.74362">
        <ele>147.415</ele>
        <time>2016-09-25T19:40:22Z</time>
      </trkpt>
      <trkpt lat="43.33762" lon="-0.7443">
        <ele>145.028</ele>
        <time>2016-09-25T19:40:42Z</time>
      </trkpt>
      <trkpt lat="43.33756" lon="-0.74628">
        <ele>142.997</ele>
        <time>2016-09-25T19:41:02Z</time>
      </trkpt>
      <trkpt lat="43.33783" lon="-0.74696">
        <ele>141.976</ele>
        <time>2016-09-25T19:41:22Z</time>
      </trkpt>
      <trkpt lat="43.338" lon="-0.74802">
        <ele>141.79</ele>
        <time>2016-09-25T19:41:42Z</time>
      </trkpt>
      <trkpt lat="43.33789" lon="-0.74971">
        <ele>140.819</ele>
        <time>2016-09-25T19:42:02Z</time>
      </trkpt>
      <trkpt lat="43.3377" lon="-0.75033">
        <ele>140.708</ele>
        <time>2016-09-25T19:42:22Z</time>
      </trkpt>
      <trkpt lat="43.33762" lon="-0.75216">
        <ele>139.053</ele>
        <time>2016-09-25T19:42:42Z</time>
      </trkpt>
      <trkpt lat="43.33781" lon="-0.75392">
        <ele>137.01</ele>
        <time>2016-09-25T19:43:02Z</time>
      </trkpt>
      <trkpt lat="43.33762" lon="-0.7554">
        <ele>136.619</ele>
        <time>2016-09-25T19:43:22Z</time>
      </trkpt>
      <trkpt lat="43.33698" lon="-0.75709">
        <ele>138.368</ele>
        <time>2016-09-25T19:43:42Z</time>
      </trkpt>
      <trkpt lat="43.33739" lon="-0.75887">
        <ele>133.564</ele>
        <time>2016-09-25T19:44:02Z</time>
      </trkpt>
      <trkpt lat="43.33791" lon="-0.76012">
        <ele>129.015</ele>
        <time>2016-09-25T19:44:22Z</time>
      </trkpt>
      <trkpt lat="43.33748" lon="-0.76063">
        <ele>128.098</ele>
        <time>2016-09-25T19:44:42Z</time>
      </trkpt>
      <trkpt lat="43.33698" lon="-0.76098">
        <ele>128.097</ele>
        <time>2016-09-25T19:45:02Z</time>
      </trkpt>
      <trkpt lat="43.33519" lon="-0.76278">
        <ele>127.067</ele>
        <time>2016-09-25T19:45:22Z</time>
      </trkpt>
      <trkpt lat="43.33467" lon="-0.764">
        <ele>126.081</ele>
        <time>2016-09-25T19:45:42Z</time>
      </trkpt>
      <trkpt lat="43.33394" lon="-0.76359">
        <ele>126.019</ele>
        <time>2016-09-25T19:46:02Z</time>
      </trkpt>
      <trkpt lat="43.33338" lon="-0.76289">
        <ele>127.608</ele>
        <time>2016-09-25T19:46:22Z</time>
      </trkpt>
      <trkpt lat="43.33255" lon="-0.76235">
        <ele>129.082</ele>
        <time>2016-09-25T19:46:42Z</time>
      </trkpt>
      <trkpt lat="43.33151" lon="-0.76229">
        <ele>128.889</ele>
        <time>2016-09-25T19:47:02Z</time>
      </trkpt>
      <trkpt lat="43.33102" lon="-0.76186">
        <ele>129.088</ele>
        <time>2016-09-25T19:47:22Z</time>
      </trkpt>
      <trkpt lat="43.33043" lon="-0.76106">
        <ele>129.217</ele>
        <time>2016-09-25T19:47:42Z</time>
      </trkpt>
      <trkpt lat="43.32996" lon="-0.76076">
        <ele>129.363</ele>
        <time>2016-09-25T19:48:02Z</time>
      </trkpt>
      <trkpt lat="43.3287" lon="-0.75905">
        <ele>131.034</ele>
        <time>2016-09-25T19:48:22Z</time>
      </trkpt>
      <trkpt lat="43.32771" lon="-0.75741">
        <ele>132.067</ele>
        <time>2016-09-25T19:48:42Z</time>
      </trkpt>
      <trkpt lat="43.32665" lon="-0.75628">
        <ele>132.456</ele>
        <time>2016-09-25T19:49:02Z</time>
      </trkpt>
      <trkpt lat="43.32545" lon="-0.75565">
        <ele>132.494</ele>
        <time>2016-09-25T19:49:22Z</time>
      </trkpt>
      <trkpt lat="43.32433" lon="-0.75456">
        <ele>130.057</ele>
        <time>2016-09-25T19:49:42Z</time>
      </trkpt>
      <trkpt lat="43.3242" lon="-0.7543">
        <ele>130.022</ele>
        <time>2016-09-25T19:50:02Z</time>
      </trkpt>
      <trkpt lat="43.32353" lon="-0.75415">
        <ele>132.308</ele>
        <time>2019-03-30T18:28:05Z</time>
      </trkpt>
      <trkpt lat="43.32258" lon="-0.75558">
        <ele>131.065</ele>
        <time>2019-03-30T18:28:25Z</time>
      </trkpt>
      <trkpt lat="43.32153" lon="-0.75765">
        <ele>126.212</ele>
        <time>2016-09-25T19:51:02Z</time>
      </trkpt>
      <trkpt lat="43.32092" lon="-0.75842">
        <ele>125.051</ele>
        <time>2016-09-25T19:51:22Z</time>
      </trkpt>
      <trkpt lat="43.32134" lon="-0.7593">
        <ele>124.09</ele>
        <time>2016-09-25T19:51:42Z</time>
      </trkpt>
      <trkpt lat="43.32342" lon="-0.76198">
        <ele>120.066</ele>
        <time>2019-03-30T18:29:45Z</time>
      </trkpt>
      <trkpt lat="43.3232" lon="-0.7623">
        <ele>120.087</ele>
        <time>2019-03-30T18:30:05Z</time>
      </trkpt>
      <trkpt lat="43.3231" lon="-0.7625">
        <ele>120.05</ele>
        <time>2019-03-30T18:30:25Z</time>
      </trkpt>
      <trkpt lat="43.32267" lon="-0.76271">
        <ele>120.149</ele>
        <time>2019-03-30T18:30:45Z</time>
      </trkpt>
      <trkpt lat="43.32266" lon="-0.76279">
        <ele>120.031</ele>
        <time>2019-03-30T18:31:05Z</time>
      </trkpt>
      <trkpt lat="43.32243" lon="-0.76285">
        <ele>120.261</ele>
        <time>2019-03-30T18:31:25Z</time>
      </trkpt>
      <trkpt lat="43.3223" lon="-0.76314">
        <ele>118.307</ele>
        <time>2016-09-25T19:53:02Z</time>
      </trkpt>
      <trkpt lat="43.3228" lon="-0.76533">
        <ele>119.308</ele>
        <time>2016-09-25T19:53:22Z</time>
      </trkpt>
      <trkpt lat="43.32387" lon="-0.76625">
        <ele>120.079</ele>
        <time>2016-09-25T19:53:42Z</time>
      </trkpt>
      <trkpt lat="43.32495" lon="-0.76988">
        <ele>122.646</ele>
        <time>2016-09-25T19:54:02Z</time>
      </trkpt>
      <trkpt lat="43.32494" lon="-0.77374">
        <ele>126.015</ele>
        <time>2016-09-25T19:54:22Z</time>
      </trkpt>
      <trkpt lat="43.32383" lon="-0.77971">
        <ele>134.394</ele>
        <time>2016-09-25T19:54:42Z</time>
      </trkpt>
      <trkpt lat="43.32412" lon="-0.7804">
        <ele>143.42</ele>
        <time>2016-09-25T19:55:02Z</time>
      </trkpt>
      <trkpt lat="43.32607" lon="-0.782">
        <ele>157.041</ele>
        <time>2016-09-25T19:55:22Z</time>
      </trkpt>
      <trkpt lat="43.32667" lon="-0.78222">
        <ele>156.034</ele>
        <time>2016-09-25T19:55:42Z</time>
      </trkpt>
      <trkpt lat="43.32774" lon="-0.782">
        <ele>155.253</ele>
        <time>2016-09-25T19:56:02Z</time>
      </trkpt>
      <trkpt lat="43.32848" lon="-0.78241">
        <ele>155.829</ele>
        <time>2016-09-25T19:56:22Z</time>
      </trkpt>
      <trkpt lat="43.32846" lon="-0.78415">
        <ele>157.5</ele>
        <time>2016-09-25T19:56:42Z</time>
      </trkpt>
      <trkpt lat="43.32857" lon="-0.78621">
        <ele>158.12</ele>
        <time>2016-09-25T19:57:02Z</time>
      </trkpt>
      <trkpt lat="43.32876" lon="-0.78726">
        <ele>156.508</ele>
        <time>2016-09-25T19:57:22Z</time>
      </trkpt>
      <trkpt lat="43.33062" lon="-0.79001">
        <ele>155.058</ele>
        <time>2016-09-25T19:57:42Z</time>
      </trkpt>
      <trkpt lat="43.33018" lon="-0.79065">
        <ele>150.735</ele>
        <time>2016-09-25T19:58:02Z</time>
      </trkpt>
      <trkpt lat="43.33034" lon="-0.79168">
        <ele>144.694</ele>
        <time>2016-09-25T19:58:22Z</time>
      </trkpt>
      <trkpt lat="43.32974" lon="-0.79241">
        <ele>135.263</ele>
        <time>2016-09-25T19:58:42Z</time>
      </trkpt>
      <trkpt lat="43.32981" lon="-0.79344">
        <ele>130.929</ele>
        <time>2016-09-25T19:59:02Z</time>
      </trkpt>
      <trkpt lat="43.32954" lon="-0.79512">
        <ele>123.69</ele>
        <time>2016-09-25T19:59:22Z</time>
      </trkpt>
      <trkpt lat="43.32904" lon="-0.79593">
        <ele>122.643</ele>
        <time>2016-09-25T19:59:42Z</time>
      </trkpt>
      <trkpt lat="43.32737" lon="-0.79683">
        <ele>126.982</ele>
        <time>2016-09-25T20:00:02Z</time>
      </trkpt>
      <trkpt lat="43.32704" lon="-0.79724">
        <ele>124.938</ele>
        <time>2016-09-25T20:00:22Z</time>
      </trkpt>
      <trkpt lat="43.32579" lon="-0.79838">
        <ele>118.17</ele>
        <time>2016-09-25T20:00:42Z</time>
      </trkpt>
      <trkpt lat="43.32537" lon="-0.79844">
        <ele>119.017</ele>
        <time>2016-09-25T20:01:02Z</time>
      </trkpt>
      <trkpt lat="43.32609" lon="-0.79988">
        <ele>118.008</ele>
        <time>2016-09-25T20:01:22Z</time>
      </trkpt>
      <trkpt lat="43.32646" lon="-0.80226">
        <ele>119.039</ele>
        <time>2016-09-25T20:01:42Z</time>
      </trkpt>
      <trkpt lat="43.32637" lon="-0.80314">
        <ele>119.316</ele>
        <time>2016-09-25T20:02:02Z</time>
      </trkpt>
      <trkpt lat="43.32592" lon="-0.80415">
        <ele>123.655</ele>
        <time>2016-09-25T20:02:22Z</time>
      </trkpt>
      <trkpt lat="43.32586" lon="-0.80492">
        <ele>126.694</ele>
        <time>2016-09-25T20:02:42Z</time>
      </trkpt>
      <trkpt lat="43.32592" lon="-0.80522">
        <ele>127.55</ele>
        <time>2021-01-03T20:26:40Z</time>
      </trkpt>
      <trkpt lat="43.32661" lon="-0.80619">
        <ele>139.611</ele>
        <time>2021-01-03T20:27:00Z</time>
      </trkpt>
      <trkpt lat="43.32687" lon="-0.80578">
        <ele>135.144</ele>
        <time>2016-09-25T20:04:42Z</time>
      </trkpt>
      <trkpt lat="43.32736" lon="-0.80539">
        <ele>131.813</ele>
        <time>2021-01-03T20:27:40Z</time>
      </trkpt>
      <trkpt lat="43.32758" lon="-0.80542">
        <ele>132.222</ele>
        <time>2021-01-03T20:28:00Z</time>
      </trkpt>
      <trkpt lat="43.32811" lon="-0.80594">
        <ele>127.762</ele>
        <time>2021-01-03T20:28:20Z</time>
      </trkpt>
      <trkpt lat="43.32838" lon="-0.8061">
        <ele>121.808</ele>
        <time>2016-09-25T20:06:02Z</time>
      </trkpt>
      <trkpt lat="43.32883" lon="-0.80673">
        <ele>120.008</ele>
        <time>2021-01-03T20:29:00Z</time>
      </trkpt>
      <trkpt lat="43.32898" lon="-0.80724">
        <ele>120.028</ele>
        <time>2016-09-25T20:06:42Z</time>
      </trkpt>
      <trkpt lat="43.32924" lon="-0.80715">
        <ele>120.035</ele>
        <time>2016-09-25T20:07:02Z</time>
      </trkpt>
      <trkpt lat="43.32966" lon="-0.80752">
        <ele>120.084</ele>
        <time>2016-09-25T20:07:22Z</time>
      </trkpt>
      <trkpt lat="43.32898" lon="-0.80945">
        <ele>121.723</ele>
        <time>2016-09-25T20:07:42Z</time>
      </trkpt>
      <trkpt lat="43.3277" lon="-0.81029">
        <ele>122.039</ele>
        <time>2016-09-25T20:08:02Z</time>
      </trkpt>
      <trkpt lat="43.32723" lon="-0.81046">
        <ele>123.09</ele>
        <time>2016-09-25T20:08:22Z</time>
      </trkpt>
      <trkpt lat="43.32639" lon="-0.8117">
        <ele>130.063</ele>
        <time>2016-09-25T20:08:42Z</time>
      </trkpt>
      <trkpt lat="43.32612" lon="-0.81301">
        <ele>130.052</ele>
        <time>2016-09-25T20:09:02Z</time>
      </trkpt>
      <trkpt lat="43.32515" lon="-0.814">
        <ele>128.946</ele>
        <time>2016-09-25T20:09:22Z</time>
      </trkpt>
      <trkpt lat="43.3247" lon="-0.81496">
        <ele>128.988</ele>
        <time>2016-09-25T20:09:42Z</time>
      </trkpt>
      <trkpt lat="43.32473" lon="-0.81604">
        <ele>126.416</ele>
        <time>2016-09-25T20:10:02Z</time>
      </trkpt>
      <trkpt lat="43.32509" lon="-0.81797">
        <ele>126.708</ele>
        <time>2016-09-25T20:10:22Z</time>
      </trkpt>
      <trkpt lat="43.32451" lon="-0.82031">
        <ele>126.67</ele>
        <time>2016-09-25T20:10:42Z</time>
      </trkpt>
      <trkpt lat="43.32476" lon="-0.82059">
        <ele>128.377</ele>
        <time>2016-09-25T20:11:02Z</time>
      </trkpt>
      <trkpt lat="43.32465" lon="-0.8214">
        <ele>128.596</ele>
        <time>2016-09-25T20:11:22Z</time>
      </trkpt>
      <trkpt lat="43.32494" lon="-0.82164">
        <ele>132.745</ele>
        <time>2016-09-25T20:11:42Z</time>
      </trkpt>
      <trkpt lat="43.32515" lon="-0.8223">
        <ele>138.781</ele>
        <time>2016-09-25T20:12:02Z</time>
      </trkpt>
      <trkpt lat="43.32553" lon="-0.82265">
        <ele>142.392</ele>
        <time>2016-09-25T20:12:22Z</time>
      </trkpt>
      <trkpt lat="43.32558" lon="-0.82297">
        <ele>143.375</ele>
        <time>2016-09-25T20:12:42Z</time>
      </trkpt>
      <trkpt lat="43.32575" lon="-0.82305">
        <ele>146.474</ele>
        <time>2016-09-25T20:13:02Z</time>
      </trkpt>
      <trkpt lat="43.32651" lon="-0.82458">
        <ele>149.619</ele>
        <time>2016-09-25T20:13:22Z</time>
      </trkpt>
      <trkpt lat="43.32684" lon="-0.82481">
        <ele>151.509</ele>
        <time>2016-09-25T20:13:42Z</time>
      </trkpt>
      <trkpt lat="43.32756" lon="-0.82623">
        <ele>158.819</ele>
        <time>2016-09-25T20:14:02Z</time>
      </trkpt>
      <trkpt lat="43.32795" lon="-0.82571">
        <ele>159.708</ele>
        <time>2016-09-25T20:14:22Z</time>
      </trkpt>
      <trkpt lat="43.32959" lon="-0.82745">
        <ele>160.027</ele>
        <time>2016-09-25T20:14:42Z</time>
      </trkpt>
      <trkpt lat="43.33119" lon="-0.8288">
        <ele>166.334</ele>
        <time>2016-09-25T20:15:02Z</time>
      </trkpt>
      <trkpt lat="43.33165" lon="-0.83005">
        <ele>170.283</ele>
        <time>2016-09-25T20:15:22Z</time>
      </trkpt>
      <trkpt lat="43.33162" lon="-0.83095">
        <ele>170.722</ele>
        <time>2016-09-25T20:15:42Z</time>
      </trkpt>
      <trkpt lat="43.33023" lon="-0.83005">
        <ele>165.068</ele>
        <time>2016-09-25T20:16:02Z</time>
      </trkpt>
      <trkpt lat="43.32932" lon="-0.83018">
        <ele>159.349</ele>
        <time>2016-09-25T20:16:22Z</time>
      </trkpt>
      <trkpt lat="43.32692" lon="-0.82938">
        <ele>141.112</ele>
        <time>2016-09-25T20:16:42Z</time>
      </trkpt>
      <trkpt lat="43.32625" lon="-0.83024">
        <ele>135.021</ele>
        <time>2016-09-25T20:17:02Z</time>
      </trkpt>
      <trkpt lat="43.32646" lon="-0.83095">
        <ele>135.057</ele>
        <time>2016-09-25T20:17:22Z</time>
      </trkpt>
      <trkpt lat="43.32579" lon="-0.83181">
        <ele>141.7</ele>
        <time>2016-09-25T20:17:42Z</time>
      </trkpt>
      <trkpt lat="43.32539" lon="-0.8314">
        <ele>148.02</ele>
        <time>2016-09-25T20:18:02Z</time>
      </trkpt>
      <trkpt lat="43.32506" lon="-0.83155">
        <ele>152.808</ele>
        <time>2016-09-25T20:18:22Z</time>
      </trkpt>
      <trkpt lat="43.32506" lon="-0.83155">
        <ele>152.891</ele>
        <time>2016-09-25T20:18:42Z</time>
      </trkpt>
      <trkpt lat="43.32472" lon="-0.83256">
        <ele>160.038</ele>
        <time>2016-09-25T20:19:02Z</time>
      </trkpt>
      <trkpt lat="43.32431" lon="-0.83307">
        <ele>160.017</ele>
        <time>2016-09-25T20:19:22Z</time>
      </trkpt>
      <trkpt lat="43.32392" lon="-0.83425">
        <ele>161.846</ele>
        <time>2016-09-25T20:19:42Z</time>
      </trkpt>
      <trkpt lat="43.32195" lon="-0.83507">
        <ele>170.052</ele>
        <time>2016-09-25T20:20:02Z</time>
      </trkpt>
      <trkpt lat="43.3203" lon="-0.83531">
        <ele>178.563</ele>
        <time>2016-09-25T20:20:22Z</time>
      </trkpt>
      <trkpt lat="43.31981" lon="-0.83556">
        <ele>180.076</ele>
        <time>2016-09-25T20:20:42Z</time>
      </trkpt>
      <trkpt lat="43.31739" lon="-0.83636">
        <ele>192.775</ele>
        <time>2016-09-25T20:21:02Z</time>
      </trkpt>
      <trkpt lat="43.31669" lon="-0.8381">
        <ele>193.632</ele>
        <time>2016-09-25T20:21:22Z</time>
      </trkpt>
      <trkpt lat="43.3163" lon="-0.83839">
        <ele>190.292</ele>
        <time>2019-03-30T19:00:25Z</time>
      </trkpt>
      <trkpt lat="43.31582" lon="-0.83979">
        <ele>180.111</ele>
        <time>2019-03-30T19:00:45Z</time>
      </trkpt>
      <trkpt lat="43.31531" lon="-0.84041">
        <ele>170.308</ele>
        <time>2019-03-30T19:01:05Z</time>
      </trkpt>
      <trkpt lat="43.31195" lon="-0.84136">
        <ele>170.049</ele>
        <time>2016-09-25T20:23:02Z</time>
      </trkpt>
      <trkpt lat="43.31188" lon="-0.84174">
        <ele>170.836</ele>
        <time>2016-09-25T20:23:22Z</time>
      </trkpt>
      <trkpt lat="43.31202" lon="-0.84299">
        <ele>162.725</ele>
        <time>2016-09-25T20:23:42Z</time>
      </trkpt>
      <trkpt lat="43.31184" lon="-0.84419">
        <ele>155.024</ele>
        <time>2016-09-25T20:24:02Z</time>
      </trkpt>
      <trkpt lat="43.31062" lon="-0.847">
        <ele>122.02</ele>
        <time>2016-09-25T20:24:22Z</time>
      </trkpt>
      <trkpt lat="43.31073" lon="-0.84788">
        <ele>119.851</ele>
        <time>2016-09-25T20:24:42Z</time>
      </trkpt>
      <trkpt lat="43.30998" lon="-0.8493">
        <ele>119.244</ele>
        <time>2016-09-25T20:25:02Z</time>
      </trkpt>
      <trkpt lat="43.30928" lon="-0.85118">
        <ele>115.063</ele>
        <time>2016-09-25T20:25:22Z</time>
      </trkpt>
      <trkpt lat="43.30926" lon="-0.85256">
        <ele>115.759</ele>
        <time>2016-09-25T20:25:42Z</time>
      </trkpt>
      <trkpt lat="43.30968" lon="-0.85462">
        <ele>117.603</ele>
        <time>2016-09-25T20:26:02Z</time>
      </trkpt>
      <trkpt lat="43.31021" lon="-0.85535">
        <ele>118.623</ele>
        <time>2016-09-25T20:26:22Z</time>
      </trkpt>
      <trkpt lat="43.30956" lon="-0.86021">
        <ele>124.808</ele>
        <time>2019-03-30T19:05:05Z</time>
      </trkpt>
      <trkpt lat="43.30966" lon="-0.86103">
        <ele>122.631</ele>
        <time>2019-03-30T19:05:25Z</time>
      </trkpt>
      <trkpt lat="43.31057" lon="-0.86292">
        <ele>118.538</ele>
        <time>2016-09-25T20:27:02Z</time>
      </trkpt>
      <trkpt lat="43.31074" lon="-0.86414">
        <ele>113.227</ele>
        <time>2016-09-25T20:27:22Z</time>
      </trkpt>
      <trkpt lat="43.31034" lon="-0.86507">
        <ele>110.916</ele>
        <time>2016-09-25T20:27:42Z</time>
      </trkpt>
      <trkpt lat="43.31009" lon="-0.86635">
        <ele>103.172</ele>
        <time>2016-09-25T20:28:02Z</time>
      </trkpt>
      <trkpt lat="43.31001" lon="-0.86814">
        <ele>101.093</ele>
        <time>2016-09-25T20:28:22Z</time>
      </trkpt>
      <trkpt lat="43.31076" lon="-0.86895">
        <ele>101.096</ele>
        <time>2016-09-25T20:28:42Z</time>
      </trkpt>
      <trkpt lat="43.31196" lon="-0.86872">
        <ele>102.025</ele>
        <time>2016-09-25T20:29:02Z</time>
      </trkpt>
      <trkpt lat="43.31309" lon="-0.8688">
        <ele>102.085</ele>
        <time>2016-09-25T20:29:22Z</time>
      </trkpt>
      <trkpt lat="43.31296" lon="-0.8697">
        <ele>101.789</ele>
        <time>2016-09-25T20:29:42Z</time>
      </trkpt>
      <trkpt lat="43.31315" lon="-0.86975">
        <ele>101.917</ele>
        <time>2016-09-25T20:30:02Z</time>
      </trkpt>
      <trkpt lat="43.31315" lon="-0.87026">
        <ele>101.008</ele>
        <time>2016-09-25T20:30:22Z</time>
      </trkpt>
      <trkpt lat="43.31154" lon="-0.86983">
        <ele>101.074</ele>
        <time>2016-09-25T20:30:42Z</time>
      </trkpt>
      <trkpt lat="43.30926" lon="-0.86949">
        <ele>100.061</ele>
        <time>2016-09-25T20:31:02Z</time>
      </trkpt>
      <trkpt lat="43.30725" lon="-0.86904">
        <ele>96.48</ele>
        <time>2016-09-25T20:31:22Z</time>
      </trkpt>
      <trkpt lat="43.30448" lon="-0.87258">
        <ele>105.369</ele>
        <time>2016-09-25T20:31:42Z</time>
      </trkpt>
      <trkpt lat="43.3044" lon="-0.87378">
        <ele>110.035</ele>
        <time>2016-09-25T20:32:02Z</time>
      </trkpt>
      <trkpt lat="43.30405" lon="-0.87414">
        <ele>110.056</ele>
        <time>2016-09-25T20:32:22Z</time>
      </trkpt>
      <trkpt lat="43.30395" lon="-0.87468">
        <ele>109.649</ele>
        <time>2016-09-25T20:32:42Z</time>
      </trkpt>
      <trkpt lat="43.30439" lon="-0.8759">
        <ele>105.298</ele>
        <time>2016-09-25T20:33:02Z</time>
      </trkpt>
      <trkpt lat="43.30431" lon="-0.87668">
        <ele>105.077</ele>
        <time>2016-09-25T20:33:22Z</time>
      </trkpt>
      <trkpt lat="43.30584" lon="-0.87912">
        <ele>112.861</ele>
        <time>2016-09-25T20:33:42Z</time>
      </trkpt>
      <trkpt lat="43.30711" lon="-0.8802">
        <ele>113.027</ele>
        <time>2016-09-25T20:34:02Z</time>
      </trkpt>
      <trkpt lat="43.3091" lon="-0.88397">
        <ele>115.008</ele>
        <time>2016-09-25T20:34:22Z</time>
      </trkpt>
      <trkpt lat="43.31095" lon="-0.88867">
        <ele>123.473</ele>
        <time>2016-09-25T20:34:42Z</time>
      </trkpt>
      <trkpt lat="43.31095" lon="-0.88925">
        <ele>124.44</ele>
        <time>2016-09-25T20:35:02Z</time>
      </trkpt>
      <trkpt lat="43.31149" lon="-0.89135">
        <ele>129.829</ele>
        <time>2016-09-25T20:35:22Z</time>
      </trkpt>
      <trkpt lat="43.3129" lon="-0.89421">
        <ele>145.648</ele>
        <time>2016-09-25T20:35:42Z</time>
      </trkpt>
      <trkpt lat="43.31368" lon="-0.89792">
        <ele>170.054</ele>
        <time>2016-09-25T20:36:02Z</time>
      </trkpt>
      <trkpt lat="43.31362" lon="-0.89833">
        <ele>169.955</ele>
        <time>2016-09-25T20:36:22Z</time>
      </trkpt>
      <trkpt lat="43.31254" lon="-0.89822">
        <ele>175.198</ele>
        <time>2016-09-25T20:36:42Z</time>
      </trkpt>
      <trkpt lat="43.31198" lon="-0.89867">
        <ele>179.077</ele>
        <time>2016-09-25T20:37:02Z</time>
      </trkpt>
      <trkpt lat="43.30993" lon="-0.89835">
        <ele>165.864</ele>
        <time>2016-09-25T20:37:22Z</time>
      </trkpt>
      <trkpt lat="43.30928" lon="-0.89785">
        <ele>165.006</ele>
        <time>2016-09-25T20:37:42Z</time>
      </trkpt>
      <trkpt lat="43.3075" lon="-0.89766">
        <ele>161.416</ele>
        <time>2016-09-25T20:38:02Z</time>
      </trkpt>
      <trkpt lat="43.30754" lon="-0.89899">
        <ele>161.208</ele>
        <time>2016-09-25T20:38:22Z</time>
      </trkpt>
      <trkpt lat="43.30867" lon="-0.9044">
        <ele>134.392</ele>
        <time>2016-09-25T20:38:42Z</time>
      </trkpt>
      <trkpt lat="43.30836" lon="-0.90429">
        <ele>128.639</ele>
        <time>2016-09-25T20:39:02Z</time>
      </trkpt>
      <trkpt lat="43.30882" lon="-0.90534">
        <ele>126.848</ele>
        <time>2016-09-25T20:39:22Z</time>
      </trkpt>
      <trkpt lat="43.31015" lon="-0.90624">
        <ele>110.047</ele>
        <time>2016-09-25T20:39:42Z</time>
      </trkpt>
      <trkpt lat="43.31168" lon="-0.90796">
        <ele>108.373</ele>
        <time>2016-09-25T20:40:02Z</time>
      </trkpt>
      <trkpt lat="43.31246" lon="-0.90843">
        <ele>101.314</ele>
        <time>2016-09-25T20:40:22Z</time>
      </trkpt>
      <trkpt lat="43.31293" lon="-0.90895">
        <ele>103.037</ele>
        <time>2016-09-25T20:40:42Z</time>
      </trkpt>
      <trkpt lat="43.31343" lon="-0.91232">
        <ele>102.896</ele>
        <time>2016-09-25T20:41:02Z</time>
      </trkpt>
      <trkpt lat="43.31432" lon="-0.91483">
        <ele>107.475</ele>
        <time>2016-09-25T20:41:22Z</time>
      </trkpt>
      <trkpt lat="43.31348" lon="-0.91463">
        <ele>105.228</ele>
        <time>2016-09-25T20:41:42Z</time>
      </trkpt>
      <trkpt lat="43.31218" lon="-0.91511">
        <ele>109.12</ele>
        <time>2016-09-25T20:42:02Z</time>
      </trkpt>
      <trkpt lat="43.31071" lon="-0.9162">
        <ele>110.208</ele>
        <time>2016-09-25T20:42:22Z</time>
      </trkpt>
      <trkpt lat="43.309" lon="-0.91695">
        <ele>111.353</ele>
        <time>2016-09-25T20:42:42Z</time>
      </trkpt>
      <trkpt lat="43.30793" lon="-0.91787">
        <ele>115.23</ele>
        <time>2016-09-25T20:43:02Z</time>
      </trkpt>
      <trkpt lat="43.3074" lon="-0.91888">
        <ele>114.689</ele>
        <time>2016-09-25T20:43:22Z</time>
      </trkpt>
      <trkpt lat="43.30659" lon="-0.92127">
        <ele>114.428</ele>
        <time>2016-09-25T20:43:42Z</time>
      </trkpt>
      <trkpt lat="43.30597" lon="-0.92245">
        <ele>114.394</ele>
        <time>2016-09-25T20:44:02Z</time>
      </trkpt>
      <trkpt lat="43.3049" lon="-0.92333">
        <ele>111.665</ele>
        <time>2016-09-25T20:44:22Z</time>
      </trkpt>
      <trkpt lat="43.30389" lon="-0.9236">
        <ele>110.068</ele>
        <time>2016-09-25T20:44:42Z</time>
      </trkpt>
      <trkpt lat="43.30326" lon="-0.92302">
        <ele>111.897</ele>
        <time>2016-09-25T20:45:02Z</time>
      </trkpt>
      <trkpt lat="43.30239" lon="-0.92285">
        <ele>114.455</ele>
        <time>2016-09-25T20:45:22Z</time>
      </trkpt>
      <trkpt lat="43.30142" lon="-0.923">
        <ele>116.707</ele>
        <time>2016-09-25T20:45:42Z</time>
      </trkpt>
      <trkpt lat="43.30094" lon="-0.9233">
        <ele>116.417</ele>
        <time>2016-09-25T20:46:02Z</time>
      </trkpt>
      <trkpt lat="43.29963" lon="-0.9235">
        <ele>120.308</ele>
        <time>2016-09-25T20:46:22Z</time>
      </trkpt>
      <trkpt lat="43.29899" lon="-0.92408">
        <ele>119.661</ele>
        <time>2016-09-25T20:46:42Z</time>
      </trkpt>
      <trkpt lat="43.29839" lon="-0.92365">
        <ele>122.818</ele>
        <time>2016-09-25T20:47:02Z</time>
      </trkpt>
      <trkpt lat="43.29775" lon="-0.92371">
        <ele>123.757</ele>
        <time>2016-09-25T20:47:22Z</time>
      </trkpt>
      <trkpt lat="43.29766" lon="-0.92457">
        <ele>131.136</ele>
        <time>2016-09-25T20:47:42Z</time>
      </trkpt>
      <trkpt lat="43.29647" lon="-0.92652">
        <ele>150.542</ele>
        <time>2016-09-25T20:48:02Z</time>
      </trkpt>
      <trkpt lat="43.29603" lon="-0.9277">
        <ele>164.233</ele>
        <time>2016-09-25T20:48:22Z</time>
      </trkpt>
      <trkpt lat="43.29472" lon="-0.92865">
        <ele>180.026</ele>
        <time>2016-09-25T20:48:42Z</time>
      </trkpt>
      <trkpt lat="43.29424" lon="-0.93006">
        <ele>189.995</ele>
        <time>2016-09-25T20:49:02Z</time>
      </trkpt>
      <trkpt lat="43.29416" lon="-0.93086">
        <ele>196.184</ele>
        <time>2016-09-25T20:49:22Z</time>
      </trkpt>
      <trkpt lat="43.29541" lon="-0.93438">
        <ele>207.107</ele>
        <time>2016-09-25T20:49:42Z</time>
      </trkpt>
      <trkpt lat="43.29547" lon="-0.93579">
        <ele>214.017</ele>
        <time>2016-09-25T20:50:02Z</time>
      </trkpt>
      <trkpt lat="43.29416" lon="-0.93856">
        <ele>199.708</ele>
        <time>2016-09-25T20:50:22Z</time>
      </trkpt>
      <trkpt lat="43.29449" lon="-0.94032">
        <ele>191.714</ele>
        <time>2016-09-25T20:50:42Z</time>
      </trkpt>
      <trkpt lat="43.29541" lon="-0.94086">
        <ele>181.311</ele>
        <time>2016-09-25T20:51:02Z</time>
      </trkpt>
      <trkpt lat="43.2958" lon="-0.94122">
        <ele>180.49</ele>
        <time>2016-09-25T20:51:22Z</time>
      </trkpt>
      <trkpt lat="43.29727" lon="-0.94034">
        <ele>177.949</ele>
        <time>2016-09-25T20:51:42Z</time>
      </trkpt>
      <trkpt lat="43.29866" lon="-0.93923">
        <ele>165.695</ele>
        <time>2016-09-25T20:52:02Z</time>
      </trkpt>
      <trkpt lat="43.29897" lon="-0.93957">
        <ele>173.836</ele>
        <time>2016-09-25T20:52:22Z</time>
      </trkpt>
      <trkpt lat="43.29988" lon="-0.93927">
        <ele>172.189</ele>
        <time>2016-09-25T20:52:42Z</time>
      </trkpt>
      <trkpt lat="43.30053" lon="-0.93841">
        <ele>182.968</ele>
        <time>2016-09-25T20:53:02Z</time>
      </trkpt>
      <trkpt lat="43.3005" lon="-0.93764">
        <ele>182.238</ele>
        <time>2016-09-25T20:53:22Z</time>
      </trkpt>
      <trkpt lat="43.30078" lon="-0.93734">
        <ele>185.07</ele>
        <time>2016-09-25T20:53:42Z</time>
      </trkpt>
      <trkpt lat="43.30147" lon="-0.93753">
        <ele>185.017</ele>
        <time>2016-09-25T20:54:02Z</time>
      </trkpt>
      <trkpt lat="43.30222" lon="-0.9368">
        <ele>176.408</ele>
        <time>2016-09-25T20:54:22Z</time>
      </trkpt>
      <trkpt lat="43.3023" lon="-0.93626">
        <ele>176.079</ele>
        <time>2016-09-25T20:54:42Z</time>
      </trkpt>
      <trkpt lat="43.30284" lon="-0.93609">
        <ele>165.536</ele>
        <time>2016-09-25T20:55:02Z</time>
      </trkpt>
      <trkpt lat="43.30342" lon="-0.93564">
        <ele>163.355</ele>
        <time>2016-09-25T20:55:22Z</time>
      </trkpt>
      <trkpt lat="43.30298" lon="-0.93648">
        <ele>159.144</ele>
        <time>2016-09-25T20:55:42Z</time>
      </trkpt>
      <trkpt lat="43.30326" lon="-0.93747">
        <ele>145.73</ele>
        <time>2016-09-25T20:56:02Z</time>
      </trkpt>
      <trkpt lat="43.30398" lon="-0.93877">
        <ele>129.911</ele>
        <time>2016-09-25T20:56:22Z</time>
      </trkpt>
      <trkpt lat="43.30403" lon="-0.93914">
        <ele>129.584</ele>
        <time>2016-09-25T20:56:42Z</time>
      </trkpt>
      <trkpt lat="43.30444" lon="-0.93965">
        <ele>120.463</ele>
        <time>2016-09-25T20:57:02Z</time>
      </trkpt>
      <trkpt lat="43.30484" lon="-0.94038">
        <ele>117.399</ele>
        <time>2016-09-25T20:57:22Z</time>
      </trkpt>
      <trkpt lat="43.30469" lon="-0.94124">
        <ele>111.307</ele>
        <time>2016-09-25T20:57:42Z</time>
      </trkpt>
      <trkpt lat="43.30465" lon="-0.94197">
        <ele>110.227</ele>
        <time>2016-09-25T20:58:02Z</time>
      </trkpt>
      <trkpt lat="43.30519" lon="-0.94253">
        <ele>108.908</ele>
        <time>2016-09-25T20:58:22Z</time>
      </trkpt>
      <trkpt lat="43.30637" lon="-0.94347">
        <ele>102.465</ele>
        <time>2016-09-25T20:58:42Z</time>
      </trkpt>
      <trkpt lat="43.30667" lon="-0.94414">
        <ele>107.282</ele>
        <time>2016-09-25T20:59:02Z</time>
      </trkpt>
      <trkpt lat="43.30701" lon="-0.94457">
        <ele>101.351</ele>
        <time>2016-09-25T20:59:22Z</time>
      </trkpt>
      <trkpt lat="43.30742" lon="-0.94446">
        <ele>100.24</ele>
        <time>2016-09-25T20:59:42Z</time>
      </trkpt>
      <trkpt lat="43.30818" lon="-0.94457">
        <ele>99.166</ele>
        <time>2016-09-25T21:00:02Z</time>
      </trkpt>
      <trkpt lat="43.30857" lon="-0.94536">
        <ele>99.087</ele>
        <time>2016-09-25T21:00:22Z</time>
      </trkpt>
      <trkpt lat="43.30885" lon="-0.94631">
        <ele>101.72</ele>
        <time>2016-09-25T21:00:42Z</time>
      </trkpt>
      <trkpt lat="43.3096" lon="-0.94586">
        <ele>99.729</ele>
        <time>2016-09-25T21:01:02Z</time>
      </trkpt>
      <trkpt lat="43.30957" lon="-0.94665">
        <ele>102.442</ele>
        <time>2016-09-25T21:01:22Z</time>
      </trkpt>
      <trkpt lat="43.30942" lon="-0.94738">
        <ele>105.122</ele>
        <time>2016-09-25T21:01:42Z</time>
      </trkpt>
      <trkpt lat="43.3096" lon="-0.94841">
        <ele>106.914</ele>
        <time>2016-09-25T21:02:02Z</time>
      </trkpt>
      <trkpt lat="43.30937" lon="-0.94929">
        <ele>110.008</ele>
        <time>2016-09-25T21:02:22Z</time>
      </trkpt>
      <trkpt lat="43.30825" lon="-0.95051">
        <ele>111.35</ele>
        <time>2016-09-25T21:02:42Z</time>
      </trkpt>
      <trkpt lat="43.30778" lon="-0.95128">
        <ele>111.627</ele>
        <time>2016-09-25T21:03:02Z</time>
      </trkpt>
      <trkpt lat="43.30743" lon="-0.95347">
        <ele>119.326</ele>
        <time>2016-09-25T21:03:22Z</time>
      </trkpt>
      <trkpt lat="43.30645" lon="-0.95547">
        <ele>120.325</ele>
        <time>2016-09-25T21:03:42Z</time>
      </trkpt>
      <trkpt lat="43.30565" lon="-0.95575">
        <ele>113.561</ele>
        <time>2016-09-25T21:04:02Z</time>
      </trkpt>
      <trkpt lat="43.30639" lon="-0.95839">
        <ele>129.022</ele>
        <time>2016-09-25T21:04:22Z</time>
      </trkpt>
      <trkpt lat="43.30576" lon="-0.95905">
        <ele>135.955</ele>
        <time>2016-09-25T21:04:42Z</time>
      </trkpt>
      <trkpt lat="43.30757" lon="-0.96201">
        <ele>142.844</ele>
        <time>2016-09-25T21:05:02Z</time>
      </trkpt>
      <trkpt lat="43.3085" lon="-0.96463">
        <ele>136.449</ele>
        <time>2016-09-25T21:05:22Z</time>
      </trkpt>
      <trkpt lat="43.30843" lon="-0.96547">
        <ele>129.102</ele>
        <time>2016-09-25T21:05:42Z</time>
      </trkpt>
      <trkpt lat="43.30862" lon="-0.96566">
        <ele>127.622</ele>
        <time>2016-09-25T21:06:02Z</time>
      </trkpt>
      <trkpt lat="43.30895" lon="-0.9656">
        <ele>129.308</ele>
        <time>2016-09-25T21:06:22Z</time>
      </trkpt>
      <trkpt lat="43.30776" lon="-0.96695">
        <ele>135.29</ele>
        <time>2016-09-25T21:06:42Z</time>
      </trkpt>
      <trkpt lat="43.30697" lon="-0.96742">
        <ele>143.637</ele>
        <time>2016-09-25T21:07:02Z</time>
      </trkpt>
      <trkpt lat="43.30558" lon="-0.96796">
        <ele>150.056</ele>
        <time>2016-09-25T21:07:22Z</time>
      </trkpt>
      <trkpt lat="43.30469" lon="-0.96856">
        <ele>158.735</ele>
        <time>2016-09-25T21:07:42Z</time>
      </trkpt>
      <trkpt lat="43.30417" lon="-0.96824">
        <ele>159.711</ele>
        <time>2016-09-25T21:08:02Z</time>
      </trkpt>
      <trkpt lat="43.30364" lon="-0.96744">
        <ele>162.492</ele>
        <time>2016-09-25T21:08:22Z</time>
      </trkpt>
      <trkpt lat="43.30283" lon="-0.96729">
        <ele>168.335</ele>
        <time>2016-09-25T21:08:42Z</time>
      </trkpt>
      <trkpt lat="43.30177" lon="-0.96637">
        <ele>161.734</ele>
        <time>2016-09-25T21:09:02Z</time>
      </trkpt>
      <trkpt lat="43.30019" lon="-0.96594">
        <ele>154.281</ele>
        <time>2016-09-25T21:09:22Z</time>
      </trkpt>
      <trkpt lat="43.299" lon="-0.96628">
        <ele>170.961</ele>
        <time>2016-09-25T21:09:42Z</time>
      </trkpt>
      <trkpt lat="43.29849" lon="-0.96727">
        <ele>173.417</ele>
        <time>2016-09-25T21:10:02Z</time>
      </trkpt>
      <trkpt lat="43.2976" lon="-0.96858">
        <ele>181.508</ele>
        <time>2016-09-25T21:10:22Z</time>
      </trkpt>
      <trkpt lat="43.29733" lon="-0.96954">
        <ele>181.764</ele>
        <time>2016-09-25T21:10:42Z</time>
      </trkpt>
      <trkpt lat="43.29703" lon="-0.96972">
        <ele>181.251</ele>
        <time>2016-09-25T21:11:02Z</time>
      </trkpt>
      <trkpt lat="43.29669" lon="-0.9697">
        <ele>178.89</ele>
        <time>2016-09-25T21:11:22Z</time>
      </trkpt>
      <trkpt lat="43.29475" lon="-0.97088">
        <ele>176.319</ele>
        <time>2016-09-25T21:11:42Z</time>
      </trkpt>
      <trkpt lat="43.29452" lon="-0.97229">
        <ele>186.085</ele>
        <time>2016-09-25T21:12:02Z</time>
      </trkpt>
      <trkpt lat="43.29379" lon="-0.97251">
        <ele>186.096</ele>
        <time>2016-09-25T21:12:22Z</time>
      </trkpt>
      <trkpt lat="43.29339" lon="-0.97294">
        <ele>184.939</ele>
        <time>2016-09-25T21:12:42Z</time>
      </trkpt>
      <trkpt lat="43.29271" lon="-0.97489">
        <ele>188.528</ele>
        <time>2016-09-25T21:13:02Z</time>
      </trkpt>
      <trkpt lat="43.29236" lon="-0.97645">
        <ele>195.041</ele>
        <time>2016-09-25T21:13:22Z</time>
      </trkpt>
      <trkpt lat="43.29193" lon="-0.97684">
        <ele>192.581</ele>
        <time>2016-09-25T21:13:42Z</time>
      </trkpt>
      <trkpt lat="43.29274" lon="-0.97809">
        <ele>177.009</ele>
        <time>2016-09-25T21:14:02Z</time>
      </trkpt>
      <trkpt lat="43.29246" lon="-0.97886">
        <ele>174.308</ele>
        <time>2016-09-25T21:14:22Z</time>
      </trkpt>
      <trkpt lat="43.29205" lon="-0.97931">
        <ele>164.68</ele>
        <time>2016-09-25T21:14:42Z</time>
      </trkpt>
      <trkpt lat="43.29115" lon="-0.97942">
        <ele>148.427</ele>
        <time>2016-09-25T21:15:02Z</time>
      </trkpt>
      <trkpt lat="43.29026" lon="-0.97982">
        <ele>141.986</ele>
        <time>2016-09-25T21:15:22Z</time>
      </trkpt>
      <trkpt lat="43.2893" lon="-0.98152">
        <ele>130.325</ele>
        <time>2016-09-25T21:15:42Z</time>
      </trkpt>
      <trkpt lat="43.28827" lon="-0.98263">
        <ele>121.251</ele>
        <time>2016-09-25T21:16:02Z</time>
      </trkpt>
      <trkpt lat="43.28746" lon="-0.98339">
        <ele>120.162</ele>
        <time>2016-09-25T21:16:22Z</time>
      </trkpt>
      <trkpt lat="43.28687" lon="-0.98583">
        <ele>114.535</ele>
        <time>2016-09-25T21:16:42Z</time>
      </trkpt>
      <trkpt lat="43.28704" lon="-0.98787">
        <ele>105.174</ele>
        <time>2016-09-25T21:17:02Z</time>
      </trkpt>
      <trkpt lat="43.28669" lon="-0.98993">
        <ele>97.759</ele>
        <time>2016-09-25T21:17:22Z</time>
      </trkpt>
      <trkpt lat="43.28699" lon="-0.99006">
        <ele>94.803</ele>
        <time>2016-09-25T21:17:42Z</time>
      </trkpt>
      <trkpt lat="43.28833" lon="-0.99244">
        <ele>92.423</ele>
        <time>2016-09-25T21:18:02Z</time>
      </trkpt>
      <trkpt lat="43.29008" lon="-0.99759">
        <ele>86.608</ele>
        <time>2016-09-25T21:18:22Z</time>
      </trkpt>
      <trkpt lat="43.29229" lon="-0.99969">
        <ele>88.781</ele>
        <time>2016-09-25T21:18:42Z</time>
      </trkpt>
      <trkpt lat="43.2926" lon="-1.00066">
        <ele>90.668</ele>
        <time>2016-09-25T21:19:02Z</time>
      </trkpt>
      <trkpt lat="43.29047" lon="-1.00418">
        <ele>110.077</ele>
        <time>2016-09-25T21:19:22Z</time>
      </trkpt>
      <trkpt lat="43.29044" lon="-1.00577">
        <ele>117.726</ele>
        <time>2016-09-25T21:19:42Z</time>
      </trkpt>
      <trkpt lat="43.29066" lon="-1.00695">
        <ele>125.582</ele>
        <time>2016-09-25T21:20:02Z</time>
      </trkpt>
      <trkpt lat="43.29108" lon="-1.00808">
        <ele>131.353</ele>
        <time>2016-09-25T21:20:22Z</time>
      </trkpt>
      <trkpt lat="43.29099" lon="-1.00862">
        <ele>135.336</ele>
        <time>2016-09-25T21:20:42Z</time>
      </trkpt>
      <trkpt lat="43.29134" lon="-1.01155">
        <ele>132.175</ele>
        <time>2019-03-30T19:59:45Z</time>
      </trkpt>
      <trkpt lat="43.29154" lon="-1.01201">
        <ele>129.518</ele>
        <time>2019-03-30T20:00:05Z</time>
      </trkpt>
      <trkpt lat="43.29261" lon="-1.01235">
        <ele>125.298</ele>
        <time>2019-03-30T20:00:25Z</time>
      </trkpt>
      <trkpt lat="43.29271" lon="-1.01257">
        <ele>122.817</ele>
        <time>2016-09-28T14:12:59Z</time>
      </trkpt>
      <trkpt lat="43.29271" lon="-1.01257">
        <ele>122.808</ele>
        <time>2016-09-28T14:12:59Z</time>
      </trkpt>
      <trkpt lat="43.2925" lon="-1.01332">
        <ele>118.287</ele>
        <time>2016-09-28T14:13:39Z</time>
      </trkpt>
      <trkpt lat="43.29276" lon="-1.01508">
        <ele>109.584</ele>
        <time>2016-09-28T14:14:19Z</time>
      </trkpt>
      <trkpt lat="43.29335" lon="-1.01566">
        <ele>99.723</ele>
        <time>2016-09-28T14:14:59Z</time>
      </trkpt>
      <trkpt lat="43.29374" lon="-1.01658">
        <ele>92.922</ele>
        <time>2016-09-28T14:15:39Z</time>
      </trkpt>
      <trkpt lat="43.29396" lon="-1.01753">
        <ele>89.678</ele>
        <time>2016-09-28T14:16:19Z</time>
      </trkpt>
      <trkpt lat="43.29493" lon="-1.01879">
        <ele>86.459</ele>
        <time>2016-09-28T14:16:59Z</time>
      </trkpt>
      <trkpt lat="43.29554" lon="-1.01993">
        <ele>82.212</ele>
        <time>2016-09-28T14:17:39Z</time>
      </trkpt>
      <trkpt lat="43.29599" lon="-1.02169">
        <ele>82.481</ele>
        <time>2016-09-28T14:18:19Z</time>
      </trkpt>
      <trkpt lat="43.29632" lon="-1.02163">
        <ele>84.122</ele>
        <time>2016-09-28T14:18:59Z</time>
      </trkpt>
      <trkpt lat="43.29657" lon="-1.02191">
        <ele>81.662</ele>
        <time>2016-09-28T14:19:39Z</time>
      </trkpt>
      <trkpt lat="43.29688" lon="-1.02165">
        <ele>75.908</ele>
        <time>2016-09-28T14:20:19Z</time>
      </trkpt>
      <trkpt lat="43.29801" lon="-1.02186">
        <ele>61.908</ele>
        <time>2016-09-28T14:20:59Z</time>
      </trkpt>
      <trkpt lat="43.29809" lon="-1.02298">
        <ele>60.178</ele>
        <time>2016-09-28T14:21:39Z</time>
      </trkpt>
      <trkpt lat="43.29865" lon="-1.02324">
        <ele>65.375</ele>
        <time>2016-09-28T14:22:19Z</time>
      </trkpt>
      <trkpt lat="43.29874" lon="-1.02465">
        <ele>72.574</ele>
        <time>2016-09-28T14:22:59Z</time>
      </trkpt>
      <trkpt lat="43.2991" lon="-1.02583">
        <ele>86.673</ele>
        <time>2016-09-28T14:23:39Z</time>
      </trkpt>
      <trkpt lat="43.2989" lon="-1.0265">
        <ele>87.879</ele>
        <time>2016-09-28T14:24:19Z</time>
      </trkpt>
      <trkpt lat="43.2994" lon="-1.02723">
        <ele>99.49</ele>
        <time>2016-09-28T14:24:59Z</time>
      </trkpt>
      <trkpt lat="43.29921" lon="-1.02819">
        <ele>110.583</ele>
        <time>2016-09-28T14:25:39Z</time>
      </trkpt>
      <trkpt lat="43.29888" lon="-1.02875">
        <ele>114.882</ele>
        <time>2016-09-28T14:26:19Z</time>
      </trkpt>
      <trkpt lat="43.29884" lon="-1.03034">
        <ele>132.952</ele>
        <time>2016-09-28T14:26:59Z</time>
      </trkpt>
      <trkpt lat="43.2986" lon="-1.0307">
        <ele>133.553</ele>
        <time>2016-09-28T14:27:39Z</time>
      </trkpt>
      <trkpt lat="43.29877" lon="-1.033">
        <ele>144.308</ele>
        <time>2016-09-28T14:28:19Z</time>
      </trkpt>
      <trkpt lat="43.29879" lon="-1.03431">
        <ele>144.408</ele>
        <time>2016-09-28T14:28:59Z</time>
      </trkpt>
      <trkpt lat="43.29916" lon="-1.03562">
        <ele>150.891</ele>
        <time>2016-09-28T14:29:39Z</time>
      </trkpt>
      <trkpt lat="43.29648" lon="-1.03764">
        <ele>171.618</ele>
        <time>2016-09-28T14:30:19Z</time>
      </trkpt>
      <trkpt lat="43.29545" lon="-1.0381">
        <ele>191.067</ele>
        <time>2016-09-28T14:30:59Z</time>
      </trkpt>
      <trkpt lat="43.29379" lon="-1.03962">
        <ele>221.056</ele>
        <time>2016-09-28T14:31:39Z</time>
      </trkpt>
      <trkpt lat="43.29284" lon="-1.04022">
        <ele>235.742</ele>
        <time>2016-09-28T14:32:19Z</time>
      </trkpt>
      <trkpt lat="43.29189" lon="-1.04099">
        <ele>255.023</ele>
        <time>2016-09-28T14:32:59Z</time>
      </trkpt>
      <trkpt lat="43.29076" lon="-1.04108">
        <ele>262.796</ele>
        <time>2016-09-28T14:33:39Z</time>
      </trkpt>
      <trkpt lat="43.28864" lon="-1.04194">
        <ele>280.085</ele>
        <time>2016-09-28T14:34:19Z</time>
      </trkpt>
      <trkpt lat="43.28803" lon="-1.04196">
        <ele>282.877</ele>
        <time>2016-09-28T14:34:59Z</time>
      </trkpt>
      <trkpt lat="43.286" lon="-1.04217">
        <ele>275.061</ele>
        <time>2016-09-28T14:35:39Z</time>
      </trkpt>
      <trkpt lat="43.28408" lon="-1.0437">
        <ele>289.927</ele>
        <time>2016-09-28T14:36:19Z</time>
      </trkpt>
      <trkpt lat="43.28408" lon="-1.0437">
        <ele>289.908</ele>
        <time>2016-09-28T14:36:59Z</time>
      </trkpt>
      <trkpt lat="43.28382" lon="-1.04308">
        <ele>286.133</ele>
        <time>2016-09-28T14:37:39Z</time>
      </trkpt>
      <trkpt lat="43.28296" lon="-1.04328">
        <ele>280.56</ele>
        <time>2016-09-28T14:38:19Z</time>
      </trkpt>
      <trkpt lat="43.28216" lon="-1.04377">
        <ele>269.449</ele>
        <time>2016-09-28T14:38:59Z</time>
      </trkpt>
      <trkpt lat="43.28101" lon="-1.04504">
        <ele>253.348</ele>
        <time>2016-09-28T14:39:39Z</time>
      </trkpt>
      <trkpt lat="43.28004" lon="-1.04497">
        <ele>244.954</ele>
        <time>2016-09-28T14:40:19Z</time>
      </trkpt>
      <trkpt lat="43.27846" lon="-1.04377">
        <ele>235.225</ele>
        <time>2016-09-28T14:40:59Z</time>
      </trkpt>
      <trkpt lat="43.27796" lon="-1.04321">
        <ele>224.028</ele>
        <time>2016-09-28T14:41:39Z</time>
      </trkpt>
      <trkpt lat="43.27649" lon="-1.0439">
        <ele>199.827</ele>
        <time>2016-09-28T14:42:19Z</time>
      </trkpt>
      <trkpt lat="43.27604" lon="-1.04433">
        <ele>191.048</ele>
        <time>2016-09-28T14:42:59Z</time>
      </trkpt>
      <trkpt lat="43.27546" lon="-1.04452">
        <ele>180.761</ele>
        <time>2016-09-28T14:43:39Z</time>
      </trkpt>
      <trkpt lat="43.2751" lon="-1.04517">
        <ele>169.117</ele>
        <time>2016-09-28T14:44:19Z</time>
      </trkpt>
      <trkpt lat="43.27516" lon="-1.04572">
        <ele>164.208</ele>
        <time>2016-09-28T14:44:59Z</time>
      </trkpt>
      <trkpt lat="43.27449" lon="-1.04587">
        <ele>157.24</ele>
        <time>2016-09-28T14:45:39Z</time>
      </trkpt>
      <trkpt lat="43.27415" lon="-1.04609">
        <ele>152.117</ele>
        <time>2016-09-28T14:46:19Z</time>
      </trkpt>
      <trkpt lat="43.27276" lon="-1.0466">
        <ele>149.366</ele>
        <time>2016-09-28T14:46:59Z</time>
      </trkpt>
      <trkpt lat="43.2726" lon="-1.04757">
        <ele>147.565</ele>
        <time>2016-09-28T14:47:39Z</time>
      </trkpt>
      <trkpt lat="43.27174" lon="-1.04906">
        <ele>131.111</ele>
        <time>2016-09-28T14:48:19Z</time>
      </trkpt>
      <trkpt lat="43.27195" lon="-1.04945">
        <ele>129.092</ele>
        <time>2016-09-28T14:48:59Z</time>
      </trkpt>
      <trkpt lat="43.27185" lon="-1.04981">
        <ele>122.125</ele>
        <time>2016-09-28T14:49:39Z</time>
      </trkpt>
      <trkpt lat="43.27096" lon="-1.05018">
        <ele>120.584</ele>
        <time>2016-09-28T14:50:19Z</time>
      </trkpt>
      <trkpt lat="43.27049" lon="-1.04919">
        <ele>131.843</ele>
        <time>2016-09-28T14:50:59Z</time>
      </trkpt>
      <trkpt lat="43.26984" lon="-1.05045">
        <ele>149.164</ele>
        <time>2016-09-28T14:51:39Z</time>
      </trkpt>
      <trkpt lat="43.26967" lon="-1.05266">
        <ele>168.01</ele>
        <time>2016-09-28T14:52:19Z</time>
      </trkpt>
      <trkpt lat="43.26934" lon="-1.05354">
        <ele>168.708</ele>
        <time>2016-09-28T14:52:59Z</time>
      </trkpt>
      <trkpt lat="43.26885" lon="-1.05378">
        <ele>166.52</ele>
        <time>2016-09-28T14:53:39Z</time>
      </trkpt>
      <trkpt lat="43.26863" lon="-1.05378">
        <ele>166.827</ele>
        <time>2016-09-28T14:54:19Z</time>
      </trkpt>
      <trkpt lat="43.26777" lon="-1.05412">
        <ele>171.556</ele>
        <time>2016-09-28T14:54:59Z</time>
      </trkpt>
      <trkpt lat="43.26673" lon="-1.05348">
        <ele>165.825</ele>
        <time>2016-09-28T14:55:39Z</time>
      </trkpt>
      <trkpt lat="43.26642" lon="-1.05316">
        <ele>163.661</ele>
        <time>2016-09-28T14:56:19Z</time>
      </trkpt>
      <trkpt lat="43.26617" lon="-1.05329">
        <ele>163.152</ele>
        <time>2016-09-28T14:56:59Z</time>
      </trkpt>
      <trkpt lat="43.26512" lon="-1.05472">
        <ele>150.375</ele>
        <time>2016-09-28T14:57:39Z</time>
      </trkpt>
      <trkpt lat="43.26517" lon="-1.05543">
        <ele>144.434</ele>
        <time>2016-09-28T14:58:19Z</time>
      </trkpt>
      <trkpt lat="43.2644" lon="-1.05552">
        <ele>140.028</ele>
        <time>2016-09-28T14:58:59Z</time>
      </trkpt>
      <trkpt lat="43.26349" lon="-1.05696">
        <ele>130.089</ele>
        <time>2016-09-28T14:59:39Z</time>
      </trkpt>
      <trkpt lat="43.26248" lon="-1.05691">
        <ele>130.017</ele>
        <time>2016-09-28T15:00:19Z</time>
      </trkpt>
      <trkpt lat="43.26195" lon="-1.05644">
        <ele>129.508</ele>
        <time>2016-09-28T15:00:59Z</time>
      </trkpt>
      <trkpt lat="43.26143" lon="-1.05636">
        <ele>135.868</ele>
        <time>2016-09-28T15:01:39Z</time>
      </trkpt>
      <trkpt lat="43.26138" lon="-1.05839">
        <ele>154.275</ele>
        <time>2016-09-28T15:02:19Z</time>
      </trkpt>
      <trkpt lat="43.26096" lon="-1.05912">
        <ele>155.984</ele>
        <time>2016-09-28T15:02:59Z</time>
      </trkpt>
      <trkpt lat="43.26076" lon="-1.05985">
        <ele>158.943</ele>
        <time>2016-09-28T15:03:39Z</time>
      </trkpt>
      <trkpt lat="43.26032" lon="-1.06039">
        <ele>163.039</ele>
        <time>2016-09-28T15:04:19Z</time>
      </trkpt>
      <trkpt lat="43.25941" lon="-1.06357">
        <ele>172.79</ele>
        <time>2016-09-28T15:04:59Z</time>
      </trkpt>
      <trkpt lat="43.25935" lon="-1.06612">
        <ele>158.073</ele>
        <time>2016-09-28T15:05:39Z</time>
      </trkpt>
      <trkpt lat="43.25951" lon="-1.0665">
        <ele>156.512</ele>
        <time>2016-09-28T15:06:19Z</time>
      </trkpt>
      <trkpt lat="43.25926" lon="-1.067">
        <ele>149.693</ele>
        <time>2016-09-28T15:06:59Z</time>
      </trkpt>
      <trkpt lat="43.25893" lon="-1.06704">
        <ele>146.665</ele>
        <time>2016-09-28T15:07:39Z</time>
      </trkpt>
      <trkpt lat="43.25882" lon="-1.06751">
        <ele>142.221</ele>
        <time>2016-09-28T15:08:19Z</time>
      </trkpt>
      <trkpt lat="43.25685" lon="-1.06816">
        <ele>130.008</ele>
        <time>2016-09-28T15:08:59Z</time>
      </trkpt>
      <trkpt lat="43.25666" lon="-1.06848">
        <ele>130.055</ele>
        <time>2016-09-28T15:09:39Z</time>
      </trkpt>
      <trkpt lat="43.2562" lon="-1.0685">
        <ele>130.092</ele>
        <time>2016-09-28T15:10:19Z</time>
      </trkpt>
      <trkpt lat="43.2549" lon="-1.06897">
        <ele>131.661</ele>
        <time>2016-09-28T15:10:59Z</time>
      </trkpt>
      <trkpt lat="43.25509" lon="-1.06998">
        <ele>147.81</ele>
        <time>2016-09-28T15:11:39Z</time>
      </trkpt>
      <trkpt lat="43.25565" lon="-1.07163">
        <ele>156.226</ele>
        <time>2016-09-28T15:12:19Z</time>
      </trkpt>
      <trkpt lat="43.25554" lon="-1.07232">
        <ele>156.647</ele>
        <time>2016-09-28T15:12:59Z</time>
      </trkpt>
      <trkpt lat="43.25515" lon="-1.07264">
        <ele>150.75</ele>
        <time>2016-09-28T15:13:39Z</time>
      </trkpt>
      <trkpt lat="43.25491" lon="-1.07324">
        <ele>149.479</ele>
        <time>2016-09-28T15:14:19Z</time>
      </trkpt>
      <trkpt lat="43.25482" lon="-1.07425">
        <ele>152.348</ele>
        <time>2016-09-28T15:14:59Z</time>
      </trkpt>
      <trkpt lat="43.2539" lon="-1.07498">
        <ele>151.061</ele>
        <time>2016-09-28T15:15:39Z</time>
      </trkpt>
      <trkpt lat="43.2538" lon="-1.07524">
        <ele>151.617</ele>
        <time>2016-09-28T15:16:19Z</time>
      </trkpt>
      <trkpt lat="43.25318" lon="-1.0759">
        <ele>148.708</ele>
        <time>2016-09-28T15:16:59Z</time>
      </trkpt>
      <trkpt lat="43.25254" lon="-1.07644">
        <ele>141.22</ele>
        <time>2016-09-28T15:17:39Z</time>
      </trkpt>
      <trkpt lat="43.25107" lon="-1.07831">
        <ele>137.987</ele>
        <time>2016-09-28T15:18:19Z</time>
      </trkpt>
      <trkpt lat="43.25001" lon="-1.07861">
        <ele>145.986</ele>
        <time>2016-09-28T15:18:59Z</time>
      </trkpt>
      <trkpt lat="43.24933" lon="-1.0791">
        <ele>153.875</ele>
        <time>2016-09-28T15:19:39Z</time>
      </trkpt>
      <trkpt lat="43.2483" lon="-1.07929">
        <ele>162.151</ele>
        <time>2016-09-28T15:20:19Z</time>
      </trkpt>
      <trkpt lat="43.2471" lon="-1.08035">
        <ele>158.332</ele>
        <time>2016-09-28T15:20:59Z</time>
      </trkpt>
      <trkpt lat="43.24649" lon="-1.08159">
        <ele>156.525</ele>
        <time>2016-09-28T15:21:39Z</time>
      </trkpt>
      <trkpt lat="43.2464" lon="-1.08249">
        <ele>157.294</ele>
        <time>2016-09-28T15:22:19Z</time>
      </trkpt>
      <trkpt lat="43.24608" lon="-1.08352">
        <ele>148.632</ele>
        <time>2016-09-28T15:22:59Z</time>
      </trkpt>
      <trkpt lat="43.24597" lon="-1.08414">
        <ele>147.592</ele>
        <time>2016-09-28T15:23:39Z</time>
      </trkpt>
      <trkpt lat="43.24543" lon="-1.08492">
        <ele>146.511</ele>
        <time>2016-09-28T15:24:19Z</time>
      </trkpt>
      <trkpt lat="43.24441" lon="-1.08588">
        <ele>150.008</ele>
        <time>2016-09-28T15:24:59Z</time>
      </trkpt>
      <trkpt lat="43.24368" lon="-1.08698">
        <ele>145.249</ele>
        <time>2016-09-28T15:25:39Z</time>
      </trkpt>
      <trkpt lat="43.24274" lon="-1.08796">
        <ele>145.076</ele>
        <time>2016-09-28T15:26:19Z</time>
      </trkpt>
      <trkpt lat="43.2421" lon="-1.08835">
        <ele>146.125</ele>
        <time>2016-09-28T15:26:59Z</time>
      </trkpt>
      <trkpt lat="43.24127" lon="-1.08914">
        <ele>148.954</ele>
        <time>2016-09-28T15:27:39Z</time>
      </trkpt>
      <trkpt lat="43.24035" lon="-1.08953">
        <ele>150.89</ele>
        <time>2016-09-28T15:28:19Z</time>
      </trkpt>
      <trkpt lat="43.23971" lon="-1.08944">
        <ele>151.031</ele>
        <time>2016-09-28T15:28:59Z</time>
      </trkpt>
      <trkpt lat="43.23889" lon="-1.08974">
        <ele>152.124</ele>
        <time>2016-09-28T15:29:39Z</time>
      </trkpt>
      <trkpt lat="43.23786" lon="-1.08743">
        <ele>146.043</ele>
        <time>2016-09-28T15:30:19Z</time>
      </trkpt>
      <trkpt lat="43.23552" lon="-1.09185">
        <ele>152.496</ele>
        <time>2016-09-28T15:30:59Z</time>
      </trkpt>
      <trkpt lat="43.23589" lon="-1.09301">
        <ele>159.631</ele>
        <time>2016-09-28T15:31:39Z</time>
      </trkpt>
      <trkpt lat="43.23469" lon="-1.09494">
        <ele>159.624</ele>
        <time>2016-09-28T15:32:19Z</time>
      </trkpt>
      <trkpt lat="43.23459" lon="-1.09554">
        <ele>163.408</ele>
        <time>2016-09-28T15:32:59Z</time>
      </trkpt>
      <trkpt lat="43.23442" lon="-1.0961">
        <ele>166.835</ele>
        <time>2016-09-28T15:33:39Z</time>
      </trkpt>
      <trkpt lat="43.23472" lon="-1.09912">
        <ele>182.742</ele>
        <time>2016-09-28T15:34:19Z</time>
      </trkpt>
      <trkpt lat="43.23394" lon="-1.1003">
        <ele>177.791</ele>
        <time>2016-09-28T15:34:59Z</time>
      </trkpt>
      <trkpt lat="43.23316" lon="-1.10107">
        <ele>178.55</ele>
        <time>2016-09-28T15:35:39Z</time>
      </trkpt>
      <trkpt lat="43.23162" lon="-1.10187">
        <ele>173.156</ele>
        <time>2016-09-28T15:36:19Z</time>
      </trkpt>
      <trkpt lat="43.23117" lon="-1.10238">
        <ele>168.837</ele>
        <time>2016-09-28T15:36:59Z</time>
      </trkpt>
      <trkpt lat="43.231" lon="-1.1024">
        <ele>167.33</ele>
        <time>2016-09-28T15:37:39Z</time>
      </trkpt>
      <trkpt lat="43.2305" lon="-1.10391">
        <ele>159.779</ele>
        <time>2016-09-28T15:38:19Z</time>
      </trkpt>
      <trkpt lat="43.22998" lon="-1.10644">
        <ele>152.298</ele>
        <time>2016-09-28T15:38:59Z</time>
      </trkpt>
      <trkpt lat="43.22883" lon="-1.10856">
        <ele>165.815</ele>
        <time>2016-09-28T15:39:39Z</time>
      </trkpt>
      <trkpt lat="43.22862" lon="-1.10931">
        <ele>170.626</ele>
        <time>2016-09-28T15:40:19Z</time>
      </trkpt>
      <trkpt lat="43.22831" lon="-1.10938">
        <ele>169.208</ele>
        <time>2016-09-28T15:40:59Z</time>
      </trkpt>
      <trkpt lat="43.22737" lon="-1.11161">
        <ele>170.545</ele>
        <time>2016-09-28T15:41:39Z</time>
      </trkpt>
      <trkpt lat="43.22731" lon="-1.11285">
        <ele>173.812</ele>
        <time>2016-09-28T15:42:19Z</time>
      </trkpt>
      <trkpt lat="43.22703" lon="-1.11307">
        <ele>174.131</ele>
        <time>2016-09-28T15:42:59Z</time>
      </trkpt>
      <trkpt lat="43.22598" lon="-1.11493">
        <ele>183.33</ele>
        <time>2016-09-28T15:43:39Z</time>
      </trkpt>
      <trkpt lat="43.22579" lon="-1.11624">
        <ele>184.776</ele>
        <time>2016-09-28T15:44:19Z</time>
      </trkpt>
      <trkpt lat="43.22503" lon="-1.1168">
        <ele>177.687</ele>
        <time>2016-09-28T15:44:59Z</time>
      </trkpt>
      <trkpt lat="43.22489" lon="-1.11972">
        <ele>177.22</ele>
        <time>2016-09-28T15:45:39Z</time>
      </trkpt>
      <trkpt lat="43.22407" lon="-1.11972">
        <ele>171.639</ele>
        <time>2016-09-28T15:46:19Z</time>
      </trkpt>
      <trkpt lat="43.22317" lon="-1.11931">
        <ele>173.767</ele>
        <time>2016-09-28T15:46:59Z</time>
      </trkpt>
      <trkpt lat="43.22282" lon="-1.11893">
        <ele>173.381</ele>
        <time>2016-09-28T15:47:39Z</time>
      </trkpt>
      <trkpt lat="43.22202" lon="-1.11867">
        <ele>174.719</ele>
        <time>2016-09-28T15:48:19Z</time>
      </trkpt>
      <trkpt lat="43.22141" lon="-1.11895">
        <ele>171.908</ele>
        <time>2016-09-28T15:48:59Z</time>
      </trkpt>
      <trkpt lat="43.22037" lon="-1.12064">
        <ele>172.222</ele>
        <time>2016-09-28T15:49:39Z</time>
      </trkpt>
      <trkpt lat="43.21829" lon="-1.123">
        <ele>178.739</ele>
        <time>2016-09-28T15:50:19Z</time>
      </trkpt>
      <trkpt lat="43.21846" lon="-1.12343">
        <ele>181.848</ele>
        <time>2016-09-28T15:50:59Z</time>
      </trkpt>
      <trkpt lat="43.21751" lon="-1.12371">
        <ele>188.977</ele>
        <time>2016-09-28T15:51:39Z</time>
      </trkpt>
      <trkpt lat="43.21658" lon="-1.12478">
        <ele>193.123</ele>
        <time>2016-09-28T15:52:19Z</time>
      </trkpt>
      <trkpt lat="43.2163" lon="-1.12541">
        <ele>197.644</ele>
        <time>2016-09-28T15:52:59Z</time>
      </trkpt>
      <trkpt lat="43.21561" lon="-1.12601">
        <ele>198.937</ele>
        <time>2016-09-28T15:53:39Z</time>
      </trkpt>
      <trkpt lat="43.21525" lon="-1.1268">
        <ele>204.056</ele>
        <time>2016-09-28T15:54:19Z</time>
      </trkpt>
      <trkpt lat="43.21519" lon="-1.12828">
        <ele>209.342</ele>
        <time>2016-09-28T15:54:59Z</time>
      </trkpt>
      <trkpt lat="43.21474" lon="-1.12843">
        <ele>213.722</ele>
        <time>2016-09-28T15:55:39Z</time>
      </trkpt>
      <trkpt lat="43.21391" lon="-1.12985">
        <ele>220.514</ele>
        <time>2016-09-28T15:56:19Z</time>
      </trkpt>
      <trkpt lat="43.21385" lon="-1.13163">
        <ele>233.808</ele>
        <time>2016-09-28T15:56:59Z</time>
      </trkpt>
      <trkpt lat="43.21333" lon="-1.13386">
        <ele>229.77</ele>
        <time>2016-09-28T15:57:39Z</time>
      </trkpt>
      <trkpt lat="43.21208" lon="-1.13586">
        <ele>249.567</ele>
        <time>2016-09-28T15:58:19Z</time>
      </trkpt>
      <trkpt lat="43.21111" lon="-1.13676">
        <ele>264.726</ele>
        <time>2016-09-28T15:58:59Z</time>
      </trkpt>
      <trkpt lat="43.21037" lon="-1.13777">
        <ele>260.735</ele>
        <time>2016-09-28T15:59:39Z</time>
      </trkpt>
      <trkpt lat="43.20992" lon="-1.13772">
        <ele>260.151</ele>
        <time>2016-09-28T16:00:19Z</time>
      </trkpt>
      <trkpt lat="43.20834" lon="-1.13835">
        <ele>262.992</ele>
        <time>2016-09-28T16:00:59Z</time>
      </trkpt>
      <trkpt lat="43.20787" lon="-1.1388">
        <ele>262.465</ele>
        <time>2016-09-28T16:01:39Z</time>
      </trkpt>
      <trkpt lat="43.20698" lon="-1.13935">
        <ele>266.284</ele>
        <time>2016-09-28T16:02:19Z</time>
      </trkpt>
      <trkpt lat="43.20567" lon="-1.13953">
        <ele>263.882</ele>
        <time>2016-09-28T16:02:59Z</time>
      </trkpt>
      <trkpt lat="43.20435" lon="-1.13991">
        <ele>257.343</ele>
        <time>2016-09-28T16:03:39Z</time>
      </trkpt>
      <trkpt lat="43.20368" lon="-1.14094">
        <ele>250.217</ele>
        <time>2016-09-28T16:04:19Z</time>
      </trkpt>
      <trkpt lat="43.20318" lon="-1.14133">
        <ele>242.308</ele>
        <time>2016-09-28T16:04:59Z</time>
      </trkpt>
      <trkpt lat="43.20305" lon="-1.14081">
        <ele>237.984</ele>
        <time>2016-09-28T16:05:39Z</time>
      </trkpt>
      <trkpt lat="43.20282" lon="-1.14094">
        <ele>233.871</ele>
        <time>2016-09-28T16:06:19Z</time>
      </trkpt>
      <trkpt lat="43.20262" lon="-1.1415">
        <ele>231.65</ele>
        <time>2016-09-28T16:06:59Z</time>
      </trkpt>
      <trkpt lat="43.20166" lon="-1.1424">
        <ele>227.699</ele>
        <time>2016-09-28T16:07:39Z</time>
      </trkpt>
      <trkpt lat="43.20199" lon="-1.14332">
        <ele>233.475</ele>
        <time>2016-09-28T16:08:19Z</time>
      </trkpt>
      <trkpt lat="43.20166" lon="-1.14375">
        <ele>234.536</ele>
        <time>2016-09-28T16:08:59Z</time>
      </trkpt>
      <trkpt lat="43.20072" lon="-1.14412">
        <ele>233.879</ele>
        <time>2016-09-28T16:09:39Z</time>
      </trkpt>
      <trkpt lat="43.20055" lon="-1.14446">
        <ele>234.198</ele>
        <time>2016-09-28T16:10:19Z</time>
      </trkpt>
      <trkpt lat="43.20004" lon="-1.1451">
        <ele>233.369</ele>
        <time>2016-09-28T16:10:59Z</time>
      </trkpt>
      <trkpt lat="43.19979" lon="-1.14641">
        <ele>238.804</ele>
        <time>2016-09-28T16:11:39Z</time>
      </trkpt>
      <trkpt lat="43.19905" lon="-1.1477">
        <ele>237.324</ele>
        <time>2016-09-28T16:12:19Z</time>
      </trkpt>
      <trkpt lat="43.19878" lon="-1.14905">
        <ele>235.508</ele>
        <time>2016-09-28T16:12:59Z</time>
      </trkpt>
      <trkpt lat="43.19838" lon="-1.15006">
        <ele>230.342</ele>
        <time>2016-09-28T16:13:39Z</time>
      </trkpt>
      <trkpt lat="43.19869" lon="-1.15137">
        <ele>231.989</ele>
        <time>2016-09-28T16:14:19Z</time>
      </trkpt>
      <trkpt lat="43.1981" lon="-1.15264">
        <ele>230.018</ele>
        <time>2016-09-28T16:14:59Z</time>
      </trkpt>
      <trkpt lat="43.19788" lon="-1.15379">
        <ele>228.917</ele>
        <time>2016-09-28T16:15:39Z</time>
      </trkpt>
      <trkpt lat="43.19733" lon="-1.15356">
        <ele>224.893</ele>
        <time>2016-09-28T16:16:19Z</time>
      </trkpt>
      <trkpt lat="43.19672" lon="-1.15227">
        <ele>220.054</ele>
        <time>2016-09-28T16:16:59Z</time>
      </trkpt>
      <trkpt lat="43.19631" lon="-1.15197">
        <ele>218.237</ele>
        <time>2016-09-28T16:17:39Z</time>
      </trkpt>
      <trkpt lat="43.19577" lon="-1.15081">
        <ele>217.026</ele>
        <time>2016-09-28T16:18:19Z</time>
      </trkpt>
      <trkpt lat="43.19473" lon="-1.15053">
        <ele>218.067</ele>
        <time>2016-09-28T16:18:59Z</time>
      </trkpt>
      <trkpt lat="43.19415" lon="-1.14976">
        <ele>225.781</ele>
        <time>2016-09-28T16:19:39Z</time>
      </trkpt>
      <trkpt lat="43.19356" lon="-1.14933">
        <ele>227.219</ele>
        <time>2016-09-28T16:20:19Z</time>
      </trkpt>
      <trkpt lat="43.19221" lon="-1.15204">
        <ele>222.008</ele>
        <time>2016-09-28T16:20:59Z</time>
      </trkpt>
      <trkpt lat="43.19214" lon="-1.15249">
        <ele>220.752</ele>
        <time>2016-09-28T16:21:39Z</time>
      </trkpt>
      <trkpt lat="43.19153" lon="-1.15294">
        <ele>217.739</ele>
        <time>2016-09-28T16:22:19Z</time>
      </trkpt>
      <trkpt lat="43.19104" lon="-1.15296">
        <ele>221.118</ele>
        <time>2016-09-28T16:22:59Z</time>
      </trkpt>
      <trkpt lat="43.1907" lon="-1.15433">
        <ele>224.527</ele>
        <time>2016-09-28T16:23:39Z</time>
      </trkpt>
      <trkpt lat="43.19013" lon="-1.15478">
        <ele>226.993</ele>
        <time>2016-09-28T16:24:19Z</time>
      </trkpt>
      <trkpt lat="43.18926" lon="-1.15575">
        <ele>212.034</ele>
        <time>2016-09-28T16:24:59Z</time>
      </trkpt>
      <trkpt lat="43.1888" lon="-1.15538">
        <ele>215.137</ele>
        <time>2016-09-28T16:25:39Z</time>
      </trkpt>
      <trkpt lat="43.18779" lon="-1.15785">
        <ele>213.746</ele>
        <time>2016-09-28T16:26:19Z</time>
      </trkpt>
      <trkpt lat="43.18754" lon="-1.15817">
        <ele>213.034</ele>
        <time>2016-09-28T16:26:59Z</time>
      </trkpt>
      <trkpt lat="43.18732" lon="-1.15912">
        <ele>209.255</ele>
        <time>2016-09-28T16:27:39Z</time>
      </trkpt>
      <trkpt lat="43.18669" lon="-1.15894">
        <ele>209.81</ele>
        <time>2016-09-28T16:28:19Z</time>
      </trkpt>
      <trkpt lat="43.18628" lon="-1.15918">
        <ele>211.108</ele>
        <time>2016-09-28T16:28:59Z</time>
      </trkpt>
      <trkpt lat="43.18613" lon="-1.1597">
        <ele>211.899</ele>
        <time>2016-09-28T16:29:39Z</time>
      </trkpt>
      <trkpt lat="43.18527" lon="-1.15952">
        <ele>221.386</ele>
        <time>2016-09-28T16:30:19Z</time>
      </trkpt>
      <trkpt lat="43.18472" lon="-1.15985">
        <ele>225.575</ele>
        <time>2016-09-28T16:30:59Z</time>
      </trkpt>
      <trkpt lat="43.18489" lon="-1.16043">
        <ele>225.864</ele>
        <time>2016-09-28T16:31:39Z</time>
      </trkpt>
      <trkpt lat="43.18422" lon="-1.16246">
        <ele>233.55</ele>
        <time>2016-09-28T16:32:19Z</time>
      </trkpt>
      <trkpt lat="43.18386" lon="-1.16279">
        <ele>239.691</ele>
        <time>2016-09-28T16:32:59Z</time>
      </trkpt>
      <trkpt lat="43.18361" lon="-1.16321">
        <ele>238.514</ele>
        <time>2016-09-28T16:33:39Z</time>
      </trkpt>
      <trkpt lat="43.18367" lon="-1.16386">
        <ele>233.363</ele>
        <time>2016-09-28T16:34:19Z</time>
      </trkpt>
      <trkpt lat="43.18337" lon="-1.16525">
        <ele>230.861</ele>
        <time>2016-09-28T16:34:59Z</time>
      </trkpt>
      <trkpt lat="43.18336" lon="-1.166">
        <ele>224.521</ele>
        <time>2016-09-28T16:35:39Z</time>
      </trkpt>
      <trkpt lat="43.18308" lon="-1.16658">
        <ele>227.313</ele>
        <time>2016-09-28T16:36:19Z</time>
      </trkpt>
      <trkpt lat="43.18308" lon="-1.16718">
        <ele>221.108</ele>
        <time>2016-09-28T16:36:59Z</time>
      </trkpt>
      <trkpt lat="43.18295" lon="-1.16772">
        <ele>218.322</ele>
        <time>2016-09-28T16:37:39Z</time>
      </trkpt>
      <trkpt lat="43.18322" lon="-1.16839">
        <ele>212.549</ele>
        <time>2016-09-28T16:38:19Z</time>
      </trkpt>
      <trkpt lat="43.18294" lon="-1.16892">
        <ele>209.728</ele>
        <time>2016-09-28T16:38:59Z</time>
      </trkpt>
      <trkpt lat="43.18345" lon="-1.16995">
        <ele>199.037</ele>
        <time>2016-09-28T16:39:39Z</time>
      </trkpt>
      <trkpt lat="43.18258" lon="-1.16963">
        <ele>204.813</ele>
        <time>2016-09-28T16:40:19Z</time>
      </trkpt>
      <trkpt lat="43.18215" lon="-1.17008">
        <ele>211.344</ele>
        <time>2016-09-28T16:40:59Z</time>
      </trkpt>
      <trkpt lat="43.1814" lon="-1.17027">
        <ele>221.987</ele>
        <time>2016-09-28T16:41:39Z</time>
      </trkpt>
      <trkpt lat="43.18025" lon="-1.17034">
        <ele>243.226</ele>
        <time>2016-09-28T16:42:19Z</time>
      </trkpt>
      <trkpt lat="43.18007" lon="-1.17092">
        <ele>238.615</ele>
        <time>2016-09-28T16:42:59Z</time>
      </trkpt>
      <trkpt lat="43.17899" lon="-1.17124">
        <ele>247.065</ele>
        <time>2016-09-28T16:43:39Z</time>
      </trkpt>
      <trkpt lat="43.17832" lon="-1.17285">
        <ele>249.611</ele>
        <time>2016-09-28T16:44:19Z</time>
      </trkpt>
      <trkpt lat="43.17687" lon="-1.17261">
        <ele>264.708</ele>
        <time>2016-09-28T16:44:59Z</time>
      </trkpt>
      <trkpt lat="43.17572" lon="-1.17298">
        <ele>275.627</ele>
        <time>2016-09-28T16:45:39Z</time>
      </trkpt>
      <trkpt lat="43.17427" lon="-1.17242">
        <ele>253.384</ele>
        <time>2016-09-28T16:46:19Z</time>
      </trkpt>
      <trkpt lat="43.17403" lon="-1.17206">
        <ele>248.353</ele>
        <time>2016-09-28T16:46:59Z</time>
      </trkpt>
      <trkpt lat="43.1738" lon="-1.17199">
        <ele>244.372</ele>
        <time>2016-09-28T16:47:39Z</time>
      </trkpt>
      <trkpt lat="43.17361" lon="-1.17255">
        <ele>243.848</ele>
        <time>2016-09-28T16:48:19Z</time>
      </trkpt>
      <trkpt lat="43.17295" lon="-1.17246">
        <ele>233.789</ele>
        <time>2016-09-28T16:48:59Z</time>
      </trkpt>
      <trkpt lat="43.17081" lon="-1.17055">
        <ele>220.062</ele>
        <time>2016-09-28T16:49:39Z</time>
      </trkpt>
      <trkpt lat="43.16995" lon="-1.17081">
        <ele>220.631</ele>
        <time>2016-09-28T16:50:19Z</time>
      </trkpt>
      <trkpt lat="43.1687" lon="-1.1712">
        <ele>220.029</ele>
        <time>2016-09-28T16:50:59Z</time>
      </trkpt>
      <trkpt lat="43.16816" lon="-1.17115">
        <ele>220</ele>
        <time>2016-09-28T16:51:39Z</time>
      </trkpt>
      <trkpt lat="43.16693" lon="-1.17186">
        <ele>219.92</ele>
        <time>2016-09-28T16:52:19Z</time>
      </trkpt>
      <trkpt lat="43.16677" lon="-1.1721">
        <ele>219.008</ele>
        <time>2016-09-28T16:52:59Z</time>
      </trkpt>
      <trkpt lat="43.1664" lon="-1.17221">
        <ele>216.138</ele>
        <time>2016-09-28T16:53:39Z</time>
      </trkpt>
      <trkpt lat="43.16496" lon="-1.17296">
        <ele>211.035</ele>
        <time>2016-09-28T16:54:19Z</time>
      </trkpt>
      <trkpt lat="43.16474" lon="-1.17332">
        <ele>210.084</ele>
        <time>2016-09-28T16:54:59Z</time>
      </trkpt>
      <trkpt lat="43.16347" lon="-1.17414">
        <ele>210.063</ele>
        <time>2016-09-28T16:55:39Z</time>
      </trkpt>
      <trkpt lat="43.16045" lon="-1.17995">
        <ele>205.269</ele>
        <time>2016-09-28T16:56:19Z</time>
      </trkpt>
      <trkpt lat="43.16086" lon="-1.1819">
        <ele>208.64</ele>
        <time>2016-09-28T16:56:59Z</time>
      </trkpt>
      <trkpt lat="43.16153" lon="-1.18216">
        <ele>208.563</ele>
        <time>2016-09-28T16:57:39Z</time>
      </trkpt>
      <trkpt lat="43.16239" lon="-1.18523">
        <ele>220.072</ele>
        <time>2016-09-28T16:58:19Z</time>
      </trkpt>
      <trkpt lat="43.16319" lon="-1.1865">
        <ele>218.592</ele>
        <time>2016-09-28T16:58:59Z</time>
      </trkpt>
      <trkpt lat="43.16431" lon="-1.18935">
        <ele>207.773</ele>
        <time>2016-09-28T16:59:39Z</time>
      </trkpt>
      <trkpt lat="43.16444" lon="-1.19049">
        <ele>205.02</ele>
        <time>2016-09-28T17:00:19Z</time>
      </trkpt>
      <trkpt lat="43.16466" lon="-1.19115">
        <ele>204.008</ele>
        <time>2016-09-28T17:00:59Z</time>
      </trkpt>
      <trkpt lat="43.16427" lon="-1.1919">
        <ele>203.185</ele>
        <time>2016-09-28T17:01:39Z</time>
      </trkpt>
      <trkpt lat="43.16438" lon="-1.19332">
        <ele>200.032</ele>
        <time>2016-09-28T17:02:19Z</time>
      </trkpt>
      <trkpt lat="43.16588" lon="-1.19424">
        <ele>200.081</ele>
        <time>2016-09-28T17:02:59Z</time>
      </trkpt>
      <trkpt lat="43.16643" lon="-1.19489">
        <ele>200.09</ele>
        <time>2016-09-28T17:03:39Z</time>
      </trkpt>
      <trkpt lat="43.1666" lon="-1.19553">
        <ele>200.046</ele>
        <time>2016-09-28T17:04:19Z</time>
      </trkpt>
      <trkpt lat="43.16679" lon="-1.19684">
        <ele>200.097</ele>
        <time>2016-09-28T17:04:59Z</time>
      </trkpt>
      <trkpt lat="43.16708" lon="-1.19705">
        <ele>200.08</ele>
        <time>2016-09-28T17:05:39Z</time>
      </trkpt>
      <trkpt lat="43.16716" lon="-1.19858">
        <ele>200.049</ele>
        <time>2016-09-28T17:06:19Z</time>
      </trkpt>
      <trkpt lat="43.16743" lon="-1.20019">
        <ele>199.377</ele>
        <time>2016-09-28T17:06:59Z</time>
      </trkpt>
      <trkpt lat="43.16779" lon="-1.20051">
        <ele>199.261</ele>
        <time>2016-09-28T17:07:39Z</time>
      </trkpt>
      <trkpt lat="43.16765" lon="-1.201">
        <ele>198.027</ele>
        <time>2016-09-28T17:08:19Z</time>
      </trkpt>
      <trkpt lat="43.16784" lon="-1.20212">
        <ele>195.908</ele>
        <time>2016-09-28T17:08:59Z</time>
      </trkpt>
      <trkpt lat="43.16848" lon="-1.20409">
        <ele>193.033</ele>
        <time>2016-09-28T17:09:39Z</time>
      </trkpt>
      <trkpt lat="43.16898" lon="-1.20497">
        <ele>192.02</ele>
        <time>2016-09-28T17:10:19Z</time>
      </trkpt>
      <trkpt lat="43.1681" lon="-1.20654">
        <ele>190.099</ele>
        <time>2016-09-28T17:10:59Z</time>
      </trkpt>
      <trkpt lat="43.16768" lon="-1.20851">
        <ele>184.928</ele>
        <time>2016-09-28T17:11:39Z</time>
      </trkpt>
      <trkpt lat="43.16753" lon="-1.20993">
        <ele>183.024</ele>
        <time>2021-01-03T23:14:40Z</time>
      </trkpt>
      <trkpt lat="43.1672" lon="-1.21025">
        <ele>182.125</ele>
        <time>2021-01-03T23:15:00Z</time>
      </trkpt>
      <trkpt lat="43.16715" lon="-1.2106">
        <ele>182.098</ele>
        <time>2021-01-03T23:15:20Z</time>
      </trkpt>
      <trkpt lat="43.16676" lon="-1.21069">
        <ele>180.537</ele>
        <time>2021-01-03T23:15:40Z</time>
      </trkpt>
      <trkpt lat="43.16668" lon="-1.21012">
        <ele>181.075</ele>
        <time>2021-01-03T23:16:00Z</time>
      </trkpt>
      <trkpt lat="43.16533" lon="-1.21087">
        <ele>179.928</ele>
        <time>2016-09-28T17:13:39Z</time>
      </trkpt>
      <trkpt lat="43.16574" lon="-1.21388">
        <ele>174.02</ele>
        <time>2016-09-28T17:14:19Z</time>
      </trkpt>
      <trkpt lat="43.16618" lon="-1.21568">
        <ele>170.808</ele>
        <time>2016-09-28T17:14:59Z</time>
      </trkpt>
      <trkpt lat="43.16626" lon="-1.21697">
        <ele>170.033</ele>
        <time>2016-09-28T17:15:39Z</time>
      </trkpt>
      <trkpt lat="43.16563" lon="-1.21808">
        <ele>168.37</ele>
        <time>2016-09-28T17:16:19Z</time>
      </trkpt>
      <trkpt lat="43.16491" lon="-1.21903">
        <ele>167.099</ele>
        <time>2016-09-28T17:16:59Z</time>
      </trkpt>
      <trkpt lat="43.16472" lon="-1.22066">
        <ele>165.648</ele>
        <time>2016-09-28T17:17:39Z</time>
      </trkpt>
      <trkpt lat="43.16425" lon="-1.22265">
        <ele>166.274</ele>
        <time>2016-09-28T17:18:19Z</time>
      </trkpt>
      <trkpt lat="43.16431" lon="-1.22312">
        <ele>166.555</ele>
        <time>2016-09-28T17:18:59Z</time>
      </trkpt>
      <trkpt lat="43.16414" lon="-1.22403">
        <ele>168.178</ele>
        <time>2016-09-28T17:19:39Z</time>
      </trkpt>
      <trkpt lat="43.164" lon="-1.22424">
        <ele>169.587</ele>
        <time>2016-09-28T17:20:19Z</time>
      </trkpt>
      <trkpt lat="43.16327" lon="-1.22806">
        <ele>176.054</ele>
        <time>2016-09-28T17:20:59Z</time>
      </trkpt>
      <trkpt lat="43.16275" lon="-1.22911">
        <ele>177.156</ele>
        <time>2016-09-28T17:21:39Z</time>
      </trkpt>
      <trkpt lat="43.16237" lon="-1.23084">
        <ele>197.211</ele>
        <time>2016-09-28T17:22:19Z</time>
      </trkpt>
      <trkpt lat="43.16239" lon="-1.23133">
        <ele>200.908</ele>
        <time>2016-09-28T17:22:59Z</time>
      </trkpt>
      <trkpt lat="43.16366" lon="-1.23423">
        <ele>185.571</ele>
        <time>2016-09-28T17:23:39Z</time>
      </trkpt>
      <trkpt lat="43.16367" lon="-1.23489">
        <ele>182.488</ele>
        <time>2016-09-28T17:24:19Z</time>
      </trkpt>
      <trkpt lat="43.16341" lon="-1.23586">
        <ele>175.847</ele>
        <time>2016-09-28T17:24:59Z</time>
      </trkpt>
      <trkpt lat="43.16281" lon="-1.23698">
        <ele>164.886</ele>
        <time>2016-09-28T17:25:39Z</time>
      </trkpt>
      <trkpt lat="43.15965" lon="-1.23882">
        <ele>182.532</ele>
        <time>2016-09-28T17:26:19Z</time>
      </trkpt>
      <trkpt lat="43.15907" lon="-1.23886">
        <ele>187.263</ele>
        <time>2016-09-28T17:26:59Z</time>
      </trkpt>
      <trkpt lat="43.1584" lon="-1.23938">
        <ele>198.516</ele>
        <time>2016-09-28T17:27:39Z</time>
      </trkpt>
      <trkpt lat="43.15627" lon="-1.24017">
        <ele>223.085</ele>
        <time>2016-09-28T17:28:19Z</time>
      </trkpt>
      <trkpt lat="43.15538" lon="-1.24099">
        <ele>230.294</ele>
        <time>2016-09-28T17:28:59Z</time>
      </trkpt>
      <trkpt lat="43.1538" lon="-1.24174">
        <ele>258.157</ele>
        <time>2016-09-28T17:29:39Z</time>
      </trkpt>
      <trkpt lat="43.15195" lon="-1.24225">
        <ele>248.622</ele>
        <time>2016-09-28T17:30:19Z</time>
      </trkpt>
      <trkpt lat="43.15121" lon="-1.24275">
        <ele>248.108</ele>
        <time>2016-09-28T17:30:59Z</time>
      </trkpt>
      <trkpt lat="43.15041" lon="-1.24279">
        <ele>249.545</ele>
        <time>2016-09-28T17:31:39Z</time>
      </trkpt>
      <trkpt lat="43.14948" lon="-1.24251">
        <ele>250.092</ele>
        <time>2016-09-28T17:32:19Z</time>
      </trkpt>
      <trkpt lat="43.14841" lon="-1.24247">
        <ele>250.231</ele>
        <time>2016-09-28T17:32:59Z</time>
      </trkpt>
      <trkpt lat="43.14758" lon="-1.24258">
        <ele>259.32</ele>
        <time>2016-09-28T17:33:39Z</time>
      </trkpt>
      <trkpt lat="43.14674" lon="-1.24228">
        <ele>270.216</ele>
        <time>2016-09-28T17:34:19Z</time>
      </trkpt>
      <trkpt lat="43.14506" lon="-1.24047">
        <ele>281.387</ele>
        <time>2016-09-28T17:34:59Z</time>
      </trkpt>
      <trkpt lat="43.14422" lon="-1.24009">
        <ele>287.99</ele>
        <time>2016-09-28T17:35:39Z</time>
      </trkpt>
      <trkpt lat="43.14263" lon="-1.24157">
        <ele>302.499</ele>
        <time>2016-09-28T17:36:19Z</time>
      </trkpt>
      <trkpt lat="43.14121" lon="-1.24137">
        <ele>314.033</ele>
        <time>2016-09-28T17:36:59Z</time>
      </trkpt>
      <trkpt lat="43.13996" lon="-1.24045">
        <ele>316.123</ele>
        <time>2016-09-28T17:37:39Z</time>
      </trkpt>
      <trkpt lat="43.13867" lon="-1.23914">
        <ele>318.615</ele>
        <time>2016-09-28T17:38:19Z</time>
      </trkpt>
      <trkpt lat="43.13747" lon="-1.23891">
        <ele>310.008</ele>
        <time>2016-09-28T17:38:59Z</time>
      </trkpt>
      <trkpt lat="43.13643" lon="-1.23816">
        <ele>312.939</ele>
        <time>2016-09-28T17:39:39Z</time>
      </trkpt>
      <trkpt lat="43.13465" lon="-1.23811">
        <ele>315.346</ele>
        <time>2016-09-28T17:40:19Z</time>
      </trkpt>
      <trkpt lat="43.13405" lon="-1.23897">
        <ele>319.095</ele>
        <time>2016-09-28T17:40:59Z</time>
      </trkpt>
      <trkpt lat="43.13354" lon="-1.23889">
        <ele>320.324</ele>
        <time>2016-09-28T17:41:39Z</time>
      </trkpt>
      <trkpt lat="43.13304" lon="-1.23831">
        <ele>319.85</ele>
        <time>2016-09-28T17:42:19Z</time>
      </trkpt>
      <trkpt lat="43.13244" lon="-1.2385">
        <ele>329.161</ele>
        <time>2016-09-28T17:42:59Z</time>
      </trkpt>
      <trkpt lat="43.13175" lon="-1.23921">
        <ele>337.774</ele>
        <time>2016-09-28T17:43:39Z</time>
      </trkpt>
      <trkpt lat="43.13133" lon="-1.2394">
        <ele>332.623</ele>
        <time>2016-09-28T17:44:19Z</time>
      </trkpt>
      <trkpt lat="43.1308" lon="-1.24026">
        <ele>339.585</ele>
        <time>2016-09-28T17:44:59Z</time>
      </trkpt>
      <trkpt lat="43.13055" lon="-1.24116">
        <ele>349.089</ele>
        <time>2016-09-28T17:45:39Z</time>
      </trkpt>
      <trkpt lat="43.12981" lon="-1.24167">
        <ele>347.317</ele>
        <time>2016-09-28T17:46:19Z</time>
      </trkpt>
      <trkpt lat="43.12947" lon="-1.24279">
        <ele>357.908</ele>
        <time>2016-09-28T17:46:59Z</time>
      </trkpt>
      <trkpt lat="43.1299" lon="-1.24421">
        <ele>374.654</ele>
        <time>2016-09-28T17:47:39Z</time>
      </trkpt>
      <trkpt lat="43.13051" lon="-1.24543">
        <ele>385.661</ele>
        <time>2016-09-28T17:48:19Z</time>
      </trkpt>
      <trkpt lat="43.12936" lon="-1.24472">
        <ele>399.56</ele>
        <time>2016-09-28T17:48:59Z</time>
      </trkpt>
      <trkpt lat="43.12793" lon="-1.24421">
        <ele>422.629</ele>
        <time>2016-09-28T17:49:39Z</time>
      </trkpt>
      <trkpt lat="43.12665" lon="-1.24434">
        <ele>445.055</ele>
        <time>2016-09-28T17:50:19Z</time>
      </trkpt>
      <trkpt lat="43.12583" lon="-1.24464">
        <ele>463.226</ele>
        <time>2016-09-28T17:50:59Z</time>
      </trkpt>
      <trkpt lat="43.12489" lon="-1.24474">
        <ele>479.279</ele>
        <time>2016-09-28T17:51:39Z</time>
      </trkpt>
      <trkpt lat="43.12414" lon="-1.24507">
        <ele>493.728</ele>
        <time>2016-09-28T17:52:19Z</time>
      </trkpt>
      <trkpt lat="43.12298" lon="-1.24464">
        <ele>516.989</ele>
        <time>2016-09-28T17:52:59Z</time>
      </trkpt>
      <trkpt lat="43.12231" lon="-1.24404">
        <ele>529.106</ele>
        <time>2016-09-28T17:53:39Z</time>
      </trkpt>
      <trkpt lat="43.12113" lon="-1.24335">
        <ele>555.226</ele>
        <time>2016-09-28T17:54:19Z</time>
      </trkpt>
      <trkpt lat="43.12052" lon="-1.24195">
        <ele>581.308</ele>
        <time>2016-09-28T17:54:59Z</time>
      </trkpt>
      <trkpt lat="43.12038" lon="-1.24245">
        <ele>582.214</ele>
        <time>2016-09-28T17:55:39Z</time>
      </trkpt>
      <trkpt lat="43.11997" lon="-1.24266">
        <ele>594.151</ele>
        <time>2016-09-28T17:56:19Z</time>
      </trkpt>
      <trkpt lat="43.11988" lon="-1.24204">
        <ele>603.72</ele>
        <time>2016-09-28T17:56:59Z</time>
      </trkpt>
      <trkpt lat="43.12004" lon="-1.24079">
        <ele>623.559</ele>
        <time>2016-09-28T17:57:39Z</time>
      </trkpt>
      <trkpt lat="43.11897" lon="-1.24131">
        <ele>650.545</ele>
        <time>2016-09-28T17:58:19Z</time>
      </trkpt>
      <trkpt lat="43.1185" lon="-1.2412">
        <ele>655.686</ele>
        <time>2016-09-28T17:58:59Z</time>
      </trkpt>
      <trkpt lat="43.11891" lon="-1.24075">
        <ele>665.739</ele>
        <time>2016-09-28T17:59:39Z</time>
      </trkpt>
      <trkpt lat="43.11896" lon="-1.24024">
        <ele>670.358</ele>
        <time>2016-09-28T18:00:19Z</time>
      </trkpt>
      <trkpt lat="43.1188" lon="-1.23992">
        <ele>677.123</ele>
        <time>2016-09-28T18:00:59Z</time>
      </trkpt>
      <trkpt lat="43.11836" lon="-1.24007">
        <ele>687.983</ele>
        <time>2016-09-28T18:01:39Z</time>
      </trkpt>
      <trkpt lat="43.11802" lon="-1.23987">
        <ele>695.311</ele>
        <time>2016-09-28T18:02:19Z</time>
      </trkpt>
      <trkpt lat="43.11813" lon="-1.23908">
        <ele>706.108</ele>
        <time>2016-09-28T18:02:59Z</time>
      </trkpt>
      <trkpt lat="43.11783" lon="-1.23837">
        <ele>719.998</ele>
        <time>2016-09-28T18:03:39Z</time>
      </trkpt>
      <trkpt lat="43.11725" lon="-1.23813">
        <ele>734.685</ele>
        <time>2016-09-28T18:04:19Z</time>
      </trkpt>
      <trkpt lat="43.1162" lon="-1.23768">
        <ele>754.624</ele>
        <time>2016-09-28T18:04:59Z</time>
      </trkpt>
      <trkpt lat="43.11501" lon="-1.23758">
        <ele>767.293</ele>
        <time>2016-09-28T18:05:39Z</time>
      </trkpt>
      <trkpt lat="43.11426" lon="-1.23768">
        <ele>782.969</ele>
        <time>2016-09-28T18:06:19Z</time>
      </trkpt>
      <trkpt lat="43.11313" lon="-1.23725">
        <ele>794.75</ele>
        <time>2016-09-28T18:06:59Z</time>
      </trkpt>
      <trkpt lat="43.11236" lon="-1.23721">
        <ele>796.823</ele>
        <time>2016-09-28T18:07:39Z</time>
      </trkpt>
      <trkpt lat="43.11108" lon="-1.23798">
        <ele>792.152</ele>
        <time>2016-09-28T18:08:19Z</time>
      </trkpt>
      <trkpt lat="43.10986" lon="-1.2382">
        <ele>786.636</ele>
        <time>2016-09-28T18:08:59Z</time>
      </trkpt>
      <trkpt lat="43.10931" lon="-1.23863">
        <ele>791.617</ele>
        <time>2016-09-28T18:09:39Z</time>
      </trkpt>
      <trkpt lat="43.10895" lon="-1.2391">
        <ele>794.818</ele>
        <time>2016-09-28T18:10:19Z</time>
      </trkpt>
      <trkpt lat="43.1079" lon="-1.23953">
        <ele>809.508</ele>
        <time>2016-09-28T18:10:59Z</time>
      </trkpt>
      <trkpt lat="43.10655" lon="-1.23938">
        <ele>822.059</ele>
        <time>2016-09-28T18:11:39Z</time>
      </trkpt>
      <trkpt lat="43.10641" lon="-1.23813">
        <ele>825.786</ele>
        <time>2016-09-28T18:12:19Z</time>
      </trkpt>
      <trkpt lat="43.1057" lon="-1.23781">
        <ele>838.395</ele>
        <time>2016-09-28T18:12:59Z</time>
      </trkpt>
      <trkpt lat="43.10429" lon="-1.23951">
        <ele>855.174</ele>
        <time>2016-09-28T18:13:39Z</time>
      </trkpt>
      <trkpt lat="43.10375" lon="-1.23989">
        <ele>858.31</ele>
        <time>2016-09-28T18:14:19Z</time>
      </trkpt>
      <trkpt lat="43.1031" lon="-1.23996">
        <ele>862.531</ele>
        <time>2016-09-28T18:14:59Z</time>
      </trkpt>
      <trkpt lat="43.10235" lon="-1.23981">
        <ele>871.154</ele>
        <time>2016-09-28T18:15:39Z</time>
      </trkpt>
      <trkpt lat="43.10119" lon="-1.24007">
        <ele>878.763</ele>
        <time>2016-09-28T18:16:19Z</time>
      </trkpt>
      <trkpt lat="43.09986" lon="-1.24062">
        <ele>888.845</ele>
        <time>2016-09-28T18:16:59Z</time>
      </trkpt>
      <trkpt lat="43.09765" lon="-1.2414">
        <ele>916.147</ele>
        <time>2016-09-28T18:17:39Z</time>
      </trkpt>
      <trkpt lat="43.09533" lon="-1.24243">
        <ele>947.011</ele>
        <time>2016-09-28T18:18:19Z</time>
      </trkpt>
      <trkpt lat="43.09436" lon="-1.24232">
        <ele>963.908</ele>
        <time>2016-09-28T18:18:59Z</time>
      </trkpt>
      <trkpt lat="43.09377" lon="-1.24249">
        <ele>968.51</ele>
        <time>2016-09-28T18:19:39Z</time>
      </trkpt>
      <trkpt lat="43.09254" lon="-1.2432">
        <ele>985.367</ele>
        <time>2016-09-28T18:20:19Z</time>
      </trkpt>
      <trkpt lat="43.09198" lon="-1.24376">
        <ele>988.236</ele>
        <time>2016-09-28T18:20:59Z</time>
      </trkpt>
      <trkpt lat="43.09077" lon="-1.24427">
        <ele>997.575</ele>
        <time>2016-09-28T18:21:39Z</time>
      </trkpt>
      <trkpt lat="43.08955" lon="-1.2444">
        <ele>1005.071</ele>
        <time>2016-09-28T18:22:19Z</time>
      </trkpt>
      <trkpt lat="43.08839" lon="-1.24552">
        <ele>1020.572</ele>
        <time>2016-09-28T18:22:59Z</time>
      </trkpt>
      <trkpt lat="43.089" lon="-1.24588">
        <ele>1019.095</ele>
        <time>2016-09-28T18:23:39Z</time>
      </trkpt>
      <trkpt lat="43.08958" lon="-1.24663">
        <ele>1032.024</ele>
        <time>2016-09-28T18:24:19Z</time>
      </trkpt>
      <trkpt lat="43.08809" lon="-1.24867">
        <ele>1049.717</ele>
        <time>2016-09-28T18:24:59Z</time>
      </trkpt>
      <trkpt lat="43.08759" lon="-1.24991">
        <ele>1056.887</ele>
        <time>2016-09-28T18:25:39Z</time>
      </trkpt>
      <trkpt lat="43.08656" lon="-1.25028">
        <ele>1068.915</ele>
        <time>2016-09-28T18:26:19Z</time>
      </trkpt>
      <trkpt lat="43.08584" lon="-1.25165">
        <ele>1074.108</ele>
        <time>2016-09-28T18:26:59Z</time>
      </trkpt>
      <trkpt lat="43.0848" lon="-1.25221">
        <ele>1084.657</ele>
        <time>2016-09-28T18:27:39Z</time>
      </trkpt>
      <trkpt lat="43.08327" lon="-1.25193">
        <ele>1092.694</ele>
        <time>2016-09-28T18:28:19Z</time>
      </trkpt>
      <trkpt lat="43.08129" lon="-1.25204">
        <ele>1093.273</ele>
        <time>2016-09-28T18:28:59Z</time>
      </trkpt>
      <trkpt lat="43.08129" lon="-1.25204">
        <ele>1093.292</ele>
        <time>2016-09-28T18:29:39Z</time>
      </trkpt>
      <trkpt lat="43.08113" lon="-1.25315">
        <ele>1102.098</ele>
        <time>2016-09-28T18:30:19Z</time>
      </trkpt>
      <trkpt lat="43.08041" lon="-1.25528">
        <ele>1120.599</ele>
        <time>2016-09-28T18:30:59Z</time>
      </trkpt>
      <trkpt lat="43.07957" lon="-1.25661">
        <ele>1130.592</ele>
        <time>2016-09-28T18:31:39Z</time>
      </trkpt>
      <trkpt lat="43.08015" lon="-1.25738">
        <ele>1132.821</ele>
        <time>2016-09-28T18:32:19Z</time>
      </trkpt>
      <trkpt lat="43.08021" lon="-1.25835">
        <ele>1129.652</ele>
        <time>2016-09-28T18:32:59Z</time>
      </trkpt>
      <trkpt lat="43.07968" lon="-1.25959">
        <ele>1122.953</ele>
        <time>2016-09-28T18:33:39Z</time>
      </trkpt>
      <trkpt lat="43.07914" lon="-1.26024">
        <ele>1120.608</ele>
        <time>2016-09-28T18:34:19Z</time>
      </trkpt>
      <trkpt lat="43.07777" lon="-1.2624">
        <ele>1110.708</ele>
        <time>2016-09-28T18:34:59Z</time>
      </trkpt>
      <trkpt lat="43.07687" lon="-1.26305">
        <ele>1112.491</ele>
        <time>2016-09-28T18:35:39Z</time>
      </trkpt>
      <trkpt lat="43.07574" lon="-1.2633">
        <ele>1118.098</ele>
        <time>2016-09-28T18:36:19Z</time>
      </trkpt>
      <trkpt lat="43.07446" lon="-1.26541">
        <ele>1129.267</ele>
        <time>2016-09-28T18:36:59Z</time>
      </trkpt>
      <trkpt lat="43.07405" lon="-1.26639">
        <ele>1131.576</ele>
        <time>2016-09-28T18:37:39Z</time>
      </trkpt>
      <trkpt lat="43.07292" lon="-1.2668">
        <ele>1144.362</ele>
        <time>2016-09-28T18:38:19Z</time>
      </trkpt>
      <trkpt lat="43.07178" lon="-1.26657">
        <ele>1150.983</ele>
        <time>2016-09-28T18:38:59Z</time>
      </trkpt>
      <trkpt lat="43.07115" lon="-1.26678">
        <ele>1157.336</ele>
        <time>2016-09-28T18:39:39Z</time>
      </trkpt>
      <trkpt lat="43.0712" lon="-1.26833">
        <ele>1169.525</ele>
        <time>2016-09-28T18:40:19Z</time>
      </trkpt>
      <trkpt lat="43.07101" lon="-1.26899">
        <ele>1175.076</ele>
        <time>2016-09-28T18:40:59Z</time>
      </trkpt>
      <trkpt lat="43.07034" lon="-1.2694">
        <ele>1182.49</ele>
        <time>2016-09-28T18:41:39Z</time>
      </trkpt>
      <trkpt lat="43.06969" lon="-1.26942">
        <ele>1188.319</ele>
        <time>2016-09-28T18:42:19Z</time>
      </trkpt>
      <trkpt lat="43.06814" lon="-1.26899">
        <ele>1195.908</ele>
        <time>2016-09-28T18:42:59Z</time>
      </trkpt>
      <trkpt lat="43.06786" lon="-1.26867">
        <ele>1194.043</ele>
        <time>2016-09-28T18:43:39Z</time>
      </trkpt>
      <trkpt lat="43.06755" lon="-1.26787">
        <ele>1195.23</ele>
        <time>2016-09-28T18:44:19Z</time>
      </trkpt>
      <trkpt lat="43.06345" lon="-1.26644">
        <ele>1193.369</ele>
        <time>2016-09-28T18:44:59Z</time>
      </trkpt>
      <trkpt lat="43.06174" lon="-1.26697">
        <ele>1194.298</ele>
        <time>2016-09-28T18:45:39Z</time>
      </trkpt>
      <trkpt lat="43.06135" lon="-1.26835">
        <ele>1202.584</ele>
        <time>2016-09-28T18:46:19Z</time>
      </trkpt>
      <trkpt lat="43.05977" lon="-1.26811">
        <ele>1219.255</ele>
        <time>2016-09-28T18:46:59Z</time>
      </trkpt>
      <trkpt lat="43.05867" lon="-1.26727">
        <ele>1227.418</ele>
        <time>2016-09-28T18:47:39Z</time>
      </trkpt>
      <trkpt lat="43.05648" lon="-1.26629">
        <ele>1252.867</ele>
        <time>2016-09-28T18:48:19Z</time>
      </trkpt>
      <trkpt lat="43.0553" lon="-1.26562">
        <ele>1269.396</ele>
        <time>2016-09-28T18:48:59Z</time>
      </trkpt>
      <trkpt lat="43.05524" lon="-1.26622">
        <ele>1278.831</ele>
        <time>2016-09-28T18:49:39Z</time>
      </trkpt>
      <trkpt lat="43.05482" lon="-1.26682">
        <ele>1290.024</ele>
        <time>2016-09-28T18:50:19Z</time>
      </trkpt>
      <trkpt lat="43.05311" lon="-1.26749">
        <ele>1285.008</ele>
        <time>2016-09-28T18:50:59Z</time>
      </trkpt>
      <trkpt lat="43.05179" lon="-1.26768">
        <ele>1284.585</ele>
        <time>2016-09-28T18:51:39Z</time>
      </trkpt>
      <trkpt lat="43.05085" lon="-1.26809">
        <ele>1287.512</ele>
        <time>2016-09-28T18:52:19Z</time>
      </trkpt>
      <trkpt lat="43.05052" lon="-1.26841">
        <ele>1288.281</ele>
        <time>2016-09-28T18:52:59Z</time>
      </trkpt>
      <trkpt lat="43.04999" lon="-1.26809">
        <ele>1297.59</ele>
        <time>2016-09-28T18:53:39Z</time>
      </trkpt>
      <trkpt lat="43.0492" lon="-1.26667">
        <ele>1304.126</ele>
        <time>2016-09-28T18:54:19Z</time>
      </trkpt>
      <trkpt lat="43.04788" lon="-1.26517">
        <ele>1311.287</ele>
        <time>2016-09-28T18:54:59Z</time>
      </trkpt>
      <trkpt lat="43.04788" lon="-1.26517">
        <ele>1311.26</ele>
        <time>2016-09-28T18:55:39Z</time>
      </trkpt>
      <trkpt lat="43.04684" lon="-1.26476">
        <ele>1308.819</ele>
        <time>2020-04-13T16:13:16Z</time>
      </trkpt>
      <trkpt lat="43.04597" lon="-1.26476">
        <ele>1309.537</ele>
        <time>2016-09-28T18:56:19Z</time>
      </trkpt>
      <trkpt lat="43.04518" lon="-1.26489">
        <ele>1318.549</ele>
        <time>2020-04-13T16:13:56Z</time>
      </trkpt>
      <trkpt lat="43.04484" lon="-1.26519">
        <ele>1323.313</ele>
        <time>2016-09-28T18:56:59Z</time>
      </trkpt>
      <trkpt lat="43.04453" lon="-1.26691">
        <ele>1318.108</ele>
        <time>2016-09-28T18:57:39Z</time>
      </trkpt>
      <trkpt lat="43.04361" lon="-1.26858">
        <ele>1317.839</ele>
        <time>2020-04-13T16:14:56Z</time>
      </trkpt>
      <trkpt lat="43.04287" lon="-1.27154">
        <ele>1309.866</ele>
        <time>2020-04-13T16:15:16Z</time>
      </trkpt>
      <trkpt lat="43.04247" lon="-1.27382">
        <ele>1301.055</ele>
        <time>2020-04-13T16:15:36Z</time>
      </trkpt>
      <trkpt lat="43.04174" lon="-1.27704">
        <ele>1295.014</ele>
        <time>2020-04-13T16:15:56Z</time>
      </trkpt>
      <trkpt lat="43.04072" lon="-1.27932">
        <ele>1295.13</ele>
        <time>2020-04-13T16:16:16Z</time>
      </trkpt>
      <trkpt lat="43.04036" lon="-1.28101">
        <ele>1285.461</ele>
        <time>2020-04-13T16:16:36Z</time>
      </trkpt>
      <trkpt lat="43.0395" lon="-1.28216">
        <ele>1286.354</ele>
        <time>2020-04-13T16:16:56Z</time>
      </trkpt>
      <trkpt lat="43.03894" lon="-1.28224">
        <ele>1290.323</ele>
        <time>2020-04-13T16:17:16Z</time>
      </trkpt>
      <trkpt lat="43.03838" lon="-1.28359">
        <ele>1292.254</ele>
        <time>2020-04-13T16:17:36Z</time>
      </trkpt>
      <trkpt lat="43.03767" lon="-1.2875">
        <ele>1309.156</ele>
        <time>2020-04-13T16:17:56Z</time>
      </trkpt>
      <trkpt lat="43.03605" lon="-1.29164">
        <ele>1345.911</ele>
        <time>2020-04-13T16:18:16Z</time>
      </trkpt>
      <trkpt lat="43.03539" lon="-1.2919">
        <ele>1355.308</ele>
        <time>2020-04-13T16:18:36Z</time>
      </trkpt>
      <trkpt lat="43.03464" lon="-1.29152">
        <ele>1367.361</ele>
        <time>2021-01-04T00:13:20Z</time>
      </trkpt>
      <trkpt lat="43.03446" lon="-1.29181">
        <ele>1371.018</ele>
        <time>2020-04-13T16:19:16Z</time>
      </trkpt>
      <trkpt lat="43.03386" lon="-1.29187">
        <ele>1371.237</ele>
        <time>2020-04-13T16:19:36Z</time>
      </trkpt>
      <trkpt lat="43.03303" lon="-1.29161">
        <ele>1372.886</ele>
        <time>2020-04-13T16:19:56Z</time>
      </trkpt>
      <trkpt lat="43.03191" lon="-1.29268">
        <ele>1395.242</ele>
        <time>2020-04-13T16:20:16Z</time>
      </trkpt>
      <trkpt lat="43.0309" lon="-1.2939">
        <ele>1408.433</ele>
        <time>2020-04-13T16:20:36Z</time>
      </trkpt>
      <trkpt lat="43.03065" lon="-1.29499">
        <ele>1411.356</ele>
        <time>2020-04-13T16:20:56Z</time>
      </trkpt>
      <trkpt lat="43.02984" lon="-1.2962">
        <ele>1417.065</ele>
        <time>2020-04-13T16:21:16Z</time>
      </trkpt>
      <trkpt lat="43.02885" lon="-1.29611">
        <ele>1420.944</ele>
        <time>2020-04-13T16:21:36Z</time>
      </trkpt>
      <trkpt lat="43.02675" lon="-1.2953">
        <ele>1427.005</ele>
        <time>2020-04-13T16:21:56Z</time>
      </trkpt>
      <trkpt lat="43.02622" lon="-1.2954">
        <ele>1432.715</ele>
        <time>2020-04-13T16:22:16Z</time>
      </trkpt>
      <trkpt lat="43.02592" lon="-1.29602">
        <ele>1420.508</ele>
        <time>2020-04-13T16:22:36Z</time>
      </trkpt>
      <trkpt lat="43.02537" lon="-1.29672">
        <ele>1397.76</ele>
        <time>2020-04-13T16:22:56Z</time>
      </trkpt>
      <trkpt lat="43.02415" lon="-1.29777">
        <ele>1353.097</ele>
        <time>2020-04-13T16:23:16Z</time>
      </trkpt>
      <trkpt lat="43.02245" lon="-1.29855">
        <ele>1296.456</ele>
        <time>2020-04-13T16:23:36Z</time>
      </trkpt>
      <trkpt lat="43.02177" lon="-1.29834">
        <ele>1278.825</ele>
        <time>2020-04-13T16:23:56Z</time>
      </trkpt>
      <trkpt lat="43.02063" lon="-1.3001">
        <ele>1256.151</ele>
        <time>2020-04-13T16:24:16Z</time>
      </trkpt>
      <trkpt lat="43.02011" lon="-1.30037">
        <ele>1250.132</ele>
        <time>2021-01-04T00:19:00Z</time>
      </trkpt>
      <trkpt lat="43.01966" lon="-1.30034">
        <ele>1242.495</ele>
        <time>2021-01-04T00:19:20Z</time>
      </trkpt>
      <trkpt lat="43.01917" lon="-1.2997">
        <ele>1219.284</ele>
        <time>2021-01-04T00:19:40Z</time>
      </trkpt>
      <trkpt lat="43.01873" lon="-1.29965">
        <ele>1204.065</ele>
        <time>2021-01-04T00:20:00Z</time>
      </trkpt>
      <trkpt lat="43.0184" lon="-1.30004">
        <ele>1191.668</ele>
        <time>2021-01-04T00:20:20Z</time>
      </trkpt>
      <trkpt lat="43.01803" lon="-1.30114">
        <ele>1168.814</ele>
        <time>2021-01-04T00:20:40Z</time>
      </trkpt>
      <trkpt lat="43.01721" lon="-1.3021">
        <ele>1138.308</ele>
        <time>2020-04-13T16:27:56Z</time>
      </trkpt>
      <trkpt lat="43.01333" lon="-1.30799">
        <ele>1121.112</ele>
        <time>2020-04-13T16:28:56Z</time>
      </trkpt>
      <trkpt lat="43.01276" lon="-1.30886">
        <ele>1110.769</ele>
        <time>2019-03-30T20:50:12Z</time>
      </trkpt>
      <trkpt lat="43.01231" lon="-1.30906">
        <ele>1102.558</ele>
        <time>2020-04-13T16:29:36Z</time>
      </trkpt>
      <trkpt lat="43.01169" lon="-1.3086">
        <ele>1085.667</ele>
        <time>2020-04-13T16:29:56Z</time>
      </trkpt>
      <trkpt lat="43.01126" lon="-1.30802">
        <ele>1070.053</ele>
        <time>2020-04-13T16:30:16Z</time>
      </trkpt>
      <trkpt lat="43.01005" lon="-1.30805">
        <ele>1049.074</ele>
        <time>2020-04-13T16:30:36Z</time>
      </trkpt>
      <trkpt lat="43.00935" lon="-1.30841">
        <ele>1035.067</ele>
        <time>2020-04-13T16:30:56Z</time>
      </trkpt>
      <trkpt lat="43.00855" lon="-1.30958">
        <ele>1017.676</ele>
        <time>2020-04-13T16:31:36Z</time>
      </trkpt>
      <trkpt lat="43.00744" lon="-1.31182">
        <ele>993.924</ele>
        <time>2020-04-13T16:32:16Z</time>
      </trkpt>
      <trkpt lat="43.00656" lon="-1.3139">
        <ele>959.804</ele>
        <time>2021-01-04T00:24:20Z</time>
      </trkpt>
      <trkpt lat="43.00664" lon="-1.315">
        <ele>951.814</ele>
        <time>2021-01-04T00:24:40Z</time>
      </trkpt>
      <trkpt lat="43.00766" lon="-1.31693">
        <ele>944.308</ele>
        <time>2020-04-13T16:33:16Z</time>
      </trkpt>
      <trkpt lat="43.00895" lon="-1.3188">
        <ele>938.438</ele>
        <time>2020-04-13T16:33:36Z</time>
      </trkpt>
      <trkpt lat="43.00886" lon="-1.31934">
        <ele>946.015</ele>
        <time>2020-04-13T16:33:56Z</time>
      </trkpt>
      <trkpt lat="43.00833" lon="-1.31913">
        <ele>943.854</ele>
        <time>2021-01-04T00:26:00Z</time>
      </trkpt>
      <trkpt lat="43.00816" lon="-1.32008">
        <ele>944.793</ele>
        <time>2021-01-04T00:26:20Z</time>
      </trkpt>
      <trkpt lat="43.00872" lon="-1.32046">
        <ele>947.219</ele>
        <time>2021-01-04T00:26:40Z</time>
      </trkpt>
    </trkseg>
  </trk>
</gpx>